<?xml version="1.0" encoding="UTF-8" standalone="no" ?>
<gpx xmlns="http://www.topografix.com/GPX/1/1" xmlns:xsi="http://www.w3.org/2001/XMLSchema-instance" xsi:schemaLocation="http://www.topografix.com/GPX/1/1 http://www.topografix.com/GPX/1/1/gpx.xsd" version="1.1" creator="VisuGPX - https://www.visugpx.com">
  <metadata>
    <name>mont st cyr CAHORS</name>
    <desc><![CDATA[au départ du CAHORS]]></desc>
  </metadata>
  <trk>
    <name><![CDATA[Lap 1]]></name>
    <trkseg>
      <trkpt lat="44.44252" lon="1.43994">
        <ele>121</ele>
        <time>2011-03-10T08:06:18</time>
      </trkpt>
      <trkpt lat="44.44252" lon="1.43994">
        <ele>121</ele>
        <time>2011-03-10T08:06:28</time>
      </trkpt>
      <trkpt lat="44.44252" lon="1.43994">
        <ele>121</ele>
        <time>2011-03-10T08:07:56</time>
      </trkpt>
      <trkpt lat="44.44252" lon="1.43994">
        <ele>121</ele>
        <time>2011-03-10T08:07:57</time>
      </trkpt>
      <trkpt lat="44.44254" lon="1.43997">
        <ele>121</ele>
        <time>2011-03-10T08:08:03</time>
      </trkpt>
      <trkpt lat="44.44256" lon="1.43999">
        <ele>121</ele>
        <time>2011-03-10T08:08:04</time>
      </trkpt>
      <trkpt lat="44.44259" lon="1.44003">
        <ele>121</ele>
        <time>2011-03-10T08:08:05</time>
      </trkpt>
      <trkpt lat="44.44264" lon="1.44009">
        <ele>121</ele>
        <time>2011-03-10T08:08:07</time>
      </trkpt>
      <trkpt lat="44.44267" lon="1.44011">
        <ele>121</ele>
        <time>2011-03-10T08:08:09</time>
      </trkpt>
      <trkpt lat="44.44272" lon="1.4401">
        <ele>121</ele>
        <time>2011-03-10T08:08:13</time>
      </trkpt>
      <trkpt lat="44.44276" lon="1.4401">
        <ele>121</ele>
        <time>2011-03-10T08:08:18</time>
      </trkpt>
      <trkpt lat="44.44278" lon="1.44008">
        <ele>121</ele>
        <time>2011-03-10T08:08:23</time>
      </trkpt>
      <trkpt lat="44.44283" lon="1.44002">
        <ele>121</ele>
        <time>2011-03-10T08:08:29</time>
      </trkpt>
      <trkpt lat="44.44286" lon="1.44001">
        <ele>121</ele>
        <time>2011-03-10T08:08:35</time>
      </trkpt>
      <trkpt lat="44.44287" lon="1.44001">
        <ele>121</ele>
        <time>2011-03-10T08:08:37</time>
      </trkpt>
      <trkpt lat="44.44287" lon="1.44005">
        <ele>121</ele>
        <time>2011-03-10T08:08:45</time>
      </trkpt>
      <trkpt lat="44.44286" lon="1.44007">
        <ele>121</ele>
        <time>2011-03-10T08:08:49</time>
      </trkpt>
      <trkpt lat="44.44284" lon="1.4401">
        <ele>121</ele>
        <time>2011-03-10T08:08:53</time>
      </trkpt>
      <trkpt lat="44.44283" lon="1.44013">
        <ele>121</ele>
        <time>2011-03-10T08:08:57</time>
      </trkpt>
      <trkpt lat="44.44283" lon="1.44013">
        <ele>121</ele>
        <time>2011-03-10T08:09:14</time>
      </trkpt>
      <trkpt lat="44.44281" lon="1.4402">
        <ele>121</ele>
        <time>2011-03-10T08:09:18</time>
      </trkpt>
      <trkpt lat="44.44279" lon="1.44026">
        <ele>121</ele>
        <time>2011-03-10T08:09:31</time>
      </trkpt>
      <trkpt lat="44.44276" lon="1.44028">
        <ele>121</ele>
        <time>2011-03-10T08:09:43</time>
      </trkpt>
      <trkpt lat="44.44275" lon="1.44033">
        <ele>121</ele>
        <time>2011-03-10T08:09:52</time>
      </trkpt>
      <trkpt lat="44.44271" lon="1.44034">
        <ele>121</ele>
        <time>2011-03-10T08:11:33</time>
      </trkpt>
      <trkpt lat="44.44266" lon="1.44035">
        <ele>121</ele>
        <time>2011-03-10T08:11:43</time>
      </trkpt>
      <trkpt lat="44.44269" lon="1.44036">
        <ele>121</ele>
        <time>2011-03-10T08:12:20</time>
      </trkpt>
      <trkpt lat="44.44272" lon="1.4404">
        <ele>121</ele>
        <time>2011-03-10T08:12:36</time>
      </trkpt>
      <trkpt lat="44.4427" lon="1.4404">
        <ele>121</ele>
        <time>2011-03-10T08:12:43</time>
      </trkpt>
      <trkpt lat="44.44263" lon="1.4404">
        <ele>121</ele>
        <time>2011-03-10T08:12:46</time>
      </trkpt>
      <trkpt lat="44.44263" lon="1.4404">
        <ele>121</ele>
        <time>2011-03-10T08:12:47</time>
      </trkpt>
      <trkpt lat="44.44259" lon="1.44041">
        <ele>121</ele>
        <time>2011-03-10T08:12:48</time>
      </trkpt>
      <trkpt lat="44.44259" lon="1.44046">
        <ele>121</ele>
        <time>2011-03-10T08:12:50</time>
      </trkpt>
      <trkpt lat="44.4426" lon="1.4405">
        <ele>121</ele>
        <time>2011-03-10T08:12:52</time>
      </trkpt>
      <trkpt lat="44.44265" lon="1.44052">
        <ele>121</ele>
        <time>2011-03-10T08:12:54</time>
      </trkpt>
      <trkpt lat="44.44268" lon="1.4405">
        <ele>121</ele>
        <time>2011-03-10T08:12:55</time>
      </trkpt>
      <trkpt lat="44.44276" lon="1.44046">
        <ele>121</ele>
        <time>2011-03-10T08:12:57</time>
      </trkpt>
      <trkpt lat="44.4428" lon="1.44043">
        <ele>121</ele>
        <time>2011-03-10T08:12:58</time>
      </trkpt>
      <trkpt lat="44.44284" lon="1.44041">
        <ele>121</ele>
        <time>2011-03-10T08:12:59</time>
      </trkpt>
      <trkpt lat="44.44291" lon="1.44037">
        <ele>121</ele>
        <time>2011-03-10T08:13:01</time>
      </trkpt>
      <trkpt lat="44.443" lon="1.44032">
        <ele>122</ele>
        <time>2011-03-10T08:13:03</time>
      </trkpt>
      <trkpt lat="44.44309" lon="1.44028">
        <ele>122</ele>
        <time>2011-03-10T08:13:05</time>
      </trkpt>
      <trkpt lat="44.44318" lon="1.44024">
        <ele>122</ele>
        <time>2011-03-10T08:13:07</time>
      </trkpt>
      <trkpt lat="44.44329" lon="1.44018">
        <ele>122</ele>
        <time>2011-03-10T08:13:09</time>
      </trkpt>
      <trkpt lat="44.44341" lon="1.44014">
        <ele>122</ele>
        <time>2011-03-10T08:13:11</time>
      </trkpt>
      <trkpt lat="44.44351" lon="1.4401">
        <ele>122</ele>
        <time>2011-03-10T08:13:13</time>
      </trkpt>
      <trkpt lat="44.44355" lon="1.44012">
        <ele>122</ele>
        <time>2011-03-10T08:13:14</time>
      </trkpt>
      <trkpt lat="44.4436" lon="1.44022">
        <ele>122</ele>
        <time>2011-03-10T08:13:16</time>
      </trkpt>
      <trkpt lat="44.44362" lon="1.44028">
        <ele>122</ele>
        <time>2011-03-10T08:13:17</time>
      </trkpt>
      <trkpt lat="44.44363" lon="1.44036">
        <ele>122</ele>
        <time>2011-03-10T08:13:18</time>
      </trkpt>
      <trkpt lat="44.44365" lon="1.44051">
        <ele>123</ele>
        <time>2011-03-10T08:13:20</time>
      </trkpt>
      <trkpt lat="44.44368" lon="1.44066">
        <ele>123</ele>
        <time>2011-03-10T08:13:22</time>
      </trkpt>
      <trkpt lat="44.4437" lon="1.44082">
        <ele>123</ele>
        <time>2011-03-10T08:13:24</time>
      </trkpt>
      <trkpt lat="44.44372" lon="1.4409">
        <ele>123</ele>
        <time>2011-03-10T08:13:25</time>
      </trkpt>
      <trkpt lat="44.44375" lon="1.44106">
        <ele>126</ele>
        <time>2011-03-10T08:13:27</time>
      </trkpt>
      <trkpt lat="44.44377" lon="1.44114">
        <ele>126</ele>
        <time>2011-03-10T08:13:28</time>
      </trkpt>
      <trkpt lat="44.44379" lon="1.44122">
        <ele>126</ele>
        <time>2011-03-10T08:13:29</time>
      </trkpt>
      <trkpt lat="44.44381" lon="1.44139">
        <ele>125</ele>
        <time>2011-03-10T08:13:31</time>
      </trkpt>
      <trkpt lat="44.44384" lon="1.44156">
        <ele>125</ele>
        <time>2011-03-10T08:13:33</time>
      </trkpt>
      <trkpt lat="44.44387" lon="1.44171">
        <ele>125</ele>
        <time>2011-03-10T08:13:35</time>
      </trkpt>
      <trkpt lat="44.44388" lon="1.44178">
        <ele>125</ele>
        <time>2011-03-10T08:13:36</time>
      </trkpt>
      <trkpt lat="44.44391" lon="1.44191">
        <ele>125</ele>
        <time>2011-03-10T08:13:38</time>
      </trkpt>
      <trkpt lat="44.44394" lon="1.44205">
        <ele>125</ele>
        <time>2011-03-10T08:13:40</time>
      </trkpt>
      <trkpt lat="44.44397" lon="1.44219">
        <ele>128</ele>
        <time>2011-03-10T08:13:42</time>
      </trkpt>
      <trkpt lat="44.44401" lon="1.44234">
        <ele>128</ele>
        <time>2011-03-10T08:13:44</time>
      </trkpt>
      <trkpt lat="44.44404" lon="1.44247">
        <ele>128</ele>
        <time>2011-03-10T08:13:46</time>
      </trkpt>
      <trkpt lat="44.44406" lon="1.44254">
        <ele>128</ele>
        <time>2011-03-10T08:13:47</time>
      </trkpt>
      <trkpt lat="44.44409" lon="1.44268">
        <ele>128</ele>
        <time>2011-03-10T08:13:49</time>
      </trkpt>
      <trkpt lat="44.44411" lon="1.44275">
        <ele>128</ele>
        <time>2011-03-10T08:13:50</time>
      </trkpt>
      <trkpt lat="44.44413" lon="1.44289">
        <ele>128</ele>
        <time>2011-03-10T08:13:52</time>
      </trkpt>
      <trkpt lat="44.44415" lon="1.44297">
        <ele>129</ele>
        <time>2011-03-10T08:13:53</time>
      </trkpt>
      <trkpt lat="44.44417" lon="1.4431">
        <ele>129</ele>
        <time>2011-03-10T08:13:55</time>
      </trkpt>
      <trkpt lat="44.4442" lon="1.44324">
        <ele>129</ele>
        <time>2011-03-10T08:13:57</time>
      </trkpt>
      <trkpt lat="44.44421" lon="1.44332">
        <ele>129</ele>
        <time>2011-03-10T08:13:58</time>
      </trkpt>
      <trkpt lat="44.44424" lon="1.44347">
        <ele>129</ele>
        <time>2011-03-10T08:14:00</time>
      </trkpt>
      <trkpt lat="44.44427" lon="1.44362">
        <ele>129</ele>
        <time>2011-03-10T08:14:02</time>
      </trkpt>
      <trkpt lat="44.44428" lon="1.4437">
        <ele>129</ele>
        <time>2011-03-10T08:14:03</time>
      </trkpt>
      <trkpt lat="44.44431" lon="1.44385">
        <ele>125</ele>
        <time>2011-03-10T08:14:05</time>
      </trkpt>
      <trkpt lat="44.44434" lon="1.444">
        <ele>125</ele>
        <time>2011-03-10T08:14:07</time>
      </trkpt>
      <trkpt lat="44.44437" lon="1.44415">
        <ele>125</ele>
        <time>2011-03-10T08:14:09</time>
      </trkpt>
      <trkpt lat="44.44439" lon="1.44423">
        <ele>125</ele>
        <time>2011-03-10T08:14:10</time>
      </trkpt>
      <trkpt lat="44.44441" lon="1.44432">
        <ele>125</ele>
        <time>2011-03-10T08:14:11</time>
      </trkpt>
      <trkpt lat="44.44445" lon="1.44451">
        <ele>125</ele>
        <time>2011-03-10T08:14:13</time>
      </trkpt>
      <trkpt lat="44.44446" lon="1.4446">
        <ele>122</ele>
        <time>2011-03-10T08:14:14</time>
      </trkpt>
      <trkpt lat="44.44448" lon="1.44469">
        <ele>122</ele>
        <time>2011-03-10T08:14:15</time>
      </trkpt>
      <trkpt lat="44.44452" lon="1.44488">
        <ele>122</ele>
        <time>2011-03-10T08:14:17</time>
      </trkpt>
      <trkpt lat="44.44454" lon="1.44497">
        <ele>122</ele>
        <time>2011-03-10T08:14:18</time>
      </trkpt>
      <trkpt lat="44.44456" lon="1.44506">
        <ele>122</ele>
        <time>2011-03-10T08:14:19</time>
      </trkpt>
      <trkpt lat="44.44459" lon="1.4452">
        <ele>124</ele>
        <time>2011-03-10T08:14:21</time>
      </trkpt>
      <trkpt lat="44.44463" lon="1.44528">
        <ele>124</ele>
        <time>2011-03-10T08:14:23</time>
      </trkpt>
      <trkpt lat="44.44464" lon="1.44531">
        <ele>124</ele>
        <time>2011-03-10T08:14:24</time>
      </trkpt>
      <trkpt lat="44.44465" lon="1.44534">
        <ele>124</ele>
        <time>2011-03-10T08:14:25</time>
      </trkpt>
      <trkpt lat="44.44468" lon="1.44537">
        <ele>124</ele>
        <time>2011-03-10T08:14:27</time>
      </trkpt>
      <trkpt lat="44.44472" lon="1.44539">
        <ele>124</ele>
        <time>2011-03-10T08:14:29</time>
      </trkpt>
      <trkpt lat="44.44477" lon="1.4454">
        <ele>124</ele>
        <time>2011-03-10T08:14:31</time>
      </trkpt>
      <trkpt lat="44.44481" lon="1.44541">
        <ele>124</ele>
        <time>2011-03-10T08:14:32</time>
      </trkpt>
      <trkpt lat="44.4449" lon="1.44543">
        <ele>119</ele>
        <time>2011-03-10T08:14:34</time>
      </trkpt>
      <trkpt lat="44.44495" lon="1.44544">
        <ele>119</ele>
        <time>2011-03-10T08:14:35</time>
      </trkpt>
      <trkpt lat="44.44505" lon="1.44545">
        <ele>119</ele>
        <time>2011-03-10T08:14:37</time>
      </trkpt>
      <trkpt lat="44.44515" lon="1.44545">
        <ele>119</ele>
        <time>2011-03-10T08:14:39</time>
      </trkpt>
      <trkpt lat="44.4452" lon="1.44545">
        <ele>119</ele>
        <time>2011-03-10T08:14:40</time>
      </trkpt>
      <trkpt lat="44.44525" lon="1.44545">
        <ele>119</ele>
        <time>2011-03-10T08:14:41</time>
      </trkpt>
      <trkpt lat="44.44535" lon="1.44544">
        <ele>119</ele>
        <time>2011-03-10T08:14:43</time>
      </trkpt>
      <trkpt lat="44.44539" lon="1.44544">
        <ele>119</ele>
        <time>2011-03-10T08:14:44</time>
      </trkpt>
      <trkpt lat="44.44544" lon="1.44543">
        <ele>119</ele>
        <time>2011-03-10T08:14:45</time>
      </trkpt>
      <trkpt lat="44.44553" lon="1.44543">
        <ele>119</ele>
        <time>2011-03-10T08:14:47</time>
      </trkpt>
      <trkpt lat="44.44558" lon="1.44542">
        <ele>119</ele>
        <time>2011-03-10T08:14:48</time>
      </trkpt>
      <trkpt lat="44.44567" lon="1.44542">
        <ele>119</ele>
        <time>2011-03-10T08:14:50</time>
      </trkpt>
      <trkpt lat="44.44573" lon="1.44542">
        <ele>125</ele>
        <time>2011-03-10T08:14:51</time>
      </trkpt>
      <trkpt lat="44.44583" lon="1.4454">
        <ele>125</ele>
        <time>2011-03-10T08:14:53</time>
      </trkpt>
      <trkpt lat="44.44588" lon="1.44539">
        <ele>125</ele>
        <time>2011-03-10T08:14:54</time>
      </trkpt>
      <trkpt lat="44.44597" lon="1.44535">
        <ele>125</ele>
        <time>2011-03-10T08:14:56</time>
      </trkpt>
      <trkpt lat="44.44602" lon="1.44532">
        <ele>125</ele>
        <time>2011-03-10T08:14:57</time>
      </trkpt>
      <trkpt lat="44.44611" lon="1.44526">
        <ele>125</ele>
        <time>2011-03-10T08:14:59</time>
      </trkpt>
      <trkpt lat="44.44616" lon="1.44523">
        <ele>125</ele>
        <time>2011-03-10T08:15:00</time>
      </trkpt>
      <trkpt lat="44.44625" lon="1.44517">
        <ele>125</ele>
        <time>2011-03-10T08:15:02</time>
      </trkpt>
      <trkpt lat="44.4463" lon="1.44514">
        <ele>122</ele>
        <time>2011-03-10T08:15:03</time>
      </trkpt>
      <trkpt lat="44.44639" lon="1.44508">
        <ele>122</ele>
        <time>2011-03-10T08:15:05</time>
      </trkpt>
      <trkpt lat="44.44644" lon="1.44505">
        <ele>122</ele>
        <time>2011-03-10T08:15:06</time>
      </trkpt>
      <trkpt lat="44.44649" lon="1.44502">
        <ele>122</ele>
        <time>2011-03-10T08:15:07</time>
      </trkpt>
      <trkpt lat="44.44659" lon="1.44495">
        <ele>122</ele>
        <time>2011-03-10T08:15:09</time>
      </trkpt>
      <trkpt lat="44.44664" lon="1.44491">
        <ele>122</ele>
        <time>2011-03-10T08:15:10</time>
      </trkpt>
      <trkpt lat="44.44673" lon="1.44485">
        <ele>122</ele>
        <time>2011-03-10T08:15:12</time>
      </trkpt>
      <trkpt lat="44.44683" lon="1.44478">
        <ele>122</ele>
        <time>2011-03-10T08:15:14</time>
      </trkpt>
      <trkpt lat="44.44692" lon="1.44472">
        <ele>122</ele>
        <time>2011-03-10T08:15:16</time>
      </trkpt>
      <trkpt lat="44.44701" lon="1.44464">
        <ele>122</ele>
        <time>2011-03-10T08:15:18</time>
      </trkpt>
      <trkpt lat="44.44705" lon="1.44461">
        <ele>122</ele>
        <time>2011-03-10T08:15:19</time>
      </trkpt>
      <trkpt lat="44.44713" lon="1.44454">
        <ele>127</ele>
        <time>2011-03-10T08:15:21</time>
      </trkpt>
      <trkpt lat="44.44722" lon="1.44448">
        <ele>127</ele>
        <time>2011-03-10T08:15:23</time>
      </trkpt>
      <trkpt lat="44.44727" lon="1.44445">
        <ele>127</ele>
        <time>2011-03-10T08:15:24</time>
      </trkpt>
      <trkpt lat="44.44732" lon="1.44443">
        <ele>127</ele>
        <time>2011-03-10T08:15:25</time>
      </trkpt>
      <trkpt lat="44.44737" lon="1.4444">
        <ele>127</ele>
        <time>2011-03-10T08:15:26</time>
      </trkpt>
      <trkpt lat="44.44747" lon="1.44434">
        <ele>127</ele>
        <time>2011-03-10T08:15:28</time>
      </trkpt>
      <trkpt lat="44.44756" lon="1.44427">
        <ele>127</ele>
        <time>2011-03-10T08:15:30</time>
      </trkpt>
      <trkpt lat="44.44761" lon="1.44424">
        <ele>127</ele>
        <time>2011-03-10T08:15:31</time>
      </trkpt>
      <trkpt lat="44.44766" lon="1.44421">
        <ele>127</ele>
        <time>2011-03-10T08:15:32</time>
      </trkpt>
      <trkpt lat="44.44775" lon="1.44414">
        <ele>127</ele>
        <time>2011-03-10T08:15:34</time>
      </trkpt>
      <trkpt lat="44.44779" lon="1.4441">
        <ele>127</ele>
        <time>2011-03-10T08:15:35</time>
      </trkpt>
      <trkpt lat="44.44788" lon="1.44401">
        <ele>127</ele>
        <time>2011-03-10T08:15:37</time>
      </trkpt>
      <trkpt lat="44.44792" lon="1.44397">
        <ele>121</ele>
        <time>2011-03-10T08:15:38</time>
      </trkpt>
      <trkpt lat="44.44801" lon="1.44388">
        <ele>121</ele>
        <time>2011-03-10T08:15:40</time>
      </trkpt>
      <trkpt lat="44.44805" lon="1.44383">
        <ele>121</ele>
        <time>2011-03-10T08:15:41</time>
      </trkpt>
      <trkpt lat="44.44814" lon="1.44375">
        <ele>121</ele>
        <time>2011-03-10T08:15:43</time>
      </trkpt>
      <trkpt lat="44.44818" lon="1.44371">
        <ele>125</ele>
        <time>2011-03-10T08:15:44</time>
      </trkpt>
      <trkpt lat="44.44827" lon="1.44364">
        <ele>125</ele>
        <time>2011-03-10T08:15:46</time>
      </trkpt>
      <trkpt lat="44.44832" lon="1.4436">
        <ele>125</ele>
        <time>2011-03-10T08:15:47</time>
      </trkpt>
      <trkpt lat="44.44841" lon="1.44353">
        <ele>125</ele>
        <time>2011-03-10T08:15:49</time>
      </trkpt>
      <trkpt lat="44.44845" lon="1.44351">
        <ele>125</ele>
        <time>2011-03-10T08:15:50</time>
      </trkpt>
      <trkpt lat="44.4485" lon="1.44349">
        <ele>125</ele>
        <time>2011-03-10T08:15:51</time>
      </trkpt>
      <trkpt lat="44.4486" lon="1.44345">
        <ele>125</ele>
        <time>2011-03-10T08:15:53</time>
      </trkpt>
      <trkpt lat="44.44865" lon="1.44344">
        <ele>125</ele>
        <time>2011-03-10T08:15:54</time>
      </trkpt>
      <trkpt lat="44.44874" lon="1.44348">
        <ele>125</ele>
        <time>2011-03-10T08:15:56</time>
      </trkpt>
      <trkpt lat="44.44876" lon="1.44354">
        <ele>123</ele>
        <time>2011-03-10T08:15:57</time>
      </trkpt>
      <trkpt lat="44.4488" lon="1.44367">
        <ele>123</ele>
        <time>2011-03-10T08:15:59</time>
      </trkpt>
      <trkpt lat="44.44882" lon="1.44373">
        <ele>123</ele>
        <time>2011-03-10T08:16:00</time>
      </trkpt>
      <trkpt lat="44.44883" lon="1.4438">
        <ele>118</ele>
        <time>2011-03-10T08:16:01</time>
      </trkpt>
      <trkpt lat="44.44885" lon="1.44387">
        <ele>118</ele>
        <time>2011-03-10T08:16:02</time>
      </trkpt>
      <trkpt lat="44.44887" lon="1.444">
        <ele>118</ele>
        <time>2011-03-10T08:16:04</time>
      </trkpt>
      <trkpt lat="44.44888" lon="1.44407">
        <ele>118</ele>
        <time>2011-03-10T08:16:05</time>
      </trkpt>
      <trkpt lat="44.44891" lon="1.4442">
        <ele>118</ele>
        <time>2011-03-10T08:16:07</time>
      </trkpt>
      <trkpt lat="44.44894" lon="1.44433">
        <ele>118</ele>
        <time>2011-03-10T08:16:09</time>
      </trkpt>
      <trkpt lat="44.44897" lon="1.44446">
        <ele>118</ele>
        <time>2011-03-10T08:16:11</time>
      </trkpt>
      <trkpt lat="44.44898" lon="1.44453">
        <ele>118</ele>
        <time>2011-03-10T08:16:12</time>
      </trkpt>
      <trkpt lat="44.44899" lon="1.44459">
        <ele>117</ele>
        <time>2011-03-10T08:16:13</time>
      </trkpt>
      <trkpt lat="44.44901" lon="1.44466">
        <ele>117</ele>
        <time>2011-03-10T08:16:14</time>
      </trkpt>
      <trkpt lat="44.44904" lon="1.4448">
        <ele>117</ele>
        <time>2011-03-10T08:16:16</time>
      </trkpt>
      <trkpt lat="44.44907" lon="1.44494">
        <ele>117</ele>
        <time>2011-03-10T08:16:18</time>
      </trkpt>
      <trkpt lat="44.44909" lon="1.44501">
        <ele>117</ele>
        <time>2011-03-10T08:16:19</time>
      </trkpt>
      <trkpt lat="44.44911" lon="1.44508">
        <ele>117</ele>
        <time>2011-03-10T08:16:20</time>
      </trkpt>
      <trkpt lat="44.44915" lon="1.44523">
        <ele>117</ele>
        <time>2011-03-10T08:16:22</time>
      </trkpt>
      <trkpt lat="44.44917" lon="1.4453">
        <ele>117</ele>
        <time>2011-03-10T08:16:23</time>
      </trkpt>
      <trkpt lat="44.44919" lon="1.44537">
        <ele>117</ele>
        <time>2011-03-10T08:16:24</time>
      </trkpt>
      <trkpt lat="44.44922" lon="1.44551">
        <ele>120</ele>
        <time>2011-03-10T08:16:26</time>
      </trkpt>
      <trkpt lat="44.44923" lon="1.44567">
        <ele>120</ele>
        <time>2011-03-10T08:16:28</time>
      </trkpt>
      <trkpt lat="44.44923" lon="1.44583">
        <ele>120</ele>
        <time>2011-03-10T08:16:30</time>
      </trkpt>
      <trkpt lat="44.44923" lon="1.44599">
        <ele>120</ele>
        <time>2011-03-10T08:16:32</time>
      </trkpt>
      <trkpt lat="44.44922" lon="1.44615">
        <ele>120</ele>
        <time>2011-03-10T08:16:34</time>
      </trkpt>
      <trkpt lat="44.44922" lon="1.44623">
        <ele>120</ele>
        <time>2011-03-10T08:16:35</time>
      </trkpt>
      <trkpt lat="44.44923" lon="1.44639">
        <ele>121</ele>
        <time>2011-03-10T08:16:37</time>
      </trkpt>
      <trkpt lat="44.44924" lon="1.44655">
        <ele>121</ele>
        <time>2011-03-10T08:16:39</time>
      </trkpt>
      <trkpt lat="44.44925" lon="1.44663">
        <ele>121</ele>
        <time>2011-03-10T08:16:40</time>
      </trkpt>
      <trkpt lat="44.44925" lon="1.4467">
        <ele>121</ele>
        <time>2011-03-10T08:16:41</time>
      </trkpt>
      <trkpt lat="44.44927" lon="1.44684">
        <ele>121</ele>
        <time>2011-03-10T08:16:43</time>
      </trkpt>
      <trkpt lat="44.44928" lon="1.44698">
        <ele>121</ele>
        <time>2011-03-10T08:16:45</time>
      </trkpt>
      <trkpt lat="44.4493" lon="1.44712">
        <ele>120</ele>
        <time>2011-03-10T08:16:47</time>
      </trkpt>
      <trkpt lat="44.44931" lon="1.44718">
        <ele>120</ele>
        <time>2011-03-10T08:16:48</time>
      </trkpt>
      <trkpt lat="44.44932" lon="1.44732">
        <ele>120</ele>
        <time>2011-03-10T08:16:50</time>
      </trkpt>
      <trkpt lat="44.44934" lon="1.44746">
        <ele>120</ele>
        <time>2011-03-10T08:16:52</time>
      </trkpt>
      <trkpt lat="44.44936" lon="1.44759">
        <ele>120</ele>
        <time>2011-03-10T08:16:54</time>
      </trkpt>
      <trkpt lat="44.44938" lon="1.44765">
        <ele>120</ele>
        <time>2011-03-10T08:16:55</time>
      </trkpt>
      <trkpt lat="44.44939" lon="1.44771">
        <ele>120</ele>
        <time>2011-03-10T08:16:56</time>
      </trkpt>
      <trkpt lat="44.44945" lon="1.44779">
        <ele>120</ele>
        <time>2011-03-10T08:16:58</time>
      </trkpt>
      <trkpt lat="44.44951" lon="1.44778">
        <ele>120</ele>
        <time>2011-03-10T08:16:59</time>
      </trkpt>
      <trkpt lat="44.44957" lon="1.44777">
        <ele>120</ele>
        <time>2011-03-10T08:17:00</time>
      </trkpt>
      <trkpt lat="44.44964" lon="1.44776">
        <ele>120</ele>
        <time>2011-03-10T08:17:01</time>
      </trkpt>
      <trkpt lat="44.44977" lon="1.44776">
        <ele>120</ele>
        <time>2011-03-10T08:17:03</time>
      </trkpt>
      <trkpt lat="44.4499" lon="1.44776">
        <ele>120</ele>
        <time>2011-03-10T08:17:05</time>
      </trkpt>
      <trkpt lat="44.45003" lon="1.44777">
        <ele>120</ele>
        <time>2011-03-10T08:17:07</time>
      </trkpt>
      <trkpt lat="44.45016" lon="1.44778">
        <ele>120</ele>
        <time>2011-03-10T08:17:09</time>
      </trkpt>
      <trkpt lat="44.45022" lon="1.44778">
        <ele>120</ele>
        <time>2011-03-10T08:17:10</time>
      </trkpt>
      <trkpt lat="44.45034" lon="1.44778">
        <ele>120</ele>
        <time>2011-03-10T08:17:12</time>
      </trkpt>
      <trkpt lat="44.45045" lon="1.44778">
        <ele>122</ele>
        <time>2011-03-10T08:17:14</time>
      </trkpt>
      <trkpt lat="44.45056" lon="1.44777">
        <ele>122</ele>
        <time>2011-03-10T08:17:16</time>
      </trkpt>
      <trkpt lat="44.45061" lon="1.44776">
        <ele>122</ele>
        <time>2011-03-10T08:17:17</time>
      </trkpt>
      <trkpt lat="44.45072" lon="1.44774">
        <ele>122</ele>
        <time>2011-03-10T08:17:19</time>
      </trkpt>
      <trkpt lat="44.45084" lon="1.44774">
        <ele>122</ele>
        <time>2011-03-10T08:17:21</time>
      </trkpt>
      <trkpt lat="44.45095" lon="1.44774">
        <ele>122</ele>
        <time>2011-03-10T08:17:23</time>
      </trkpt>
      <trkpt lat="44.45107" lon="1.44773">
        <ele>122</ele>
        <time>2011-03-10T08:17:25</time>
      </trkpt>
      <trkpt lat="44.45118" lon="1.44772">
        <ele>122</ele>
        <time>2011-03-10T08:17:27</time>
      </trkpt>
      <trkpt lat="44.45129" lon="1.44771">
        <ele>121</ele>
        <time>2011-03-10T08:17:29</time>
      </trkpt>
      <trkpt lat="44.45134" lon="1.4477">
        <ele>121</ele>
        <time>2011-03-10T08:17:30</time>
      </trkpt>
      <trkpt lat="44.4514" lon="1.44769">
        <ele>121</ele>
        <time>2011-03-10T08:17:31</time>
      </trkpt>
      <trkpt lat="44.45151" lon="1.44768">
        <ele>121</ele>
        <time>2011-03-10T08:17:33</time>
      </trkpt>
      <trkpt lat="44.45156" lon="1.44768">
        <ele>121</ele>
        <time>2011-03-10T08:17:34</time>
      </trkpt>
      <trkpt lat="44.45162" lon="1.44768">
        <ele>121</ele>
        <time>2011-03-10T08:17:35</time>
      </trkpt>
      <trkpt lat="44.45173" lon="1.44767">
        <ele>121</ele>
        <time>2011-03-10T08:17:37</time>
      </trkpt>
      <trkpt lat="44.45178" lon="1.44766">
        <ele>121</ele>
        <time>2011-03-10T08:17:38</time>
      </trkpt>
      <trkpt lat="44.4519" lon="1.44766">
        <ele>121</ele>
        <time>2011-03-10T08:17:40</time>
      </trkpt>
      <trkpt lat="44.45201" lon="1.44765">
        <ele>121</ele>
        <time>2011-03-10T08:17:42</time>
      </trkpt>
      <trkpt lat="44.45207" lon="1.44765">
        <ele>121</ele>
        <time>2011-03-10T08:17:43</time>
      </trkpt>
      <trkpt lat="44.45217" lon="1.44766">
        <ele>121</ele>
        <time>2011-03-10T08:17:45</time>
      </trkpt>
      <trkpt lat="44.45228" lon="1.44766">
        <ele>121</ele>
        <time>2011-03-10T08:17:47</time>
      </trkpt>
      <trkpt lat="44.45239" lon="1.44766">
        <ele>121</ele>
        <time>2011-03-10T08:17:49</time>
      </trkpt>
      <trkpt lat="44.45244" lon="1.44766">
        <ele>121</ele>
        <time>2011-03-10T08:17:50</time>
      </trkpt>
      <trkpt lat="44.45255" lon="1.44766">
        <ele>121</ele>
        <time>2011-03-10T08:17:52</time>
      </trkpt>
      <trkpt lat="44.45267" lon="1.44765">
        <ele>121</ele>
        <time>2011-03-10T08:17:54</time>
      </trkpt>
      <trkpt lat="44.45278" lon="1.44765">
        <ele>121</ele>
        <time>2011-03-10T08:17:56</time>
      </trkpt>
      <trkpt lat="44.45288" lon="1.44765">
        <ele>121</ele>
        <time>2011-03-10T08:17:58</time>
      </trkpt>
      <trkpt lat="44.45299" lon="1.44765">
        <ele>121</ele>
        <time>2011-03-10T08:18:00</time>
      </trkpt>
      <trkpt lat="44.45309" lon="1.44764">
        <ele>121</ele>
        <time>2011-03-10T08:18:02</time>
      </trkpt>
      <trkpt lat="44.45314" lon="1.44763">
        <ele>121</ele>
        <time>2011-03-10T08:18:03</time>
      </trkpt>
      <trkpt lat="44.45323" lon="1.44762">
        <ele>121</ele>
        <time>2011-03-10T08:18:05</time>
      </trkpt>
      <trkpt lat="44.45332" lon="1.44762">
        <ele>121</ele>
        <time>2011-03-10T08:18:07</time>
      </trkpt>
      <trkpt lat="44.45341" lon="1.44761">
        <ele>121</ele>
        <time>2011-03-10T08:18:09</time>
      </trkpt>
      <trkpt lat="44.45346" lon="1.44761">
        <ele>121</ele>
        <time>2011-03-10T08:18:10</time>
      </trkpt>
      <trkpt lat="44.45355" lon="1.4476">
        <ele>121</ele>
        <time>2011-03-10T08:18:12</time>
      </trkpt>
      <trkpt lat="44.45363" lon="1.44759">
        <ele>121</ele>
        <time>2011-03-10T08:18:14</time>
      </trkpt>
      <trkpt lat="44.45367" lon="1.44758">
        <ele>121</ele>
        <time>2011-03-10T08:18:15</time>
      </trkpt>
      <trkpt lat="44.45375" lon="1.44756">
        <ele>121</ele>
        <time>2011-03-10T08:18:17</time>
      </trkpt>
      <trkpt lat="44.45383" lon="1.44755">
        <ele>121</ele>
        <time>2011-03-10T08:18:19</time>
      </trkpt>
      <trkpt lat="44.45386" lon="1.44755">
        <ele>121</ele>
        <time>2011-03-10T08:18:20</time>
      </trkpt>
      <trkpt lat="44.45392" lon="1.44754">
        <ele>121</ele>
        <time>2011-03-10T08:18:22</time>
      </trkpt>
      <trkpt lat="44.45397" lon="1.44754">
        <ele>121</ele>
        <time>2011-03-10T08:18:24</time>
      </trkpt>
      <trkpt lat="44.45403" lon="1.44753">
        <ele>121</ele>
        <time>2011-03-10T08:18:26</time>
      </trkpt>
      <trkpt lat="44.45407" lon="1.44753">
        <ele>121</ele>
        <time>2011-03-10T08:18:27</time>
      </trkpt>
      <trkpt lat="44.45414" lon="1.44754">
        <ele>121</ele>
        <time>2011-03-10T08:18:29</time>
      </trkpt>
      <trkpt lat="44.45423" lon="1.44754">
        <ele>121</ele>
        <time>2011-03-10T08:18:31</time>
      </trkpt>
      <trkpt lat="44.45432" lon="1.44753">
        <ele>121</ele>
        <time>2011-03-10T08:18:33</time>
      </trkpt>
      <trkpt lat="44.45437" lon="1.44753">
        <ele>121</ele>
        <time>2011-03-10T08:18:34</time>
      </trkpt>
      <trkpt lat="44.45449" lon="1.44753">
        <ele>121</ele>
        <time>2011-03-10T08:18:36</time>
      </trkpt>
      <trkpt lat="44.4546" lon="1.44753">
        <ele>124</ele>
        <time>2011-03-10T08:18:38</time>
      </trkpt>
      <trkpt lat="44.45465" lon="1.44753">
        <ele>124</ele>
        <time>2011-03-10T08:18:39</time>
      </trkpt>
      <trkpt lat="44.45477" lon="1.44752">
        <ele>124</ele>
        <time>2011-03-10T08:18:41</time>
      </trkpt>
      <trkpt lat="44.45489" lon="1.44752">
        <ele>124</ele>
        <time>2011-03-10T08:18:43</time>
      </trkpt>
      <trkpt lat="44.45494" lon="1.44752">
        <ele>124</ele>
        <time>2011-03-10T08:18:44</time>
      </trkpt>
      <trkpt lat="44.45505" lon="1.44751">
        <ele>124</ele>
        <time>2011-03-10T08:18:46</time>
      </trkpt>
      <trkpt lat="44.45515" lon="1.44751">
        <ele>124</ele>
        <time>2011-03-10T08:18:48</time>
      </trkpt>
      <trkpt lat="44.4552" lon="1.44751">
        <ele>124</ele>
        <time>2011-03-10T08:18:49</time>
      </trkpt>
      <trkpt lat="44.4553" lon="1.4475">
        <ele>124</ele>
        <time>2011-03-10T08:18:51</time>
      </trkpt>
      <trkpt lat="44.45535" lon="1.4475">
        <ele>124</ele>
        <time>2011-03-10T08:18:52</time>
      </trkpt>
      <trkpt lat="44.45539" lon="1.4475">
        <ele>124</ele>
        <time>2011-03-10T08:18:53</time>
      </trkpt>
      <trkpt lat="44.45544" lon="1.44749">
        <ele>126</ele>
        <time>2011-03-10T08:18:54</time>
      </trkpt>
      <trkpt lat="44.45554" lon="1.44749">
        <ele>126</ele>
        <time>2011-03-10T08:18:56</time>
      </trkpt>
      <trkpt lat="44.45559" lon="1.44748">
        <ele>126</ele>
        <time>2011-03-10T08:18:57</time>
      </trkpt>
      <trkpt lat="44.45568" lon="1.44748">
        <ele>126</ele>
        <time>2011-03-10T08:18:59</time>
      </trkpt>
      <trkpt lat="44.45578" lon="1.44747">
        <ele>126</ele>
        <time>2011-03-10T08:19:01</time>
      </trkpt>
      <trkpt lat="44.45588" lon="1.44746">
        <ele>126</ele>
        <time>2011-03-10T08:19:03</time>
      </trkpt>
      <trkpt lat="44.45593" lon="1.44746">
        <ele>126</ele>
        <time>2011-03-10T08:19:04</time>
      </trkpt>
      <trkpt lat="44.45603" lon="1.44746">
        <ele>126</ele>
        <time>2011-03-10T08:19:06</time>
      </trkpt>
      <trkpt lat="44.45608" lon="1.44746">
        <ele>126</ele>
        <time>2011-03-10T08:19:07</time>
      </trkpt>
      <trkpt lat="44.45617" lon="1.44746">
        <ele>126</ele>
        <time>2011-03-10T08:19:09</time>
      </trkpt>
      <trkpt lat="44.45622" lon="1.44746">
        <ele>126</ele>
        <time>2011-03-10T08:19:10</time>
      </trkpt>
      <trkpt lat="44.45631" lon="1.44745">
        <ele>127</ele>
        <time>2011-03-10T08:19:12</time>
      </trkpt>
      <trkpt lat="44.45636" lon="1.44745">
        <ele>127</ele>
        <time>2011-03-10T08:19:13</time>
      </trkpt>
      <trkpt lat="44.45645" lon="1.44744">
        <ele>127</ele>
        <time>2011-03-10T08:19:15</time>
      </trkpt>
      <trkpt lat="44.4565" lon="1.44744">
        <ele>127</ele>
        <time>2011-03-10T08:19:16</time>
      </trkpt>
      <trkpt lat="44.45661" lon="1.44745">
        <ele>127</ele>
        <time>2011-03-10T08:19:18</time>
      </trkpt>
      <trkpt lat="44.45671" lon="1.44745">
        <ele>127</ele>
        <time>2011-03-10T08:19:20</time>
      </trkpt>
      <trkpt lat="44.45676" lon="1.44745">
        <ele>127</ele>
        <time>2011-03-10T08:19:21</time>
      </trkpt>
      <trkpt lat="44.4568" lon="1.44745">
        <ele>127</ele>
        <time>2011-03-10T08:19:22</time>
      </trkpt>
      <trkpt lat="44.4569" lon="1.44745">
        <ele>127</ele>
        <time>2011-03-10T08:19:24</time>
      </trkpt>
      <trkpt lat="44.457" lon="1.44745">
        <ele>127</ele>
        <time>2011-03-10T08:19:26</time>
      </trkpt>
      <trkpt lat="44.45705" lon="1.44745">
        <ele>127</ele>
        <time>2011-03-10T08:19:27</time>
      </trkpt>
      <trkpt lat="44.45714" lon="1.44745">
        <ele>129</ele>
        <time>2011-03-10T08:19:29</time>
      </trkpt>
      <trkpt lat="44.45724" lon="1.44745">
        <ele>129</ele>
        <time>2011-03-10T08:19:31</time>
      </trkpt>
      <trkpt lat="44.45733" lon="1.44744">
        <ele>129</ele>
        <time>2011-03-10T08:19:33</time>
      </trkpt>
      <trkpt lat="44.45738" lon="1.44743">
        <ele>129</ele>
        <time>2011-03-10T08:19:34</time>
      </trkpt>
      <trkpt lat="44.45747" lon="1.44742">
        <ele>129</ele>
        <time>2011-03-10T08:19:36</time>
      </trkpt>
      <trkpt lat="44.45757" lon="1.4474">
        <ele>129</ele>
        <time>2011-03-10T08:19:38</time>
      </trkpt>
      <trkpt lat="44.45765" lon="1.4474">
        <ele>129</ele>
        <time>2011-03-10T08:19:40</time>
      </trkpt>
      <trkpt lat="44.45774" lon="1.44739">
        <ele>129</ele>
        <time>2011-03-10T08:19:42</time>
      </trkpt>
      <trkpt lat="44.45784" lon="1.44739">
        <ele>129</ele>
        <time>2011-03-10T08:19:44</time>
      </trkpt>
      <trkpt lat="44.45789" lon="1.44739">
        <ele>129</ele>
        <time>2011-03-10T08:19:45</time>
      </trkpt>
      <trkpt lat="44.45793" lon="1.44739">
        <ele>129</ele>
        <time>2011-03-10T08:19:46</time>
      </trkpt>
      <trkpt lat="44.45798" lon="1.44739">
        <ele>129</ele>
        <time>2011-03-10T08:19:47</time>
      </trkpt>
      <trkpt lat="44.45807" lon="1.4474">
        <ele>129</ele>
        <time>2011-03-10T08:19:49</time>
      </trkpt>
      <trkpt lat="44.45816" lon="1.4474">
        <ele>129</ele>
        <time>2011-03-10T08:19:51</time>
      </trkpt>
      <trkpt lat="44.4582" lon="1.44741">
        <ele>129</ele>
        <time>2011-03-10T08:19:52</time>
      </trkpt>
      <trkpt lat="44.45827" lon="1.44749">
        <ele>129</ele>
        <time>2011-03-10T08:19:54</time>
      </trkpt>
      <trkpt lat="44.45828" lon="1.44754">
        <ele>129</ele>
        <time>2011-03-10T08:19:55</time>
      </trkpt>
      <trkpt lat="44.4583" lon="1.44759">
        <ele>129</ele>
        <time>2011-03-10T08:19:56</time>
      </trkpt>
      <trkpt lat="44.45831" lon="1.44769">
        <ele>129</ele>
        <time>2011-03-10T08:19:58</time>
      </trkpt>
      <trkpt lat="44.45831" lon="1.44773">
        <ele>129</ele>
        <time>2011-03-10T08:19:59</time>
      </trkpt>
      <trkpt lat="44.45831" lon="1.44778">
        <ele>129</ele>
        <time>2011-03-10T08:20:00</time>
      </trkpt>
      <trkpt lat="44.45831" lon="1.44787">
        <ele>129</ele>
        <time>2011-03-10T08:20:02</time>
      </trkpt>
      <trkpt lat="44.45832" lon="1.44796">
        <ele>134</ele>
        <time>2011-03-10T08:20:04</time>
      </trkpt>
      <trkpt lat="44.45832" lon="1.44801">
        <ele>134</ele>
        <time>2011-03-10T08:20:05</time>
      </trkpt>
      <trkpt lat="44.45832" lon="1.44809">
        <ele>134</ele>
        <time>2011-03-10T08:20:07</time>
      </trkpt>
      <trkpt lat="44.45832" lon="1.44814">
        <ele>134</ele>
        <time>2011-03-10T08:20:08</time>
      </trkpt>
      <trkpt lat="44.45832" lon="1.44823">
        <ele>134</ele>
        <time>2011-03-10T08:20:10</time>
      </trkpt>
      <trkpt lat="44.45833" lon="1.44833">
        <ele>134</ele>
        <time>2011-03-10T08:20:12</time>
      </trkpt>
      <trkpt lat="44.45833" lon="1.44838">
        <ele>134</ele>
        <time>2011-03-10T08:20:13</time>
      </trkpt>
      <trkpt lat="44.45835" lon="1.44848">
        <ele>134</ele>
        <time>2011-03-10T08:20:15</time>
      </trkpt>
      <trkpt lat="44.45836" lon="1.44853">
        <ele>134</ele>
        <time>2011-03-10T08:20:16</time>
      </trkpt>
      <trkpt lat="44.45837" lon="1.44858">
        <ele>134</ele>
        <time>2011-03-10T08:20:17</time>
      </trkpt>
      <trkpt lat="44.45838" lon="1.44863">
        <ele>134</ele>
        <time>2011-03-10T08:20:18</time>
      </trkpt>
      <trkpt lat="44.45842" lon="1.44872">
        <ele>134</ele>
        <time>2011-03-10T08:20:20</time>
      </trkpt>
      <trkpt lat="44.45846" lon="1.44882">
        <ele>137</ele>
        <time>2011-03-10T08:20:22</time>
      </trkpt>
      <trkpt lat="44.45848" lon="1.44887">
        <ele>137</ele>
        <time>2011-03-10T08:20:23</time>
      </trkpt>
      <trkpt lat="44.45851" lon="1.44891">
        <ele>137</ele>
        <time>2011-03-10T08:20:24</time>
      </trkpt>
      <trkpt lat="44.45856" lon="1.44899">
        <ele>137</ele>
        <time>2011-03-10T08:20:26</time>
      </trkpt>
      <trkpt lat="44.45859" lon="1.44903">
        <ele>137</ele>
        <time>2011-03-10T08:20:27</time>
      </trkpt>
      <trkpt lat="44.45862" lon="1.44907">
        <ele>137</ele>
        <time>2011-03-10T08:20:28</time>
      </trkpt>
      <trkpt lat="44.4587" lon="1.44914">
        <ele>137</ele>
        <time>2011-03-10T08:20:30</time>
      </trkpt>
      <trkpt lat="44.45877" lon="1.44921">
        <ele>136</ele>
        <time>2011-03-10T08:20:32</time>
      </trkpt>
      <trkpt lat="44.45884" lon="1.44927">
        <ele>136</ele>
        <time>2011-03-10T08:20:34</time>
      </trkpt>
      <trkpt lat="44.45887" lon="1.4493">
        <ele>136</ele>
        <time>2011-03-10T08:20:35</time>
      </trkpt>
      <trkpt lat="44.4589" lon="1.44933">
        <ele>136</ele>
        <time>2011-03-10T08:20:36</time>
      </trkpt>
      <trkpt lat="44.45897" lon="1.44939">
        <ele>136</ele>
        <time>2011-03-10T08:20:38</time>
      </trkpt>
      <trkpt lat="44.459" lon="1.44942">
        <ele>136</ele>
        <time>2011-03-10T08:20:39</time>
      </trkpt>
      <trkpt lat="44.45903" lon="1.44945">
        <ele>136</ele>
        <time>2011-03-10T08:20:40</time>
      </trkpt>
      <trkpt lat="44.4591" lon="1.44951">
        <ele>136</ele>
        <time>2011-03-10T08:20:42</time>
      </trkpt>
      <trkpt lat="44.45913" lon="1.44954">
        <ele>136</ele>
        <time>2011-03-10T08:20:43</time>
      </trkpt>
      <trkpt lat="44.45916" lon="1.44957">
        <ele>136</ele>
        <time>2011-03-10T08:20:44</time>
      </trkpt>
      <trkpt lat="44.4592" lon="1.4496">
        <ele>139</ele>
        <time>2011-03-10T08:20:45</time>
      </trkpt>
      <trkpt lat="44.45926" lon="1.44966">
        <ele>139</ele>
        <time>2011-03-10T08:20:47</time>
      </trkpt>
      <trkpt lat="44.45929" lon="1.44969">
        <ele>139</ele>
        <time>2011-03-10T08:20:48</time>
      </trkpt>
      <trkpt lat="44.45935" lon="1.44976">
        <ele>139</ele>
        <time>2011-03-10T08:20:50</time>
      </trkpt>
      <trkpt lat="44.45941" lon="1.44983">
        <ele>139</ele>
        <time>2011-03-10T08:20:52</time>
      </trkpt>
      <trkpt lat="44.45944" lon="1.44987">
        <ele>139</ele>
        <time>2011-03-10T08:20:53</time>
      </trkpt>
      <trkpt lat="44.45947" lon="1.4499">
        <ele>139</ele>
        <time>2011-03-10T08:20:54</time>
      </trkpt>
      <trkpt lat="44.45953" lon="1.44997">
        <ele>139</ele>
        <time>2011-03-10T08:20:56</time>
      </trkpt>
      <trkpt lat="44.4596" lon="1.45003">
        <ele>140</ele>
        <time>2011-03-10T08:20:58</time>
      </trkpt>
      <trkpt lat="44.45963" lon="1.45006">
        <ele>140</ele>
        <time>2011-03-10T08:20:59</time>
      </trkpt>
      <trkpt lat="44.45969" lon="1.45012">
        <ele>140</ele>
        <time>2011-03-10T08:21:01</time>
      </trkpt>
      <trkpt lat="44.45972" lon="1.45015">
        <ele>140</ele>
        <time>2011-03-10T08:21:02</time>
      </trkpt>
      <trkpt lat="44.45975" lon="1.45018">
        <ele>140</ele>
        <time>2011-03-10T08:21:03</time>
      </trkpt>
      <trkpt lat="44.45982" lon="1.45024">
        <ele>140</ele>
        <time>2011-03-10T08:21:05</time>
      </trkpt>
      <trkpt lat="44.45985" lon="1.45027">
        <ele>140</ele>
        <time>2011-03-10T08:21:06</time>
      </trkpt>
      <trkpt lat="44.45988" lon="1.4503">
        <ele>140</ele>
        <time>2011-03-10T08:21:07</time>
      </trkpt>
      <trkpt lat="44.45994" lon="1.45035">
        <ele>140</ele>
        <time>2011-03-10T08:21:09</time>
      </trkpt>
      <trkpt lat="44.45998" lon="1.45038">
        <ele>140</ele>
        <time>2011-03-10T08:21:10</time>
      </trkpt>
      <trkpt lat="44.46004" lon="1.45044">
        <ele>141</ele>
        <time>2011-03-10T08:21:12</time>
      </trkpt>
      <trkpt lat="44.46011" lon="1.4505">
        <ele>141</ele>
        <time>2011-03-10T08:21:14</time>
      </trkpt>
      <trkpt lat="44.46017" lon="1.45055">
        <ele>141</ele>
        <time>2011-03-10T08:21:16</time>
      </trkpt>
      <trkpt lat="44.46024" lon="1.4506">
        <ele>141</ele>
        <time>2011-03-10T08:21:18</time>
      </trkpt>
      <trkpt lat="44.46031" lon="1.45065">
        <ele>141</ele>
        <time>2011-03-10T08:21:20</time>
      </trkpt>
      <trkpt lat="44.46038" lon="1.45069">
        <ele>141</ele>
        <time>2011-03-10T08:21:22</time>
      </trkpt>
      <trkpt lat="44.46045" lon="1.45073">
        <ele>141</ele>
        <time>2011-03-10T08:21:24</time>
      </trkpt>
      <trkpt lat="44.46048" lon="1.45076">
        <ele>141</ele>
        <time>2011-03-10T08:21:25</time>
      </trkpt>
      <trkpt lat="44.46051" lon="1.45078">
        <ele>141</ele>
        <time>2011-03-10T08:21:26</time>
      </trkpt>
      <trkpt lat="44.46058" lon="1.45082">
        <ele>141</ele>
        <time>2011-03-10T08:21:28</time>
      </trkpt>
      <trkpt lat="44.46065" lon="1.45085">
        <ele>141</ele>
        <time>2011-03-10T08:21:30</time>
      </trkpt>
      <trkpt lat="44.46069" lon="1.45087">
        <ele>141</ele>
        <time>2011-03-10T08:21:31</time>
      </trkpt>
      <trkpt lat="44.46076" lon="1.4509">
        <ele>141</ele>
        <time>2011-03-10T08:21:33</time>
      </trkpt>
      <trkpt lat="44.4608" lon="1.45092">
        <ele>141</ele>
        <time>2011-03-10T08:21:34</time>
      </trkpt>
      <trkpt lat="44.46083" lon="1.45094">
        <ele>141</ele>
        <time>2011-03-10T08:21:35</time>
      </trkpt>
      <trkpt lat="44.4609" lon="1.45097">
        <ele>141</ele>
        <time>2011-03-10T08:21:37</time>
      </trkpt>
      <trkpt lat="44.46098" lon="1.451">
        <ele>141</ele>
        <time>2011-03-10T08:21:39</time>
      </trkpt>
      <trkpt lat="44.46101" lon="1.45101">
        <ele>141</ele>
        <time>2011-03-10T08:21:40</time>
      </trkpt>
      <trkpt lat="44.46108" lon="1.45103">
        <ele>141</ele>
        <time>2011-03-10T08:21:42</time>
      </trkpt>
      <trkpt lat="44.46111" lon="1.45104">
        <ele>141</ele>
        <time>2011-03-10T08:21:43</time>
      </trkpt>
      <trkpt lat="44.46115" lon="1.45105">
        <ele>141</ele>
        <time>2011-03-10T08:21:44</time>
      </trkpt>
      <trkpt lat="44.46119" lon="1.45106">
        <ele>141</ele>
        <time>2011-03-10T08:21:45</time>
      </trkpt>
      <trkpt lat="44.46126" lon="1.45107">
        <ele>143</ele>
        <time>2011-03-10T08:21:47</time>
      </trkpt>
      <trkpt lat="44.46129" lon="1.45109">
        <ele>143</ele>
        <time>2011-03-10T08:21:48</time>
      </trkpt>
      <trkpt lat="44.46137" lon="1.45112">
        <ele>143</ele>
        <time>2011-03-10T08:21:50</time>
      </trkpt>
      <trkpt lat="44.4614" lon="1.45113">
        <ele>143</ele>
        <time>2011-03-10T08:21:51</time>
      </trkpt>
      <trkpt lat="44.46147" lon="1.45116">
        <ele>143</ele>
        <time>2011-03-10T08:21:53</time>
      </trkpt>
      <trkpt lat="44.46155" lon="1.45118">
        <ele>143</ele>
        <time>2011-03-10T08:21:55</time>
      </trkpt>
      <trkpt lat="44.46162" lon="1.45119">
        <ele>143</ele>
        <time>2011-03-10T08:21:57</time>
      </trkpt>
      <trkpt lat="44.46166" lon="1.45121">
        <ele>143</ele>
        <time>2011-03-10T08:21:58</time>
      </trkpt>
      <trkpt lat="44.4617" lon="1.45122">
        <ele>143</ele>
        <time>2011-03-10T08:21:59</time>
      </trkpt>
      <trkpt lat="44.46176" lon="1.45128">
        <ele>143</ele>
        <time>2011-03-10T08:22:01</time>
      </trkpt>
      <trkpt lat="44.46181" lon="1.45136">
        <ele>143</ele>
        <time>2011-03-10T08:22:03</time>
      </trkpt>
      <trkpt lat="44.46184" lon="1.45146">
        <ele>143</ele>
        <time>2011-03-10T08:22:05</time>
      </trkpt>
      <trkpt lat="44.46185" lon="1.45157">
        <ele>143</ele>
        <time>2011-03-10T08:22:07</time>
      </trkpt>
      <trkpt lat="44.46185" lon="1.45162">
        <ele>143</ele>
        <time>2011-03-10T08:22:08</time>
      </trkpt>
      <trkpt lat="44.46184" lon="1.45172">
        <ele>143</ele>
        <time>2011-03-10T08:22:10</time>
      </trkpt>
      <trkpt lat="44.46182" lon="1.45182">
        <ele>143</ele>
        <time>2011-03-10T08:22:12</time>
      </trkpt>
      <trkpt lat="44.46181" lon="1.45191">
        <ele>143</ele>
        <time>2011-03-10T08:22:14</time>
      </trkpt>
      <trkpt lat="44.46179" lon="1.452">
        <ele>143</ele>
        <time>2011-03-10T08:22:16</time>
      </trkpt>
      <trkpt lat="44.46177" lon="1.45209">
        <ele>145</ele>
        <time>2011-03-10T08:22:18</time>
      </trkpt>
      <trkpt lat="44.46176" lon="1.45214">
        <ele>145</ele>
        <time>2011-03-10T08:22:19</time>
      </trkpt>
      <trkpt lat="44.46173" lon="1.45223">
        <ele>145</ele>
        <time>2011-03-10T08:22:21</time>
      </trkpt>
      <trkpt lat="44.46172" lon="1.45228">
        <ele>145</ele>
        <time>2011-03-10T08:22:22</time>
      </trkpt>
      <trkpt lat="44.4617" lon="1.45238">
        <ele>145</ele>
        <time>2011-03-10T08:22:24</time>
      </trkpt>
      <trkpt lat="44.46169" lon="1.45248">
        <ele>145</ele>
        <time>2011-03-10T08:22:26</time>
      </trkpt>
      <trkpt lat="44.46167" lon="1.45258">
        <ele>145</ele>
        <time>2011-03-10T08:22:28</time>
      </trkpt>
      <trkpt lat="44.46166" lon="1.45268">
        <ele>145</ele>
        <time>2011-03-10T08:22:30</time>
      </trkpt>
      <trkpt lat="44.46164" lon="1.45278">
        <ele>145</ele>
        <time>2011-03-10T08:22:32</time>
      </trkpt>
      <trkpt lat="44.46162" lon="1.45287">
        <ele>145</ele>
        <time>2011-03-10T08:22:34</time>
      </trkpt>
      <trkpt lat="44.4616" lon="1.45297">
        <ele>147</ele>
        <time>2011-03-10T08:22:36</time>
      </trkpt>
      <trkpt lat="44.46159" lon="1.45301">
        <ele>147</ele>
        <time>2011-03-10T08:22:37</time>
      </trkpt>
      <trkpt lat="44.46158" lon="1.45305">
        <ele>147</ele>
        <time>2011-03-10T08:22:38</time>
      </trkpt>
      <trkpt lat="44.46156" lon="1.45315">
        <ele>147</ele>
        <time>2011-03-10T08:22:40</time>
      </trkpt>
      <trkpt lat="44.46155" lon="1.4532">
        <ele>147</ele>
        <time>2011-03-10T08:22:41</time>
      </trkpt>
      <trkpt lat="44.46153" lon="1.45329">
        <ele>147</ele>
        <time>2011-03-10T08:22:43</time>
      </trkpt>
      <trkpt lat="44.46151" lon="1.45339">
        <ele>147</ele>
        <time>2011-03-10T08:22:45</time>
      </trkpt>
      <trkpt lat="44.4615" lon="1.45348">
        <ele>147</ele>
        <time>2011-03-10T08:22:47</time>
      </trkpt>
      <trkpt lat="44.46149" lon="1.45353">
        <ele>147</ele>
        <time>2011-03-10T08:22:48</time>
      </trkpt>
      <trkpt lat="44.46148" lon="1.45363">
        <ele>147</ele>
        <time>2011-03-10T08:22:50</time>
      </trkpt>
      <trkpt lat="44.46147" lon="1.45367">
        <ele>147</ele>
        <time>2011-03-10T08:22:51</time>
      </trkpt>
      <trkpt lat="44.46145" lon="1.45376">
        <ele>150</ele>
        <time>2011-03-10T08:22:53</time>
      </trkpt>
      <trkpt lat="44.46144" lon="1.4538">
        <ele>150</ele>
        <time>2011-03-10T08:22:54</time>
      </trkpt>
      <trkpt lat="44.46141" lon="1.45388">
        <ele>150</ele>
        <time>2011-03-10T08:22:56</time>
      </trkpt>
      <trkpt lat="44.4614" lon="1.45392">
        <ele>150</ele>
        <time>2011-03-10T08:22:57</time>
      </trkpt>
      <trkpt lat="44.46138" lon="1.454">
        <ele>150</ele>
        <time>2011-03-10T08:22:59</time>
      </trkpt>
      <trkpt lat="44.46137" lon="1.45405">
        <ele>150</ele>
        <time>2011-03-10T08:23:00</time>
      </trkpt>
      <trkpt lat="44.46135" lon="1.45414">
        <ele>150</ele>
        <time>2011-03-10T08:23:02</time>
      </trkpt>
      <trkpt lat="44.46135" lon="1.45418">
        <ele>150</ele>
        <time>2011-03-10T08:23:03</time>
      </trkpt>
      <trkpt lat="44.46136" lon="1.45423">
        <ele>150</ele>
        <time>2011-03-10T08:23:04</time>
      </trkpt>
      <trkpt lat="44.4614" lon="1.45431">
        <ele>150</ele>
        <time>2011-03-10T08:23:06</time>
      </trkpt>
      <trkpt lat="44.46144" lon="1.45438">
        <ele>150</ele>
        <time>2011-03-10T08:23:08</time>
      </trkpt>
      <trkpt lat="44.4615" lon="1.45444">
        <ele>150</ele>
        <time>2011-03-10T08:23:10</time>
      </trkpt>
      <trkpt lat="44.46152" lon="1.45447">
        <ele>150</ele>
        <time>2011-03-10T08:23:11</time>
      </trkpt>
      <trkpt lat="44.46158" lon="1.45452">
        <ele>150</ele>
        <time>2011-03-10T08:23:13</time>
      </trkpt>
      <trkpt lat="44.46163" lon="1.45456">
        <ele>150</ele>
        <time>2011-03-10T08:23:15</time>
      </trkpt>
      <trkpt lat="44.46166" lon="1.45458">
        <ele>150</ele>
        <time>2011-03-10T08:23:16</time>
      </trkpt>
      <trkpt lat="44.46168" lon="1.4546">
        <ele>151</ele>
        <time>2011-03-10T08:23:17</time>
      </trkpt>
      <trkpt lat="44.46173" lon="1.45465">
        <ele>151</ele>
        <time>2011-03-10T08:23:19</time>
      </trkpt>
      <trkpt lat="44.46179" lon="1.45469">
        <ele>151</ele>
        <time>2011-03-10T08:23:21</time>
      </trkpt>
      <trkpt lat="44.46186" lon="1.45473">
        <ele>151</ele>
        <time>2011-03-10T08:23:23</time>
      </trkpt>
      <trkpt lat="44.46191" lon="1.45478">
        <ele>151</ele>
        <time>2011-03-10T08:23:25</time>
      </trkpt>
      <trkpt lat="44.46197" lon="1.45484">
        <ele>151</ele>
        <time>2011-03-10T08:23:27</time>
      </trkpt>
      <trkpt lat="44.46202" lon="1.45488">
        <ele>151</ele>
        <time>2011-03-10T08:23:29</time>
      </trkpt>
      <trkpt lat="44.46205" lon="1.4549">
        <ele>151</ele>
        <time>2011-03-10T08:23:30</time>
      </trkpt>
      <trkpt lat="44.46211" lon="1.45495">
        <ele>152</ele>
        <time>2011-03-10T08:23:32</time>
      </trkpt>
      <trkpt lat="44.46217" lon="1.455">
        <ele>152</ele>
        <time>2011-03-10T08:23:34</time>
      </trkpt>
      <trkpt lat="44.46223" lon="1.45504">
        <ele>152</ele>
        <time>2011-03-10T08:23:36</time>
      </trkpt>
      <trkpt lat="44.46228" lon="1.4551">
        <ele>152</ele>
        <time>2011-03-10T08:23:38</time>
      </trkpt>
      <trkpt lat="44.46233" lon="1.45515">
        <ele>152</ele>
        <time>2011-03-10T08:23:40</time>
      </trkpt>
      <trkpt lat="44.46237" lon="1.4552">
        <ele>152</ele>
        <time>2011-03-10T08:23:42</time>
      </trkpt>
      <trkpt lat="44.4624" lon="1.45523">
        <ele>152</ele>
        <time>2011-03-10T08:23:43</time>
      </trkpt>
      <trkpt lat="44.46243" lon="1.45525">
        <ele>152</ele>
        <time>2011-03-10T08:23:44</time>
      </trkpt>
      <trkpt lat="44.46248" lon="1.45531">
        <ele>152</ele>
        <time>2011-03-10T08:23:46</time>
      </trkpt>
      <trkpt lat="44.46251" lon="1.45538">
        <ele>152</ele>
        <time>2011-03-10T08:23:48</time>
      </trkpt>
      <trkpt lat="44.46251" lon="1.45542">
        <ele>152</ele>
        <time>2011-03-10T08:23:49</time>
      </trkpt>
      <trkpt lat="44.46251" lon="1.45546">
        <ele>152</ele>
        <time>2011-03-10T08:23:50</time>
      </trkpt>
      <trkpt lat="44.46248" lon="1.45552">
        <ele>152</ele>
        <time>2011-03-10T08:23:52</time>
      </trkpt>
      <trkpt lat="44.46245" lon="1.45558">
        <ele>152</ele>
        <time>2011-03-10T08:23:58</time>
      </trkpt>
      <trkpt lat="44.46243" lon="1.45567">
        <ele>152</ele>
        <time>2011-03-10T08:24:02</time>
      </trkpt>
      <trkpt lat="44.4624" lon="1.45573">
        <ele>152</ele>
        <time>2011-03-10T08:24:04</time>
      </trkpt>
      <trkpt lat="44.46238" lon="1.45577">
        <ele>152</ele>
        <time>2011-03-10T08:24:05</time>
      </trkpt>
      <trkpt lat="44.46235" lon="1.45583">
        <ele>152</ele>
        <time>2011-03-10T08:24:07</time>
      </trkpt>
      <trkpt lat="44.46231" lon="1.4559">
        <ele>152</ele>
        <time>2011-03-10T08:24:09</time>
      </trkpt>
      <trkpt lat="44.46229" lon="1.45593">
        <ele>152</ele>
        <time>2011-03-10T08:24:10</time>
      </trkpt>
      <trkpt lat="44.46227" lon="1.45596">
        <ele>152</ele>
        <time>2011-03-10T08:24:11</time>
      </trkpt>
      <trkpt lat="44.46223" lon="1.45602">
        <ele>152</ele>
        <time>2011-03-10T08:24:13</time>
      </trkpt>
      <trkpt lat="44.46221" lon="1.45605">
        <ele>152</ele>
        <time>2011-03-10T08:24:14</time>
      </trkpt>
      <trkpt lat="44.46219" lon="1.45608">
        <ele>152</ele>
        <time>2011-03-10T08:24:15</time>
      </trkpt>
      <trkpt lat="44.46216" lon="1.45612">
        <ele>152</ele>
        <time>2011-03-10T08:24:16</time>
      </trkpt>
      <trkpt lat="44.46214" lon="1.45615">
        <ele>152</ele>
        <time>2011-03-10T08:24:17</time>
      </trkpt>
      <trkpt lat="44.46209" lon="1.4562">
        <ele>152</ele>
        <time>2011-03-10T08:24:19</time>
      </trkpt>
      <trkpt lat="44.46207" lon="1.45623">
        <ele>154</ele>
        <time>2011-03-10T08:24:20</time>
      </trkpt>
      <trkpt lat="44.46203" lon="1.45627">
        <ele>156</ele>
        <time>2011-03-10T08:24:22</time>
      </trkpt>
      <trkpt lat="44.46198" lon="1.45631">
        <ele>156</ele>
        <time>2011-03-10T08:24:25</time>
      </trkpt>
      <trkpt lat="44.46198" lon="1.45631">
        <ele>156</ele>
        <time>2011-03-10T08:24:43</time>
      </trkpt>
      <trkpt lat="44.46193" lon="1.45634">
        <ele>156</ele>
        <time>2011-03-10T08:24:50</time>
      </trkpt>
      <trkpt lat="44.46189" lon="1.45636">
        <ele>156</ele>
        <time>2011-03-10T08:24:52</time>
      </trkpt>
      <trkpt lat="44.46189" lon="1.45636">
        <ele>156</ele>
        <time>2011-03-10T08:24:53</time>
      </trkpt>
      <trkpt lat="44.46186" lon="1.45637">
        <ele>156</ele>
        <time>2011-03-10T08:24:54</time>
      </trkpt>
      <trkpt lat="44.46183" lon="1.45637">
        <ele>156</ele>
        <time>2011-03-10T08:24:56</time>
      </trkpt>
      <trkpt lat="44.46186" lon="1.45638">
        <ele>156</ele>
        <time>2011-03-10T08:25:07</time>
      </trkpt>
      <trkpt lat="44.46189" lon="1.45639">
        <ele>156</ele>
        <time>2011-03-10T08:25:10</time>
      </trkpt>
      <trkpt lat="44.46191" lon="1.45639">
        <ele>156</ele>
        <time>2011-03-10T08:25:18</time>
      </trkpt>
      <trkpt lat="44.46191" lon="1.45639">
        <ele>156</ele>
        <time>2011-03-10T08:25:29</time>
      </trkpt>
      <trkpt lat="44.46189" lon="1.45637">
        <ele>156</ele>
        <time>2011-03-10T08:25:50</time>
      </trkpt>
      <trkpt lat="44.46192" lon="1.45639">
        <ele>156</ele>
        <time>2011-03-10T08:26:03</time>
      </trkpt>
      <trkpt lat="44.46192" lon="1.4564">
        <ele>156</ele>
        <time>2011-03-10T08:26:18</time>
      </trkpt>
      <trkpt lat="44.4619" lon="1.4564">
        <ele>156</ele>
        <time>2011-03-10T08:26:50</time>
      </trkpt>
      <trkpt lat="44.46189" lon="1.45638">
        <ele>156</ele>
        <time>2011-03-10T08:26:53</time>
      </trkpt>
      <trkpt lat="44.46189" lon="1.45638">
        <ele>156</ele>
        <time>2011-03-10T08:26:54</time>
      </trkpt>
      <trkpt lat="44.46189" lon="1.45638">
        <ele>156</ele>
        <time>2011-03-10T08:27:12</time>
      </trkpt>
      <trkpt lat="44.46192" lon="1.45634">
        <ele>156</ele>
        <time>2011-03-10T08:27:12</time>
      </trkpt>
      <trkpt lat="44.46191" lon="1.45638">
        <ele>156</ele>
        <time>2011-03-10T08:27:17</time>
      </trkpt>
      <trkpt lat="44.46191" lon="1.45638">
        <ele>156</ele>
        <time>2011-03-10T08:27:18</time>
      </trkpt>
      <trkpt lat="44.4619" lon="1.45642">
        <ele>156</ele>
        <time>2011-03-10T08:27:19</time>
      </trkpt>
      <trkpt lat="44.46189" lon="1.45646">
        <ele>156</ele>
        <time>2011-03-10T08:27:21</time>
      </trkpt>
      <trkpt lat="44.46188" lon="1.45648">
        <ele>156</ele>
        <time>2011-03-10T08:27:22</time>
      </trkpt>
      <trkpt lat="44.46189" lon="1.45652">
        <ele>156</ele>
        <time>2011-03-10T08:27:24</time>
      </trkpt>
      <trkpt lat="44.4619" lon="1.45655">
        <ele>156</ele>
        <time>2011-03-10T08:27:25</time>
      </trkpt>
      <trkpt lat="44.46192" lon="1.45659">
        <ele>156</ele>
        <time>2011-03-10T08:27:26</time>
      </trkpt>
      <trkpt lat="44.46195" lon="1.45663">
        <ele>156</ele>
        <time>2011-03-10T08:27:27</time>
      </trkpt>
      <trkpt lat="44.462" lon="1.4567">
        <ele>156</ele>
        <time>2011-03-10T08:27:29</time>
      </trkpt>
      <trkpt lat="44.46206" lon="1.45677">
        <ele>156</ele>
        <time>2011-03-10T08:27:31</time>
      </trkpt>
      <trkpt lat="44.46208" lon="1.45681">
        <ele>156</ele>
        <time>2011-03-10T08:27:32</time>
      </trkpt>
      <trkpt lat="44.46214" lon="1.45687">
        <ele>153</ele>
        <time>2011-03-10T08:27:34</time>
      </trkpt>
      <trkpt lat="44.46217" lon="1.4569">
        <ele>153</ele>
        <time>2011-03-10T08:27:35</time>
      </trkpt>
      <trkpt lat="44.46219" lon="1.45694">
        <ele>153</ele>
        <time>2011-03-10T08:27:36</time>
      </trkpt>
      <trkpt lat="44.46225" lon="1.45703">
        <ele>153</ele>
        <time>2011-03-10T08:27:38</time>
      </trkpt>
      <trkpt lat="44.46231" lon="1.45712">
        <ele>156</ele>
        <time>2011-03-10T08:27:40</time>
      </trkpt>
      <trkpt lat="44.46235" lon="1.45717">
        <ele>156</ele>
        <time>2011-03-10T08:27:41</time>
      </trkpt>
      <trkpt lat="44.46241" lon="1.45725">
        <ele>156</ele>
        <time>2011-03-10T08:27:43</time>
      </trkpt>
      <trkpt lat="44.46245" lon="1.4573">
        <ele>156</ele>
        <time>2011-03-10T08:27:44</time>
      </trkpt>
      <trkpt lat="44.46248" lon="1.45734">
        <ele>156</ele>
        <time>2011-03-10T08:27:45</time>
      </trkpt>
      <trkpt lat="44.46255" lon="1.45743">
        <ele>156</ele>
        <time>2011-03-10T08:27:47</time>
      </trkpt>
      <trkpt lat="44.46261" lon="1.4575">
        <ele>156</ele>
        <time>2011-03-10T08:27:49</time>
      </trkpt>
      <trkpt lat="44.46266" lon="1.45758">
        <ele>156</ele>
        <time>2011-03-10T08:27:51</time>
      </trkpt>
      <trkpt lat="44.46266" lon="1.45767">
        <ele>156</ele>
        <time>2011-03-10T08:27:53</time>
      </trkpt>
      <trkpt lat="44.46265" lon="1.45771">
        <ele>156</ele>
        <time>2011-03-10T08:27:54</time>
      </trkpt>
      <trkpt lat="44.46262" lon="1.45778">
        <ele>156</ele>
        <time>2011-03-10T08:27:56</time>
      </trkpt>
      <trkpt lat="44.46258" lon="1.45783">
        <ele>156</ele>
        <time>2011-03-10T08:27:58</time>
      </trkpt>
      <trkpt lat="44.46256" lon="1.45786">
        <ele>156</ele>
        <time>2011-03-10T08:27:59</time>
      </trkpt>
      <trkpt lat="44.46254" lon="1.45788">
        <ele>156</ele>
        <time>2011-03-10T08:28:00</time>
      </trkpt>
      <trkpt lat="44.46252" lon="1.4579">
        <ele>156</ele>
        <time>2011-03-10T08:28:01</time>
      </trkpt>
      <trkpt lat="44.46248" lon="1.45794">
        <ele>158</ele>
        <time>2011-03-10T08:28:03</time>
      </trkpt>
      <trkpt lat="44.46244" lon="1.45798">
        <ele>158</ele>
        <time>2011-03-10T08:28:05</time>
      </trkpt>
      <trkpt lat="44.46241" lon="1.45803">
        <ele>158</ele>
        <time>2011-03-10T08:28:07</time>
      </trkpt>
      <trkpt lat="44.46236" lon="1.45807">
        <ele>158</ele>
        <time>2011-03-10T08:28:09</time>
      </trkpt>
      <trkpt lat="44.46234" lon="1.45808">
        <ele>158</ele>
        <time>2011-03-10T08:28:10</time>
      </trkpt>
      <trkpt lat="44.4623" lon="1.45812">
        <ele>158</ele>
        <time>2011-03-10T08:28:12</time>
      </trkpt>
      <trkpt lat="44.46228" lon="1.45814">
        <ele>158</ele>
        <time>2011-03-10T08:28:13</time>
      </trkpt>
      <trkpt lat="44.46224" lon="1.45818">
        <ele>158</ele>
        <time>2011-03-10T08:28:15</time>
      </trkpt>
      <trkpt lat="44.46222" lon="1.4582">
        <ele>158</ele>
        <time>2011-03-10T08:28:16</time>
      </trkpt>
      <trkpt lat="44.46217" lon="1.45824">
        <ele>158</ele>
        <time>2011-03-10T08:28:18</time>
      </trkpt>
      <trkpt lat="44.46214" lon="1.45826">
        <ele>158</ele>
        <time>2011-03-10T08:28:19</time>
      </trkpt>
      <trkpt lat="44.46211" lon="1.45829">
        <ele>158</ele>
        <time>2011-03-10T08:28:20</time>
      </trkpt>
      <trkpt lat="44.46206" lon="1.45834">
        <ele>158</ele>
        <time>2011-03-10T08:28:22</time>
      </trkpt>
      <trkpt lat="44.46203" lon="1.45837">
        <ele>158</ele>
        <time>2011-03-10T08:28:23</time>
      </trkpt>
      <trkpt lat="44.46197" lon="1.45843">
        <ele>158</ele>
        <time>2011-03-10T08:28:25</time>
      </trkpt>
      <trkpt lat="44.46194" lon="1.45847">
        <ele>158</ele>
        <time>2011-03-10T08:28:26</time>
      </trkpt>
      <trkpt lat="44.46188" lon="1.45854">
        <ele>158</ele>
        <time>2011-03-10T08:28:28</time>
      </trkpt>
      <trkpt lat="44.46186" lon="1.45857">
        <ele>158</ele>
        <time>2011-03-10T08:28:29</time>
      </trkpt>
      <trkpt lat="44.46181" lon="1.45865">
        <ele>158</ele>
        <time>2011-03-10T08:28:31</time>
      </trkpt>
      <trkpt lat="44.46178" lon="1.45868">
        <ele>158</ele>
        <time>2011-03-10T08:28:32</time>
      </trkpt>
      <trkpt lat="44.46172" lon="1.45875">
        <ele>156</ele>
        <time>2011-03-10T08:28:34</time>
      </trkpt>
      <trkpt lat="44.4617" lon="1.45879">
        <ele>156</ele>
        <time>2011-03-10T08:28:35</time>
      </trkpt>
      <trkpt lat="44.46165" lon="1.45887">
        <ele>156</ele>
        <time>2011-03-10T08:28:37</time>
      </trkpt>
      <trkpt lat="44.46162" lon="1.45891">
        <ele>156</ele>
        <time>2011-03-10T08:28:38</time>
      </trkpt>
      <trkpt lat="44.4616" lon="1.45895">
        <ele>156</ele>
        <time>2011-03-10T08:28:39</time>
      </trkpt>
      <trkpt lat="44.46155" lon="1.45902">
        <ele>156</ele>
        <time>2011-03-10T08:28:41</time>
      </trkpt>
      <trkpt lat="44.46153" lon="1.45906">
        <ele>156</ele>
        <time>2011-03-10T08:28:42</time>
      </trkpt>
      <trkpt lat="44.46148" lon="1.45913">
        <ele>156</ele>
        <time>2011-03-10T08:28:44</time>
      </trkpt>
      <trkpt lat="44.46145" lon="1.45917">
        <ele>156</ele>
        <time>2011-03-10T08:28:45</time>
      </trkpt>
      <trkpt lat="44.4614" lon="1.45924">
        <ele>156</ele>
        <time>2011-03-10T08:28:47</time>
      </trkpt>
      <trkpt lat="44.46137" lon="1.45928">
        <ele>156</ele>
        <time>2011-03-10T08:28:48</time>
      </trkpt>
      <trkpt lat="44.46131" lon="1.45935">
        <ele>156</ele>
        <time>2011-03-10T08:28:50</time>
      </trkpt>
      <trkpt lat="44.46128" lon="1.45939">
        <ele>156</ele>
        <time>2011-03-10T08:28:51</time>
      </trkpt>
      <trkpt lat="44.46123" lon="1.45946">
        <ele>165</ele>
        <time>2011-03-10T08:28:53</time>
      </trkpt>
      <trkpt lat="44.4612" lon="1.45949">
        <ele>165</ele>
        <time>2011-03-10T08:28:54</time>
      </trkpt>
      <trkpt lat="44.46114" lon="1.45957">
        <ele>165</ele>
        <time>2011-03-10T08:28:56</time>
      </trkpt>
      <trkpt lat="44.46111" lon="1.45961">
        <ele>156</ele>
        <time>2011-03-10T08:28:57</time>
      </trkpt>
      <trkpt lat="44.46105" lon="1.45967">
        <ele>156</ele>
        <time>2011-03-10T08:28:59</time>
      </trkpt>
      <trkpt lat="44.46102" lon="1.45971">
        <ele>156</ele>
        <time>2011-03-10T08:29:00</time>
      </trkpt>
      <trkpt lat="44.46099" lon="1.45974">
        <ele>156</ele>
        <time>2011-03-10T08:29:01</time>
      </trkpt>
      <trkpt lat="44.46094" lon="1.45981">
        <ele>156</ele>
        <time>2011-03-10T08:29:03</time>
      </trkpt>
      <trkpt lat="44.46091" lon="1.45985">
        <ele>156</ele>
        <time>2011-03-10T08:29:04</time>
      </trkpt>
      <trkpt lat="44.46085" lon="1.45992">
        <ele>156</ele>
        <time>2011-03-10T08:29:06</time>
      </trkpt>
      <trkpt lat="44.46082" lon="1.45996">
        <ele>156</ele>
        <time>2011-03-10T08:29:07</time>
      </trkpt>
      <trkpt lat="44.46076" lon="1.46004">
        <ele>156</ele>
        <time>2011-03-10T08:29:09</time>
      </trkpt>
      <trkpt lat="44.46073" lon="1.46008">
        <ele>156</ele>
        <time>2011-03-10T08:29:10</time>
      </trkpt>
      <trkpt lat="44.46066" lon="1.46016">
        <ele>156</ele>
        <time>2011-03-10T08:29:12</time>
      </trkpt>
      <trkpt lat="44.46062" lon="1.46019">
        <ele>156</ele>
        <time>2011-03-10T08:29:13</time>
      </trkpt>
      <trkpt lat="44.46053" lon="1.46026">
        <ele>156</ele>
        <time>2011-03-10T08:29:15</time>
      </trkpt>
      <trkpt lat="44.46048" lon="1.4603">
        <ele>156</ele>
        <time>2011-03-10T08:29:16</time>
      </trkpt>
      <trkpt lat="44.46038" lon="1.46036">
        <ele>161</ele>
        <time>2011-03-10T08:29:18</time>
      </trkpt>
      <trkpt lat="44.46033" lon="1.46038">
        <ele>161</ele>
        <time>2011-03-10T08:29:19</time>
      </trkpt>
      <trkpt lat="44.46025" lon="1.46046">
        <ele>154</ele>
        <time>2011-03-10T08:29:21</time>
      </trkpt>
      <trkpt lat="44.46021" lon="1.46051">
        <ele>154</ele>
        <time>2011-03-10T08:29:22</time>
      </trkpt>
      <trkpt lat="44.46019" lon="1.46058">
        <ele>154</ele>
        <time>2011-03-10T08:29:23</time>
      </trkpt>
      <trkpt lat="44.46017" lon="1.4607">
        <ele>154</ele>
        <time>2011-03-10T08:29:25</time>
      </trkpt>
      <trkpt lat="44.46017" lon="1.46082">
        <ele>154</ele>
        <time>2011-03-10T08:29:27</time>
      </trkpt>
      <trkpt lat="44.46017" lon="1.46088">
        <ele>154</ele>
        <time>2011-03-10T08:29:28</time>
      </trkpt>
      <trkpt lat="44.46017" lon="1.46099">
        <ele>154</ele>
        <time>2011-03-10T08:29:30</time>
      </trkpt>
      <trkpt lat="44.46016" lon="1.46104">
        <ele>154</ele>
        <time>2011-03-10T08:29:31</time>
      </trkpt>
      <trkpt lat="44.46014" lon="1.46114">
        <ele>154</ele>
        <time>2011-03-10T08:29:33</time>
      </trkpt>
      <trkpt lat="44.46013" lon="1.46119">
        <ele>154</ele>
        <time>2011-03-10T08:29:34</time>
      </trkpt>
      <trkpt lat="44.46012" lon="1.46124">
        <ele>154</ele>
        <time>2011-03-10T08:29:35</time>
      </trkpt>
      <trkpt lat="44.46011" lon="1.46128">
        <ele>154</ele>
        <time>2011-03-10T08:29:36</time>
      </trkpt>
      <trkpt lat="44.46009" lon="1.46132">
        <ele>154</ele>
        <time>2011-03-10T08:29:37</time>
      </trkpt>
      <trkpt lat="44.46008" lon="1.46137">
        <ele>154</ele>
        <time>2011-03-10T08:29:38</time>
      </trkpt>
      <trkpt lat="44.46006" lon="1.46145">
        <ele>154</ele>
        <time>2011-03-10T08:29:40</time>
      </trkpt>
      <trkpt lat="44.46004" lon="1.4615">
        <ele>154</ele>
        <time>2011-03-10T08:29:41</time>
      </trkpt>
      <trkpt lat="44.46001" lon="1.46161">
        <ele>154</ele>
        <time>2011-03-10T08:29:43</time>
      </trkpt>
      <trkpt lat="44.45999" lon="1.46167">
        <ele>154</ele>
        <time>2011-03-10T08:29:44</time>
      </trkpt>
      <trkpt lat="44.45997" lon="1.46173">
        <ele>154</ele>
        <time>2011-03-10T08:29:45</time>
      </trkpt>
      <trkpt lat="44.45993" lon="1.46184">
        <ele>154</ele>
        <time>2011-03-10T08:29:47</time>
      </trkpt>
      <trkpt lat="44.45992" lon="1.46189">
        <ele>154</ele>
        <time>2011-03-10T08:29:48</time>
      </trkpt>
      <trkpt lat="44.45987" lon="1.46203">
        <ele>154</ele>
        <time>2011-03-10T08:29:50</time>
      </trkpt>
      <trkpt lat="44.45986" lon="1.4621">
        <ele>157</ele>
        <time>2011-03-10T08:29:51</time>
      </trkpt>
      <trkpt lat="44.45983" lon="1.46225">
        <ele>157</ele>
        <time>2011-03-10T08:29:53</time>
      </trkpt>
      <trkpt lat="44.45983" lon="1.46233">
        <ele>157</ele>
        <time>2011-03-10T08:29:54</time>
      </trkpt>
      <trkpt lat="44.45983" lon="1.46248">
        <ele>157</ele>
        <time>2011-03-10T08:29:56</time>
      </trkpt>
      <trkpt lat="44.45984" lon="1.46256">
        <ele>157</ele>
        <time>2011-03-10T08:29:57</time>
      </trkpt>
      <trkpt lat="44.45984" lon="1.46269">
        <ele>157</ele>
        <time>2011-03-10T08:29:59</time>
      </trkpt>
      <trkpt lat="44.45984" lon="1.46274">
        <ele>157</ele>
        <time>2011-03-10T08:30:00</time>
      </trkpt>
      <trkpt lat="44.45983" lon="1.46284">
        <ele>157</ele>
        <time>2011-03-10T08:30:02</time>
      </trkpt>
      <trkpt lat="44.45982" lon="1.46288">
        <ele>157</ele>
        <time>2011-03-10T08:30:03</time>
      </trkpt>
      <trkpt lat="44.4598" lon="1.46298">
        <ele>167</ele>
        <time>2011-03-10T08:30:06</time>
      </trkpt>
      <trkpt lat="44.45979" lon="1.46301">
        <ele>167</ele>
        <time>2011-03-10T08:30:07</time>
      </trkpt>
      <trkpt lat="44.45977" lon="1.46307">
        <ele>167</ele>
        <time>2011-03-10T08:30:09</time>
      </trkpt>
      <trkpt lat="44.45976" lon="1.4631">
        <ele>167</ele>
        <time>2011-03-10T08:30:10</time>
      </trkpt>
      <trkpt lat="44.45975" lon="1.46315">
        <ele>167</ele>
        <time>2011-03-10T08:30:12</time>
      </trkpt>
      <trkpt lat="44.45975" lon="1.46317">
        <ele>167</ele>
        <time>2011-03-10T08:30:14</time>
      </trkpt>
      <trkpt lat="44.45974" lon="1.46324">
        <ele>167</ele>
        <time>2011-03-10T08:30:23</time>
      </trkpt>
      <trkpt lat="44.45974" lon="1.46327">
        <ele>167</ele>
        <time>2011-03-10T08:30:24</time>
      </trkpt>
      <trkpt lat="44.45974" lon="1.46327">
        <ele>167</ele>
        <time>2011-03-10T08:30:44</time>
      </trkpt>
      <trkpt lat="44.45971" lon="1.46336">
        <ele>167</ele>
        <time>2011-03-10T08:30:47</time>
      </trkpt>
      <trkpt lat="44.4597" lon="1.46339">
        <ele>167</ele>
        <time>2011-03-10T08:30:48</time>
      </trkpt>
      <trkpt lat="44.4597" lon="1.46339">
        <ele>167</ele>
        <time>2011-03-10T08:30:49</time>
      </trkpt>
      <trkpt lat="44.45969" lon="1.46346">
        <ele>167</ele>
        <time>2011-03-10T08:30:50</time>
      </trkpt>
      <trkpt lat="44.45968" lon="1.46349">
        <ele>167</ele>
        <time>2011-03-10T08:30:51</time>
      </trkpt>
      <trkpt lat="44.45967" lon="1.46357">
        <ele>167</ele>
        <time>2011-03-10T08:30:53</time>
      </trkpt>
      <trkpt lat="44.45966" lon="1.46365">
        <ele>167</ele>
        <time>2011-03-10T08:30:55</time>
      </trkpt>
      <trkpt lat="44.45965" lon="1.46368">
        <ele>167</ele>
        <time>2011-03-10T08:30:56</time>
      </trkpt>
      <trkpt lat="44.45963" lon="1.46375">
        <ele>176</ele>
        <time>2011-03-10T08:30:58</time>
      </trkpt>
      <trkpt lat="44.45962" lon="1.46381">
        <ele>176</ele>
        <time>2011-03-10T08:31:00</time>
      </trkpt>
      <trkpt lat="44.45961" lon="1.4639">
        <ele>176</ele>
        <time>2011-03-10T08:31:03</time>
      </trkpt>
      <trkpt lat="44.45959" lon="1.46397">
        <ele>176</ele>
        <time>2011-03-10T08:31:05</time>
      </trkpt>
      <trkpt lat="44.45958" lon="1.464">
        <ele>172</ele>
        <time>2011-03-10T08:31:06</time>
      </trkpt>
      <trkpt lat="44.45956" lon="1.46406">
        <ele>172</ele>
        <time>2011-03-10T08:31:08</time>
      </trkpt>
      <trkpt lat="44.45956" lon="1.4641">
        <ele>172</ele>
        <time>2011-03-10T08:31:09</time>
      </trkpt>
      <trkpt lat="44.45956" lon="1.46413">
        <ele>172</ele>
        <time>2011-03-10T08:31:10</time>
      </trkpt>
      <trkpt lat="44.45955" lon="1.46421">
        <ele>172</ele>
        <time>2011-03-10T08:31:12</time>
      </trkpt>
      <trkpt lat="44.45955" lon="1.46424">
        <ele>172</ele>
        <time>2011-03-10T08:31:13</time>
      </trkpt>
      <trkpt lat="44.45953" lon="1.46432">
        <ele>172</ele>
        <time>2011-03-10T08:31:15</time>
      </trkpt>
      <trkpt lat="44.45952" lon="1.46436">
        <ele>172</ele>
        <time>2011-03-10T08:31:16</time>
      </trkpt>
      <trkpt lat="44.45951" lon="1.46443">
        <ele>172</ele>
        <time>2011-03-10T08:31:18</time>
      </trkpt>
      <trkpt lat="44.4595" lon="1.46447">
        <ele>172</ele>
        <time>2011-03-10T08:31:19</time>
      </trkpt>
      <trkpt lat="44.45949" lon="1.46454">
        <ele>172</ele>
        <time>2011-03-10T08:31:21</time>
      </trkpt>
      <trkpt lat="44.45948" lon="1.46458">
        <ele>172</ele>
        <time>2011-03-10T08:31:22</time>
      </trkpt>
      <trkpt lat="44.45946" lon="1.46465">
        <ele>179</ele>
        <time>2011-03-10T08:31:24</time>
      </trkpt>
      <trkpt lat="44.45946" lon="1.46468">
        <ele>179</ele>
        <time>2011-03-10T08:31:25</time>
      </trkpt>
      <trkpt lat="44.45945" lon="1.46475">
        <ele>179</ele>
        <time>2011-03-10T08:31:27</time>
      </trkpt>
      <trkpt lat="44.45944" lon="1.46478">
        <ele>179</ele>
        <time>2011-03-10T08:31:28</time>
      </trkpt>
      <trkpt lat="44.45942" lon="1.46485">
        <ele>179</ele>
        <time>2011-03-10T08:31:30</time>
      </trkpt>
      <trkpt lat="44.45942" lon="1.46489">
        <ele>179</ele>
        <time>2011-03-10T08:31:31</time>
      </trkpt>
      <trkpt lat="44.45941" lon="1.46493">
        <ele>179</ele>
        <time>2011-03-10T08:31:32</time>
      </trkpt>
      <trkpt lat="44.45938" lon="1.465">
        <ele>179</ele>
        <time>2011-03-10T08:31:34</time>
      </trkpt>
      <trkpt lat="44.45937" lon="1.46503">
        <ele>179</ele>
        <time>2011-03-10T08:31:35</time>
      </trkpt>
      <trkpt lat="44.45935" lon="1.46509">
        <ele>179</ele>
        <time>2011-03-10T08:31:37</time>
      </trkpt>
      <trkpt lat="44.45934" lon="1.46512">
        <ele>179</ele>
        <time>2011-03-10T08:31:38</time>
      </trkpt>
      <trkpt lat="44.45932" lon="1.46517">
        <ele>179</ele>
        <time>2011-03-10T08:31:40</time>
      </trkpt>
      <trkpt lat="44.45931" lon="1.46521">
        <ele>179</ele>
        <time>2011-03-10T08:31:41</time>
      </trkpt>
      <trkpt lat="44.4593" lon="1.46527">
        <ele>179</ele>
        <time>2011-03-10T08:31:43</time>
      </trkpt>
      <trkpt lat="44.4593" lon="1.4653">
        <ele>179</ele>
        <time>2011-03-10T08:31:44</time>
      </trkpt>
      <trkpt lat="44.45929" lon="1.46537">
        <ele>179</ele>
        <time>2011-03-10T08:31:46</time>
      </trkpt>
      <trkpt lat="44.45928" lon="1.4654">
        <ele>179</ele>
        <time>2011-03-10T08:31:47</time>
      </trkpt>
      <trkpt lat="44.45928" lon="1.46547">
        <ele>186</ele>
        <time>2011-03-10T08:31:49</time>
      </trkpt>
      <trkpt lat="44.45928" lon="1.4655">
        <ele>186</ele>
        <time>2011-03-10T08:31:50</time>
      </trkpt>
      <trkpt lat="44.45928" lon="1.46555">
        <ele>186</ele>
        <time>2011-03-10T08:31:52</time>
      </trkpt>
      <trkpt lat="44.45928" lon="1.46561">
        <ele>186</ele>
        <time>2011-03-10T08:31:54</time>
      </trkpt>
      <trkpt lat="44.45928" lon="1.46566">
        <ele>186</ele>
        <time>2011-03-10T08:31:56</time>
      </trkpt>
      <trkpt lat="44.45927" lon="1.4657">
        <ele>186</ele>
        <time>2011-03-10T08:31:58</time>
      </trkpt>
      <trkpt lat="44.45927" lon="1.46573">
        <ele>186</ele>
        <time>2011-03-10T08:31:59</time>
      </trkpt>
      <trkpt lat="44.45927" lon="1.46576">
        <ele>186</ele>
        <time>2011-03-10T08:32:00</time>
      </trkpt>
      <trkpt lat="44.45927" lon="1.46582">
        <ele>186</ele>
        <time>2011-03-10T08:32:02</time>
      </trkpt>
      <trkpt lat="44.45927" lon="1.46586">
        <ele>186</ele>
        <time>2011-03-10T08:32:04</time>
      </trkpt>
      <trkpt lat="44.45927" lon="1.46591">
        <ele>186</ele>
        <time>2011-03-10T08:32:06</time>
      </trkpt>
      <trkpt lat="44.45927" lon="1.46598">
        <ele>186</ele>
        <time>2011-03-10T08:32:09</time>
      </trkpt>
      <trkpt lat="44.45927" lon="1.46602">
        <ele>186</ele>
        <time>2011-03-10T08:32:11</time>
      </trkpt>
      <trkpt lat="44.45928" lon="1.46607">
        <ele>186</ele>
        <time>2011-03-10T08:32:13</time>
      </trkpt>
      <trkpt lat="44.45928" lon="1.46611">
        <ele>186</ele>
        <time>2011-03-10T08:32:15</time>
      </trkpt>
      <trkpt lat="44.45928" lon="1.46616">
        <ele>186</ele>
        <time>2011-03-10T08:32:17</time>
      </trkpt>
      <trkpt lat="44.45928" lon="1.46618">
        <ele>186</ele>
        <time>2011-03-10T08:32:18</time>
      </trkpt>
      <trkpt lat="44.45928" lon="1.46623">
        <ele>186</ele>
        <time>2011-03-10T08:32:20</time>
      </trkpt>
      <trkpt lat="44.45928" lon="1.46628">
        <ele>190</ele>
        <time>2011-03-10T08:32:22</time>
      </trkpt>
      <trkpt lat="44.45928" lon="1.46632">
        <ele>190</ele>
        <time>2011-03-10T08:32:25</time>
      </trkpt>
      <trkpt lat="44.45928" lon="1.46636">
        <ele>190</ele>
        <time>2011-03-10T08:32:27</time>
      </trkpt>
      <trkpt lat="44.45929" lon="1.4664">
        <ele>190</ele>
        <time>2011-03-10T08:32:29</time>
      </trkpt>
      <trkpt lat="44.4593" lon="1.46645">
        <ele>190</ele>
        <time>2011-03-10T08:32:31</time>
      </trkpt>
      <trkpt lat="44.45931" lon="1.46649">
        <ele>190</ele>
        <time>2011-03-10T08:32:33</time>
      </trkpt>
      <trkpt lat="44.45931" lon="1.46655">
        <ele>190</ele>
        <time>2011-03-10T08:32:35</time>
      </trkpt>
      <trkpt lat="44.45932" lon="1.4666">
        <ele>190</ele>
        <time>2011-03-10T08:32:37</time>
      </trkpt>
      <trkpt lat="44.45932" lon="1.46663">
        <ele>190</ele>
        <time>2011-03-10T08:32:38</time>
      </trkpt>
      <trkpt lat="44.45933" lon="1.46668">
        <ele>190</ele>
        <time>2011-03-10T08:32:40</time>
      </trkpt>
      <trkpt lat="44.45933" lon="1.46674">
        <ele>190</ele>
        <time>2011-03-10T08:32:42</time>
      </trkpt>
      <trkpt lat="44.45934" lon="1.46678">
        <ele>190</ele>
        <time>2011-03-10T08:32:44</time>
      </trkpt>
      <trkpt lat="44.45934" lon="1.46683">
        <ele>190</ele>
        <time>2011-03-10T08:32:46</time>
      </trkpt>
      <trkpt lat="44.45935" lon="1.46687">
        <ele>190</ele>
        <time>2011-03-10T08:32:48</time>
      </trkpt>
      <trkpt lat="44.45936" lon="1.46691">
        <ele>190</ele>
        <time>2011-03-10T08:32:50</time>
      </trkpt>
      <trkpt lat="44.45937" lon="1.46695">
        <ele>190</ele>
        <time>2011-03-10T08:32:52</time>
      </trkpt>
      <trkpt lat="44.45937" lon="1.46698">
        <ele>190</ele>
        <time>2011-03-10T08:32:54</time>
      </trkpt>
      <trkpt lat="44.45938" lon="1.46701">
        <ele>190</ele>
        <time>2011-03-10T08:32:56</time>
      </trkpt>
      <trkpt lat="44.45939" lon="1.46705">
        <ele>190</ele>
        <time>2011-03-10T08:32:59</time>
      </trkpt>
      <trkpt lat="44.45941" lon="1.46709">
        <ele>196</ele>
        <time>2011-03-10T08:33:01</time>
      </trkpt>
      <trkpt lat="44.45941" lon="1.46713">
        <ele>196</ele>
        <time>2011-03-10T08:33:03</time>
      </trkpt>
      <trkpt lat="44.45942" lon="1.4672">
        <ele>196</ele>
        <time>2011-03-10T08:33:05</time>
      </trkpt>
      <trkpt lat="44.45942" lon="1.46729">
        <ele>196</ele>
        <time>2011-03-10T08:33:08</time>
      </trkpt>
      <trkpt lat="44.45943" lon="1.46734">
        <ele>196</ele>
        <time>2011-03-10T08:33:10</time>
      </trkpt>
      <trkpt lat="44.45942" lon="1.46739">
        <ele>196</ele>
        <time>2011-03-10T08:33:12</time>
      </trkpt>
      <trkpt lat="44.45942" lon="1.46743">
        <ele>196</ele>
        <time>2011-03-10T08:33:14</time>
      </trkpt>
      <trkpt lat="44.45942" lon="1.46747">
        <ele>196</ele>
        <time>2011-03-10T08:33:16</time>
      </trkpt>
      <trkpt lat="44.45942" lon="1.46752">
        <ele>196</ele>
        <time>2011-03-10T08:33:18</time>
      </trkpt>
      <trkpt lat="44.45941" lon="1.46756">
        <ele>196</ele>
        <time>2011-03-10T08:33:20</time>
      </trkpt>
      <trkpt lat="44.4594" lon="1.4676">
        <ele>196</ele>
        <time>2011-03-10T08:33:22</time>
      </trkpt>
      <trkpt lat="44.45939" lon="1.46763">
        <ele>196</ele>
        <time>2011-03-10T08:33:24</time>
      </trkpt>
      <trkpt lat="44.45938" lon="1.46767">
        <ele>196</ele>
        <time>2011-03-10T08:33:26</time>
      </trkpt>
      <trkpt lat="44.45936" lon="1.4677">
        <ele>196</ele>
        <time>2011-03-10T08:33:28</time>
      </trkpt>
      <trkpt lat="44.45935" lon="1.46774">
        <ele>196</ele>
        <time>2011-03-10T08:33:30</time>
      </trkpt>
      <trkpt lat="44.45933" lon="1.46778">
        <ele>196</ele>
        <time>2011-03-10T08:33:33</time>
      </trkpt>
      <trkpt lat="44.45932" lon="1.46781">
        <ele>196</ele>
        <time>2011-03-10T08:33:35</time>
      </trkpt>
      <trkpt lat="44.45931" lon="1.46784">
        <ele>196</ele>
        <time>2011-03-10T08:33:37</time>
      </trkpt>
      <trkpt lat="44.45929" lon="1.46787">
        <ele>196</ele>
        <time>2011-03-10T08:33:39</time>
      </trkpt>
      <trkpt lat="44.45927" lon="1.4679">
        <ele>196</ele>
        <time>2011-03-10T08:33:41</time>
      </trkpt>
      <trkpt lat="44.45925" lon="1.46793">
        <ele>207</ele>
        <time>2011-03-10T08:33:43</time>
      </trkpt>
      <trkpt lat="44.45924" lon="1.46796">
        <ele>207</ele>
        <time>2011-03-10T08:33:45</time>
      </trkpt>
      <trkpt lat="44.45923" lon="1.468">
        <ele>207</ele>
        <time>2011-03-10T08:33:47</time>
      </trkpt>
      <trkpt lat="44.4592" lon="1.46803">
        <ele>207</ele>
        <time>2011-03-10T08:33:50</time>
      </trkpt>
      <trkpt lat="44.45919" lon="1.46806">
        <ele>207</ele>
        <time>2011-03-10T08:33:52</time>
      </trkpt>
      <trkpt lat="44.45917" lon="1.46809">
        <ele>207</ele>
        <time>2011-03-10T08:33:55</time>
      </trkpt>
      <trkpt lat="44.45915" lon="1.46811">
        <ele>207</ele>
        <time>2011-03-10T08:33:57</time>
      </trkpt>
      <trkpt lat="44.45913" lon="1.46813">
        <ele>207</ele>
        <time>2011-03-10T08:33:59</time>
      </trkpt>
      <trkpt lat="44.45911" lon="1.46815">
        <ele>207</ele>
        <time>2011-03-10T08:34:02</time>
      </trkpt>
      <trkpt lat="44.4591" lon="1.46816">
        <ele>207</ele>
        <time>2011-03-10T08:34:03</time>
      </trkpt>
      <trkpt lat="44.45908" lon="1.46818">
        <ele>207</ele>
        <time>2011-03-10T08:34:06</time>
      </trkpt>
      <trkpt lat="44.45906" lon="1.4682">
        <ele>207</ele>
        <time>2011-03-10T08:34:09</time>
      </trkpt>
      <trkpt lat="44.45904" lon="1.4682">
        <ele>207</ele>
        <time>2011-03-10T08:34:12</time>
      </trkpt>
      <trkpt lat="44.45901" lon="1.46821">
        <ele>207</ele>
        <time>2011-03-10T08:34:15</time>
      </trkpt>
      <trkpt lat="44.45899" lon="1.46823">
        <ele>207</ele>
        <time>2011-03-10T08:34:17</time>
      </trkpt>
      <trkpt lat="44.45896" lon="1.46826">
        <ele>207</ele>
        <time>2011-03-10T08:34:20</time>
      </trkpt>
      <trkpt lat="44.45891" lon="1.4683">
        <ele>207</ele>
        <time>2011-03-10T08:34:23</time>
      </trkpt>
      <trkpt lat="44.45889" lon="1.46833">
        <ele>207</ele>
        <time>2011-03-10T08:34:25</time>
      </trkpt>
      <trkpt lat="44.45886" lon="1.46835">
        <ele>207</ele>
        <time>2011-03-10T08:34:28</time>
      </trkpt>
      <trkpt lat="44.45884" lon="1.46837">
        <ele>207</ele>
        <time>2011-03-10T08:34:30</time>
      </trkpt>
      <trkpt lat="44.45881" lon="1.4684">
        <ele>207</ele>
        <time>2011-03-10T08:34:33</time>
      </trkpt>
      <trkpt lat="44.45879" lon="1.4684">
        <ele>207</ele>
        <time>2011-03-10T08:34:38</time>
      </trkpt>
      <trkpt lat="44.45878" lon="1.4684">
        <ele>207</ele>
        <time>2011-03-10T08:34:39</time>
      </trkpt>
      <trkpt lat="44.45876" lon="1.46842">
        <ele>207</ele>
        <time>2011-03-10T08:34:42</time>
      </trkpt>
      <trkpt lat="44.45874" lon="1.46844">
        <ele>220</ele>
        <time>2011-03-10T08:34:44</time>
      </trkpt>
      <trkpt lat="44.45872" lon="1.46847">
        <ele>220</ele>
        <time>2011-03-10T08:34:46</time>
      </trkpt>
      <trkpt lat="44.4587" lon="1.46849">
        <ele>220</ele>
        <time>2011-03-10T08:34:49</time>
      </trkpt>
      <trkpt lat="44.45867" lon="1.46852">
        <ele>220</ele>
        <time>2011-03-10T08:34:52</time>
      </trkpt>
      <trkpt lat="44.45866" lon="1.46855">
        <ele>220</ele>
        <time>2011-03-10T08:34:55</time>
      </trkpt>
      <trkpt lat="44.45866" lon="1.46859">
        <ele>220</ele>
        <time>2011-03-10T08:34:58</time>
      </trkpt>
      <trkpt lat="44.45865" lon="1.46861">
        <ele>220</ele>
        <time>2011-03-10T08:35:01</time>
      </trkpt>
      <trkpt lat="44.45865" lon="1.46865">
        <ele>220</ele>
        <time>2011-03-10T08:35:04</time>
      </trkpt>
      <trkpt lat="44.45865" lon="1.46867">
        <ele>220</ele>
        <time>2011-03-10T08:35:06</time>
      </trkpt>
      <trkpt lat="44.45865" lon="1.4687">
        <ele>220</ele>
        <time>2011-03-10T08:35:09</time>
      </trkpt>
      <trkpt lat="44.45865" lon="1.46873">
        <ele>220</ele>
        <time>2011-03-10T08:35:12</time>
      </trkpt>
      <trkpt lat="44.45866" lon="1.46877">
        <ele>222</ele>
        <time>2011-03-10T08:35:16</time>
      </trkpt>
      <trkpt lat="44.45865" lon="1.46881">
        <ele>222</ele>
        <time>2011-03-10T08:35:20</time>
      </trkpt>
      <trkpt lat="44.45863" lon="1.46883">
        <ele>222</ele>
        <time>2011-03-10T08:35:23</time>
      </trkpt>
      <trkpt lat="44.4586" lon="1.46885">
        <ele>222</ele>
        <time>2011-03-10T08:35:28</time>
      </trkpt>
      <trkpt lat="44.45857" lon="1.46888">
        <ele>222</ele>
        <time>2011-03-10T08:35:31</time>
      </trkpt>
      <trkpt lat="44.45855" lon="1.4689">
        <ele>222</ele>
        <time>2011-03-10T08:35:33</time>
      </trkpt>
      <trkpt lat="44.45854" lon="1.46892">
        <ele>222</ele>
        <time>2011-03-10T08:35:34</time>
      </trkpt>
      <trkpt lat="44.45852" lon="1.46895">
        <ele>222</ele>
        <time>2011-03-10T08:35:36</time>
      </trkpt>
      <trkpt lat="44.45851" lon="1.46899">
        <ele>222</ele>
        <time>2011-03-10T08:35:38</time>
      </trkpt>
      <trkpt lat="44.4585" lon="1.46904">
        <ele>222</ele>
        <time>2011-03-10T08:35:40</time>
      </trkpt>
      <trkpt lat="44.45849" lon="1.4691">
        <ele>222</ele>
        <time>2011-03-10T08:35:42</time>
      </trkpt>
      <trkpt lat="44.45849" lon="1.46915">
        <ele>222</ele>
        <time>2011-03-10T08:35:44</time>
      </trkpt>
      <trkpt lat="44.45848" lon="1.46919">
        <ele>222</ele>
        <time>2011-03-10T08:35:46</time>
      </trkpt>
      <trkpt lat="44.45848" lon="1.46924">
        <ele>222</ele>
        <time>2011-03-10T08:35:48</time>
      </trkpt>
      <trkpt lat="44.45847" lon="1.46928">
        <ele>222</ele>
        <time>2011-03-10T08:35:50</time>
      </trkpt>
      <trkpt lat="44.45846" lon="1.46932">
        <ele>222</ele>
        <time>2011-03-10T08:35:52</time>
      </trkpt>
      <trkpt lat="44.45846" lon="1.46936">
        <ele>222</ele>
        <time>2011-03-10T08:35:54</time>
      </trkpt>
      <trkpt lat="44.45848" lon="1.4694">
        <ele>222</ele>
        <time>2011-03-10T08:35:56</time>
      </trkpt>
      <trkpt lat="44.4585" lon="1.46943">
        <ele>222</ele>
        <time>2011-03-10T08:35:58</time>
      </trkpt>
      <trkpt lat="44.45851" lon="1.46947">
        <ele>222</ele>
        <time>2011-03-10T08:36:00</time>
      </trkpt>
      <trkpt lat="44.45851" lon="1.46952">
        <ele>222</ele>
        <time>2011-03-10T08:36:02</time>
      </trkpt>
      <trkpt lat="44.45849" lon="1.46957">
        <ele>222</ele>
        <time>2011-03-10T08:36:04</time>
      </trkpt>
      <trkpt lat="44.45846" lon="1.46959">
        <ele>219</ele>
        <time>2011-03-10T08:36:06</time>
      </trkpt>
      <trkpt lat="44.45842" lon="1.46962">
        <ele>219</ele>
        <time>2011-03-10T08:36:08</time>
      </trkpt>
      <trkpt lat="44.45839" lon="1.46965">
        <ele>219</ele>
        <time>2011-03-10T08:36:10</time>
      </trkpt>
      <trkpt lat="44.45836" lon="1.46967">
        <ele>219</ele>
        <time>2011-03-10T08:36:12</time>
      </trkpt>
      <trkpt lat="44.45833" lon="1.46966">
        <ele>219</ele>
        <time>2011-03-10T08:36:14</time>
      </trkpt>
      <trkpt lat="44.4583" lon="1.46965">
        <ele>219</ele>
        <time>2011-03-10T08:36:16</time>
      </trkpt>
      <trkpt lat="44.45828" lon="1.46964">
        <ele>219</ele>
        <time>2011-03-10T08:36:18</time>
      </trkpt>
      <trkpt lat="44.45825" lon="1.46963">
        <ele>219</ele>
        <time>2011-03-10T08:36:20</time>
      </trkpt>
      <trkpt lat="44.45821" lon="1.46964">
        <ele>219</ele>
        <time>2011-03-10T08:36:22</time>
      </trkpt>
      <trkpt lat="44.45817" lon="1.46966">
        <ele>219</ele>
        <time>2011-03-10T08:36:24</time>
      </trkpt>
      <trkpt lat="44.45813" lon="1.46968">
        <ele>219</ele>
        <time>2011-03-10T08:36:26</time>
      </trkpt>
      <trkpt lat="44.4581" lon="1.4697">
        <ele>219</ele>
        <time>2011-03-10T08:36:28</time>
      </trkpt>
      <trkpt lat="44.45807" lon="1.46972">
        <ele>219</ele>
        <time>2011-03-10T08:36:30</time>
      </trkpt>
      <trkpt lat="44.45804" lon="1.46971">
        <ele>219</ele>
        <time>2011-03-10T08:36:32</time>
      </trkpt>
      <trkpt lat="44.458" lon="1.46971">
        <ele>219</ele>
        <time>2011-03-10T08:36:34</time>
      </trkpt>
      <trkpt lat="44.45797" lon="1.4697">
        <ele>219</ele>
        <time>2011-03-10T08:36:36</time>
      </trkpt>
      <trkpt lat="44.45794" lon="1.4697">
        <ele>219</ele>
        <time>2011-03-10T08:36:38</time>
      </trkpt>
      <trkpt lat="44.4579" lon="1.4697">
        <ele>226</ele>
        <time>2011-03-10T08:36:40</time>
      </trkpt>
      <trkpt lat="44.45787" lon="1.4697">
        <ele>226</ele>
        <time>2011-03-10T08:36:42</time>
      </trkpt>
      <trkpt lat="44.45784" lon="1.46971">
        <ele>226</ele>
        <time>2011-03-10T08:36:44</time>
      </trkpt>
      <trkpt lat="44.45781" lon="1.46973">
        <ele>226</ele>
        <time>2011-03-10T08:36:46</time>
      </trkpt>
      <trkpt lat="44.45779" lon="1.46974">
        <ele>226</ele>
        <time>2011-03-10T08:36:48</time>
      </trkpt>
      <trkpt lat="44.45776" lon="1.46975">
        <ele>226</ele>
        <time>2011-03-10T08:36:50</time>
      </trkpt>
      <trkpt lat="44.45773" lon="1.46975">
        <ele>226</ele>
        <time>2011-03-10T08:36:52</time>
      </trkpt>
      <trkpt lat="44.4577" lon="1.46975">
        <ele>226</ele>
        <time>2011-03-10T08:36:54</time>
      </trkpt>
      <trkpt lat="44.45767" lon="1.46976">
        <ele>226</ele>
        <time>2011-03-10T08:36:56</time>
      </trkpt>
      <trkpt lat="44.45764" lon="1.46976">
        <ele>226</ele>
        <time>2011-03-10T08:36:58</time>
      </trkpt>
      <trkpt lat="44.45762" lon="1.46976">
        <ele>226</ele>
        <time>2011-03-10T08:37:00</time>
      </trkpt>
      <trkpt lat="44.45759" lon="1.46975">
        <ele>226</ele>
        <time>2011-03-10T08:37:02</time>
      </trkpt>
      <trkpt lat="44.45757" lon="1.46971">
        <ele>226</ele>
        <time>2011-03-10T08:37:04</time>
      </trkpt>
      <trkpt lat="44.45756" lon="1.46968">
        <ele>226</ele>
        <time>2011-03-10T08:37:06</time>
      </trkpt>
      <trkpt lat="44.45755" lon="1.46964">
        <ele>226</ele>
        <time>2011-03-10T08:37:08</time>
      </trkpt>
      <trkpt lat="44.45754" lon="1.46961">
        <ele>226</ele>
        <time>2011-03-10T08:37:10</time>
      </trkpt>
      <trkpt lat="44.45752" lon="1.46958">
        <ele>233</ele>
        <time>2011-03-10T08:37:12</time>
      </trkpt>
      <trkpt lat="44.45749" lon="1.46957">
        <ele>233</ele>
        <time>2011-03-10T08:37:14</time>
      </trkpt>
      <trkpt lat="44.45746" lon="1.46957">
        <ele>233</ele>
        <time>2011-03-10T08:37:16</time>
      </trkpt>
      <trkpt lat="44.45743" lon="1.46958">
        <ele>233</ele>
        <time>2011-03-10T08:37:18</time>
      </trkpt>
      <trkpt lat="44.4574" lon="1.46958">
        <ele>233</ele>
        <time>2011-03-10T08:37:21</time>
      </trkpt>
      <trkpt lat="44.45737" lon="1.46958">
        <ele>233</ele>
        <time>2011-03-10T08:37:23</time>
      </trkpt>
      <trkpt lat="44.45735" lon="1.46956">
        <ele>233</ele>
        <time>2011-03-10T08:37:25</time>
      </trkpt>
      <trkpt lat="44.45732" lon="1.46955">
        <ele>233</ele>
        <time>2011-03-10T08:37:27</time>
      </trkpt>
      <trkpt lat="44.4573" lon="1.46953">
        <ele>233</ele>
        <time>2011-03-10T08:37:30</time>
      </trkpt>
      <trkpt lat="44.45727" lon="1.46953">
        <ele>233</ele>
        <time>2011-03-10T08:37:32</time>
      </trkpt>
      <trkpt lat="44.45724" lon="1.46954">
        <ele>233</ele>
        <time>2011-03-10T08:37:34</time>
      </trkpt>
      <trkpt lat="44.45721" lon="1.46954">
        <ele>233</ele>
        <time>2011-03-10T08:37:36</time>
      </trkpt>
      <trkpt lat="44.45717" lon="1.46953">
        <ele>233</ele>
        <time>2011-03-10T08:37:38</time>
      </trkpt>
      <trkpt lat="44.45714" lon="1.46951">
        <ele>233</ele>
        <time>2011-03-10T08:37:40</time>
      </trkpt>
      <trkpt lat="44.45713" lon="1.46949">
        <ele>233</ele>
        <time>2011-03-10T08:37:42</time>
      </trkpt>
      <trkpt lat="44.45712" lon="1.46945">
        <ele>233</ele>
        <time>2011-03-10T08:37:44</time>
      </trkpt>
      <trkpt lat="44.45712" lon="1.46942">
        <ele>233</ele>
        <time>2011-03-10T08:37:46</time>
      </trkpt>
      <trkpt lat="44.45712" lon="1.46938">
        <ele>233</ele>
        <time>2011-03-10T08:37:48</time>
      </trkpt>
      <trkpt lat="44.45711" lon="1.46934">
        <ele>233</ele>
        <time>2011-03-10T08:37:50</time>
      </trkpt>
      <trkpt lat="44.45709" lon="1.46931">
        <ele>233</ele>
        <time>2011-03-10T08:37:52</time>
      </trkpt>
      <trkpt lat="44.45707" lon="1.46928">
        <ele>237</ele>
        <time>2011-03-10T08:37:54</time>
      </trkpt>
      <trkpt lat="44.45704" lon="1.46927">
        <ele>237</ele>
        <time>2011-03-10T08:37:56</time>
      </trkpt>
      <trkpt lat="44.45701" lon="1.46929">
        <ele>237</ele>
        <time>2011-03-10T08:37:58</time>
      </trkpt>
      <trkpt lat="44.45698" lon="1.46932">
        <ele>237</ele>
        <time>2011-03-10T08:38:00</time>
      </trkpt>
      <trkpt lat="44.45695" lon="1.46934">
        <ele>237</ele>
        <time>2011-03-10T08:38:02</time>
      </trkpt>
      <trkpt lat="44.45692" lon="1.46934">
        <ele>237</ele>
        <time>2011-03-10T08:38:04</time>
      </trkpt>
      <trkpt lat="44.45688" lon="1.46935">
        <ele>237</ele>
        <time>2011-03-10T08:38:06</time>
      </trkpt>
      <trkpt lat="44.45684" lon="1.46937">
        <ele>237</ele>
        <time>2011-03-10T08:38:08</time>
      </trkpt>
      <trkpt lat="44.45681" lon="1.46941">
        <ele>237</ele>
        <time>2011-03-10T08:38:10</time>
      </trkpt>
      <trkpt lat="44.45679" lon="1.46945">
        <ele>237</ele>
        <time>2011-03-10T08:38:12</time>
      </trkpt>
      <trkpt lat="44.45677" lon="1.46948">
        <ele>237</ele>
        <time>2011-03-10T08:38:14</time>
      </trkpt>
      <trkpt lat="44.45673" lon="1.46951">
        <ele>237</ele>
        <time>2011-03-10T08:38:16</time>
      </trkpt>
      <trkpt lat="44.45669" lon="1.46954">
        <ele>237</ele>
        <time>2011-03-10T08:38:18</time>
      </trkpt>
      <trkpt lat="44.45666" lon="1.46955">
        <ele>237</ele>
        <time>2011-03-10T08:38:20</time>
      </trkpt>
      <trkpt lat="44.45663" lon="1.46956">
        <ele>237</ele>
        <time>2011-03-10T08:38:22</time>
      </trkpt>
      <trkpt lat="44.4566" lon="1.46957">
        <ele>237</ele>
        <time>2011-03-10T08:38:24</time>
      </trkpt>
      <trkpt lat="44.45657" lon="1.46956">
        <ele>237</ele>
        <time>2011-03-10T08:38:26</time>
      </trkpt>
      <trkpt lat="44.45654" lon="1.46956">
        <ele>237</ele>
        <time>2011-03-10T08:38:28</time>
      </trkpt>
      <trkpt lat="44.45652" lon="1.46955">
        <ele>237</ele>
        <time>2011-03-10T08:38:30</time>
      </trkpt>
      <trkpt lat="44.45648" lon="1.46954">
        <ele>237</ele>
        <time>2011-03-10T08:38:32</time>
      </trkpt>
      <trkpt lat="44.45645" lon="1.46954">
        <ele>237</ele>
        <time>2011-03-10T08:38:34</time>
      </trkpt>
      <trkpt lat="44.45641" lon="1.46955">
        <ele>237</ele>
        <time>2011-03-10T08:38:36</time>
      </trkpt>
      <trkpt lat="44.45639" lon="1.46954">
        <ele>237</ele>
        <time>2011-03-10T08:38:38</time>
      </trkpt>
      <trkpt lat="44.45637" lon="1.46953">
        <ele>237</ele>
        <time>2011-03-10T08:38:40</time>
      </trkpt>
      <trkpt lat="44.45634" lon="1.46951">
        <ele>237</ele>
        <time>2011-03-10T08:38:42</time>
      </trkpt>
      <trkpt lat="44.45631" lon="1.4695">
        <ele>237</ele>
        <time>2011-03-10T08:38:44</time>
      </trkpt>
      <trkpt lat="44.45628" lon="1.46948">
        <ele>237</ele>
        <time>2011-03-10T08:38:46</time>
      </trkpt>
      <trkpt lat="44.45626" lon="1.46946">
        <ele>237</ele>
        <time>2011-03-10T08:38:48</time>
      </trkpt>
      <trkpt lat="44.45624" lon="1.46942">
        <ele>243</ele>
        <time>2011-03-10T08:38:50</time>
      </trkpt>
      <trkpt lat="44.45623" lon="1.46939">
        <ele>243</ele>
        <time>2011-03-10T08:38:52</time>
      </trkpt>
      <trkpt lat="44.4562" lon="1.46937">
        <ele>243</ele>
        <time>2011-03-10T08:38:54</time>
      </trkpt>
      <trkpt lat="44.45618" lon="1.46937">
        <ele>243</ele>
        <time>2011-03-10T08:38:56</time>
      </trkpt>
      <trkpt lat="44.45615" lon="1.46936">
        <ele>243</ele>
        <time>2011-03-10T08:38:58</time>
      </trkpt>
      <trkpt lat="44.45612" lon="1.46936">
        <ele>243</ele>
        <time>2011-03-10T08:39:00</time>
      </trkpt>
      <trkpt lat="44.45609" lon="1.46934">
        <ele>243</ele>
        <time>2011-03-10T08:39:02</time>
      </trkpt>
      <trkpt lat="44.45607" lon="1.46934">
        <ele>243</ele>
        <time>2011-03-10T08:39:04</time>
      </trkpt>
      <trkpt lat="44.45604" lon="1.46932">
        <ele>243</ele>
        <time>2011-03-10T08:39:07</time>
      </trkpt>
      <trkpt lat="44.45601" lon="1.4693">
        <ele>243</ele>
        <time>2011-03-10T08:39:10</time>
      </trkpt>
      <trkpt lat="44.45598" lon="1.4693">
        <ele>243</ele>
        <time>2011-03-10T08:39:12</time>
      </trkpt>
      <trkpt lat="44.45595" lon="1.4693">
        <ele>243</ele>
        <time>2011-03-10T08:39:14</time>
      </trkpt>
      <trkpt lat="44.45592" lon="1.46931">
        <ele>243</ele>
        <time>2011-03-10T08:39:16</time>
      </trkpt>
      <trkpt lat="44.45588" lon="1.46932">
        <ele>243</ele>
        <time>2011-03-10T08:39:18</time>
      </trkpt>
      <trkpt lat="44.45585" lon="1.46934">
        <ele>243</ele>
        <time>2011-03-10T08:39:20</time>
      </trkpt>
      <trkpt lat="44.45582" lon="1.46936">
        <ele>243</ele>
        <time>2011-03-10T08:39:22</time>
      </trkpt>
      <trkpt lat="44.45579" lon="1.46937">
        <ele>243</ele>
        <time>2011-03-10T08:39:24</time>
      </trkpt>
      <trkpt lat="44.45575" lon="1.46938">
        <ele>243</ele>
        <time>2011-03-10T08:39:26</time>
      </trkpt>
      <trkpt lat="44.45573" lon="1.46941">
        <ele>243</ele>
        <time>2011-03-10T08:39:28</time>
      </trkpt>
      <trkpt lat="44.4557" lon="1.46942">
        <ele>243</ele>
        <time>2011-03-10T08:39:30</time>
      </trkpt>
      <trkpt lat="44.45567" lon="1.46942">
        <ele>243</ele>
        <time>2011-03-10T08:39:32</time>
      </trkpt>
      <trkpt lat="44.45566" lon="1.46942">
        <ele>243</ele>
        <time>2011-03-10T08:39:33</time>
      </trkpt>
      <trkpt lat="44.45563" lon="1.46941">
        <ele>243</ele>
        <time>2011-03-10T08:39:35</time>
      </trkpt>
      <trkpt lat="44.45559" lon="1.46939">
        <ele>243</ele>
        <time>2011-03-10T08:39:37</time>
      </trkpt>
      <trkpt lat="44.45556" lon="1.46939">
        <ele>243</ele>
        <time>2011-03-10T08:39:39</time>
      </trkpt>
      <trkpt lat="44.45554" lon="1.4694">
        <ele>243</ele>
        <time>2011-03-10T08:39:41</time>
      </trkpt>
      <trkpt lat="44.45551" lon="1.46942">
        <ele>243</ele>
        <time>2011-03-10T08:39:43</time>
      </trkpt>
      <trkpt lat="44.45549" lon="1.46942">
        <ele>243</ele>
        <time>2011-03-10T08:39:45</time>
      </trkpt>
      <trkpt lat="44.45547" lon="1.46938">
        <ele>243</ele>
        <time>2011-03-10T08:39:47</time>
      </trkpt>
      <trkpt lat="44.45544" lon="1.46936">
        <ele>243</ele>
        <time>2011-03-10T08:39:49</time>
      </trkpt>
      <trkpt lat="44.45541" lon="1.46937">
        <ele>252</ele>
        <time>2011-03-10T08:39:51</time>
      </trkpt>
      <trkpt lat="44.45538" lon="1.4694">
        <ele>252</ele>
        <time>2011-03-10T08:39:53</time>
      </trkpt>
      <trkpt lat="44.45535" lon="1.46942">
        <ele>252</ele>
        <time>2011-03-10T08:39:55</time>
      </trkpt>
      <trkpt lat="44.45532" lon="1.46944">
        <ele>252</ele>
        <time>2011-03-10T08:39:57</time>
      </trkpt>
      <trkpt lat="44.4553" lon="1.46944">
        <ele>252</ele>
        <time>2011-03-10T08:39:59</time>
      </trkpt>
      <trkpt lat="44.45527" lon="1.46945">
        <ele>252</ele>
        <time>2011-03-10T08:40:01</time>
      </trkpt>
      <trkpt lat="44.45524" lon="1.46946">
        <ele>252</ele>
        <time>2011-03-10T08:40:03</time>
      </trkpt>
      <trkpt lat="44.45521" lon="1.46945">
        <ele>252</ele>
        <time>2011-03-10T08:40:05</time>
      </trkpt>
      <trkpt lat="44.45518" lon="1.46944">
        <ele>252</ele>
        <time>2011-03-10T08:40:07</time>
      </trkpt>
      <trkpt lat="44.45516" lon="1.46943">
        <ele>252</ele>
        <time>2011-03-10T08:40:09</time>
      </trkpt>
      <trkpt lat="44.45513" lon="1.46942">
        <ele>252</ele>
        <time>2011-03-10T08:40:11</time>
      </trkpt>
      <trkpt lat="44.45511" lon="1.46941">
        <ele>252</ele>
        <time>2011-03-10T08:40:12</time>
      </trkpt>
      <trkpt lat="44.45508" lon="1.46941">
        <ele>252</ele>
        <time>2011-03-10T08:40:14</time>
      </trkpt>
      <trkpt lat="44.45505" lon="1.46943">
        <ele>252</ele>
        <time>2011-03-10T08:40:16</time>
      </trkpt>
      <trkpt lat="44.45503" lon="1.46945">
        <ele>252</ele>
        <time>2011-03-10T08:40:18</time>
      </trkpt>
      <trkpt lat="44.45499" lon="1.46944">
        <ele>252</ele>
        <time>2011-03-10T08:40:20</time>
      </trkpt>
      <trkpt lat="44.45496" lon="1.46943">
        <ele>252</ele>
        <time>2011-03-10T08:40:22</time>
      </trkpt>
      <trkpt lat="44.45493" lon="1.4694">
        <ele>252</ele>
        <time>2011-03-10T08:40:24</time>
      </trkpt>
      <trkpt lat="44.4549" lon="1.46937">
        <ele>252</ele>
        <time>2011-03-10T08:40:26</time>
      </trkpt>
      <trkpt lat="44.45487" lon="1.46933">
        <ele>252</ele>
        <time>2011-03-10T08:40:28</time>
      </trkpt>
      <trkpt lat="44.45484" lon="1.46931">
        <ele>252</ele>
        <time>2011-03-10T08:40:30</time>
      </trkpt>
      <trkpt lat="44.45482" lon="1.46928">
        <ele>252</ele>
        <time>2011-03-10T08:40:32</time>
      </trkpt>
      <trkpt lat="44.45479" lon="1.46928">
        <ele>252</ele>
        <time>2011-03-10T08:40:34</time>
      </trkpt>
      <trkpt lat="44.45476" lon="1.4693">
        <ele>252</ele>
        <time>2011-03-10T08:40:36</time>
      </trkpt>
      <trkpt lat="44.45472" lon="1.46931">
        <ele>252</ele>
        <time>2011-03-10T08:40:38</time>
      </trkpt>
      <trkpt lat="44.45469" lon="1.46933">
        <ele>252</ele>
        <time>2011-03-10T08:40:40</time>
      </trkpt>
      <trkpt lat="44.45466" lon="1.46935">
        <ele>252</ele>
        <time>2011-03-10T08:40:42</time>
      </trkpt>
      <trkpt lat="44.45463" lon="1.46935">
        <ele>252</ele>
        <time>2011-03-10T08:40:44</time>
      </trkpt>
      <trkpt lat="44.45459" lon="1.46935">
        <ele>252</ele>
        <time>2011-03-10T08:40:46</time>
      </trkpt>
      <trkpt lat="44.45456" lon="1.46935">
        <ele>261</ele>
        <time>2011-03-10T08:40:48</time>
      </trkpt>
      <trkpt lat="44.45453" lon="1.46933">
        <ele>261</ele>
        <time>2011-03-10T08:40:50</time>
      </trkpt>
      <trkpt lat="44.45451" lon="1.46933">
        <ele>261</ele>
        <time>2011-03-10T08:40:52</time>
      </trkpt>
      <trkpt lat="44.45448" lon="1.46933">
        <ele>261</ele>
        <time>2011-03-10T08:40:54</time>
      </trkpt>
      <trkpt lat="44.45445" lon="1.46934">
        <ele>261</ele>
        <time>2011-03-10T08:40:56</time>
      </trkpt>
      <trkpt lat="44.45442" lon="1.46933">
        <ele>261</ele>
        <time>2011-03-10T08:40:58</time>
      </trkpt>
      <trkpt lat="44.45439" lon="1.46933">
        <ele>261</ele>
        <time>2011-03-10T08:41:00</time>
      </trkpt>
      <trkpt lat="44.45436" lon="1.46933">
        <ele>261</ele>
        <time>2011-03-10T08:41:02</time>
      </trkpt>
      <trkpt lat="44.45433" lon="1.46934">
        <ele>261</ele>
        <time>2011-03-10T08:41:04</time>
      </trkpt>
      <trkpt lat="44.4543" lon="1.46934">
        <ele>261</ele>
        <time>2011-03-10T08:41:06</time>
      </trkpt>
      <trkpt lat="44.45425" lon="1.46935">
        <ele>261</ele>
        <time>2011-03-10T08:41:09</time>
      </trkpt>
      <trkpt lat="44.45421" lon="1.46936">
        <ele>261</ele>
        <time>2011-03-10T08:41:11</time>
      </trkpt>
      <trkpt lat="44.45418" lon="1.46937">
        <ele>261</ele>
        <time>2011-03-10T08:41:13</time>
      </trkpt>
      <trkpt lat="44.45414" lon="1.46939">
        <ele>261</ele>
        <time>2011-03-10T08:41:15</time>
      </trkpt>
      <trkpt lat="44.45411" lon="1.46942">
        <ele>261</ele>
        <time>2011-03-10T08:41:17</time>
      </trkpt>
      <trkpt lat="44.45408" lon="1.46944">
        <ele>261</ele>
        <time>2011-03-10T08:41:19</time>
      </trkpt>
      <trkpt lat="44.45406" lon="1.46947">
        <ele>261</ele>
        <time>2011-03-10T08:41:21</time>
      </trkpt>
      <trkpt lat="44.45404" lon="1.4695">
        <ele>261</ele>
        <time>2011-03-10T08:41:23</time>
      </trkpt>
      <trkpt lat="44.45401" lon="1.46952">
        <ele>261</ele>
        <time>2011-03-10T08:41:25</time>
      </trkpt>
      <trkpt lat="44.45399" lon="1.46954">
        <ele>261</ele>
        <time>2011-03-10T08:41:27</time>
      </trkpt>
      <trkpt lat="44.45396" lon="1.46956">
        <ele>261</ele>
        <time>2011-03-10T08:41:29</time>
      </trkpt>
      <trkpt lat="44.45395" lon="1.46957">
        <ele>261</ele>
        <time>2011-03-10T08:41:30</time>
      </trkpt>
      <trkpt lat="44.45392" lon="1.46958">
        <ele>261</ele>
        <time>2011-03-10T08:41:32</time>
      </trkpt>
      <trkpt lat="44.45389" lon="1.46958">
        <ele>261</ele>
        <time>2011-03-10T08:41:34</time>
      </trkpt>
      <trkpt lat="44.45386" lon="1.46956">
        <ele>261</ele>
        <time>2011-03-10T08:41:36</time>
      </trkpt>
      <trkpt lat="44.45382" lon="1.46954">
        <ele>261</ele>
        <time>2011-03-10T08:41:38</time>
      </trkpt>
      <trkpt lat="44.4538" lon="1.46952">
        <ele>261</ele>
        <time>2011-03-10T08:41:40</time>
      </trkpt>
      <trkpt lat="44.45377" lon="1.46951">
        <ele>261</ele>
        <time>2011-03-10T08:41:42</time>
      </trkpt>
      <trkpt lat="44.45373" lon="1.46949">
        <ele>271</ele>
        <time>2011-03-10T08:41:44</time>
      </trkpt>
      <trkpt lat="44.45369" lon="1.46947">
        <ele>271</ele>
        <time>2011-03-10T08:41:46</time>
      </trkpt>
      <trkpt lat="44.45367" lon="1.46945">
        <ele>271</ele>
        <time>2011-03-10T08:41:48</time>
      </trkpt>
      <trkpt lat="44.45366" lon="1.46941">
        <ele>271</ele>
        <time>2011-03-10T08:41:51</time>
      </trkpt>
      <trkpt lat="44.45365" lon="1.46938">
        <ele>271</ele>
        <time>2011-03-10T08:41:53</time>
      </trkpt>
      <trkpt lat="44.45363" lon="1.46935">
        <ele>271</ele>
        <time>2011-03-10T08:41:55</time>
      </trkpt>
      <trkpt lat="44.45361" lon="1.46932">
        <ele>271</ele>
        <time>2011-03-10T08:41:57</time>
      </trkpt>
      <trkpt lat="44.45358" lon="1.4693">
        <ele>271</ele>
        <time>2011-03-10T08:41:59</time>
      </trkpt>
      <trkpt lat="44.45355" lon="1.4693">
        <ele>271</ele>
        <time>2011-03-10T08:42:01</time>
      </trkpt>
      <trkpt lat="44.45352" lon="1.46928">
        <ele>271</ele>
        <time>2011-03-10T08:42:03</time>
      </trkpt>
      <trkpt lat="44.45349" lon="1.46927">
        <ele>271</ele>
        <time>2011-03-10T08:42:05</time>
      </trkpt>
      <trkpt lat="44.45347" lon="1.46925">
        <ele>271</ele>
        <time>2011-03-10T08:42:07</time>
      </trkpt>
      <trkpt lat="44.45345" lon="1.46922">
        <ele>271</ele>
        <time>2011-03-10T08:42:10</time>
      </trkpt>
      <trkpt lat="44.45344" lon="1.46919">
        <ele>271</ele>
        <time>2011-03-10T08:42:12</time>
      </trkpt>
      <trkpt lat="44.45342" lon="1.46917">
        <ele>271</ele>
        <time>2011-03-10T08:42:15</time>
      </trkpt>
      <trkpt lat="44.4534" lon="1.46915">
        <ele>271</ele>
        <time>2011-03-10T08:42:18</time>
      </trkpt>
      <trkpt lat="44.45338" lon="1.46911">
        <ele>271</ele>
        <time>2011-03-10T08:42:21</time>
      </trkpt>
      <trkpt lat="44.45337" lon="1.46907">
        <ele>271</ele>
        <time>2011-03-10T08:42:23</time>
      </trkpt>
      <trkpt lat="44.45336" lon="1.46904">
        <ele>271</ele>
        <time>2011-03-10T08:42:25</time>
      </trkpt>
      <trkpt lat="44.45335" lon="1.469">
        <ele>271</ele>
        <time>2011-03-10T08:42:27</time>
      </trkpt>
      <trkpt lat="44.45334" lon="1.46897">
        <ele>271</ele>
        <time>2011-03-10T08:42:29</time>
      </trkpt>
      <trkpt lat="44.45333" lon="1.46893">
        <ele>271</ele>
        <time>2011-03-10T08:42:31</time>
      </trkpt>
      <trkpt lat="44.45332" lon="1.4689">
        <ele>271</ele>
        <time>2011-03-10T08:42:33</time>
      </trkpt>
      <trkpt lat="44.45331" lon="1.46887">
        <ele>271</ele>
        <time>2011-03-10T08:42:35</time>
      </trkpt>
      <trkpt lat="44.45329" lon="1.46885">
        <ele>271</ele>
        <time>2011-03-10T08:42:37</time>
      </trkpt>
      <trkpt lat="44.45326" lon="1.46883">
        <ele>271</ele>
        <time>2011-03-10T08:42:40</time>
      </trkpt>
      <trkpt lat="44.45323" lon="1.46883">
        <ele>271</ele>
        <time>2011-03-10T08:42:42</time>
      </trkpt>
      <trkpt lat="44.45321" lon="1.46882">
        <ele>271</ele>
        <time>2011-03-10T08:42:44</time>
      </trkpt>
      <trkpt lat="44.45318" lon="1.46881">
        <ele>271</ele>
        <time>2011-03-10T08:42:46</time>
      </trkpt>
      <trkpt lat="44.45315" lon="1.46883">
        <ele>271</ele>
        <time>2011-03-10T08:42:48</time>
      </trkpt>
      <trkpt lat="44.45312" lon="1.46885">
        <ele>271</ele>
        <time>2011-03-10T08:42:50</time>
      </trkpt>
      <trkpt lat="44.45308" lon="1.46885">
        <ele>271</ele>
        <time>2011-03-10T08:42:52</time>
      </trkpt>
      <trkpt lat="44.45304" lon="1.46885">
        <ele>271</ele>
        <time>2011-03-10T08:42:54</time>
      </trkpt>
      <trkpt lat="44.45301" lon="1.46883">
        <ele>271</ele>
        <time>2011-03-10T08:42:56</time>
      </trkpt>
      <trkpt lat="44.45299" lon="1.46879">
        <ele>271</ele>
        <time>2011-03-10T08:42:58</time>
      </trkpt>
      <trkpt lat="44.45297" lon="1.46874">
        <ele>275</ele>
        <time>2011-03-10T08:43:00</time>
      </trkpt>
      <trkpt lat="44.45295" lon="1.46869">
        <ele>275</ele>
        <time>2011-03-10T08:43:02</time>
      </trkpt>
      <trkpt lat="44.45291" lon="1.46865">
        <ele>273</ele>
        <time>2011-03-10T08:43:04</time>
      </trkpt>
      <trkpt lat="44.45288" lon="1.46862">
        <ele>273</ele>
        <time>2011-03-10T08:43:06</time>
      </trkpt>
      <trkpt lat="44.45284" lon="1.46862">
        <ele>273</ele>
        <time>2011-03-10T08:43:08</time>
      </trkpt>
      <trkpt lat="44.45281" lon="1.46864">
        <ele>273</ele>
        <time>2011-03-10T08:43:10</time>
      </trkpt>
      <trkpt lat="44.45278" lon="1.46868">
        <ele>273</ele>
        <time>2011-03-10T08:43:12</time>
      </trkpt>
      <trkpt lat="44.45274" lon="1.46869">
        <ele>273</ele>
        <time>2011-03-10T08:43:14</time>
      </trkpt>
      <trkpt lat="44.4527" lon="1.46869">
        <ele>273</ele>
        <time>2011-03-10T08:43:16</time>
      </trkpt>
      <trkpt lat="44.45266" lon="1.46873">
        <ele>273</ele>
        <time>2011-03-10T08:43:18</time>
      </trkpt>
      <trkpt lat="44.45263" lon="1.46877">
        <ele>272</ele>
        <time>2011-03-10T08:43:20</time>
      </trkpt>
      <trkpt lat="44.45256" lon="1.46878">
        <ele>272</ele>
        <time>2011-03-10T08:43:23</time>
      </trkpt>
      <trkpt lat="44.45251" lon="1.46877">
        <ele>272</ele>
        <time>2011-03-10T08:43:25</time>
      </trkpt>
      <trkpt lat="44.45246" lon="1.46875">
        <ele>273</ele>
        <time>2011-03-10T08:43:27</time>
      </trkpt>
      <trkpt lat="44.45241" lon="1.46876">
        <ele>272</ele>
        <time>2011-03-10T08:43:29</time>
      </trkpt>
      <trkpt lat="44.45236" lon="1.46881">
        <ele>272</ele>
        <time>2011-03-10T08:43:31</time>
      </trkpt>
      <trkpt lat="44.45234" lon="1.46889">
        <ele>272</ele>
        <time>2011-03-10T08:43:34</time>
      </trkpt>
      <trkpt lat="44.4523" lon="1.46894">
        <ele>272</ele>
        <time>2011-03-10T08:43:36</time>
      </trkpt>
      <trkpt lat="44.45227" lon="1.46896">
        <ele>272</ele>
        <time>2011-03-10T08:43:37</time>
      </trkpt>
      <trkpt lat="44.45223" lon="1.46902">
        <ele>272</ele>
        <time>2011-03-10T08:43:39</time>
      </trkpt>
      <trkpt lat="44.45221" lon="1.46906">
        <ele>272</ele>
        <time>2011-03-10T08:43:40</time>
      </trkpt>
      <trkpt lat="44.45218" lon="1.46913">
        <ele>272</ele>
        <time>2011-03-10T08:43:42</time>
      </trkpt>
      <trkpt lat="44.45215" lon="1.46919">
        <ele>272</ele>
        <time>2011-03-10T08:43:44</time>
      </trkpt>
      <trkpt lat="44.45212" lon="1.46924">
        <ele>272</ele>
        <time>2011-03-10T08:43:46</time>
      </trkpt>
      <trkpt lat="44.4521" lon="1.46927">
        <ele>272</ele>
        <time>2011-03-10T08:43:47</time>
      </trkpt>
      <trkpt lat="44.45205" lon="1.4693">
        <ele>266</ele>
        <time>2011-03-10T08:43:49</time>
      </trkpt>
      <trkpt lat="44.45203" lon="1.46931">
        <ele>266</ele>
        <time>2011-03-10T08:43:50</time>
      </trkpt>
      <trkpt lat="44.45197" lon="1.46932">
        <ele>266</ele>
        <time>2011-03-10T08:43:52</time>
      </trkpt>
      <trkpt lat="44.45195" lon="1.46932">
        <ele>266</ele>
        <time>2011-03-10T08:43:53</time>
      </trkpt>
      <trkpt lat="44.45193" lon="1.46934">
        <ele>266</ele>
        <time>2011-03-10T08:43:54</time>
      </trkpt>
      <trkpt lat="44.45187" lon="1.46938">
        <ele>266</ele>
        <time>2011-03-10T08:43:57</time>
      </trkpt>
      <trkpt lat="44.45181" lon="1.46936">
        <ele>266</ele>
        <time>2011-03-10T08:43:59</time>
      </trkpt>
      <trkpt lat="44.45177" lon="1.46934">
        <ele>266</ele>
        <time>2011-03-10T08:44:00</time>
      </trkpt>
      <trkpt lat="44.4517" lon="1.46934">
        <ele>266</ele>
        <time>2011-03-10T08:44:02</time>
      </trkpt>
      <trkpt lat="44.45165" lon="1.46937">
        <ele>266</ele>
        <time>2011-03-10T08:44:05</time>
      </trkpt>
      <trkpt lat="44.4516" lon="1.4694">
        <ele>266</ele>
        <time>2011-03-10T08:44:06</time>
      </trkpt>
      <trkpt lat="44.45155" lon="1.46946">
        <ele>266</ele>
        <time>2011-03-10T08:44:08</time>
      </trkpt>
      <trkpt lat="44.45151" lon="1.46954">
        <ele>266</ele>
        <time>2011-03-10T08:44:10</time>
      </trkpt>
      <trkpt lat="44.4515" lon="1.46958">
        <ele>266</ele>
        <time>2011-03-10T08:44:11</time>
      </trkpt>
      <trkpt lat="44.45146" lon="1.46964">
        <ele>271</ele>
        <time>2011-03-10T08:44:13</time>
      </trkpt>
      <trkpt lat="44.45143" lon="1.4697">
        <ele>271</ele>
        <time>2011-03-10T08:44:15</time>
      </trkpt>
      <trkpt lat="44.45143" lon="1.46974">
        <ele>271</ele>
        <time>2011-03-10T08:44:16</time>
      </trkpt>
      <trkpt lat="44.4514" lon="1.46979">
        <ele>271</ele>
        <time>2011-03-10T08:44:18</time>
      </trkpt>
      <trkpt lat="44.45135" lon="1.46983">
        <ele>271</ele>
        <time>2011-03-10T08:44:20</time>
      </trkpt>
      <trkpt lat="44.4513" lon="1.46986">
        <ele>271</ele>
        <time>2011-03-10T08:44:22</time>
      </trkpt>
      <trkpt lat="44.45127" lon="1.46987">
        <ele>271</ele>
        <time>2011-03-10T08:44:23</time>
      </trkpt>
      <trkpt lat="44.45122" lon="1.46991">
        <ele>273</ele>
        <time>2011-03-10T08:44:25</time>
      </trkpt>
      <trkpt lat="44.45117" lon="1.46993">
        <ele>273</ele>
        <time>2011-03-10T08:44:27</time>
      </trkpt>
      <trkpt lat="44.45115" lon="1.46993">
        <ele>273</ele>
        <time>2011-03-10T08:44:28</time>
      </trkpt>
      <trkpt lat="44.4511" lon="1.46993">
        <ele>273</ele>
        <time>2011-03-10T08:44:30</time>
      </trkpt>
      <trkpt lat="44.45107" lon="1.46993">
        <ele>273</ele>
        <time>2011-03-10T08:44:31</time>
      </trkpt>
      <trkpt lat="44.45102" lon="1.46992">
        <ele>273</ele>
        <time>2011-03-10T08:44:33</time>
      </trkpt>
      <trkpt lat="44.451" lon="1.46991">
        <ele>273</ele>
        <time>2011-03-10T08:44:34</time>
      </trkpt>
      <trkpt lat="44.45094" lon="1.4699">
        <ele>273</ele>
        <time>2011-03-10T08:44:36</time>
      </trkpt>
      <trkpt lat="44.45092" lon="1.4699">
        <ele>273</ele>
        <time>2011-03-10T08:44:37</time>
      </trkpt>
      <trkpt lat="44.45087" lon="1.46988">
        <ele>273</ele>
        <time>2011-03-10T08:44:39</time>
      </trkpt>
      <trkpt lat="44.45084" lon="1.46986">
        <ele>273</ele>
        <time>2011-03-10T08:44:40</time>
      </trkpt>
      <trkpt lat="44.45079" lon="1.46984">
        <ele>273</ele>
        <time>2011-03-10T08:44:42</time>
      </trkpt>
      <trkpt lat="44.45074" lon="1.4698">
        <ele>273</ele>
        <time>2011-03-10T08:44:44</time>
      </trkpt>
      <trkpt lat="44.45069" lon="1.46976">
        <ele>273</ele>
        <time>2011-03-10T08:44:46</time>
      </trkpt>
      <trkpt lat="44.45067" lon="1.46973">
        <ele>273</ele>
        <time>2011-03-10T08:44:47</time>
      </trkpt>
      <trkpt lat="44.45064" lon="1.46971">
        <ele>273</ele>
        <time>2011-03-10T08:44:48</time>
      </trkpt>
      <trkpt lat="44.45059" lon="1.4697">
        <ele>273</ele>
        <time>2011-03-10T08:44:50</time>
      </trkpt>
      <trkpt lat="44.45054" lon="1.4697">
        <ele>273</ele>
        <time>2011-03-10T08:44:52</time>
      </trkpt>
      <trkpt lat="44.45048" lon="1.4697">
        <ele>273</ele>
        <time>2011-03-10T08:44:54</time>
      </trkpt>
      <trkpt lat="44.45044" lon="1.46973">
        <ele>273</ele>
        <time>2011-03-10T08:44:56</time>
      </trkpt>
      <trkpt lat="44.45039" lon="1.46977">
        <ele>271</ele>
        <time>2011-03-10T08:44:58</time>
      </trkpt>
      <trkpt lat="44.45034" lon="1.46981">
        <ele>271</ele>
        <time>2011-03-10T08:45:00</time>
      </trkpt>
      <trkpt lat="44.45029" lon="1.46984">
        <ele>271</ele>
        <time>2011-03-10T08:45:02</time>
      </trkpt>
      <trkpt lat="44.45024" lon="1.46988">
        <ele>271</ele>
        <time>2011-03-10T08:45:04</time>
      </trkpt>
      <trkpt lat="44.45023" lon="1.46991">
        <ele>271</ele>
        <time>2011-03-10T08:45:05</time>
      </trkpt>
      <trkpt lat="44.45022" lon="1.46998">
        <ele>271</ele>
        <time>2011-03-10T08:45:07</time>
      </trkpt>
      <trkpt lat="44.45022" lon="1.47002">
        <ele>271</ele>
        <time>2011-03-10T08:45:08</time>
      </trkpt>
      <trkpt lat="44.45022" lon="1.47009">
        <ele>271</ele>
        <time>2011-03-10T08:45:10</time>
      </trkpt>
      <trkpt lat="44.45023" lon="1.47013">
        <ele>271</ele>
        <time>2011-03-10T08:45:11</time>
      </trkpt>
      <trkpt lat="44.45022" lon="1.47022">
        <ele>271</ele>
        <time>2011-03-10T08:45:14</time>
      </trkpt>
      <trkpt lat="44.45022" lon="1.47031">
        <ele>271</ele>
        <time>2011-03-10T08:45:15</time>
      </trkpt>
      <trkpt lat="44.45022" lon="1.47036">
        <ele>271</ele>
        <time>2011-03-10T08:45:16</time>
      </trkpt>
      <trkpt lat="44.45023" lon="1.47045">
        <ele>270</ele>
        <time>2011-03-10T08:45:18</time>
      </trkpt>
      <trkpt lat="44.45023" lon="1.47055">
        <ele>270</ele>
        <time>2011-03-10T08:45:20</time>
      </trkpt>
      <trkpt lat="44.45023" lon="1.47061">
        <ele>270</ele>
        <time>2011-03-10T08:45:21</time>
      </trkpt>
      <trkpt lat="44.45024" lon="1.47072">
        <ele>270</ele>
        <time>2011-03-10T08:45:23</time>
      </trkpt>
      <trkpt lat="44.45024" lon="1.47077">
        <ele>270</ele>
        <time>2011-03-10T08:45:24</time>
      </trkpt>
      <trkpt lat="44.45022" lon="1.47087">
        <ele>270</ele>
        <time>2011-03-10T08:45:26</time>
      </trkpt>
      <trkpt lat="44.45024" lon="1.47098">
        <ele>270</ele>
        <time>2011-03-10T08:45:28</time>
      </trkpt>
      <trkpt lat="44.45023" lon="1.47104">
        <ele>270</ele>
        <time>2011-03-10T08:45:29</time>
      </trkpt>
      <trkpt lat="44.45022" lon="1.47118">
        <ele>270</ele>
        <time>2011-03-10T08:45:31</time>
      </trkpt>
      <trkpt lat="44.45022" lon="1.47132">
        <ele>269</ele>
        <time>2011-03-10T08:45:33</time>
      </trkpt>
      <trkpt lat="44.45022" lon="1.47146">
        <ele>269</ele>
        <time>2011-03-10T08:45:35</time>
      </trkpt>
      <trkpt lat="44.45019" lon="1.47151">
        <ele>269</ele>
        <time>2011-03-10T08:45:36</time>
      </trkpt>
      <trkpt lat="44.45014" lon="1.47159">
        <ele>269</ele>
        <time>2011-03-10T08:45:38</time>
      </trkpt>
      <trkpt lat="44.45012" lon="1.47161">
        <ele>269</ele>
        <time>2011-03-10T08:45:39</time>
      </trkpt>
      <trkpt lat="44.4501" lon="1.47164">
        <ele>269</ele>
        <time>2011-03-10T08:45:40</time>
      </trkpt>
      <trkpt lat="44.45009" lon="1.47167">
        <ele>269</ele>
        <time>2011-03-10T08:45:41</time>
      </trkpt>
      <trkpt lat="44.45005" lon="1.47175">
        <ele>269</ele>
        <time>2011-03-10T08:45:43</time>
      </trkpt>
      <trkpt lat="44.45001" lon="1.47179">
        <ele>269</ele>
        <time>2011-03-10T08:45:44</time>
      </trkpt>
      <trkpt lat="44.44994" lon="1.47187">
        <ele>269</ele>
        <time>2011-03-10T08:45:46</time>
      </trkpt>
      <trkpt lat="44.4499" lon="1.4719">
        <ele>269</ele>
        <time>2011-03-10T08:45:47</time>
      </trkpt>
      <trkpt lat="44.44983" lon="1.47198">
        <ele>269</ele>
        <time>2011-03-10T08:45:49</time>
      </trkpt>
      <trkpt lat="44.4498" lon="1.47201">
        <ele>269</ele>
        <time>2011-03-10T08:45:50</time>
      </trkpt>
      <trkpt lat="44.44975" lon="1.47209">
        <ele>264</ele>
        <time>2011-03-10T08:45:52</time>
      </trkpt>
      <trkpt lat="44.4497" lon="1.47216">
        <ele>264</ele>
        <time>2011-03-10T08:45:54</time>
      </trkpt>
      <trkpt lat="44.44964" lon="1.47223">
        <ele>264</ele>
        <time>2011-03-10T08:45:56</time>
      </trkpt>
      <trkpt lat="44.44962" lon="1.47226">
        <ele>264</ele>
        <time>2011-03-10T08:45:57</time>
      </trkpt>
      <trkpt lat="44.44956" lon="1.47232">
        <ele>270</ele>
        <time>2011-03-10T08:45:59</time>
      </trkpt>
      <trkpt lat="44.44954" lon="1.47234">
        <ele>270</ele>
        <time>2011-03-10T08:46:00</time>
      </trkpt>
      <trkpt lat="44.44949" lon="1.47238">
        <ele>270</ele>
        <time>2011-03-10T08:46:02</time>
      </trkpt>
      <trkpt lat="44.44947" lon="1.47238">
        <ele>270</ele>
        <time>2011-03-10T08:46:04</time>
      </trkpt>
      <trkpt lat="44.44943" lon="1.4724">
        <ele>270</ele>
        <time>2011-03-10T08:46:06</time>
      </trkpt>
      <trkpt lat="44.4494" lon="1.47242">
        <ele>270</ele>
        <time>2011-03-10T08:46:08</time>
      </trkpt>
      <trkpt lat="44.44935" lon="1.47243">
        <ele>270</ele>
        <time>2011-03-10T08:46:10</time>
      </trkpt>
      <trkpt lat="44.44933" lon="1.47244">
        <ele>270</ele>
        <time>2011-03-10T08:46:11</time>
      </trkpt>
      <trkpt lat="44.44931" lon="1.47245">
        <ele>270</ele>
        <time>2011-03-10T08:46:12</time>
      </trkpt>
      <trkpt lat="44.44925" lon="1.47248">
        <ele>270</ele>
        <time>2011-03-10T08:46:14</time>
      </trkpt>
      <trkpt lat="44.44922" lon="1.47249">
        <ele>270</ele>
        <time>2011-03-10T08:46:15</time>
      </trkpt>
      <trkpt lat="44.44915" lon="1.47252">
        <ele>270</ele>
        <time>2011-03-10T08:46:17</time>
      </trkpt>
      <trkpt lat="44.44909" lon="1.47255">
        <ele>270</ele>
        <time>2011-03-10T08:46:19</time>
      </trkpt>
      <trkpt lat="44.44905" lon="1.47256">
        <ele>270</ele>
        <time>2011-03-10T08:46:20</time>
      </trkpt>
      <trkpt lat="44.44898" lon="1.4726">
        <ele>270</ele>
        <time>2011-03-10T08:46:22</time>
      </trkpt>
      <trkpt lat="44.4489" lon="1.47263">
        <ele>270</ele>
        <time>2011-03-10T08:46:24</time>
      </trkpt>
      <trkpt lat="44.44887" lon="1.47265">
        <ele>270</ele>
        <time>2011-03-10T08:46:25</time>
      </trkpt>
      <trkpt lat="44.44879" lon="1.4727">
        <ele>270</ele>
        <time>2011-03-10T08:46:27</time>
      </trkpt>
      <trkpt lat="44.44876" lon="1.47273">
        <ele>270</ele>
        <time>2011-03-10T08:46:28</time>
      </trkpt>
      <trkpt lat="44.4487" lon="1.47279">
        <ele>264</ele>
        <time>2011-03-10T08:46:30</time>
      </trkpt>
      <trkpt lat="44.44864" lon="1.47285">
        <ele>264</ele>
        <time>2011-03-10T08:46:32</time>
      </trkpt>
      <trkpt lat="44.44861" lon="1.47289">
        <ele>264</ele>
        <time>2011-03-10T08:46:33</time>
      </trkpt>
      <trkpt lat="44.44858" lon="1.47292">
        <ele>273</ele>
        <time>2011-03-10T08:46:34</time>
      </trkpt>
      <trkpt lat="44.44851" lon="1.47298">
        <ele>273</ele>
        <time>2011-03-10T08:46:36</time>
      </trkpt>
      <trkpt lat="44.44844" lon="1.47304">
        <ele>273</ele>
        <time>2011-03-10T08:46:38</time>
      </trkpt>
      <trkpt lat="44.44841" lon="1.47307">
        <ele>273</ele>
        <time>2011-03-10T08:46:39</time>
      </trkpt>
      <trkpt lat="44.44837" lon="1.4731">
        <ele>273</ele>
        <time>2011-03-10T08:46:40</time>
      </trkpt>
      <trkpt lat="44.44831" lon="1.47316">
        <ele>273</ele>
        <time>2011-03-10T08:46:42</time>
      </trkpt>
      <trkpt lat="44.44824" lon="1.47322">
        <ele>273</ele>
        <time>2011-03-10T08:46:44</time>
      </trkpt>
      <trkpt lat="44.4482" lon="1.47324">
        <ele>273</ele>
        <time>2011-03-10T08:46:45</time>
      </trkpt>
      <trkpt lat="44.44812" lon="1.47326">
        <ele>273</ele>
        <time>2011-03-10T08:46:47</time>
      </trkpt>
      <trkpt lat="44.44808" lon="1.47327">
        <ele>273</ele>
        <time>2011-03-10T08:46:48</time>
      </trkpt>
      <trkpt lat="44.44804" lon="1.47327">
        <ele>273</ele>
        <time>2011-03-10T08:46:49</time>
      </trkpt>
      <trkpt lat="44.44794" lon="1.47326">
        <ele>273</ele>
        <time>2011-03-10T08:46:51</time>
      </trkpt>
      <trkpt lat="44.44789" lon="1.47326">
        <ele>266</ele>
        <time>2011-03-10T08:46:52</time>
      </trkpt>
      <trkpt lat="44.44777" lon="1.47323">
        <ele>266</ele>
        <time>2011-03-10T08:46:54</time>
      </trkpt>
      <trkpt lat="44.44763" lon="1.47318">
        <ele>266</ele>
        <time>2011-03-10T08:46:56</time>
      </trkpt>
      <trkpt lat="44.44756" lon="1.47315">
        <ele>266</ele>
        <time>2011-03-10T08:46:57</time>
      </trkpt>
      <trkpt lat="44.44748" lon="1.4731">
        <ele>266</ele>
        <time>2011-03-10T08:46:58</time>
      </trkpt>
      <trkpt lat="44.44735" lon="1.47296">
        <ele>266</ele>
        <time>2011-03-10T08:47:00</time>
      </trkpt>
      <trkpt lat="44.44729" lon="1.4729">
        <ele>263</ele>
        <time>2011-03-10T08:47:01</time>
      </trkpt>
      <trkpt lat="44.44719" lon="1.47279">
        <ele>263</ele>
        <time>2011-03-10T08:47:03</time>
      </trkpt>
      <trkpt lat="44.4471" lon="1.47273">
        <ele>263</ele>
        <time>2011-03-10T08:47:05</time>
      </trkpt>
      <trkpt lat="44.44705" lon="1.47268">
        <ele>266</ele>
        <time>2011-03-10T08:47:07</time>
      </trkpt>
      <trkpt lat="44.44701" lon="1.47265">
        <ele>266</ele>
        <time>2011-03-10T08:47:09</time>
      </trkpt>
      <trkpt lat="44.447" lon="1.47265">
        <ele>266</ele>
        <time>2011-03-10T08:47:11</time>
      </trkpt>
      <trkpt lat="44.44697" lon="1.47268">
        <ele>266</ele>
        <time>2011-03-10T08:47:13</time>
      </trkpt>
      <trkpt lat="44.44698" lon="1.47277">
        <ele>266</ele>
        <time>2011-03-10T08:47:16</time>
      </trkpt>
      <trkpt lat="44.44696" lon="1.47283">
        <ele>266</ele>
        <time>2011-03-10T08:47:18</time>
      </trkpt>
      <trkpt lat="44.44694" lon="1.47286">
        <ele>266</ele>
        <time>2011-03-10T08:47:19</time>
      </trkpt>
      <trkpt lat="44.44693" lon="1.47289">
        <ele>266</ele>
        <time>2011-03-10T08:47:20</time>
      </trkpt>
      <trkpt lat="44.44693" lon="1.47295">
        <ele>256</ele>
        <time>2011-03-10T08:47:22</time>
      </trkpt>
      <trkpt lat="44.44695" lon="1.47299">
        <ele>256</ele>
        <time>2011-03-10T08:47:23</time>
      </trkpt>
      <trkpt lat="44.44697" lon="1.47302">
        <ele>256</ele>
        <time>2011-03-10T08:47:24</time>
      </trkpt>
      <trkpt lat="44.447" lon="1.4731">
        <ele>256</ele>
        <time>2011-03-10T08:47:26</time>
      </trkpt>
      <trkpt lat="44.44703" lon="1.47315">
        <ele>256</ele>
        <time>2011-03-10T08:47:27</time>
      </trkpt>
      <trkpt lat="44.44706" lon="1.47325">
        <ele>256</ele>
        <time>2011-03-10T08:47:29</time>
      </trkpt>
      <trkpt lat="44.44708" lon="1.47336">
        <ele>256</ele>
        <time>2011-03-10T08:47:31</time>
      </trkpt>
      <trkpt lat="44.44712" lon="1.47349">
        <ele>266</ele>
        <time>2011-03-10T08:47:33</time>
      </trkpt>
      <trkpt lat="44.44717" lon="1.47361">
        <ele>266</ele>
        <time>2011-03-10T08:47:35</time>
      </trkpt>
      <trkpt lat="44.4472" lon="1.47371">
        <ele>266</ele>
        <time>2011-03-10T08:47:37</time>
      </trkpt>
      <trkpt lat="44.44723" lon="1.47381">
        <ele>258</ele>
        <time>2011-03-10T08:47:39</time>
      </trkpt>
      <trkpt lat="44.44725" lon="1.47387">
        <ele>258</ele>
        <time>2011-03-10T08:47:40</time>
      </trkpt>
      <trkpt lat="44.44729" lon="1.47397">
        <ele>258</ele>
        <time>2011-03-10T08:47:42</time>
      </trkpt>
      <trkpt lat="44.44729" lon="1.47404">
        <ele>258</ele>
        <time>2011-03-10T08:47:44</time>
      </trkpt>
      <trkpt lat="44.44729" lon="1.47414">
        <ele>258</ele>
        <time>2011-03-10T08:47:46</time>
      </trkpt>
      <trkpt lat="44.44729" lon="1.4742">
        <ele>258</ele>
        <time>2011-03-10T08:47:47</time>
      </trkpt>
      <trkpt lat="44.44733" lon="1.47429">
        <ele>258</ele>
        <time>2011-03-10T08:47:49</time>
      </trkpt>
      <trkpt lat="44.44734" lon="1.47433">
        <ele>258</ele>
        <time>2011-03-10T08:47:50</time>
      </trkpt>
      <trkpt lat="44.44734" lon="1.47436">
        <ele>258</ele>
        <time>2011-03-10T08:47:51</time>
      </trkpt>
      <trkpt lat="44.44734" lon="1.4744">
        <ele>258</ele>
        <time>2011-03-10T08:47:52</time>
      </trkpt>
      <trkpt lat="44.44736" lon="1.47452">
        <ele>258</ele>
        <time>2011-03-10T08:47:54</time>
      </trkpt>
      <trkpt lat="44.44737" lon="1.4746">
        <ele>244</ele>
        <time>2011-03-10T08:47:56</time>
      </trkpt>
      <trkpt lat="44.44738" lon="1.4747">
        <ele>244</ele>
        <time>2011-03-10T08:47:58</time>
      </trkpt>
      <trkpt lat="44.44739" lon="1.47477">
        <ele>244</ele>
        <time>2011-03-10T08:47:59</time>
      </trkpt>
      <trkpt lat="44.44741" lon="1.47489">
        <ele>244</ele>
        <time>2011-03-10T08:48:01</time>
      </trkpt>
      <trkpt lat="44.44743" lon="1.47495">
        <ele>244</ele>
        <time>2011-03-10T08:48:02</time>
      </trkpt>
      <trkpt lat="44.44744" lon="1.475">
        <ele>244</ele>
        <time>2011-03-10T08:48:03</time>
      </trkpt>
      <trkpt lat="44.44745" lon="1.47509">
        <ele>244</ele>
        <time>2011-03-10T08:48:05</time>
      </trkpt>
      <trkpt lat="44.44745" lon="1.47514">
        <ele>244</ele>
        <time>2011-03-10T08:48:06</time>
      </trkpt>
      <trkpt lat="44.44747" lon="1.47525">
        <ele>244</ele>
        <time>2011-03-10T08:48:08</time>
      </trkpt>
      <trkpt lat="44.44749" lon="1.47531">
        <ele>244</ele>
        <time>2011-03-10T08:48:09</time>
      </trkpt>
      <trkpt lat="44.44751" lon="1.47544">
        <ele>232</ele>
        <time>2011-03-10T08:48:11</time>
      </trkpt>
      <trkpt lat="44.44751" lon="1.47551">
        <ele>232</ele>
        <time>2011-03-10T08:48:12</time>
      </trkpt>
      <trkpt lat="44.44752" lon="1.47566">
        <ele>232</ele>
        <time>2011-03-10T08:48:14</time>
      </trkpt>
      <trkpt lat="44.44755" lon="1.47573">
        <ele>232</ele>
        <time>2011-03-10T08:48:15</time>
      </trkpt>
      <trkpt lat="44.44757" lon="1.47579">
        <ele>232</ele>
        <time>2011-03-10T08:48:16</time>
      </trkpt>
      <trkpt lat="44.4476" lon="1.4759">
        <ele>232</ele>
        <time>2011-03-10T08:48:18</time>
      </trkpt>
      <trkpt lat="44.44761" lon="1.47597">
        <ele>232</ele>
        <time>2011-03-10T08:48:19</time>
      </trkpt>
      <trkpt lat="44.44767" lon="1.47613">
        <ele>232</ele>
        <time>2011-03-10T08:48:21</time>
      </trkpt>
      <trkpt lat="44.44771" lon="1.47628">
        <ele>220</ele>
        <time>2011-03-10T08:48:23</time>
      </trkpt>
      <trkpt lat="44.44778" lon="1.47644">
        <ele>220</ele>
        <time>2011-03-10T08:48:25</time>
      </trkpt>
      <trkpt lat="44.44784" lon="1.4766">
        <ele>220</ele>
        <time>2011-03-10T08:48:27</time>
      </trkpt>
      <trkpt lat="44.44787" lon="1.47666">
        <ele>220</ele>
        <time>2011-03-10T08:48:28</time>
      </trkpt>
      <trkpt lat="44.44793" lon="1.47676">
        <ele>243</ele>
        <time>2011-03-10T08:48:30</time>
      </trkpt>
      <trkpt lat="44.44794" lon="1.47682">
        <ele>243</ele>
        <time>2011-03-10T08:48:32</time>
      </trkpt>
      <trkpt lat="44.44795" lon="1.47687">
        <ele>243</ele>
        <time>2011-03-10T08:48:33</time>
      </trkpt>
      <trkpt lat="44.44798" lon="1.47697">
        <ele>243</ele>
        <time>2011-03-10T08:48:35</time>
      </trkpt>
      <trkpt lat="44.44801" lon="1.47702">
        <ele>243</ele>
        <time>2011-03-10T08:48:36</time>
      </trkpt>
      <trkpt lat="44.44808" lon="1.47711">
        <ele>228</ele>
        <time>2011-03-10T08:48:38</time>
      </trkpt>
      <trkpt lat="44.44815" lon="1.47721">
        <ele>228</ele>
        <time>2011-03-10T08:48:40</time>
      </trkpt>
      <trkpt lat="44.44822" lon="1.47731">
        <ele>228</ele>
        <time>2011-03-10T08:48:42</time>
      </trkpt>
      <trkpt lat="44.4483" lon="1.47739">
        <ele>228</ele>
        <time>2011-03-10T08:48:44</time>
      </trkpt>
      <trkpt lat="44.4484" lon="1.47741">
        <ele>228</ele>
        <time>2011-03-10T08:48:46</time>
      </trkpt>
      <trkpt lat="44.44848" lon="1.47738">
        <ele>228</ele>
        <time>2011-03-10T08:48:48</time>
      </trkpt>
      <trkpt lat="44.44852" lon="1.47737">
        <ele>228</ele>
        <time>2011-03-10T08:48:49</time>
      </trkpt>
      <trkpt lat="44.44861" lon="1.47734">
        <ele>228</ele>
        <time>2011-03-10T08:48:51</time>
      </trkpt>
      <trkpt lat="44.44865" lon="1.47732">
        <ele>228</ele>
        <time>2011-03-10T08:48:52</time>
      </trkpt>
      <trkpt lat="44.44873" lon="1.47727">
        <ele>228</ele>
        <time>2011-03-10T08:48:54</time>
      </trkpt>
      <trkpt lat="44.44878" lon="1.47725">
        <ele>222</ele>
        <time>2011-03-10T08:48:55</time>
      </trkpt>
      <trkpt lat="44.44882" lon="1.47723">
        <ele>222</ele>
        <time>2011-03-10T08:48:56</time>
      </trkpt>
      <trkpt lat="44.4489" lon="1.47719">
        <ele>222</ele>
        <time>2011-03-10T08:48:58</time>
      </trkpt>
      <trkpt lat="44.44895" lon="1.47716">
        <ele>222</ele>
        <time>2011-03-10T08:48:59</time>
      </trkpt>
      <trkpt lat="44.44898" lon="1.47713">
        <ele>222</ele>
        <time>2011-03-10T08:49:00</time>
      </trkpt>
      <trkpt lat="44.44907" lon="1.47708">
        <ele>239</ele>
        <time>2011-03-10T08:49:02</time>
      </trkpt>
      <trkpt lat="44.44911" lon="1.47706">
        <ele>239</ele>
        <time>2011-03-10T08:49:03</time>
      </trkpt>
      <trkpt lat="44.44919" lon="1.47701">
        <ele>239</ele>
        <time>2011-03-10T08:49:05</time>
      </trkpt>
      <trkpt lat="44.44924" lon="1.477">
        <ele>239</ele>
        <time>2011-03-10T08:49:06</time>
      </trkpt>
      <trkpt lat="44.44931" lon="1.47699">
        <ele>239</ele>
        <time>2011-03-10T08:49:08</time>
      </trkpt>
      <trkpt lat="44.44934" lon="1.47699">
        <ele>239</ele>
        <time>2011-03-10T08:49:09</time>
      </trkpt>
      <trkpt lat="44.44941" lon="1.47697">
        <ele>239</ele>
        <time>2011-03-10T08:49:11</time>
      </trkpt>
      <trkpt lat="44.44945" lon="1.47694">
        <ele>239</ele>
        <time>2011-03-10T08:49:12</time>
      </trkpt>
      <trkpt lat="44.44951" lon="1.47691">
        <ele>239</ele>
        <time>2011-03-10T08:49:13</time>
      </trkpt>
      <trkpt lat="44.44956" lon="1.47691">
        <ele>239</ele>
        <time>2011-03-10T08:49:14</time>
      </trkpt>
      <trkpt lat="44.44965" lon="1.47691">
        <ele>213</ele>
        <time>2011-03-10T08:49:16</time>
      </trkpt>
      <trkpt lat="44.4497" lon="1.4769">
        <ele>213</ele>
        <time>2011-03-10T08:49:19</time>
      </trkpt>
      <trkpt lat="44.44973" lon="1.47688">
        <ele>213</ele>
        <time>2011-03-10T08:49:21</time>
      </trkpt>
      <trkpt lat="44.44975" lon="1.47686">
        <ele>213</ele>
        <time>2011-03-10T08:49:22</time>
      </trkpt>
      <trkpt lat="44.44981" lon="1.47677">
        <ele>213</ele>
        <time>2011-03-10T08:49:24</time>
      </trkpt>
      <trkpt lat="44.44986" lon="1.47671">
        <ele>213</ele>
        <time>2011-03-10T08:49:25</time>
      </trkpt>
      <trkpt lat="44.44996" lon="1.47657">
        <ele>213</ele>
        <time>2011-03-10T08:49:27</time>
      </trkpt>
      <trkpt lat="44.45001" lon="1.47649">
        <ele>213</ele>
        <time>2011-03-10T08:49:28</time>
      </trkpt>
      <trkpt lat="44.4501" lon="1.4763">
        <ele>213</ele>
        <time>2011-03-10T08:49:30</time>
      </trkpt>
      <trkpt lat="44.45015" lon="1.4762">
        <ele>224</ele>
        <time>2011-03-10T08:49:31</time>
      </trkpt>
      <trkpt lat="44.45024" lon="1.47599">
        <ele>224</ele>
        <time>2011-03-10T08:49:33</time>
      </trkpt>
      <trkpt lat="44.45028" lon="1.47588">
        <ele>224</ele>
        <time>2011-03-10T08:49:34</time>
      </trkpt>
      <trkpt lat="44.45036" lon="1.47569">
        <ele>224</ele>
        <time>2011-03-10T08:49:36</time>
      </trkpt>
      <trkpt lat="44.45041" lon="1.47561">
        <ele>224</ele>
        <time>2011-03-10T08:49:37</time>
      </trkpt>
      <trkpt lat="44.45051" lon="1.47544">
        <ele>195</ele>
        <time>2011-03-10T08:49:39</time>
      </trkpt>
      <trkpt lat="44.45058" lon="1.47535">
        <ele>206</ele>
        <time>2011-03-10T08:49:40</time>
      </trkpt>
      <trkpt lat="44.45063" lon="1.47527">
        <ele>206</ele>
        <time>2011-03-10T08:49:41</time>
      </trkpt>
      <trkpt lat="44.45074" lon="1.47518">
        <ele>206</ele>
        <time>2011-03-10T08:49:43</time>
      </trkpt>
      <trkpt lat="44.4508" lon="1.47514">
        <ele>206</ele>
        <time>2011-03-10T08:49:44</time>
      </trkpt>
      <trkpt lat="44.45095" lon="1.47509">
        <ele>206</ele>
        <time>2011-03-10T08:49:46</time>
      </trkpt>
      <trkpt lat="44.4511" lon="1.47503">
        <ele>206</ele>
        <time>2011-03-10T08:49:48</time>
      </trkpt>
      <trkpt lat="44.45117" lon="1.47501">
        <ele>206</ele>
        <time>2011-03-10T08:49:49</time>
      </trkpt>
      <trkpt lat="44.45123" lon="1.47499">
        <ele>206</ele>
        <time>2011-03-10T08:49:50</time>
      </trkpt>
      <trkpt lat="44.45138" lon="1.47494">
        <ele>186</ele>
        <time>2011-03-10T08:49:52</time>
      </trkpt>
      <trkpt lat="44.45145" lon="1.4749">
        <ele>186</ele>
        <time>2011-03-10T08:49:53</time>
      </trkpt>
      <trkpt lat="44.45153" lon="1.47485">
        <ele>186</ele>
        <time>2011-03-10T08:49:54</time>
      </trkpt>
      <trkpt lat="44.4517" lon="1.47476">
        <ele>186</ele>
        <time>2011-03-10T08:49:56</time>
      </trkpt>
      <trkpt lat="44.45177" lon="1.47471">
        <ele>186</ele>
        <time>2011-03-10T08:49:57</time>
      </trkpt>
      <trkpt lat="44.4519" lon="1.4746">
        <ele>186</ele>
        <time>2011-03-10T08:49:59</time>
      </trkpt>
      <trkpt lat="44.45202" lon="1.47447">
        <ele>199</ele>
        <time>2011-03-10T08:50:01</time>
      </trkpt>
      <trkpt lat="44.45209" lon="1.47442">
        <ele>185</ele>
        <time>2011-03-10T08:50:02</time>
      </trkpt>
      <trkpt lat="44.45216" lon="1.47438">
        <ele>185</ele>
        <time>2011-03-10T08:50:03</time>
      </trkpt>
      <trkpt lat="44.45227" lon="1.47426">
        <ele>185</ele>
        <time>2011-03-10T08:50:05</time>
      </trkpt>
      <trkpt lat="44.45231" lon="1.47422">
        <ele>185</ele>
        <time>2011-03-10T08:50:06</time>
      </trkpt>
      <trkpt lat="44.4524" lon="1.47412">
        <ele>185</ele>
        <time>2011-03-10T08:50:08</time>
      </trkpt>
      <trkpt lat="44.45249" lon="1.47402">
        <ele>185</ele>
        <time>2011-03-10T08:50:10</time>
      </trkpt>
      <trkpt lat="44.45254" lon="1.47397">
        <ele>185</ele>
        <time>2011-03-10T08:50:11</time>
      </trkpt>
      <trkpt lat="44.45263" lon="1.47388">
        <ele>185</ele>
        <time>2011-03-10T08:50:13</time>
      </trkpt>
      <trkpt lat="44.45271" lon="1.4738">
        <ele>185</ele>
        <time>2011-03-10T08:50:15</time>
      </trkpt>
      <trkpt lat="44.45278" lon="1.47372">
        <ele>201</ele>
        <time>2011-03-10T08:50:17</time>
      </trkpt>
      <trkpt lat="44.45282" lon="1.47369">
        <ele>201</ele>
        <time>2011-03-10T08:50:18</time>
      </trkpt>
      <trkpt lat="44.45288" lon="1.47363">
        <ele>201</ele>
        <time>2011-03-10T08:50:20</time>
      </trkpt>
      <trkpt lat="44.45292" lon="1.4736">
        <ele>186</ele>
        <time>2011-03-10T08:50:21</time>
      </trkpt>
      <trkpt lat="44.45298" lon="1.47353">
        <ele>186</ele>
        <time>2011-03-10T08:50:23</time>
      </trkpt>
      <trkpt lat="44.45302" lon="1.4735">
        <ele>186</ele>
        <time>2011-03-10T08:50:24</time>
      </trkpt>
      <trkpt lat="44.4531" lon="1.47341">
        <ele>186</ele>
        <time>2011-03-10T08:50:26</time>
      </trkpt>
      <trkpt lat="44.45318" lon="1.47331">
        <ele>186</ele>
        <time>2011-03-10T08:50:28</time>
      </trkpt>
      <trkpt lat="44.45326" lon="1.47321">
        <ele>186</ele>
        <time>2011-03-10T08:50:30</time>
      </trkpt>
      <trkpt lat="44.45331" lon="1.47317">
        <ele>186</ele>
        <time>2011-03-10T08:50:31</time>
      </trkpt>
      <trkpt lat="44.45339" lon="1.47309">
        <ele>186</ele>
        <time>2011-03-10T08:50:33</time>
      </trkpt>
      <trkpt lat="44.45348" lon="1.47301">
        <ele>186</ele>
        <time>2011-03-10T08:50:35</time>
      </trkpt>
      <trkpt lat="44.45353" lon="1.47298">
        <ele>186</ele>
        <time>2011-03-10T08:50:36</time>
      </trkpt>
      <trkpt lat="44.45357" lon="1.47295">
        <ele>186</ele>
        <time>2011-03-10T08:50:37</time>
      </trkpt>
      <trkpt lat="44.45366" lon="1.47289">
        <ele>204</ele>
        <time>2011-03-10T08:50:39</time>
      </trkpt>
      <trkpt lat="44.45371" lon="1.47286">
        <ele>204</ele>
        <time>2011-03-10T08:50:40</time>
      </trkpt>
      <trkpt lat="44.4538" lon="1.47281">
        <ele>196</ele>
        <time>2011-03-10T08:50:42</time>
      </trkpt>
      <trkpt lat="44.45384" lon="1.47279">
        <ele>196</ele>
        <time>2011-03-10T08:50:43</time>
      </trkpt>
      <trkpt lat="44.45393" lon="1.47274">
        <ele>196</ele>
        <time>2011-03-10T08:50:45</time>
      </trkpt>
      <trkpt lat="44.45397" lon="1.47271">
        <ele>196</ele>
        <time>2011-03-10T08:50:46</time>
      </trkpt>
      <trkpt lat="44.45402" lon="1.4727">
        <ele>196</ele>
        <time>2011-03-10T08:50:47</time>
      </trkpt>
      <trkpt lat="44.4541" lon="1.47265">
        <ele>196</ele>
        <time>2011-03-10T08:50:49</time>
      </trkpt>
      <trkpt lat="44.45415" lon="1.47263">
        <ele>196</ele>
        <time>2011-03-10T08:50:50</time>
      </trkpt>
      <trkpt lat="44.45423" lon="1.47258">
        <ele>196</ele>
        <time>2011-03-10T08:50:52</time>
      </trkpt>
      <trkpt lat="44.45432" lon="1.47253">
        <ele>196</ele>
        <time>2011-03-10T08:50:54</time>
      </trkpt>
      <trkpt lat="44.45437" lon="1.47251">
        <ele>196</ele>
        <time>2011-03-10T08:50:55</time>
      </trkpt>
      <trkpt lat="44.45442" lon="1.47248">
        <ele>196</ele>
        <time>2011-03-10T08:50:56</time>
      </trkpt>
      <trkpt lat="44.45451" lon="1.47244">
        <ele>196</ele>
        <time>2011-03-10T08:50:58</time>
      </trkpt>
      <trkpt lat="44.45455" lon="1.47241">
        <ele>196</ele>
        <time>2011-03-10T08:50:59</time>
      </trkpt>
      <trkpt lat="44.45464" lon="1.47237">
        <ele>191</ele>
        <time>2011-03-10T08:51:01</time>
      </trkpt>
      <trkpt lat="44.45468" lon="1.47234">
        <ele>191</ele>
        <time>2011-03-10T08:51:02</time>
      </trkpt>
      <trkpt lat="44.45476" lon="1.47231">
        <ele>191</ele>
        <time>2011-03-10T08:51:04</time>
      </trkpt>
      <trkpt lat="44.45481" lon="1.47228">
        <ele>191</ele>
        <time>2011-03-10T08:51:05</time>
      </trkpt>
      <trkpt lat="44.45485" lon="1.47226">
        <ele>191</ele>
        <time>2011-03-10T08:51:06</time>
      </trkpt>
      <trkpt lat="44.45494" lon="1.47221">
        <ele>191</ele>
        <time>2011-03-10T08:51:08</time>
      </trkpt>
      <trkpt lat="44.45499" lon="1.47218">
        <ele>191</ele>
        <time>2011-03-10T08:51:09</time>
      </trkpt>
      <trkpt lat="44.4551" lon="1.47215">
        <ele>191</ele>
        <time>2011-03-10T08:51:11</time>
      </trkpt>
      <trkpt lat="44.45515" lon="1.47214">
        <ele>191</ele>
        <time>2011-03-10T08:51:12</time>
      </trkpt>
      <trkpt lat="44.45527" lon="1.47213">
        <ele>191</ele>
        <time>2011-03-10T08:51:14</time>
      </trkpt>
      <trkpt lat="44.45539" lon="1.47211">
        <ele>191</ele>
        <time>2011-03-10T08:51:16</time>
      </trkpt>
      <trkpt lat="44.45545" lon="1.4721">
        <ele>182</ele>
        <time>2011-03-10T08:51:17</time>
      </trkpt>
      <trkpt lat="44.45552" lon="1.47209">
        <ele>182</ele>
        <time>2011-03-10T08:51:18</time>
      </trkpt>
      <trkpt lat="44.45564" lon="1.47208">
        <ele>199</ele>
        <time>2011-03-10T08:51:20</time>
      </trkpt>
      <trkpt lat="44.45576" lon="1.47206">
        <ele>199</ele>
        <time>2011-03-10T08:51:22</time>
      </trkpt>
      <trkpt lat="44.45587" lon="1.47204">
        <ele>199</ele>
        <time>2011-03-10T08:51:24</time>
      </trkpt>
      <trkpt lat="44.45592" lon="1.47203">
        <ele>199</ele>
        <time>2011-03-10T08:51:25</time>
      </trkpt>
      <trkpt lat="44.45598" lon="1.47202">
        <ele>199</ele>
        <time>2011-03-10T08:51:26</time>
      </trkpt>
      <trkpt lat="44.45604" lon="1.47201">
        <ele>199</ele>
        <time>2011-03-10T08:51:27</time>
      </trkpt>
      <trkpt lat="44.45616" lon="1.472">
        <ele>199</ele>
        <time>2011-03-10T08:51:29</time>
      </trkpt>
      <trkpt lat="44.4563" lon="1.47201">
        <ele>194</ele>
        <time>2011-03-10T08:51:31</time>
      </trkpt>
      <trkpt lat="44.45637" lon="1.47202">
        <ele>194</ele>
        <time>2011-03-10T08:51:32</time>
      </trkpt>
      <trkpt lat="44.4565" lon="1.47203">
        <ele>194</ele>
        <time>2011-03-10T08:51:34</time>
      </trkpt>
      <trkpt lat="44.45662" lon="1.47205">
        <ele>194</ele>
        <time>2011-03-10T08:51:36</time>
      </trkpt>
      <trkpt lat="44.45669" lon="1.47206">
        <ele>194</ele>
        <time>2011-03-10T08:51:37</time>
      </trkpt>
      <trkpt lat="44.45681" lon="1.47208">
        <ele>194</ele>
        <time>2011-03-10T08:51:39</time>
      </trkpt>
      <trkpt lat="44.45687" lon="1.47208">
        <ele>194</ele>
        <time>2011-03-10T08:51:40</time>
      </trkpt>
      <trkpt lat="44.45699" lon="1.47209">
        <ele>177</ele>
        <time>2011-03-10T08:51:42</time>
      </trkpt>
      <trkpt lat="44.45706" lon="1.4721">
        <ele>177</ele>
        <time>2011-03-10T08:51:43</time>
      </trkpt>
      <trkpt lat="44.45719" lon="1.4721">
        <ele>173</ele>
        <time>2011-03-10T08:51:45</time>
      </trkpt>
      <trkpt lat="44.45726" lon="1.4721">
        <ele>173</ele>
        <time>2011-03-10T08:51:46</time>
      </trkpt>
      <trkpt lat="44.45739" lon="1.47211">
        <ele>173</ele>
        <time>2011-03-10T08:51:48</time>
      </trkpt>
      <trkpt lat="44.45747" lon="1.47211">
        <ele>173</ele>
        <time>2011-03-10T08:51:49</time>
      </trkpt>
      <trkpt lat="44.45755" lon="1.47212">
        <ele>173</ele>
        <time>2011-03-10T08:51:50</time>
      </trkpt>
      <trkpt lat="44.45771" lon="1.47216">
        <ele>173</ele>
        <time>2011-03-10T08:51:52</time>
      </trkpt>
      <trkpt lat="44.45786" lon="1.47217">
        <ele>173</ele>
        <time>2011-03-10T08:51:54</time>
      </trkpt>
      <trkpt lat="44.45794" lon="1.47219">
        <ele>168</ele>
        <time>2011-03-10T08:51:55</time>
      </trkpt>
      <trkpt lat="44.4581" lon="1.47221">
        <ele>168</ele>
        <time>2011-03-10T08:51:57</time>
      </trkpt>
      <trkpt lat="44.45817" lon="1.47222">
        <ele>168</ele>
        <time>2011-03-10T08:51:58</time>
      </trkpt>
      <trkpt lat="44.45833" lon="1.47221">
        <ele>168</ele>
        <time>2011-03-10T08:52:00</time>
      </trkpt>
      <trkpt lat="44.45841" lon="1.47221">
        <ele>168</ele>
        <time>2011-03-10T08:52:01</time>
      </trkpt>
      <trkpt lat="44.45857" lon="1.47222">
        <ele>168</ele>
        <time>2011-03-10T08:52:03</time>
      </trkpt>
      <trkpt lat="44.4587" lon="1.47224">
        <ele>168</ele>
        <time>2011-03-10T08:52:05</time>
      </trkpt>
      <trkpt lat="44.45876" lon="1.47225">
        <ele>165</ele>
        <time>2011-03-10T08:52:06</time>
      </trkpt>
      <trkpt lat="44.45886" lon="1.4723">
        <ele>165</ele>
        <time>2011-03-10T08:52:08</time>
      </trkpt>
      <trkpt lat="44.45892" lon="1.47234">
        <ele>165</ele>
        <time>2011-03-10T08:52:09</time>
      </trkpt>
      <trkpt lat="44.45898" lon="1.47239">
        <ele>165</ele>
        <time>2011-03-10T08:52:10</time>
      </trkpt>
      <trkpt lat="44.45904" lon="1.47243">
        <ele>165</ele>
        <time>2011-03-10T08:52:11</time>
      </trkpt>
      <trkpt lat="44.45909" lon="1.47247">
        <ele>165</ele>
        <time>2011-03-10T08:52:12</time>
      </trkpt>
      <trkpt lat="44.45921" lon="1.4725">
        <ele>165</ele>
        <time>2011-03-10T08:52:14</time>
      </trkpt>
      <trkpt lat="44.45927" lon="1.4725">
        <ele>165</ele>
        <time>2011-03-10T08:52:15</time>
      </trkpt>
      <trkpt lat="44.45937" lon="1.47249">
        <ele>165</ele>
        <time>2011-03-10T08:52:17</time>
      </trkpt>
      <trkpt lat="44.45944" lon="1.47249">
        <ele>165</ele>
        <time>2011-03-10T08:52:19</time>
      </trkpt>
      <trkpt lat="44.45946" lon="1.47253">
        <ele>165</ele>
        <time>2011-03-10T08:52:20</time>
      </trkpt>
      <trkpt lat="44.45949" lon="1.47256">
        <ele>165</ele>
        <time>2011-03-10T08:52:21</time>
      </trkpt>
      <trkpt lat="44.45952" lon="1.47259">
        <ele>165</ele>
        <time>2011-03-10T08:52:22</time>
      </trkpt>
      <trkpt lat="44.45955" lon="1.47262">
        <ele>165</ele>
        <time>2011-03-10T08:52:23</time>
      </trkpt>
      <trkpt lat="44.45961" lon="1.47272">
        <ele>159</ele>
        <time>2011-03-10T08:52:25</time>
      </trkpt>
      <trkpt lat="44.45965" lon="1.47284">
        <ele>159</ele>
        <time>2011-03-10T08:52:27</time>
      </trkpt>
      <trkpt lat="44.45969" lon="1.47297">
        <ele>157</ele>
        <time>2011-03-10T08:52:29</time>
      </trkpt>
      <trkpt lat="44.45973" lon="1.47311">
        <ele>157</ele>
        <time>2011-03-10T08:52:31</time>
      </trkpt>
      <trkpt lat="44.45977" lon="1.47324">
        <ele>157</ele>
        <time>2011-03-10T08:52:33</time>
      </trkpt>
      <trkpt lat="44.4598" lon="1.47337">
        <ele>157</ele>
        <time>2011-03-10T08:52:35</time>
      </trkpt>
      <trkpt lat="44.45981" lon="1.47343">
        <ele>157</ele>
        <time>2011-03-10T08:52:36</time>
      </trkpt>
      <trkpt lat="44.45982" lon="1.47356">
        <ele>157</ele>
        <time>2011-03-10T08:52:38</time>
      </trkpt>
      <trkpt lat="44.45983" lon="1.47362">
        <ele>157</ele>
        <time>2011-03-10T08:52:39</time>
      </trkpt>
      <trkpt lat="44.45983" lon="1.47368">
        <ele>157</ele>
        <time>2011-03-10T08:52:40</time>
      </trkpt>
      <trkpt lat="44.45981" lon="1.47379">
        <ele>156</ele>
        <time>2011-03-10T08:52:42</time>
      </trkpt>
      <trkpt lat="44.45979" lon="1.47384">
        <ele>156</ele>
        <time>2011-03-10T08:52:43</time>
      </trkpt>
      <trkpt lat="44.45974" lon="1.47388">
        <ele>156</ele>
        <time>2011-03-10T08:52:45</time>
      </trkpt>
      <trkpt lat="44.45972" lon="1.4739">
        <ele>156</ele>
        <time>2011-03-10T08:52:46</time>
      </trkpt>
      <trkpt lat="44.45966" lon="1.47393">
        <ele>156</ele>
        <time>2011-03-10T08:52:48</time>
      </trkpt>
      <trkpt lat="44.45959" lon="1.47392">
        <ele>156</ele>
        <time>2011-03-10T08:52:50</time>
      </trkpt>
      <trkpt lat="44.45955" lon="1.4739">
        <ele>158</ele>
        <time>2011-03-10T08:52:51</time>
      </trkpt>
      <trkpt lat="44.45951" lon="1.47388">
        <ele>158</ele>
        <time>2011-03-10T08:52:52</time>
      </trkpt>
      <trkpt lat="44.4594" lon="1.47388">
        <ele>158</ele>
        <time>2011-03-10T08:52:54</time>
      </trkpt>
      <trkpt lat="44.45931" lon="1.47392">
        <ele>158</ele>
        <time>2011-03-10T08:52:56</time>
      </trkpt>
      <trkpt lat="44.45921" lon="1.47395">
        <ele>158</ele>
        <time>2011-03-10T08:52:58</time>
      </trkpt>
      <trkpt lat="44.45916" lon="1.47397">
        <ele>158</ele>
        <time>2011-03-10T08:52:59</time>
      </trkpt>
      <trkpt lat="44.45907" lon="1.474">
        <ele>158</ele>
        <time>2011-03-10T08:53:01</time>
      </trkpt>
      <trkpt lat="44.45903" lon="1.47402">
        <ele>158</ele>
        <time>2011-03-10T08:53:02</time>
      </trkpt>
      <trkpt lat="44.45898" lon="1.47404">
        <ele>158</ele>
        <time>2011-03-10T08:53:03</time>
      </trkpt>
      <trkpt lat="44.45889" lon="1.47408">
        <ele>158</ele>
        <time>2011-03-10T08:53:05</time>
      </trkpt>
      <trkpt lat="44.4588" lon="1.47412">
        <ele>158</ele>
        <time>2011-03-10T08:53:07</time>
      </trkpt>
      <trkpt lat="44.4587" lon="1.47416">
        <ele>159</ele>
        <time>2011-03-10T08:53:09</time>
      </trkpt>
      <trkpt lat="44.45865" lon="1.47417">
        <ele>159</ele>
        <time>2011-03-10T08:53:10</time>
      </trkpt>
      <trkpt lat="44.45855" lon="1.4742">
        <ele>159</ele>
        <time>2011-03-10T08:53:12</time>
      </trkpt>
      <trkpt lat="44.45845" lon="1.47422">
        <ele>159</ele>
        <time>2011-03-10T08:53:14</time>
      </trkpt>
      <trkpt lat="44.45835" lon="1.47424">
        <ele>159</ele>
        <time>2011-03-10T08:53:16</time>
      </trkpt>
      <trkpt lat="44.45824" lon="1.47427">
        <ele>159</ele>
        <time>2011-03-10T08:53:18</time>
      </trkpt>
      <trkpt lat="44.45819" lon="1.47428">
        <ele>159</ele>
        <time>2011-03-10T08:53:19</time>
      </trkpt>
      <trkpt lat="44.45809" lon="1.4743">
        <ele>159</ele>
        <time>2011-03-10T08:53:21</time>
      </trkpt>
      <trkpt lat="44.45799" lon="1.47434">
        <ele>159</ele>
        <time>2011-03-10T08:53:23</time>
      </trkpt>
      <trkpt lat="44.45789" lon="1.47438">
        <ele>161</ele>
        <time>2011-03-10T08:53:25</time>
      </trkpt>
      <trkpt lat="44.45784" lon="1.4744">
        <ele>161</ele>
        <time>2011-03-10T08:53:26</time>
      </trkpt>
      <trkpt lat="44.45775" lon="1.47443">
        <ele>161</ele>
        <time>2011-03-10T08:53:28</time>
      </trkpt>
      <trkpt lat="44.45766" lon="1.47446">
        <ele>161</ele>
        <time>2011-03-10T08:53:30</time>
      </trkpt>
      <trkpt lat="44.45757" lon="1.47448">
        <ele>161</ele>
        <time>2011-03-10T08:53:32</time>
      </trkpt>
      <trkpt lat="44.45748" lon="1.4745">
        <ele>161</ele>
        <time>2011-03-10T08:53:34</time>
      </trkpt>
      <trkpt lat="44.45743" lon="1.4745">
        <ele>161</ele>
        <time>2011-03-10T08:53:35</time>
      </trkpt>
      <trkpt lat="44.45739" lon="1.47451">
        <ele>161</ele>
        <time>2011-03-10T08:53:36</time>
      </trkpt>
      <trkpt lat="44.45729" lon="1.47451">
        <ele>161</ele>
        <time>2011-03-10T08:53:38</time>
      </trkpt>
      <trkpt lat="44.4572" lon="1.47452">
        <ele>161</ele>
        <time>2011-03-10T08:53:40</time>
      </trkpt>
      <trkpt lat="44.45716" lon="1.47452">
        <ele>161</ele>
        <time>2011-03-10T08:53:41</time>
      </trkpt>
      <trkpt lat="44.45711" lon="1.47452">
        <ele>161</ele>
        <time>2011-03-10T08:53:42</time>
      </trkpt>
      <trkpt lat="44.45706" lon="1.47452">
        <ele>162</ele>
        <time>2011-03-10T08:53:43</time>
      </trkpt>
      <trkpt lat="44.45697" lon="1.47452">
        <ele>162</ele>
        <time>2011-03-10T08:53:45</time>
      </trkpt>
      <trkpt lat="44.45692" lon="1.47452">
        <ele>162</ele>
        <time>2011-03-10T08:53:46</time>
      </trkpt>
      <trkpt lat="44.45683" lon="1.47454">
        <ele>162</ele>
        <time>2011-03-10T08:53:48</time>
      </trkpt>
      <trkpt lat="44.45673" lon="1.47455">
        <ele>162</ele>
        <time>2011-03-10T08:53:50</time>
      </trkpt>
      <trkpt lat="44.45668" lon="1.47456">
        <ele>162</ele>
        <time>2011-03-10T08:53:51</time>
      </trkpt>
      <trkpt lat="44.45659" lon="1.47457">
        <ele>162</ele>
        <time>2011-03-10T08:53:53</time>
      </trkpt>
      <trkpt lat="44.45654" lon="1.47458">
        <ele>161</ele>
        <time>2011-03-10T08:53:54</time>
      </trkpt>
      <trkpt lat="44.45649" lon="1.47459">
        <ele>161</ele>
        <time>2011-03-10T08:53:55</time>
      </trkpt>
      <trkpt lat="44.4564" lon="1.47461">
        <ele>161</ele>
        <time>2011-03-10T08:53:57</time>
      </trkpt>
      <trkpt lat="44.45635" lon="1.47462">
        <ele>161</ele>
        <time>2011-03-10T08:53:58</time>
      </trkpt>
      <trkpt lat="44.45626" lon="1.47466">
        <ele>161</ele>
        <time>2011-03-10T08:54:00</time>
      </trkpt>
      <trkpt lat="44.45622" lon="1.47468">
        <ele>164</ele>
        <time>2011-03-10T08:54:01</time>
      </trkpt>
      <trkpt lat="44.45613" lon="1.47472">
        <ele>164</ele>
        <time>2011-03-10T08:54:03</time>
      </trkpt>
      <trkpt lat="44.45609" lon="1.47475">
        <ele>164</ele>
        <time>2011-03-10T08:54:04</time>
      </trkpt>
      <trkpt lat="44.45601" lon="1.4748">
        <ele>164</ele>
        <time>2011-03-10T08:54:06</time>
      </trkpt>
      <trkpt lat="44.45593" lon="1.47485">
        <ele>164</ele>
        <time>2011-03-10T08:54:08</time>
      </trkpt>
      <trkpt lat="44.45584" lon="1.47491">
        <ele>164</ele>
        <time>2011-03-10T08:54:10</time>
      </trkpt>
      <trkpt lat="44.4558" lon="1.47493">
        <ele>164</ele>
        <time>2011-03-10T08:54:11</time>
      </trkpt>
      <trkpt lat="44.45572" lon="1.47498">
        <ele>164</ele>
        <time>2011-03-10T08:54:13</time>
      </trkpt>
      <trkpt lat="44.45564" lon="1.47503">
        <ele>164</ele>
        <time>2011-03-10T08:54:15</time>
      </trkpt>
      <trkpt lat="44.4556" lon="1.47505">
        <ele>164</ele>
        <time>2011-03-10T08:54:16</time>
      </trkpt>
      <trkpt lat="44.45556" lon="1.47508">
        <ele>164</ele>
        <time>2011-03-10T08:54:17</time>
      </trkpt>
      <trkpt lat="44.45549" lon="1.47512">
        <ele>164</ele>
        <time>2011-03-10T08:54:19</time>
      </trkpt>
      <trkpt lat="44.45545" lon="1.47515">
        <ele>164</ele>
        <time>2011-03-10T08:54:20</time>
      </trkpt>
      <trkpt lat="44.45538" lon="1.47519">
        <ele>166</ele>
        <time>2011-03-10T08:54:22</time>
      </trkpt>
      <trkpt lat="44.45535" lon="1.47521">
        <ele>166</ele>
        <time>2011-03-10T08:54:23</time>
      </trkpt>
      <trkpt lat="44.45528" lon="1.47525">
        <ele>166</ele>
        <time>2011-03-10T08:54:25</time>
      </trkpt>
      <trkpt lat="44.45524" lon="1.47528">
        <ele>166</ele>
        <time>2011-03-10T08:54:26</time>
      </trkpt>
      <trkpt lat="44.45517" lon="1.47531">
        <ele>166</ele>
        <time>2011-03-10T08:54:28</time>
      </trkpt>
      <trkpt lat="44.45514" lon="1.47533">
        <ele>166</ele>
        <time>2011-03-10T08:54:29</time>
      </trkpt>
      <trkpt lat="44.45506" lon="1.47538">
        <ele>166</ele>
        <time>2011-03-10T08:54:31</time>
      </trkpt>
      <trkpt lat="44.45502" lon="1.47541">
        <ele>166</ele>
        <time>2011-03-10T08:54:32</time>
      </trkpt>
      <trkpt lat="44.45494" lon="1.47545">
        <ele>165</ele>
        <time>2011-03-10T08:54:34</time>
      </trkpt>
      <trkpt lat="44.45486" lon="1.4755">
        <ele>165</ele>
        <time>2011-03-10T08:54:36</time>
      </trkpt>
      <trkpt lat="44.45479" lon="1.47554">
        <ele>165</ele>
        <time>2011-03-10T08:54:38</time>
      </trkpt>
      <trkpt lat="44.45471" lon="1.47558">
        <ele>165</ele>
        <time>2011-03-10T08:54:40</time>
      </trkpt>
      <trkpt lat="44.45463" lon="1.47561">
        <ele>165</ele>
        <time>2011-03-10T08:54:42</time>
      </trkpt>
      <trkpt lat="44.45456" lon="1.47564">
        <ele>166</ele>
        <time>2011-03-10T08:54:44</time>
      </trkpt>
      <trkpt lat="44.45448" lon="1.47567">
        <ele>166</ele>
        <time>2011-03-10T08:54:46</time>
      </trkpt>
      <trkpt lat="44.45441" lon="1.47569">
        <ele>166</ele>
        <time>2011-03-10T08:54:48</time>
      </trkpt>
      <trkpt lat="44.45433" lon="1.47571">
        <ele>166</ele>
        <time>2011-03-10T08:54:50</time>
      </trkpt>
      <trkpt lat="44.45425" lon="1.47573">
        <ele>166</ele>
        <time>2011-03-10T08:54:52</time>
      </trkpt>
      <trkpt lat="44.45417" lon="1.47575">
        <ele>166</ele>
        <time>2011-03-10T08:54:54</time>
      </trkpt>
      <trkpt lat="44.4541" lon="1.47576">
        <ele>166</ele>
        <time>2011-03-10T08:54:56</time>
      </trkpt>
      <trkpt lat="44.45402" lon="1.47578">
        <ele>166</ele>
        <time>2011-03-10T08:54:58</time>
      </trkpt>
      <trkpt lat="44.45394" lon="1.47579">
        <ele>166</ele>
        <time>2011-03-10T08:55:00</time>
      </trkpt>
      <trkpt lat="44.45386" lon="1.4758">
        <ele>166</ele>
        <time>2011-03-10T08:55:02</time>
      </trkpt>
      <trkpt lat="44.45382" lon="1.47581">
        <ele>166</ele>
        <time>2011-03-10T08:55:03</time>
      </trkpt>
      <trkpt lat="44.45374" lon="1.47582">
        <ele>168</ele>
        <time>2011-03-10T08:55:05</time>
      </trkpt>
      <trkpt lat="44.45365" lon="1.47583">
        <ele>168</ele>
        <time>2011-03-10T08:55:07</time>
      </trkpt>
      <trkpt lat="44.45357" lon="1.47585">
        <ele>168</ele>
        <time>2011-03-10T08:55:09</time>
      </trkpt>
      <trkpt lat="44.45352" lon="1.47585">
        <ele>168</ele>
        <time>2011-03-10T08:55:10</time>
      </trkpt>
      <trkpt lat="44.45348" lon="1.47586">
        <ele>168</ele>
        <time>2011-03-10T08:55:11</time>
      </trkpt>
      <trkpt lat="44.45339" lon="1.47585">
        <ele>168</ele>
        <time>2011-03-10T08:55:13</time>
      </trkpt>
      <trkpt lat="44.45334" lon="1.47585">
        <ele>168</ele>
        <time>2011-03-10T08:55:14</time>
      </trkpt>
      <trkpt lat="44.45322" lon="1.47584">
        <ele>168</ele>
        <time>2011-03-10T08:55:16</time>
      </trkpt>
      <trkpt lat="44.45309" lon="1.47583">
        <ele>168</ele>
        <time>2011-03-10T08:55:18</time>
      </trkpt>
      <trkpt lat="44.45297" lon="1.47583">
        <ele>168</ele>
        <time>2011-03-10T08:55:20</time>
      </trkpt>
      <trkpt lat="44.45292" lon="1.47583">
        <ele>172</ele>
        <time>2011-03-10T08:55:21</time>
      </trkpt>
      <trkpt lat="44.45281" lon="1.47585">
        <ele>172</ele>
        <time>2011-03-10T08:55:23</time>
      </trkpt>
      <trkpt lat="44.45271" lon="1.47589">
        <ele>172</ele>
        <time>2011-03-10T08:55:25</time>
      </trkpt>
      <trkpt lat="44.45264" lon="1.47593">
        <ele>172</ele>
        <time>2011-03-10T08:55:27</time>
      </trkpt>
      <trkpt lat="44.45261" lon="1.47594">
        <ele>172</ele>
        <time>2011-03-10T08:55:28</time>
      </trkpt>
      <trkpt lat="44.45259" lon="1.47596">
        <ele>172</ele>
        <time>2011-03-10T08:55:29</time>
      </trkpt>
      <trkpt lat="44.45254" lon="1.476">
        <ele>172</ele>
        <time>2011-03-10T08:55:31</time>
      </trkpt>
      <trkpt lat="44.45252" lon="1.47601">
        <ele>172</ele>
        <time>2011-03-10T08:55:32</time>
      </trkpt>
      <trkpt lat="44.45248" lon="1.47605">
        <ele>172</ele>
        <time>2011-03-10T08:55:34</time>
      </trkpt>
      <trkpt lat="44.45245" lon="1.47607">
        <ele>172</ele>
        <time>2011-03-10T08:55:35</time>
      </trkpt>
      <trkpt lat="44.45241" lon="1.4761">
        <ele>172</ele>
        <time>2011-03-10T08:55:37</time>
      </trkpt>
      <trkpt lat="44.45236" lon="1.47616">
        <ele>172</ele>
        <time>2011-03-10T08:55:40</time>
      </trkpt>
      <trkpt lat="44.45233" lon="1.47619">
        <ele>172</ele>
        <time>2011-03-10T08:55:42</time>
      </trkpt>
      <trkpt lat="44.45231" lon="1.47622">
        <ele>172</ele>
        <time>2011-03-10T08:55:44</time>
      </trkpt>
      <trkpt lat="44.45229" lon="1.47625">
        <ele>172</ele>
        <time>2011-03-10T08:55:46</time>
      </trkpt>
      <trkpt lat="44.45226" lon="1.47627">
        <ele>174</ele>
        <time>2011-03-10T08:55:48</time>
      </trkpt>
      <trkpt lat="44.45224" lon="1.47629">
        <ele>174</ele>
        <time>2011-03-10T08:55:50</time>
      </trkpt>
      <trkpt lat="44.45221" lon="1.47632">
        <ele>174</ele>
        <time>2011-03-10T08:55:52</time>
      </trkpt>
      <trkpt lat="44.45216" lon="1.47635">
        <ele>174</ele>
        <time>2011-03-10T08:55:55</time>
      </trkpt>
      <trkpt lat="44.45213" lon="1.47637">
        <ele>174</ele>
        <time>2011-03-10T08:55:57</time>
      </trkpt>
      <trkpt lat="44.4521" lon="1.47639">
        <ele>174</ele>
        <time>2011-03-10T08:55:58</time>
      </trkpt>
      <trkpt lat="44.45203" lon="1.47642">
        <ele>173</ele>
        <time>2011-03-10T08:56:00</time>
      </trkpt>
      <trkpt lat="44.452" lon="1.47644">
        <ele>173</ele>
        <time>2011-03-10T08:56:01</time>
      </trkpt>
      <trkpt lat="44.45192" lon="1.4765">
        <ele>173</ele>
        <time>2011-03-10T08:56:03</time>
      </trkpt>
      <trkpt lat="44.45182" lon="1.47657">
        <ele>173</ele>
        <time>2011-03-10T08:56:05</time>
      </trkpt>
      <trkpt lat="44.45178" lon="1.47662">
        <ele>173</ele>
        <time>2011-03-10T08:56:06</time>
      </trkpt>
      <trkpt lat="44.45169" lon="1.47676">
        <ele>173</ele>
        <time>2011-03-10T08:56:08</time>
      </trkpt>
      <trkpt lat="44.45159" lon="1.47692">
        <ele>173</ele>
        <time>2011-03-10T08:56:10</time>
      </trkpt>
      <trkpt lat="44.45155" lon="1.47699">
        <ele>173</ele>
        <time>2011-03-10T08:56:11</time>
      </trkpt>
      <trkpt lat="44.4515" lon="1.47707">
        <ele>173</ele>
        <time>2011-03-10T08:56:12</time>
      </trkpt>
      <trkpt lat="44.45142" lon="1.47723">
        <ele>169</ele>
        <time>2011-03-10T08:56:14</time>
      </trkpt>
      <trkpt lat="44.45136" lon="1.47739">
        <ele>169</ele>
        <time>2011-03-10T08:56:16</time>
      </trkpt>
      <trkpt lat="44.45131" lon="1.47754">
        <ele>169</ele>
        <time>2011-03-10T08:56:18</time>
      </trkpt>
      <trkpt lat="44.45125" lon="1.47769">
        <ele>169</ele>
        <time>2011-03-10T08:56:20</time>
      </trkpt>
      <trkpt lat="44.45123" lon="1.47776">
        <ele>179</ele>
        <time>2011-03-10T08:56:21</time>
      </trkpt>
      <trkpt lat="44.45121" lon="1.47782">
        <ele>179</ele>
        <time>2011-03-10T08:56:22</time>
      </trkpt>
      <trkpt lat="44.45117" lon="1.47793">
        <ele>175</ele>
        <time>2011-03-10T08:56:24</time>
      </trkpt>
      <trkpt lat="44.45115" lon="1.47798">
        <ele>175</ele>
        <time>2011-03-10T08:56:25</time>
      </trkpt>
      <trkpt lat="44.45113" lon="1.47802">
        <ele>175</ele>
        <time>2011-03-10T08:56:26</time>
      </trkpt>
      <trkpt lat="44.4511" lon="1.47809">
        <ele>175</ele>
        <time>2011-03-10T08:56:28</time>
      </trkpt>
      <trkpt lat="44.45107" lon="1.47816">
        <ele>175</ele>
        <time>2011-03-10T08:56:30</time>
      </trkpt>
      <trkpt lat="44.45106" lon="1.47823">
        <ele>175</ele>
        <time>2011-03-10T08:56:32</time>
      </trkpt>
      <trkpt lat="44.45103" lon="1.47829">
        <ele>175</ele>
        <time>2011-03-10T08:56:34</time>
      </trkpt>
      <trkpt lat="44.45099" lon="1.47833">
        <ele>175</ele>
        <time>2011-03-10T08:56:36</time>
      </trkpt>
      <trkpt lat="44.45094" lon="1.47838">
        <ele>175</ele>
        <time>2011-03-10T08:56:39</time>
      </trkpt>
      <trkpt lat="44.45091" lon="1.47841">
        <ele>175</ele>
        <time>2011-03-10T08:56:40</time>
      </trkpt>
      <trkpt lat="44.45088" lon="1.47845">
        <ele>175</ele>
        <time>2011-03-10T08:56:41</time>
      </trkpt>
      <trkpt lat="44.45085" lon="1.47848">
        <ele>175</ele>
        <time>2011-03-10T08:56:42</time>
      </trkpt>
      <trkpt lat="44.4508" lon="1.47854">
        <ele>175</ele>
        <time>2011-03-10T08:56:44</time>
      </trkpt>
      <trkpt lat="44.45078" lon="1.47857">
        <ele>175</ele>
        <time>2011-03-10T08:56:45</time>
      </trkpt>
      <trkpt lat="44.45073" lon="1.47862">
        <ele>175</ele>
        <time>2011-03-10T08:56:47</time>
      </trkpt>
      <trkpt lat="44.45071" lon="1.47864">
        <ele>175</ele>
        <time>2011-03-10T08:56:48</time>
      </trkpt>
      <trkpt lat="44.45069" lon="1.47867">
        <ele>175</ele>
        <time>2011-03-10T08:56:49</time>
      </trkpt>
      <trkpt lat="44.45065" lon="1.47871">
        <ele>175</ele>
        <time>2011-03-10T08:56:51</time>
      </trkpt>
      <trkpt lat="44.45061" lon="1.47876">
        <ele>167</ele>
        <time>2011-03-10T08:56:53</time>
      </trkpt>
      <trkpt lat="44.45056" lon="1.47881">
        <ele>167</ele>
        <time>2011-03-10T08:56:55</time>
      </trkpt>
      <trkpt lat="44.45051" lon="1.47884">
        <ele>167</ele>
        <time>2011-03-10T08:56:57</time>
      </trkpt>
      <trkpt lat="44.45045" lon="1.47887">
        <ele>167</ele>
        <time>2011-03-10T08:56:59</time>
      </trkpt>
      <trkpt lat="44.45039" lon="1.47891">
        <ele>172</ele>
        <time>2011-03-10T08:57:01</time>
      </trkpt>
      <trkpt lat="44.45032" lon="1.47896">
        <ele>172</ele>
        <time>2011-03-10T08:57:03</time>
      </trkpt>
      <trkpt lat="44.45024" lon="1.47901">
        <ele>172</ele>
        <time>2011-03-10T08:57:05</time>
      </trkpt>
      <trkpt lat="44.4502" lon="1.47904">
        <ele>172</ele>
        <time>2011-03-10T08:57:06</time>
      </trkpt>
      <trkpt lat="44.4501" lon="1.47912">
        <ele>172</ele>
        <time>2011-03-10T08:57:08</time>
      </trkpt>
      <trkpt lat="44.45005" lon="1.47915">
        <ele>172</ele>
        <time>2011-03-10T08:57:09</time>
      </trkpt>
      <trkpt lat="44.44994" lon="1.47924">
        <ele>172</ele>
        <time>2011-03-10T08:57:11</time>
      </trkpt>
      <trkpt lat="44.44981" lon="1.47933">
        <ele>172</ele>
        <time>2011-03-10T08:57:13</time>
      </trkpt>
      <trkpt lat="44.44974" lon="1.47938">
        <ele>172</ele>
        <time>2011-03-10T08:57:14</time>
      </trkpt>
      <trkpt lat="44.44959" lon="1.4795">
        <ele>172</ele>
        <time>2011-03-10T08:57:16</time>
      </trkpt>
      <trkpt lat="44.4495" lon="1.47956">
        <ele>181</ele>
        <time>2011-03-10T08:57:17</time>
      </trkpt>
      <trkpt lat="44.4494" lon="1.47963">
        <ele>158</ele>
        <time>2011-03-10T08:57:18</time>
      </trkpt>
      <trkpt lat="44.44931" lon="1.47969">
        <ele>158</ele>
        <time>2011-03-10T08:57:19</time>
      </trkpt>
      <trkpt lat="44.4492" lon="1.47976">
        <ele>158</ele>
        <time>2011-03-10T08:57:20</time>
      </trkpt>
      <trkpt lat="44.449" lon="1.47989">
        <ele>158</ele>
        <time>2011-03-10T08:57:22</time>
      </trkpt>
      <trkpt lat="44.44889" lon="1.47995">
        <ele>158</ele>
        <time>2011-03-10T08:57:23</time>
      </trkpt>
      <trkpt lat="44.44869" lon="1.48008">
        <ele>166</ele>
        <time>2011-03-10T08:57:25</time>
      </trkpt>
      <trkpt lat="44.44849" lon="1.48021">
        <ele>166</ele>
        <time>2011-03-10T08:57:27</time>
      </trkpt>
      <trkpt lat="44.4483" lon="1.48034">
        <ele>166</ele>
        <time>2011-03-10T08:57:29</time>
      </trkpt>
      <trkpt lat="44.44813" lon="1.48046">
        <ele>156</ele>
        <time>2011-03-10T08:57:31</time>
      </trkpt>
      <trkpt lat="44.44805" lon="1.48053">
        <ele>156</ele>
        <time>2011-03-10T08:57:32</time>
      </trkpt>
      <trkpt lat="44.44791" lon="1.48064">
        <ele>159</ele>
        <time>2011-03-10T08:57:34</time>
      </trkpt>
      <trkpt lat="44.44778" lon="1.48075">
        <ele>159</ele>
        <time>2011-03-10T08:57:36</time>
      </trkpt>
      <trkpt lat="44.44772" lon="1.4808">
        <ele>159</ele>
        <time>2011-03-10T08:57:37</time>
      </trkpt>
      <trkpt lat="44.44759" lon="1.4809">
        <ele>159</ele>
        <time>2011-03-10T08:57:39</time>
      </trkpt>
      <trkpt lat="44.44747" lon="1.48097">
        <ele>159</ele>
        <time>2011-03-10T08:57:41</time>
      </trkpt>
      <trkpt lat="44.44741" lon="1.48096">
        <ele>159</ele>
        <time>2011-03-10T08:57:42</time>
      </trkpt>
      <trkpt lat="44.44734" lon="1.48095">
        <ele>159</ele>
        <time>2011-03-10T08:57:43</time>
      </trkpt>
      <trkpt lat="44.44728" lon="1.48093">
        <ele>159</ele>
        <time>2011-03-10T08:57:44</time>
      </trkpt>
      <trkpt lat="44.44722" lon="1.4809">
        <ele>159</ele>
        <time>2011-03-10T08:57:45</time>
      </trkpt>
      <trkpt lat="44.4471" lon="1.48084">
        <ele>159</ele>
        <time>2011-03-10T08:57:47</time>
      </trkpt>
      <trkpt lat="44.44706" lon="1.48082">
        <ele>161</ele>
        <time>2011-03-10T08:57:48</time>
      </trkpt>
      <trkpt lat="44.44702" lon="1.48081">
        <ele>161</ele>
        <time>2011-03-10T08:57:49</time>
      </trkpt>
      <trkpt lat="44.44698" lon="1.48078">
        <ele>161</ele>
        <time>2011-03-10T08:57:50</time>
      </trkpt>
      <trkpt lat="44.44691" lon="1.48075">
        <ele>161</ele>
        <time>2011-03-10T08:57:52</time>
      </trkpt>
      <trkpt lat="44.44683" lon="1.48072">
        <ele>161</ele>
        <time>2011-03-10T08:57:54</time>
      </trkpt>
      <trkpt lat="44.4468" lon="1.4807">
        <ele>161</ele>
        <time>2011-03-10T08:57:55</time>
      </trkpt>
      <trkpt lat="44.44672" lon="1.48065">
        <ele>161</ele>
        <time>2011-03-10T08:57:57</time>
      </trkpt>
      <trkpt lat="44.44668" lon="1.48062">
        <ele>161</ele>
        <time>2011-03-10T08:57:58</time>
      </trkpt>
      <trkpt lat="44.44661" lon="1.48056">
        <ele>161</ele>
        <time>2011-03-10T08:58:00</time>
      </trkpt>
      <trkpt lat="44.44657" lon="1.48054">
        <ele>161</ele>
        <time>2011-03-10T08:58:01</time>
      </trkpt>
      <trkpt lat="44.44649" lon="1.48049">
        <ele>161</ele>
        <time>2011-03-10T08:58:03</time>
      </trkpt>
      <trkpt lat="44.44646" lon="1.48046">
        <ele>161</ele>
        <time>2011-03-10T08:58:04</time>
      </trkpt>
      <trkpt lat="44.44639" lon="1.48042">
        <ele>161</ele>
        <time>2011-03-10T08:58:06</time>
      </trkpt>
      <trkpt lat="44.44635" lon="1.4804">
        <ele>167</ele>
        <time>2011-03-10T08:58:07</time>
      </trkpt>
      <trkpt lat="44.44629" lon="1.48036">
        <ele>167</ele>
        <time>2011-03-10T08:58:09</time>
      </trkpt>
      <trkpt lat="44.44625" lon="1.48034">
        <ele>167</ele>
        <time>2011-03-10T08:58:10</time>
      </trkpt>
      <trkpt lat="44.44619" lon="1.48029">
        <ele>165</ele>
        <time>2011-03-10T08:58:12</time>
      </trkpt>
      <trkpt lat="44.44612" lon="1.48025">
        <ele>165</ele>
        <time>2011-03-10T08:58:14</time>
      </trkpt>
      <trkpt lat="44.44609" lon="1.48023">
        <ele>165</ele>
        <time>2011-03-10T08:58:15</time>
      </trkpt>
      <trkpt lat="44.44606" lon="1.4802">
        <ele>165</ele>
        <time>2011-03-10T08:58:16</time>
      </trkpt>
      <trkpt lat="44.446" lon="1.48017">
        <ele>165</ele>
        <time>2011-03-10T08:58:18</time>
      </trkpt>
      <trkpt lat="44.44593" lon="1.48013">
        <ele>165</ele>
        <time>2011-03-10T08:58:20</time>
      </trkpt>
      <trkpt lat="44.44587" lon="1.48009">
        <ele>165</ele>
        <time>2011-03-10T08:58:22</time>
      </trkpt>
      <trkpt lat="44.44583" lon="1.48006">
        <ele>165</ele>
        <time>2011-03-10T08:58:23</time>
      </trkpt>
      <trkpt lat="44.4458" lon="1.48004">
        <ele>165</ele>
        <time>2011-03-10T08:58:24</time>
      </trkpt>
      <trkpt lat="44.44573" lon="1.47999">
        <ele>165</ele>
        <time>2011-03-10T08:58:26</time>
      </trkpt>
      <trkpt lat="44.44565" lon="1.47995">
        <ele>165</ele>
        <time>2011-03-10T08:58:28</time>
      </trkpt>
      <trkpt lat="44.44561" lon="1.47995">
        <ele>165</ele>
        <time>2011-03-10T08:58:29</time>
      </trkpt>
      <trkpt lat="44.44557" lon="1.47994">
        <ele>165</ele>
        <time>2011-03-10T08:58:30</time>
      </trkpt>
      <trkpt lat="44.4455" lon="1.47992">
        <ele>165</ele>
        <time>2011-03-10T08:58:32</time>
      </trkpt>
      <trkpt lat="44.44546" lon="1.47991">
        <ele>165</ele>
        <time>2011-03-10T08:58:33</time>
      </trkpt>
      <trkpt lat="44.4454" lon="1.4799">
        <ele>167</ele>
        <time>2011-03-10T08:58:35</time>
      </trkpt>
      <trkpt lat="44.44533" lon="1.47989">
        <ele>167</ele>
        <time>2011-03-10T08:58:37</time>
      </trkpt>
      <trkpt lat="44.44527" lon="1.47988">
        <ele>167</ele>
        <time>2011-03-10T08:58:39</time>
      </trkpt>
      <trkpt lat="44.4452" lon="1.47986">
        <ele>167</ele>
        <time>2011-03-10T08:58:41</time>
      </trkpt>
      <trkpt lat="44.44516" lon="1.47985">
        <ele>167</ele>
        <time>2011-03-10T08:58:42</time>
      </trkpt>
      <trkpt lat="44.4451" lon="1.47984">
        <ele>167</ele>
        <time>2011-03-10T08:58:44</time>
      </trkpt>
      <trkpt lat="44.44507" lon="1.47983">
        <ele>167</ele>
        <time>2011-03-10T08:58:45</time>
      </trkpt>
      <trkpt lat="44.44501" lon="1.47981">
        <ele>167</ele>
        <time>2011-03-10T08:58:47</time>
      </trkpt>
      <trkpt lat="44.44494" lon="1.47981">
        <ele>167</ele>
        <time>2011-03-10T08:58:49</time>
      </trkpt>
      <trkpt lat="44.44487" lon="1.4798">
        <ele>167</ele>
        <time>2011-03-10T08:58:51</time>
      </trkpt>
      <trkpt lat="44.4448" lon="1.47981">
        <ele>167</ele>
        <time>2011-03-10T08:58:53</time>
      </trkpt>
      <trkpt lat="44.44477" lon="1.47981">
        <ele>167</ele>
        <time>2011-03-10T08:58:54</time>
      </trkpt>
      <trkpt lat="44.44473" lon="1.47982">
        <ele>167</ele>
        <time>2011-03-10T08:58:55</time>
      </trkpt>
      <trkpt lat="44.4447" lon="1.47983">
        <ele>167</ele>
        <time>2011-03-10T08:58:56</time>
      </trkpt>
      <trkpt lat="44.44464" lon="1.47984">
        <ele>167</ele>
        <time>2011-03-10T08:58:58</time>
      </trkpt>
      <trkpt lat="44.44457" lon="1.47986">
        <ele>167</ele>
        <time>2011-03-10T08:59:00</time>
      </trkpt>
      <trkpt lat="44.44454" lon="1.47987">
        <ele>167</ele>
        <time>2011-03-10T08:59:01</time>
      </trkpt>
      <trkpt lat="44.4445" lon="1.47988">
        <ele>167</ele>
        <time>2011-03-10T08:59:02</time>
      </trkpt>
      <trkpt lat="44.44444" lon="1.4799">
        <ele>167</ele>
        <time>2011-03-10T08:59:04</time>
      </trkpt>
      <trkpt lat="44.44441" lon="1.47991">
        <ele>167</ele>
        <time>2011-03-10T08:59:05</time>
      </trkpt>
      <trkpt lat="44.44434" lon="1.47994">
        <ele>167</ele>
        <time>2011-03-10T08:59:07</time>
      </trkpt>
      <trkpt lat="44.44431" lon="1.47996">
        <ele>167</ele>
        <time>2011-03-10T08:59:08</time>
      </trkpt>
      <trkpt lat="44.44425" lon="1.48">
        <ele>167</ele>
        <time>2011-03-10T08:59:10</time>
      </trkpt>
      <trkpt lat="44.4442" lon="1.48005">
        <ele>167</ele>
        <time>2011-03-10T08:59:12</time>
      </trkpt>
      <trkpt lat="44.44417" lon="1.48008">
        <ele>167</ele>
        <time>2011-03-10T08:59:13</time>
      </trkpt>
      <trkpt lat="44.44415" lon="1.48011">
        <ele>167</ele>
        <time>2011-03-10T08:59:14</time>
      </trkpt>
      <trkpt lat="44.44412" lon="1.48014">
        <ele>167</ele>
        <time>2011-03-10T08:59:15</time>
      </trkpt>
      <trkpt lat="44.44408" lon="1.48019">
        <ele>167</ele>
        <time>2011-03-10T08:59:17</time>
      </trkpt>
      <trkpt lat="44.44406" lon="1.48021">
        <ele>167</ele>
        <time>2011-03-10T08:59:18</time>
      </trkpt>
      <trkpt lat="44.44404" lon="1.48024">
        <ele>167</ele>
        <time>2011-03-10T08:59:19</time>
      </trkpt>
      <trkpt lat="44.44402" lon="1.48026">
        <ele>167</ele>
        <time>2011-03-10T08:59:20</time>
      </trkpt>
      <trkpt lat="44.44398" lon="1.48032">
        <ele>167</ele>
        <time>2011-03-10T08:59:22</time>
      </trkpt>
      <trkpt lat="44.44397" lon="1.48036">
        <ele>167</ele>
        <time>2011-03-10T08:59:23</time>
      </trkpt>
      <trkpt lat="44.44395" lon="1.48039">
        <ele>167</ele>
        <time>2011-03-10T08:59:24</time>
      </trkpt>
      <trkpt lat="44.44393" lon="1.48047">
        <ele>172</ele>
        <time>2011-03-10T08:59:26</time>
      </trkpt>
      <trkpt lat="44.44391" lon="1.48054">
        <ele>172</ele>
        <time>2011-03-10T08:59:28</time>
      </trkpt>
      <trkpt lat="44.4439" lon="1.48057">
        <ele>172</ele>
        <time>2011-03-10T08:59:29</time>
      </trkpt>
      <trkpt lat="44.44387" lon="1.48065">
        <ele>172</ele>
        <time>2011-03-10T08:59:32</time>
      </trkpt>
      <trkpt lat="44.44385" lon="1.4807">
        <ele>172</ele>
        <time>2011-03-10T08:59:34</time>
      </trkpt>
      <trkpt lat="44.44383" lon="1.48075">
        <ele>172</ele>
        <time>2011-03-10T08:59:36</time>
      </trkpt>
      <trkpt lat="44.44382" lon="1.48079">
        <ele>172</ele>
        <time>2011-03-10T08:59:38</time>
      </trkpt>
      <trkpt lat="44.44381" lon="1.48081">
        <ele>172</ele>
        <time>2011-03-10T08:59:39</time>
      </trkpt>
      <trkpt lat="44.4438" lon="1.48086">
        <ele>172</ele>
        <time>2011-03-10T08:59:41</time>
      </trkpt>
      <trkpt lat="44.44379" lon="1.48093">
        <ele>172</ele>
        <time>2011-03-10T08:59:44</time>
      </trkpt>
      <trkpt lat="44.44378" lon="1.48097">
        <ele>172</ele>
        <time>2011-03-10T08:59:46</time>
      </trkpt>
      <trkpt lat="44.44378" lon="1.48102">
        <ele>172</ele>
        <time>2011-03-10T08:59:49</time>
      </trkpt>
      <trkpt lat="44.44378" lon="1.48106">
        <ele>172</ele>
        <time>2011-03-10T08:59:51</time>
      </trkpt>
      <trkpt lat="44.44376" lon="1.48109">
        <ele>172</ele>
        <time>2011-03-10T08:59:53</time>
      </trkpt>
      <trkpt lat="44.44374" lon="1.48111">
        <ele>171</ele>
        <time>2011-03-10T08:59:55</time>
      </trkpt>
      <trkpt lat="44.44371" lon="1.48112">
        <ele>171</ele>
        <time>2011-03-10T08:59:57</time>
      </trkpt>
      <trkpt lat="44.44368" lon="1.48111">
        <ele>171</ele>
        <time>2011-03-10T08:59:59</time>
      </trkpt>
      <trkpt lat="44.44366" lon="1.48109">
        <ele>171</ele>
        <time>2011-03-10T09:00:01</time>
      </trkpt>
      <trkpt lat="44.44362" lon="1.48108">
        <ele>171</ele>
        <time>2011-03-10T09:00:03</time>
      </trkpt>
      <trkpt lat="44.44358" lon="1.48107">
        <ele>171</ele>
        <time>2011-03-10T09:00:05</time>
      </trkpt>
      <trkpt lat="44.44351" lon="1.48108">
        <ele>171</ele>
        <time>2011-03-10T09:00:13</time>
      </trkpt>
      <trkpt lat="44.44346" lon="1.48108">
        <ele>171</ele>
        <time>2011-03-10T09:00:19</time>
      </trkpt>
      <trkpt lat="44.4434" lon="1.4811">
        <ele>171</ele>
        <time>2011-03-10T09:00:28</time>
      </trkpt>
      <trkpt lat="44.44337" lon="1.48111">
        <ele>171</ele>
        <time>2011-03-10T09:00:31</time>
      </trkpt>
      <trkpt lat="44.44334" lon="1.48113">
        <ele>171</ele>
        <time>2011-03-10T09:00:38</time>
      </trkpt>
      <trkpt lat="44.44329" lon="1.48117">
        <ele>171</ele>
        <time>2011-03-10T09:00:46</time>
      </trkpt>
      <trkpt lat="44.44325" lon="1.48119">
        <ele>171</ele>
        <time>2011-03-10T09:00:52</time>
      </trkpt>
      <trkpt lat="44.44318" lon="1.48122">
        <ele>171</ele>
        <time>2011-03-10T09:01:06</time>
      </trkpt>
      <trkpt lat="44.44318" lon="1.48122">
        <ele>171</ele>
        <time>2011-03-10T09:01:08</time>
      </trkpt>
      <trkpt lat="44.44314" lon="1.48122">
        <ele>171</ele>
        <time>2011-03-10T09:01:10</time>
      </trkpt>
      <trkpt lat="44.44314" lon="1.48122">
        <ele>171</ele>
        <time>2011-03-10T09:01:11</time>
      </trkpt>
      <trkpt lat="44.44311" lon="1.48122">
        <ele>171</ele>
        <time>2011-03-10T09:01:14</time>
      </trkpt>
      <trkpt lat="44.44309" lon="1.48121">
        <ele>171</ele>
        <time>2011-03-10T09:01:17</time>
      </trkpt>
      <trkpt lat="44.44307" lon="1.48121">
        <ele>171</ele>
        <time>2011-03-10T09:01:19</time>
      </trkpt>
      <trkpt lat="44.44304" lon="1.48121">
        <ele>171</ele>
        <time>2011-03-10T09:01:22</time>
      </trkpt>
      <trkpt lat="44.44302" lon="1.48121">
        <ele>171</ele>
        <time>2011-03-10T09:01:25</time>
      </trkpt>
      <trkpt lat="44.443" lon="1.4812">
        <ele>171</ele>
        <time>2011-03-10T09:01:27</time>
      </trkpt>
      <trkpt lat="44.44297" lon="1.48121">
        <ele>171</ele>
        <time>2011-03-10T09:01:30</time>
      </trkpt>
      <trkpt lat="44.44294" lon="1.48121">
        <ele>171</ele>
        <time>2011-03-10T09:01:33</time>
      </trkpt>
      <trkpt lat="44.44292" lon="1.48119">
        <ele>171</ele>
        <time>2011-03-10T09:01:36</time>
      </trkpt>
      <trkpt lat="44.44289" lon="1.48119">
        <ele>184</ele>
        <time>2011-03-10T09:01:39</time>
      </trkpt>
      <trkpt lat="44.44286" lon="1.48119">
        <ele>184</ele>
        <time>2011-03-10T09:01:43</time>
      </trkpt>
      <trkpt lat="44.44285" lon="1.4812">
        <ele>184</ele>
        <time>2011-03-10T09:01:45</time>
      </trkpt>
      <trkpt lat="44.44281" lon="1.48122">
        <ele>184</ele>
        <time>2011-03-10T09:01:48</time>
      </trkpt>
      <trkpt lat="44.44278" lon="1.48123">
        <ele>184</ele>
        <time>2011-03-10T09:01:51</time>
      </trkpt>
      <trkpt lat="44.44276" lon="1.48124">
        <ele>184</ele>
        <time>2011-03-10T09:01:53</time>
      </trkpt>
      <trkpt lat="44.44275" lon="1.48124">
        <ele>184</ele>
        <time>2011-03-10T09:01:54</time>
      </trkpt>
      <trkpt lat="44.44272" lon="1.48124">
        <ele>184</ele>
        <time>2011-03-10T09:01:57</time>
      </trkpt>
      <trkpt lat="44.44269" lon="1.48126">
        <ele>191</ele>
        <time>2011-03-10T09:02:00</time>
      </trkpt>
      <trkpt lat="44.44266" lon="1.48127">
        <ele>191</ele>
        <time>2011-03-10T09:02:02</time>
      </trkpt>
      <trkpt lat="44.44263" lon="1.48129">
        <ele>191</ele>
        <time>2011-03-10T09:02:04</time>
      </trkpt>
      <trkpt lat="44.44261" lon="1.4813">
        <ele>191</ele>
        <time>2011-03-10T09:02:06</time>
      </trkpt>
      <trkpt lat="44.44259" lon="1.48133">
        <ele>191</ele>
        <time>2011-03-10T09:02:11</time>
      </trkpt>
      <trkpt lat="44.44257" lon="1.48134">
        <ele>191</ele>
        <time>2011-03-10T09:02:14</time>
      </trkpt>
      <trkpt lat="44.44256" lon="1.48133">
        <ele>191</ele>
        <time>2011-03-10T09:02:20</time>
      </trkpt>
      <trkpt lat="44.44255" lon="1.48137">
        <ele>191</ele>
        <time>2011-03-10T09:02:35</time>
      </trkpt>
      <trkpt lat="44.44255" lon="1.48137">
        <ele>191</ele>
        <time>2011-03-10T09:02:36</time>
      </trkpt>
      <trkpt lat="44.44253" lon="1.48137">
        <ele>191</ele>
        <time>2011-03-10T09:02:44</time>
      </trkpt>
      <trkpt lat="44.44251" lon="1.48137">
        <ele>191</ele>
        <time>2011-03-10T09:02:46</time>
      </trkpt>
      <trkpt lat="44.44251" lon="1.48137">
        <ele>191</ele>
        <time>2011-03-10T09:02:47</time>
      </trkpt>
      <trkpt lat="44.44248" lon="1.48136">
        <ele>191</ele>
        <time>2011-03-10T09:02:48</time>
      </trkpt>
      <trkpt lat="44.44245" lon="1.48135">
        <ele>191</ele>
        <time>2011-03-10T09:02:50</time>
      </trkpt>
      <trkpt lat="44.44244" lon="1.48133">
        <ele>191</ele>
        <time>2011-03-10T09:02:51</time>
      </trkpt>
      <trkpt lat="44.44242" lon="1.4813">
        <ele>191</ele>
        <time>2011-03-10T09:02:53</time>
      </trkpt>
      <trkpt lat="44.44241" lon="1.48126">
        <ele>191</ele>
        <time>2011-03-10T09:02:55</time>
      </trkpt>
      <trkpt lat="44.44239" lon="1.48124">
        <ele>184</ele>
        <time>2011-03-10T09:02:58</time>
      </trkpt>
      <trkpt lat="44.44236" lon="1.48125">
        <ele>191</ele>
        <time>2011-03-10T09:03:00</time>
      </trkpt>
      <trkpt lat="44.44234" lon="1.48125">
        <ele>184</ele>
        <time>2011-03-10T09:03:02</time>
      </trkpt>
      <trkpt lat="44.44231" lon="1.48124">
        <ele>184</ele>
        <time>2011-03-10T09:03:04</time>
      </trkpt>
      <trkpt lat="44.44229" lon="1.48124">
        <ele>184</ele>
        <time>2011-03-10T09:03:06</time>
      </trkpt>
      <trkpt lat="44.44226" lon="1.48123">
        <ele>184</ele>
        <time>2011-03-10T09:03:08</time>
      </trkpt>
      <trkpt lat="44.44224" lon="1.48122">
        <ele>184</ele>
        <time>2011-03-10T09:03:10</time>
      </trkpt>
      <trkpt lat="44.44221" lon="1.48122">
        <ele>184</ele>
        <time>2011-03-10T09:03:12</time>
      </trkpt>
      <trkpt lat="44.44219" lon="1.48123">
        <ele>184</ele>
        <time>2011-03-10T09:03:14</time>
      </trkpt>
      <trkpt lat="44.44216" lon="1.48125">
        <ele>184</ele>
        <time>2011-03-10T09:03:16</time>
      </trkpt>
      <trkpt lat="44.44214" lon="1.48127">
        <ele>191</ele>
        <time>2011-03-10T09:03:19</time>
      </trkpt>
      <trkpt lat="44.44212" lon="1.48129">
        <ele>191</ele>
        <time>2011-03-10T09:03:21</time>
      </trkpt>
      <trkpt lat="44.44209" lon="1.48129">
        <ele>191</ele>
        <time>2011-03-10T09:03:23</time>
      </trkpt>
      <trkpt lat="44.44206" lon="1.4813">
        <ele>206</ele>
        <time>2011-03-10T09:03:25</time>
      </trkpt>
      <trkpt lat="44.44203" lon="1.48132">
        <ele>206</ele>
        <time>2011-03-10T09:03:27</time>
      </trkpt>
      <trkpt lat="44.44201" lon="1.48134">
        <ele>206</ele>
        <time>2011-03-10T09:03:29</time>
      </trkpt>
      <trkpt lat="44.44199" lon="1.48135">
        <ele>206</ele>
        <time>2011-03-10T09:03:31</time>
      </trkpt>
      <trkpt lat="44.44195" lon="1.48137">
        <ele>206</ele>
        <time>2011-03-10T09:03:34</time>
      </trkpt>
      <trkpt lat="44.44193" lon="1.48136">
        <ele>206</ele>
        <time>2011-03-10T09:03:36</time>
      </trkpt>
      <trkpt lat="44.4419" lon="1.48136">
        <ele>206</ele>
        <time>2011-03-10T09:03:38</time>
      </trkpt>
      <trkpt lat="44.44188" lon="1.48136">
        <ele>206</ele>
        <time>2011-03-10T09:03:40</time>
      </trkpt>
      <trkpt lat="44.44185" lon="1.48137">
        <ele>206</ele>
        <time>2011-03-10T09:03:42</time>
      </trkpt>
      <trkpt lat="44.44183" lon="1.48139">
        <ele>206</ele>
        <time>2011-03-10T09:03:45</time>
      </trkpt>
      <trkpt lat="44.4418" lon="1.48142">
        <ele>206</ele>
        <time>2011-03-10T09:03:48</time>
      </trkpt>
      <trkpt lat="44.44177" lon="1.48144">
        <ele>206</ele>
        <time>2011-03-10T09:03:51</time>
      </trkpt>
      <trkpt lat="44.44174" lon="1.48145">
        <ele>206</ele>
        <time>2011-03-10T09:03:53</time>
      </trkpt>
      <trkpt lat="44.44172" lon="1.48144">
        <ele>206</ele>
        <time>2011-03-10T09:03:55</time>
      </trkpt>
      <trkpt lat="44.44169" lon="1.48144">
        <ele>206</ele>
        <time>2011-03-10T09:03:58</time>
      </trkpt>
      <trkpt lat="44.44167" lon="1.48148">
        <ele>206</ele>
        <time>2011-03-10T09:04:01</time>
      </trkpt>
      <trkpt lat="44.44165" lon="1.4815">
        <ele>206</ele>
        <time>2011-03-10T09:04:03</time>
      </trkpt>
      <trkpt lat="44.44163" lon="1.48153">
        <ele>206</ele>
        <time>2011-03-10T09:04:07</time>
      </trkpt>
      <trkpt lat="44.44162" lon="1.48156">
        <ele>206</ele>
        <time>2011-03-10T09:04:09</time>
      </trkpt>
      <trkpt lat="44.44158" lon="1.48158">
        <ele>206</ele>
        <time>2011-03-10T09:04:12</time>
      </trkpt>
      <trkpt lat="44.44156" lon="1.48161">
        <ele>206</ele>
        <time>2011-03-10T09:04:16</time>
      </trkpt>
      <trkpt lat="44.44155" lon="1.48163">
        <ele>206</ele>
        <time>2011-03-10T09:04:20</time>
      </trkpt>
      <trkpt lat="44.44153" lon="1.48167">
        <ele>206</ele>
        <time>2011-03-10T09:04:23</time>
      </trkpt>
      <trkpt lat="44.44152" lon="1.4817">
        <ele>206</ele>
        <time>2011-03-10T09:04:25</time>
      </trkpt>
      <trkpt lat="44.4415" lon="1.48173">
        <ele>206</ele>
        <time>2011-03-10T09:04:27</time>
      </trkpt>
      <trkpt lat="44.4415" lon="1.48174">
        <ele>206</ele>
        <time>2011-03-10T09:04:28</time>
      </trkpt>
      <trkpt lat="44.44148" lon="1.48177">
        <ele>206</ele>
        <time>2011-03-10T09:04:30</time>
      </trkpt>
      <trkpt lat="44.44145" lon="1.48177">
        <ele>206</ele>
        <time>2011-03-10T09:04:33</time>
      </trkpt>
      <trkpt lat="44.44141" lon="1.48175">
        <ele>206</ele>
        <time>2011-03-10T09:04:35</time>
      </trkpt>
      <trkpt lat="44.44136" lon="1.48174">
        <ele>206</ele>
        <time>2011-03-10T09:04:37</time>
      </trkpt>
      <trkpt lat="44.44134" lon="1.48175">
        <ele>206</ele>
        <time>2011-03-10T09:04:39</time>
      </trkpt>
      <trkpt lat="44.44131" lon="1.48177">
        <ele>206</ele>
        <time>2011-03-10T09:04:42</time>
      </trkpt>
      <trkpt lat="44.44128" lon="1.48179">
        <ele>206</ele>
        <time>2011-03-10T09:04:49</time>
      </trkpt>
      <trkpt lat="44.44125" lon="1.4818">
        <ele>215</ele>
        <time>2011-03-10T09:04:51</time>
      </trkpt>
      <trkpt lat="44.44122" lon="1.48181">
        <ele>215</ele>
        <time>2011-03-10T09:04:53</time>
      </trkpt>
      <trkpt lat="44.4412" lon="1.48183">
        <ele>215</ele>
        <time>2011-03-10T09:04:55</time>
      </trkpt>
      <trkpt lat="44.44117" lon="1.48184">
        <ele>215</ele>
        <time>2011-03-10T09:04:57</time>
      </trkpt>
      <trkpt lat="44.44114" lon="1.48187">
        <ele>215</ele>
        <time>2011-03-10T09:04:59</time>
      </trkpt>
      <trkpt lat="44.44112" lon="1.48192">
        <ele>215</ele>
        <time>2011-03-10T09:05:01</time>
      </trkpt>
      <trkpt lat="44.4411" lon="1.48195">
        <ele>215</ele>
        <time>2011-03-10T09:05:03</time>
      </trkpt>
      <trkpt lat="44.44107" lon="1.48198">
        <ele>215</ele>
        <time>2011-03-10T09:05:05</time>
      </trkpt>
      <trkpt lat="44.44105" lon="1.48201">
        <ele>215</ele>
        <time>2011-03-10T09:05:07</time>
      </trkpt>
      <trkpt lat="44.44104" lon="1.48206">
        <ele>215</ele>
        <time>2011-03-10T09:05:09</time>
      </trkpt>
      <trkpt lat="44.44103" lon="1.4821">
        <ele>224</ele>
        <time>2011-03-10T09:05:11</time>
      </trkpt>
      <trkpt lat="44.44103" lon="1.48214">
        <ele>224</ele>
        <time>2011-03-10T09:05:13</time>
      </trkpt>
      <trkpt lat="44.441" lon="1.48215">
        <ele>224</ele>
        <time>2011-03-10T09:05:15</time>
      </trkpt>
      <trkpt lat="44.44097" lon="1.48215">
        <ele>224</ele>
        <time>2011-03-10T09:05:17</time>
      </trkpt>
      <trkpt lat="44.44092" lon="1.48215">
        <ele>224</ele>
        <time>2011-03-10T09:05:19</time>
      </trkpt>
      <trkpt lat="44.44088" lon="1.48215">
        <ele>224</ele>
        <time>2011-03-10T09:05:21</time>
      </trkpt>
      <trkpt lat="44.44086" lon="1.48218">
        <ele>224</ele>
        <time>2011-03-10T09:05:23</time>
      </trkpt>
      <trkpt lat="44.44084" lon="1.48222">
        <ele>224</ele>
        <time>2011-03-10T09:05:25</time>
      </trkpt>
      <trkpt lat="44.44083" lon="1.48226">
        <ele>224</ele>
        <time>2011-03-10T09:05:27</time>
      </trkpt>
      <trkpt lat="44.44083" lon="1.4823">
        <ele>224</ele>
        <time>2011-03-10T09:05:29</time>
      </trkpt>
      <trkpt lat="44.44082" lon="1.48233">
        <ele>224</ele>
        <time>2011-03-10T09:05:31</time>
      </trkpt>
      <trkpt lat="44.44081" lon="1.48236">
        <ele>224</ele>
        <time>2011-03-10T09:05:33</time>
      </trkpt>
      <trkpt lat="44.4408" lon="1.48239">
        <ele>224</ele>
        <time>2011-03-10T09:05:35</time>
      </trkpt>
      <trkpt lat="44.44079" lon="1.48243">
        <ele>224</ele>
        <time>2011-03-10T09:05:37</time>
      </trkpt>
      <trkpt lat="44.44078" lon="1.48245">
        <ele>224</ele>
        <time>2011-03-10T09:05:39</time>
      </trkpt>
      <trkpt lat="44.44075" lon="1.48246">
        <ele>224</ele>
        <time>2011-03-10T09:05:42</time>
      </trkpt>
      <trkpt lat="44.44075" lon="1.48243">
        <ele>224</ele>
        <time>2011-03-10T09:05:52</time>
      </trkpt>
      <trkpt lat="44.44075" lon="1.48243">
        <ele>224</ele>
        <time>2011-03-10T09:05:54</time>
      </trkpt>
      <trkpt lat="44.44077" lon="1.48242">
        <ele>224</ele>
        <time>2011-03-10T09:06:02</time>
      </trkpt>
      <trkpt lat="44.44081" lon="1.48239">
        <ele>224</ele>
        <time>2011-03-10T09:06:06</time>
      </trkpt>
      <trkpt lat="44.44082" lon="1.48237">
        <ele>224</ele>
        <time>2011-03-10T09:06:07</time>
      </trkpt>
      <trkpt lat="44.44084" lon="1.48234">
        <ele>224</ele>
        <time>2011-03-10T09:06:09</time>
      </trkpt>
      <trkpt lat="44.44091" lon="1.48231">
        <ele>224</ele>
        <time>2011-03-10T09:06:17</time>
      </trkpt>
      <trkpt lat="44.44089" lon="1.48232">
        <ele>224</ele>
        <time>2011-03-10T09:06:26</time>
      </trkpt>
      <trkpt lat="44.44089" lon="1.48232">
        <ele>224</ele>
        <time>2011-03-10T09:06:28</time>
      </trkpt>
      <trkpt lat="44.44086" lon="1.48232">
        <ele>224</ele>
        <time>2011-03-10T09:06:29</time>
      </trkpt>
      <trkpt lat="44.44086" lon="1.48232">
        <ele>224</ele>
        <time>2011-03-10T09:06:30</time>
      </trkpt>
      <trkpt lat="44.44083" lon="1.48232">
        <ele>224</ele>
        <time>2011-03-10T09:06:32</time>
      </trkpt>
      <trkpt lat="44.4408" lon="1.4823">
        <ele>224</ele>
        <time>2011-03-10T09:06:40</time>
      </trkpt>
      <trkpt lat="44.44077" lon="1.48231">
        <ele>224</ele>
        <time>2011-03-10T09:06:44</time>
      </trkpt>
      <trkpt lat="44.44075" lon="1.48232">
        <ele>224</ele>
        <time>2011-03-10T09:06:48</time>
      </trkpt>
      <trkpt lat="44.44073" lon="1.48233">
        <ele>224</ele>
        <time>2011-03-10T09:06:53</time>
      </trkpt>
      <trkpt lat="44.44071" lon="1.48235">
        <ele>224</ele>
        <time>2011-03-10T09:06:58</time>
      </trkpt>
      <trkpt lat="44.44068" lon="1.48236">
        <ele>224</ele>
        <time>2011-03-10T09:07:06</time>
      </trkpt>
      <trkpt lat="44.44068" lon="1.48236">
        <ele>224</ele>
        <time>2011-03-10T09:07:15</time>
      </trkpt>
      <trkpt lat="44.44071" lon="1.48237">
        <ele>224</ele>
        <time>2011-03-10T09:07:19</time>
      </trkpt>
      <trkpt lat="44.44074" lon="1.48233">
        <ele>224</ele>
        <time>2011-03-10T09:07:31</time>
      </trkpt>
      <trkpt lat="44.44076" lon="1.48226">
        <ele>224</ele>
        <time>2011-03-10T09:08:16</time>
      </trkpt>
      <trkpt lat="44.44073" lon="1.48231">
        <ele>224</ele>
        <time>2011-03-10T09:09:05</time>
      </trkpt>
      <trkpt lat="44.44068" lon="1.48234">
        <ele>224</ele>
        <time>2011-03-10T09:09:18</time>
      </trkpt>
      <trkpt lat="44.44064" lon="1.48238">
        <ele>224</ele>
        <time>2011-03-10T09:09:31</time>
      </trkpt>
      <trkpt lat="44.4406" lon="1.48241">
        <ele>224</ele>
        <time>2011-03-10T09:09:44</time>
      </trkpt>
      <trkpt lat="44.44065" lon="1.48238">
        <ele>224</ele>
        <time>2011-03-10T09:09:52</time>
      </trkpt>
      <trkpt lat="44.44069" lon="1.48236">
        <ele>224</ele>
        <time>2011-03-10T09:09:59</time>
      </trkpt>
      <trkpt lat="44.44073" lon="1.48232">
        <ele>224</ele>
        <time>2011-03-10T09:10:10</time>
      </trkpt>
      <trkpt lat="44.44074" lon="1.48226">
        <ele>224</ele>
        <time>2011-03-10T09:10:19</time>
      </trkpt>
      <trkpt lat="44.44073" lon="1.48219">
        <ele>224</ele>
        <time>2011-03-10T09:10:50</time>
      </trkpt>
      <trkpt lat="44.44073" lon="1.48226">
        <ele>224</ele>
        <time>2011-03-10T09:11:30</time>
      </trkpt>
      <trkpt lat="44.44074" lon="1.48232">
        <ele>224</ele>
        <time>2011-03-10T09:11:42</time>
      </trkpt>
      <trkpt lat="44.44075" lon="1.48238">
        <ele>224</ele>
        <time>2011-03-10T09:11:56</time>
      </trkpt>
      <trkpt lat="44.44077" lon="1.48241">
        <ele>224</ele>
        <time>2011-03-10T09:12:03</time>
      </trkpt>
      <trkpt lat="44.44079" lon="1.48243">
        <ele>224</ele>
        <time>2011-03-10T09:12:07</time>
      </trkpt>
      <trkpt lat="44.44079" lon="1.48243">
        <ele>224</ele>
        <time>2011-03-10T09:12:08</time>
      </trkpt>
      <trkpt lat="44.44081" lon="1.48244">
        <ele>224</ele>
        <time>2011-03-10T09:12:13</time>
      </trkpt>
      <trkpt lat="44.44083" lon="1.48245">
        <ele>224</ele>
        <time>2011-03-10T09:12:19</time>
      </trkpt>
      <trkpt lat="44.44084" lon="1.48242">
        <ele>224</ele>
        <time>2011-03-10T09:12:22</time>
      </trkpt>
      <trkpt lat="44.44086" lon="1.48235">
        <ele>224</ele>
        <time>2011-03-10T09:12:25</time>
      </trkpt>
      <trkpt lat="44.44083" lon="1.48229">
        <ele>224</ele>
        <time>2011-03-10T09:12:31</time>
      </trkpt>
      <trkpt lat="44.44083" lon="1.48226">
        <ele>224</ele>
        <time>2011-03-10T09:12:45</time>
      </trkpt>
      <trkpt lat="44.44083" lon="1.48226">
        <ele>224</ele>
        <time>2011-03-10T09:12:47</time>
      </trkpt>
      <trkpt lat="44.44082" lon="1.4823">
        <ele>224</ele>
        <time>2011-03-10T09:13:08</time>
      </trkpt>
      <trkpt lat="44.44081" lon="1.48233">
        <ele>224</ele>
        <time>2011-03-10T09:13:11</time>
      </trkpt>
      <trkpt lat="44.44081" lon="1.48233">
        <ele>224</ele>
        <time>2011-03-10T09:13:12</time>
      </trkpt>
      <trkpt lat="44.4408" lon="1.48233">
        <ele>224</ele>
        <time>2011-03-10T09:13:12</time>
      </trkpt>
      <trkpt lat="44.44078" lon="1.48236">
        <ele>224</ele>
        <time>2011-03-10T09:13:14</time>
      </trkpt>
      <trkpt lat="44.44075" lon="1.48238">
        <ele>224</ele>
        <time>2011-03-10T09:13:16</time>
      </trkpt>
      <trkpt lat="44.44073" lon="1.48239">
        <ele>224</ele>
        <time>2011-03-10T09:13:17</time>
      </trkpt>
      <trkpt lat="44.4407" lon="1.48244">
        <ele>224</ele>
        <time>2011-03-10T09:13:19</time>
      </trkpt>
      <trkpt lat="44.44068" lon="1.48247">
        <ele>224</ele>
        <time>2011-03-10T09:13:21</time>
      </trkpt>
      <trkpt lat="44.44064" lon="1.4825">
        <ele>224</ele>
        <time>2011-03-10T09:13:23</time>
      </trkpt>
      <trkpt lat="44.4406" lon="1.48251">
        <ele>224</ele>
        <time>2011-03-10T09:13:25</time>
      </trkpt>
      <trkpt lat="44.44056" lon="1.48253">
        <ele>224</ele>
        <time>2011-03-10T09:13:27</time>
      </trkpt>
      <trkpt lat="44.44053" lon="1.48255">
        <ele>224</ele>
        <time>2011-03-10T09:13:29</time>
      </trkpt>
      <trkpt lat="44.44051" lon="1.48259">
        <ele>224</ele>
        <time>2011-03-10T09:13:31</time>
      </trkpt>
      <trkpt lat="44.44049" lon="1.48263">
        <ele>224</ele>
        <time>2011-03-10T09:13:33</time>
      </trkpt>
      <trkpt lat="44.44047" lon="1.48267">
        <ele>224</ele>
        <time>2011-03-10T09:13:35</time>
      </trkpt>
      <trkpt lat="44.44045" lon="1.48271">
        <ele>224</ele>
        <time>2011-03-10T09:13:37</time>
      </trkpt>
      <trkpt lat="44.44041" lon="1.48273">
        <ele>229</ele>
        <time>2011-03-10T09:13:39</time>
      </trkpt>
      <trkpt lat="44.44038" lon="1.48275">
        <ele>229</ele>
        <time>2011-03-10T09:13:41</time>
      </trkpt>
      <trkpt lat="44.44036" lon="1.48278">
        <ele>229</ele>
        <time>2011-03-10T09:13:44</time>
      </trkpt>
      <trkpt lat="44.44034" lon="1.48282">
        <ele>229</ele>
        <time>2011-03-10T09:13:45</time>
      </trkpt>
      <trkpt lat="44.44031" lon="1.48286">
        <ele>229</ele>
        <time>2011-03-10T09:13:47</time>
      </trkpt>
      <trkpt lat="44.44028" lon="1.48289">
        <ele>229</ele>
        <time>2011-03-10T09:13:49</time>
      </trkpt>
      <trkpt lat="44.44025" lon="1.48292">
        <ele>240</ele>
        <time>2011-03-10T09:13:51</time>
      </trkpt>
      <trkpt lat="44.44023" lon="1.48296">
        <ele>240</ele>
        <time>2011-03-10T09:13:53</time>
      </trkpt>
      <trkpt lat="44.44021" lon="1.48301">
        <ele>240</ele>
        <time>2011-03-10T09:13:55</time>
      </trkpt>
      <trkpt lat="44.44019" lon="1.48305">
        <ele>240</ele>
        <time>2011-03-10T09:13:57</time>
      </trkpt>
      <trkpt lat="44.44017" lon="1.48309">
        <ele>240</ele>
        <time>2011-03-10T09:13:59</time>
      </trkpt>
      <trkpt lat="44.44015" lon="1.48313">
        <ele>240</ele>
        <time>2011-03-10T09:14:01</time>
      </trkpt>
      <trkpt lat="44.44013" lon="1.48316">
        <ele>240</ele>
        <time>2011-03-10T09:14:03</time>
      </trkpt>
      <trkpt lat="44.4401" lon="1.48319">
        <ele>240</ele>
        <time>2011-03-10T09:14:05</time>
      </trkpt>
      <trkpt lat="44.44008" lon="1.48322">
        <ele>240</ele>
        <time>2011-03-10T09:14:07</time>
      </trkpt>
      <trkpt lat="44.44006" lon="1.48325">
        <ele>240</ele>
        <time>2011-03-10T09:14:09</time>
      </trkpt>
      <trkpt lat="44.44004" lon="1.48329">
        <ele>240</ele>
        <time>2011-03-10T09:14:11</time>
      </trkpt>
      <trkpt lat="44.44002" lon="1.48332">
        <ele>240</ele>
        <time>2011-03-10T09:14:13</time>
      </trkpt>
      <trkpt lat="44.43999" lon="1.48335">
        <ele>240</ele>
        <time>2011-03-10T09:14:15</time>
      </trkpt>
      <trkpt lat="44.43997" lon="1.48337">
        <ele>240</ele>
        <time>2011-03-10T09:14:17</time>
      </trkpt>
      <trkpt lat="44.43995" lon="1.48339">
        <ele>240</ele>
        <time>2011-03-10T09:14:19</time>
      </trkpt>
      <trkpt lat="44.43993" lon="1.48341">
        <ele>240</ele>
        <time>2011-03-10T09:14:21</time>
      </trkpt>
      <trkpt lat="44.43991" lon="1.48343">
        <ele>240</ele>
        <time>2011-03-10T09:14:23</time>
      </trkpt>
      <trkpt lat="44.43989" lon="1.48345">
        <ele>240</ele>
        <time>2011-03-10T09:14:25</time>
      </trkpt>
      <trkpt lat="44.43987" lon="1.48348">
        <ele>240</ele>
        <time>2011-03-10T09:14:27</time>
      </trkpt>
      <trkpt lat="44.43984" lon="1.4835">
        <ele>240</ele>
        <time>2011-03-10T09:14:29</time>
      </trkpt>
      <trkpt lat="44.43982" lon="1.48353">
        <ele>240</ele>
        <time>2011-03-10T09:14:31</time>
      </trkpt>
      <trkpt lat="44.43979" lon="1.48355">
        <ele>240</ele>
        <time>2011-03-10T09:14:33</time>
      </trkpt>
      <trkpt lat="44.43976" lon="1.48359">
        <ele>240</ele>
        <time>2011-03-10T09:14:36</time>
      </trkpt>
      <trkpt lat="44.43974" lon="1.48362">
        <ele>240</ele>
        <time>2011-03-10T09:14:39</time>
      </trkpt>
      <trkpt lat="44.43972" lon="1.48363">
        <ele>240</ele>
        <time>2011-03-10T09:14:50</time>
      </trkpt>
      <trkpt lat="44.4397" lon="1.48366">
        <ele>240</ele>
        <time>2011-03-10T09:14:52</time>
      </trkpt>
      <trkpt lat="44.43968" lon="1.48368">
        <ele>240</ele>
        <time>2011-03-10T09:14:54</time>
      </trkpt>
      <trkpt lat="44.43966" lon="1.4837">
        <ele>240</ele>
        <time>2011-03-10T09:14:56</time>
      </trkpt>
      <trkpt lat="44.43964" lon="1.48373">
        <ele>240</ele>
        <time>2011-03-10T09:14:58</time>
      </trkpt>
      <trkpt lat="44.43962" lon="1.48376">
        <ele>241</ele>
        <time>2011-03-10T09:15:01</time>
      </trkpt>
      <trkpt lat="44.4396" lon="1.48379">
        <ele>241</ele>
        <time>2011-03-10T09:15:03</time>
      </trkpt>
      <trkpt lat="44.43957" lon="1.4838">
        <ele>248</ele>
        <time>2011-03-10T09:15:05</time>
      </trkpt>
      <trkpt lat="44.43954" lon="1.48381">
        <ele>248</ele>
        <time>2011-03-10T09:15:07</time>
      </trkpt>
      <trkpt lat="44.43952" lon="1.48384">
        <ele>248</ele>
        <time>2011-03-10T09:15:09</time>
      </trkpt>
      <trkpt lat="44.4395" lon="1.48387">
        <ele>248</ele>
        <time>2011-03-10T09:15:11</time>
      </trkpt>
      <trkpt lat="44.43948" lon="1.48389">
        <ele>248</ele>
        <time>2011-03-10T09:15:13</time>
      </trkpt>
      <trkpt lat="44.43946" lon="1.48391">
        <ele>248</ele>
        <time>2011-03-10T09:15:15</time>
      </trkpt>
      <trkpt lat="44.43944" lon="1.48394">
        <ele>248</ele>
        <time>2011-03-10T09:15:17</time>
      </trkpt>
      <trkpt lat="44.43943" lon="1.48398">
        <ele>248</ele>
        <time>2011-03-10T09:15:19</time>
      </trkpt>
      <trkpt lat="44.43941" lon="1.48401">
        <ele>248</ele>
        <time>2011-03-10T09:15:21</time>
      </trkpt>
      <trkpt lat="44.4394" lon="1.48403">
        <ele>248</ele>
        <time>2011-03-10T09:15:24</time>
      </trkpt>
      <trkpt lat="44.43938" lon="1.48406">
        <ele>248</ele>
        <time>2011-03-10T09:15:38</time>
      </trkpt>
      <trkpt lat="44.43937" lon="1.48407">
        <ele>248</ele>
        <time>2011-03-10T09:15:40</time>
      </trkpt>
      <trkpt lat="44.43936" lon="1.4841">
        <ele>248</ele>
        <time>2011-03-10T09:15:43</time>
      </trkpt>
      <trkpt lat="44.43934" lon="1.48413">
        <ele>248</ele>
        <time>2011-03-10T09:15:46</time>
      </trkpt>
      <trkpt lat="44.43932" lon="1.48416">
        <ele>248</ele>
        <time>2011-03-10T09:15:48</time>
      </trkpt>
      <trkpt lat="44.43931" lon="1.48417">
        <ele>248</ele>
        <time>2011-03-10T09:15:49</time>
      </trkpt>
      <trkpt lat="44.43928" lon="1.4842">
        <ele>248</ele>
        <time>2011-03-10T09:15:51</time>
      </trkpt>
      <trkpt lat="44.43926" lon="1.48424">
        <ele>248</ele>
        <time>2011-03-10T09:15:53</time>
      </trkpt>
      <trkpt lat="44.43925" lon="1.48428">
        <ele>248</ele>
        <time>2011-03-10T09:15:55</time>
      </trkpt>
      <trkpt lat="44.43923" lon="1.48432">
        <ele>248</ele>
        <time>2011-03-10T09:15:57</time>
      </trkpt>
      <trkpt lat="44.43921" lon="1.48436">
        <ele>248</ele>
        <time>2011-03-10T09:15:59</time>
      </trkpt>
      <trkpt lat="44.43919" lon="1.4844">
        <ele>248</ele>
        <time>2011-03-10T09:16:01</time>
      </trkpt>
      <trkpt lat="44.43918" lon="1.48445">
        <ele>248</ele>
        <time>2011-03-10T09:16:03</time>
      </trkpt>
      <trkpt lat="44.43917" lon="1.4845">
        <ele>248</ele>
        <time>2011-03-10T09:16:05</time>
      </trkpt>
      <trkpt lat="44.43915" lon="1.48454">
        <ele>248</ele>
        <time>2011-03-10T09:16:07</time>
      </trkpt>
      <trkpt lat="44.43915" lon="1.48459">
        <ele>256</ele>
        <time>2011-03-10T09:16:09</time>
      </trkpt>
      <trkpt lat="44.43915" lon="1.48463">
        <ele>256</ele>
        <time>2011-03-10T09:16:11</time>
      </trkpt>
      <trkpt lat="44.43914" lon="1.48467">
        <ele>256</ele>
        <time>2011-03-10T09:16:13</time>
      </trkpt>
      <trkpt lat="44.43913" lon="1.4847">
        <ele>256</ele>
        <time>2011-03-10T09:16:18</time>
      </trkpt>
      <trkpt lat="44.43913" lon="1.48474">
        <ele>256</ele>
        <time>2011-03-10T09:16:22</time>
      </trkpt>
      <trkpt lat="44.43912" lon="1.48478">
        <ele>256</ele>
        <time>2011-03-10T09:16:33</time>
      </trkpt>
      <trkpt lat="44.43913" lon="1.48482">
        <ele>256</ele>
        <time>2011-03-10T09:16:35</time>
      </trkpt>
      <trkpt lat="44.43913" lon="1.48487">
        <ele>256</ele>
        <time>2011-03-10T09:16:37</time>
      </trkpt>
      <trkpt lat="44.43913" lon="1.48492">
        <ele>256</ele>
        <time>2011-03-10T09:16:39</time>
      </trkpt>
      <trkpt lat="44.43912" lon="1.48497">
        <ele>256</ele>
        <time>2011-03-10T09:16:41</time>
      </trkpt>
      <trkpt lat="44.43909" lon="1.48501">
        <ele>256</ele>
        <time>2011-03-10T09:16:43</time>
      </trkpt>
      <trkpt lat="44.43907" lon="1.48506">
        <ele>256</ele>
        <time>2011-03-10T09:16:45</time>
      </trkpt>
      <trkpt lat="44.43906" lon="1.4851">
        <ele>256</ele>
        <time>2011-03-10T09:16:47</time>
      </trkpt>
      <trkpt lat="44.43904" lon="1.48514">
        <ele>256</ele>
        <time>2011-03-10T09:16:49</time>
      </trkpt>
      <trkpt lat="44.43903" lon="1.48518">
        <ele>256</ele>
        <time>2011-03-10T09:16:51</time>
      </trkpt>
      <trkpt lat="44.43902" lon="1.48522">
        <ele>256</ele>
        <time>2011-03-10T09:16:53</time>
      </trkpt>
      <trkpt lat="44.43901" lon="1.48527">
        <ele>256</ele>
        <time>2011-03-10T09:16:55</time>
      </trkpt>
      <trkpt lat="44.439" lon="1.48531">
        <ele>256</ele>
        <time>2011-03-10T09:16:58</time>
      </trkpt>
      <trkpt lat="44.43898" lon="1.48535">
        <ele>256</ele>
        <time>2011-03-10T09:16:59</time>
      </trkpt>
      <trkpt lat="44.43896" lon="1.48538">
        <ele>256</ele>
        <time>2011-03-10T09:17:01</time>
      </trkpt>
      <trkpt lat="44.43894" lon="1.48542">
        <ele>259</ele>
        <time>2011-03-10T09:17:03</time>
      </trkpt>
      <trkpt lat="44.43894" lon="1.48546">
        <ele>259</ele>
        <time>2011-03-10T09:17:05</time>
      </trkpt>
      <trkpt lat="44.43893" lon="1.48551">
        <ele>259</ele>
        <time>2011-03-10T09:17:07</time>
      </trkpt>
      <trkpt lat="44.43893" lon="1.48556">
        <ele>259</ele>
        <time>2011-03-10T09:17:09</time>
      </trkpt>
      <trkpt lat="44.43892" lon="1.4856">
        <ele>259</ele>
        <time>2011-03-10T09:17:11</time>
      </trkpt>
      <trkpt lat="44.43892" lon="1.48564">
        <ele>259</ele>
        <time>2011-03-10T09:17:13</time>
      </trkpt>
      <trkpt lat="44.43891" lon="1.4857">
        <ele>259</ele>
        <time>2011-03-10T09:17:15</time>
      </trkpt>
      <trkpt lat="44.4389" lon="1.48575">
        <ele>259</ele>
        <time>2011-03-10T09:17:17</time>
      </trkpt>
      <trkpt lat="44.43889" lon="1.4858">
        <ele>259</ele>
        <time>2011-03-10T09:17:19</time>
      </trkpt>
      <trkpt lat="44.43888" lon="1.48585">
        <ele>259</ele>
        <time>2011-03-10T09:17:21</time>
      </trkpt>
      <trkpt lat="44.43887" lon="1.4859">
        <ele>259</ele>
        <time>2011-03-10T09:17:23</time>
      </trkpt>
      <trkpt lat="44.43887" lon="1.48595">
        <ele>259</ele>
        <time>2011-03-10T09:17:25</time>
      </trkpt>
      <trkpt lat="44.43886" lon="1.48599">
        <ele>259</ele>
        <time>2011-03-10T09:17:27</time>
      </trkpt>
      <trkpt lat="44.43885" lon="1.48604">
        <ele>259</ele>
        <time>2011-03-10T09:17:30</time>
      </trkpt>
      <trkpt lat="44.43885" lon="1.48609">
        <ele>259</ele>
        <time>2011-03-10T09:17:31</time>
      </trkpt>
      <trkpt lat="44.43886" lon="1.48615">
        <ele>259</ele>
        <time>2011-03-10T09:17:33</time>
      </trkpt>
      <trkpt lat="44.43886" lon="1.4862">
        <ele>259</ele>
        <time>2011-03-10T09:17:35</time>
      </trkpt>
      <trkpt lat="44.43886" lon="1.48626">
        <ele>263</ele>
        <time>2011-03-10T09:17:37</time>
      </trkpt>
      <trkpt lat="44.43885" lon="1.48631">
        <ele>263</ele>
        <time>2011-03-10T09:17:39</time>
      </trkpt>
      <trkpt lat="44.43885" lon="1.48633">
        <ele>263</ele>
        <time>2011-03-10T09:17:40</time>
      </trkpt>
      <trkpt lat="44.43884" lon="1.48639">
        <ele>263</ele>
        <time>2011-03-10T09:17:42</time>
      </trkpt>
      <trkpt lat="44.43883" lon="1.48644">
        <ele>263</ele>
        <time>2011-03-10T09:17:44</time>
      </trkpt>
      <trkpt lat="44.43882" lon="1.4865">
        <ele>263</ele>
        <time>2011-03-10T09:17:46</time>
      </trkpt>
      <trkpt lat="44.43882" lon="1.48655">
        <ele>263</ele>
        <time>2011-03-10T09:17:48</time>
      </trkpt>
      <trkpt lat="44.43882" lon="1.4866">
        <ele>263</ele>
        <time>2011-03-10T09:17:50</time>
      </trkpt>
      <trkpt lat="44.43882" lon="1.48666">
        <ele>263</ele>
        <time>2011-03-10T09:17:52</time>
      </trkpt>
      <trkpt lat="44.43882" lon="1.48671">
        <ele>263</ele>
        <time>2011-03-10T09:17:54</time>
      </trkpt>
      <trkpt lat="44.43882" lon="1.48676">
        <ele>263</ele>
        <time>2011-03-10T09:17:56</time>
      </trkpt>
      <trkpt lat="44.43881" lon="1.48683">
        <ele>263</ele>
        <time>2011-03-10T09:17:58</time>
      </trkpt>
      <trkpt lat="44.43879" lon="1.48689">
        <ele>263</ele>
        <time>2011-03-10T09:18:00</time>
      </trkpt>
      <trkpt lat="44.43878" lon="1.48695">
        <ele>263</ele>
        <time>2011-03-10T09:18:02</time>
      </trkpt>
      <trkpt lat="44.43876" lon="1.487">
        <ele>263</ele>
        <time>2011-03-10T09:18:04</time>
      </trkpt>
      <trkpt lat="44.43875" lon="1.48706">
        <ele>263</ele>
        <time>2011-03-10T09:18:06</time>
      </trkpt>
      <trkpt lat="44.43875" lon="1.48712">
        <ele>267</ele>
        <time>2011-03-10T09:18:08</time>
      </trkpt>
      <trkpt lat="44.43876" lon="1.48721">
        <ele>267</ele>
        <time>2011-03-10T09:18:11</time>
      </trkpt>
      <trkpt lat="44.43875" lon="1.48726">
        <ele>265</ele>
        <time>2011-03-10T09:18:13</time>
      </trkpt>
      <trkpt lat="44.43875" lon="1.4873">
        <ele>265</ele>
        <time>2011-03-10T09:18:14</time>
      </trkpt>
      <trkpt lat="44.43874" lon="1.48735">
        <ele>265</ele>
        <time>2011-03-10T09:18:16</time>
      </trkpt>
      <trkpt lat="44.43871" lon="1.48739">
        <ele>265</ele>
        <time>2011-03-10T09:18:18</time>
      </trkpt>
      <trkpt lat="44.43869" lon="1.4874">
        <ele>265</ele>
        <time>2011-03-10T09:18:19</time>
      </trkpt>
      <trkpt lat="44.43864" lon="1.48743">
        <ele>265</ele>
        <time>2011-03-10T09:18:21</time>
      </trkpt>
      <trkpt lat="44.43862" lon="1.48749">
        <ele>265</ele>
        <time>2011-03-10T09:18:23</time>
      </trkpt>
      <trkpt lat="44.4386" lon="1.48754">
        <ele>265</ele>
        <time>2011-03-10T09:18:25</time>
      </trkpt>
      <trkpt lat="44.43859" lon="1.48758">
        <ele>265</ele>
        <time>2011-03-10T09:18:26</time>
      </trkpt>
      <trkpt lat="44.43858" lon="1.48764">
        <ele>265</ele>
        <time>2011-03-10T09:18:28</time>
      </trkpt>
      <trkpt lat="44.43857" lon="1.48767">
        <ele>265</ele>
        <time>2011-03-10T09:18:29</time>
      </trkpt>
      <trkpt lat="44.43857" lon="1.4877">
        <ele>265</ele>
        <time>2011-03-10T09:18:30</time>
      </trkpt>
      <trkpt lat="44.43855" lon="1.48775">
        <ele>265</ele>
        <time>2011-03-10T09:18:32</time>
      </trkpt>
      <trkpt lat="44.43852" lon="1.48779">
        <ele>265</ele>
        <time>2011-03-10T09:18:34</time>
      </trkpt>
      <trkpt lat="44.43848" lon="1.48781">
        <ele>265</ele>
        <time>2011-03-10T09:18:36</time>
      </trkpt>
      <trkpt lat="44.43846" lon="1.48781">
        <ele>265</ele>
        <time>2011-03-10T09:18:37</time>
      </trkpt>
      <trkpt lat="44.4384" lon="1.48784">
        <ele>265</ele>
        <time>2011-03-10T09:18:39</time>
      </trkpt>
      <trkpt lat="44.43836" lon="1.48788">
        <ele>265</ele>
        <time>2011-03-10T09:18:41</time>
      </trkpt>
      <trkpt lat="44.43829" lon="1.48792">
        <ele>270</ele>
        <time>2011-03-10T09:18:43</time>
      </trkpt>
      <trkpt lat="44.43826" lon="1.48795">
        <ele>270</ele>
        <time>2011-03-10T09:18:44</time>
      </trkpt>
      <trkpt lat="44.43819" lon="1.488">
        <ele>270</ele>
        <time>2011-03-10T09:18:46</time>
      </trkpt>
      <trkpt lat="44.43812" lon="1.48805">
        <ele>270</ele>
        <time>2011-03-10T09:18:48</time>
      </trkpt>
      <trkpt lat="44.43806" lon="1.48812">
        <ele>270</ele>
        <time>2011-03-10T09:18:50</time>
      </trkpt>
      <trkpt lat="44.43803" lon="1.48816">
        <ele>270</ele>
        <time>2011-03-10T09:18:51</time>
      </trkpt>
      <trkpt lat="44.43797" lon="1.48822">
        <ele>270</ele>
        <time>2011-03-10T09:18:53</time>
      </trkpt>
      <trkpt lat="44.43793" lon="1.48825">
        <ele>270</ele>
        <time>2011-03-10T09:18:54</time>
      </trkpt>
      <trkpt lat="44.43785" lon="1.48829">
        <ele>261</ele>
        <time>2011-03-10T09:18:56</time>
      </trkpt>
      <trkpt lat="44.43781" lon="1.48832">
        <ele>261</ele>
        <time>2011-03-10T09:18:57</time>
      </trkpt>
      <trkpt lat="44.43773" lon="1.48837">
        <ele>261</ele>
        <time>2011-03-10T09:18:59</time>
      </trkpt>
      <trkpt lat="44.43765" lon="1.48843">
        <ele>261</ele>
        <time>2011-03-10T09:19:01</time>
      </trkpt>
      <trkpt lat="44.43761" lon="1.48847">
        <ele>261</ele>
        <time>2011-03-10T09:19:02</time>
      </trkpt>
      <trkpt lat="44.43758" lon="1.4885">
        <ele>261</ele>
        <time>2011-03-10T09:19:03</time>
      </trkpt>
      <trkpt lat="44.43751" lon="1.48855">
        <ele>261</ele>
        <time>2011-03-10T09:19:05</time>
      </trkpt>
      <trkpt lat="44.43749" lon="1.48856">
        <ele>261</ele>
        <time>2011-03-10T09:19:06</time>
      </trkpt>
      <trkpt lat="44.43745" lon="1.48858">
        <ele>261</ele>
        <time>2011-03-10T09:19:08</time>
      </trkpt>
      <trkpt lat="44.43742" lon="1.48859">
        <ele>261</ele>
        <time>2011-03-10T09:19:10</time>
      </trkpt>
      <trkpt lat="44.4374" lon="1.4886">
        <ele>261</ele>
        <time>2011-03-10T09:19:11</time>
      </trkpt>
      <trkpt lat="44.4374" lon="1.4886">
        <ele>261</ele>
        <time>2011-03-10T09:19:31</time>
      </trkpt>
      <trkpt lat="44.43737" lon="1.48861">
        <ele>261</ele>
        <time>2011-03-10T09:19:34</time>
      </trkpt>
      <trkpt lat="44.43734" lon="1.48863">
        <ele>261</ele>
        <time>2011-03-10T09:19:37</time>
      </trkpt>
      <trkpt lat="44.43734" lon="1.48863">
        <ele>261</ele>
        <time>2011-03-10T09:19:38</time>
      </trkpt>
      <trkpt lat="44.43732" lon="1.48866">
        <ele>261</ele>
        <time>2011-03-10T09:19:39</time>
      </trkpt>
      <trkpt lat="44.43724" lon="1.48872">
        <ele>261</ele>
        <time>2011-03-10T09:19:41</time>
      </trkpt>
      <trkpt lat="44.4372" lon="1.48872">
        <ele>261</ele>
        <time>2011-03-10T09:19:42</time>
      </trkpt>
      <trkpt lat="44.43711" lon="1.48874">
        <ele>261</ele>
        <time>2011-03-10T09:19:44</time>
      </trkpt>
      <trkpt lat="44.43704" lon="1.48875">
        <ele>256</ele>
        <time>2011-03-10T09:19:46</time>
      </trkpt>
      <trkpt lat="44.437" lon="1.48875">
        <ele>256</ele>
        <time>2011-03-10T09:19:47</time>
      </trkpt>
      <trkpt lat="44.43694" lon="1.48875">
        <ele>255</ele>
        <time>2011-03-10T09:19:49</time>
      </trkpt>
      <trkpt lat="44.43691" lon="1.48876">
        <ele>255</ele>
        <time>2011-03-10T09:19:50</time>
      </trkpt>
      <trkpt lat="44.43684" lon="1.48877">
        <ele>255</ele>
        <time>2011-03-10T09:19:52</time>
      </trkpt>
      <trkpt lat="44.43676" lon="1.48878">
        <ele>255</ele>
        <time>2011-03-10T09:19:54</time>
      </trkpt>
      <trkpt lat="44.43672" lon="1.48878">
        <ele>255</ele>
        <time>2011-03-10T09:19:55</time>
      </trkpt>
      <trkpt lat="44.43668" lon="1.48878">
        <ele>255</ele>
        <time>2011-03-10T09:19:56</time>
      </trkpt>
      <trkpt lat="44.43664" lon="1.48878">
        <ele>255</ele>
        <time>2011-03-10T09:19:57</time>
      </trkpt>
      <trkpt lat="44.43656" lon="1.48879">
        <ele>255</ele>
        <time>2011-03-10T09:19:59</time>
      </trkpt>
      <trkpt lat="44.43648" lon="1.48881">
        <ele>255</ele>
        <time>2011-03-10T09:20:01</time>
      </trkpt>
      <trkpt lat="44.4364" lon="1.48883">
        <ele>255</ele>
        <time>2011-03-10T09:20:03</time>
      </trkpt>
      <trkpt lat="44.43636" lon="1.48884">
        <ele>255</ele>
        <time>2011-03-10T09:20:04</time>
      </trkpt>
      <trkpt lat="44.4363" lon="1.48888">
        <ele>255</ele>
        <time>2011-03-10T09:20:06</time>
      </trkpt>
      <trkpt lat="44.43627" lon="1.48889">
        <ele>255</ele>
        <time>2011-03-10T09:20:07</time>
      </trkpt>
      <trkpt lat="44.4362" lon="1.48894">
        <ele>267</ele>
        <time>2011-03-10T09:20:09</time>
      </trkpt>
      <trkpt lat="44.43618" lon="1.48896">
        <ele>267</ele>
        <time>2011-03-10T09:20:10</time>
      </trkpt>
      <trkpt lat="44.43612" lon="1.48902">
        <ele>267</ele>
        <time>2011-03-10T09:20:12</time>
      </trkpt>
      <trkpt lat="44.43609" lon="1.48905">
        <ele>267</ele>
        <time>2011-03-10T09:20:13</time>
      </trkpt>
      <trkpt lat="44.43605" lon="1.48913">
        <ele>267</ele>
        <time>2011-03-10T09:20:15</time>
      </trkpt>
      <trkpt lat="44.43604" lon="1.48918">
        <ele>267</ele>
        <time>2011-03-10T09:20:16</time>
      </trkpt>
      <trkpt lat="44.43602" lon="1.48929">
        <ele>267</ele>
        <time>2011-03-10T09:20:18</time>
      </trkpt>
      <trkpt lat="44.43601" lon="1.48941">
        <ele>267</ele>
        <time>2011-03-10T09:20:20</time>
      </trkpt>
      <trkpt lat="44.43604" lon="1.48953">
        <ele>267</ele>
        <time>2011-03-10T09:20:22</time>
      </trkpt>
      <trkpt lat="44.43606" lon="1.48964">
        <ele>266</ele>
        <time>2011-03-10T09:20:24</time>
      </trkpt>
      <trkpt lat="44.43608" lon="1.48976">
        <ele>266</ele>
        <time>2011-03-10T09:20:26</time>
      </trkpt>
      <trkpt lat="44.43608" lon="1.48986">
        <ele>266</ele>
        <time>2011-03-10T09:20:28</time>
      </trkpt>
      <trkpt lat="44.43608" lon="1.48997">
        <ele>266</ele>
        <time>2011-03-10T09:20:30</time>
      </trkpt>
      <trkpt lat="44.43608" lon="1.49002">
        <ele>266</ele>
        <time>2011-03-10T09:20:31</time>
      </trkpt>
      <trkpt lat="44.43608" lon="1.49013">
        <ele>266</ele>
        <time>2011-03-10T09:20:33</time>
      </trkpt>
      <trkpt lat="44.43608" lon="1.49018">
        <ele>266</ele>
        <time>2011-03-10T09:20:34</time>
      </trkpt>
      <trkpt lat="44.43607" lon="1.49024">
        <ele>266</ele>
        <time>2011-03-10T09:20:35</time>
      </trkpt>
      <trkpt lat="44.43607" lon="1.49034">
        <ele>266</ele>
        <time>2011-03-10T09:20:37</time>
      </trkpt>
      <trkpt lat="44.43607" lon="1.49039">
        <ele>266</ele>
        <time>2011-03-10T09:20:38</time>
      </trkpt>
      <trkpt lat="44.43607" lon="1.49049">
        <ele>266</ele>
        <time>2011-03-10T09:20:40</time>
      </trkpt>
      <trkpt lat="44.43607" lon="1.49054">
        <ele>266</ele>
        <time>2011-03-10T09:20:41</time>
      </trkpt>
      <trkpt lat="44.43607" lon="1.49066">
        <ele>266</ele>
        <time>2011-03-10T09:20:43</time>
      </trkpt>
      <trkpt lat="44.43606" lon="1.49078">
        <ele>266</ele>
        <time>2011-03-10T09:20:45</time>
      </trkpt>
      <trkpt lat="44.43606" lon="1.49084">
        <ele>266</ele>
        <time>2011-03-10T09:20:46</time>
      </trkpt>
      <trkpt lat="44.43605" lon="1.49096">
        <ele>266</ele>
        <time>2011-03-10T09:20:48</time>
      </trkpt>
      <trkpt lat="44.43604" lon="1.49102">
        <ele>266</ele>
        <time>2011-03-10T09:20:49</time>
      </trkpt>
      <trkpt lat="44.43603" lon="1.49108">
        <ele>266</ele>
        <time>2011-03-10T09:20:50</time>
      </trkpt>
      <trkpt lat="44.43601" lon="1.4912">
        <ele>266</ele>
        <time>2011-03-10T09:20:52</time>
      </trkpt>
      <trkpt lat="44.436" lon="1.49134">
        <ele>265</ele>
        <time>2011-03-10T09:20:54</time>
      </trkpt>
      <trkpt lat="44.43598" lon="1.49147">
        <ele>265</ele>
        <time>2011-03-10T09:20:56</time>
      </trkpt>
      <trkpt lat="44.43596" lon="1.49161">
        <ele>265</ele>
        <time>2011-03-10T09:20:58</time>
      </trkpt>
      <trkpt lat="44.43594" lon="1.49175">
        <ele>265</ele>
        <time>2011-03-10T09:21:00</time>
      </trkpt>
      <trkpt lat="44.43593" lon="1.49181">
        <ele>265</ele>
        <time>2011-03-10T09:21:01</time>
      </trkpt>
      <trkpt lat="44.43591" lon="1.49194">
        <ele>265</ele>
        <time>2011-03-10T09:21:03</time>
      </trkpt>
      <trkpt lat="44.43588" lon="1.49206">
        <ele>265</ele>
        <time>2011-03-10T09:21:05</time>
      </trkpt>
      <trkpt lat="44.43587" lon="1.49212">
        <ele>263</ele>
        <time>2011-03-10T09:21:06</time>
      </trkpt>
      <trkpt lat="44.43584" lon="1.49224">
        <ele>263</ele>
        <time>2011-03-10T09:21:08</time>
      </trkpt>
      <trkpt lat="44.43583" lon="1.4923">
        <ele>263</ele>
        <time>2011-03-10T09:21:09</time>
      </trkpt>
      <trkpt lat="44.43581" lon="1.49242">
        <ele>263</ele>
        <time>2011-03-10T09:21:11</time>
      </trkpt>
      <trkpt lat="44.4358" lon="1.49248">
        <ele>263</ele>
        <time>2011-03-10T09:21:12</time>
      </trkpt>
      <trkpt lat="44.43579" lon="1.4926">
        <ele>263</ele>
        <time>2011-03-10T09:21:14</time>
      </trkpt>
      <trkpt lat="44.43579" lon="1.49266">
        <ele>263</ele>
        <time>2011-03-10T09:21:15</time>
      </trkpt>
      <trkpt lat="44.43579" lon="1.49272">
        <ele>263</ele>
        <time>2011-03-10T09:21:16</time>
      </trkpt>
      <trkpt lat="44.43578" lon="1.49278">
        <ele>263</ele>
        <time>2011-03-10T09:21:17</time>
      </trkpt>
      <trkpt lat="44.43578" lon="1.4929">
        <ele>263</ele>
        <time>2011-03-10T09:21:19</time>
      </trkpt>
      <trkpt lat="44.43578" lon="1.49301">
        <ele>260</ele>
        <time>2011-03-10T09:21:21</time>
      </trkpt>
      <trkpt lat="44.43578" lon="1.49307">
        <ele>260</ele>
        <time>2011-03-10T09:21:22</time>
      </trkpt>
      <trkpt lat="44.43577" lon="1.49317">
        <ele>260</ele>
        <time>2011-03-10T09:21:24</time>
      </trkpt>
      <trkpt lat="44.43574" lon="1.49327">
        <ele>260</ele>
        <time>2011-03-10T09:21:26</time>
      </trkpt>
      <trkpt lat="44.43572" lon="1.49332">
        <ele>260</ele>
        <time>2011-03-10T09:21:27</time>
      </trkpt>
      <trkpt lat="44.43567" lon="1.4934">
        <ele>260</ele>
        <time>2011-03-10T09:21:29</time>
      </trkpt>
      <trkpt lat="44.43561" lon="1.49348">
        <ele>260</ele>
        <time>2011-03-10T09:21:31</time>
      </trkpt>
      <trkpt lat="44.43556" lon="1.49355">
        <ele>260</ele>
        <time>2011-03-10T09:21:33</time>
      </trkpt>
      <trkpt lat="44.43553" lon="1.49357">
        <ele>260</ele>
        <time>2011-03-10T09:21:34</time>
      </trkpt>
      <trkpt lat="44.4355" lon="1.49359">
        <ele>260</ele>
        <time>2011-03-10T09:21:35</time>
      </trkpt>
      <trkpt lat="44.43547" lon="1.49359">
        <ele>260</ele>
        <time>2011-03-10T09:21:36</time>
      </trkpt>
      <trkpt lat="44.43541" lon="1.49354">
        <ele>266</ele>
        <time>2011-03-10T09:21:38</time>
      </trkpt>
      <trkpt lat="44.43538" lon="1.49347">
        <ele>266</ele>
        <time>2011-03-10T09:21:40</time>
      </trkpt>
      <trkpt lat="44.43535" lon="1.49341">
        <ele>266</ele>
        <time>2011-03-10T09:21:42</time>
      </trkpt>
      <trkpt lat="44.4353" lon="1.49337">
        <ele>266</ele>
        <time>2011-03-10T09:21:44</time>
      </trkpt>
      <trkpt lat="44.43528" lon="1.49334">
        <ele>266</ele>
        <time>2011-03-10T09:21:45</time>
      </trkpt>
      <trkpt lat="44.43525" lon="1.49332">
        <ele>266</ele>
        <time>2011-03-10T09:21:46</time>
      </trkpt>
      <trkpt lat="44.43522" lon="1.4933">
        <ele>266</ele>
        <time>2011-03-10T09:21:47</time>
      </trkpt>
      <trkpt lat="44.43517" lon="1.49327">
        <ele>266</ele>
        <time>2011-03-10T09:21:49</time>
      </trkpt>
      <trkpt lat="44.43515" lon="1.49326">
        <ele>266</ele>
        <time>2011-03-10T09:21:50</time>
      </trkpt>
      <trkpt lat="44.43508" lon="1.49324">
        <ele>266</ele>
        <time>2011-03-10T09:21:53</time>
      </trkpt>
      <trkpt lat="44.43503" lon="1.49322">
        <ele>266</ele>
        <time>2011-03-10T09:21:55</time>
      </trkpt>
      <trkpt lat="44.43501" lon="1.49321">
        <ele>266</ele>
        <time>2011-03-10T09:21:56</time>
      </trkpt>
      <trkpt lat="44.43494" lon="1.49319">
        <ele>266</ele>
        <time>2011-03-10T09:21:59</time>
      </trkpt>
      <trkpt lat="44.43492" lon="1.49319">
        <ele>266</ele>
        <time>2011-03-10T09:22:00</time>
      </trkpt>
      <trkpt lat="44.43487" lon="1.49317">
        <ele>266</ele>
        <time>2011-03-10T09:22:02</time>
      </trkpt>
      <trkpt lat="44.43483" lon="1.49316">
        <ele>266</ele>
        <time>2011-03-10T09:22:04</time>
      </trkpt>
      <trkpt lat="44.4348" lon="1.49315">
        <ele>266</ele>
        <time>2011-03-10T09:22:05</time>
      </trkpt>
      <trkpt lat="44.43475" lon="1.49313">
        <ele>266</ele>
        <time>2011-03-10T09:22:07</time>
      </trkpt>
      <trkpt lat="44.43473" lon="1.49313">
        <ele>266</ele>
        <time>2011-03-10T09:22:08</time>
      </trkpt>
      <trkpt lat="44.43469" lon="1.49311">
        <ele>266</ele>
        <time>2011-03-10T09:22:10</time>
      </trkpt>
      <trkpt lat="44.43464" lon="1.4931">
        <ele>266</ele>
        <time>2011-03-10T09:22:12</time>
      </trkpt>
      <trkpt lat="44.4346" lon="1.49309">
        <ele>266</ele>
        <time>2011-03-10T09:22:14</time>
      </trkpt>
      <trkpt lat="44.43457" lon="1.49308">
        <ele>270</ele>
        <time>2011-03-10T09:22:15</time>
      </trkpt>
      <trkpt lat="44.43452" lon="1.49308">
        <ele>270</ele>
        <time>2011-03-10T09:22:17</time>
      </trkpt>
      <trkpt lat="44.4345" lon="1.49307">
        <ele>270</ele>
        <time>2011-03-10T09:22:18</time>
      </trkpt>
      <trkpt lat="44.43445" lon="1.49307">
        <ele>270</ele>
        <time>2011-03-10T09:22:20</time>
      </trkpt>
      <trkpt lat="44.43443" lon="1.49307">
        <ele>270</ele>
        <time>2011-03-10T09:22:21</time>
      </trkpt>
      <trkpt lat="44.43438" lon="1.49306">
        <ele>270</ele>
        <time>2011-03-10T09:22:23</time>
      </trkpt>
      <trkpt lat="44.43435" lon="1.49305">
        <ele>270</ele>
        <time>2011-03-10T09:22:24</time>
      </trkpt>
      <trkpt lat="44.43429" lon="1.49304">
        <ele>270</ele>
        <time>2011-03-10T09:22:26</time>
      </trkpt>
      <trkpt lat="44.43424" lon="1.49303">
        <ele>270</ele>
        <time>2011-03-10T09:22:28</time>
      </trkpt>
      <trkpt lat="44.43418" lon="1.49301">
        <ele>270</ele>
        <time>2011-03-10T09:22:30</time>
      </trkpt>
      <trkpt lat="44.43413" lon="1.49299">
        <ele>270</ele>
        <time>2011-03-10T09:22:32</time>
      </trkpt>
      <trkpt lat="44.4341" lon="1.49298">
        <ele>270</ele>
        <time>2011-03-10T09:22:33</time>
      </trkpt>
      <trkpt lat="44.43405" lon="1.49294">
        <ele>270</ele>
        <time>2011-03-10T09:22:35</time>
      </trkpt>
      <trkpt lat="44.43402" lon="1.49292">
        <ele>270</ele>
        <time>2011-03-10T09:22:36</time>
      </trkpt>
      <trkpt lat="44.434" lon="1.4929">
        <ele>278</ele>
        <time>2011-03-10T09:22:37</time>
      </trkpt>
      <trkpt lat="44.43395" lon="1.49285">
        <ele>278</ele>
        <time>2011-03-10T09:22:39</time>
      </trkpt>
      <trkpt lat="44.43392" lon="1.49282">
        <ele>278</ele>
        <time>2011-03-10T09:22:40</time>
      </trkpt>
      <trkpt lat="44.4339" lon="1.49279">
        <ele>278</ele>
        <time>2011-03-10T09:22:41</time>
      </trkpt>
      <trkpt lat="44.43387" lon="1.49275">
        <ele>278</ele>
        <time>2011-03-10T09:22:42</time>
      </trkpt>
      <trkpt lat="44.43382" lon="1.49269">
        <ele>278</ele>
        <time>2011-03-10T09:22:44</time>
      </trkpt>
      <trkpt lat="44.43378" lon="1.49263">
        <ele>278</ele>
        <time>2011-03-10T09:22:46</time>
      </trkpt>
      <trkpt lat="44.43375" lon="1.49259">
        <ele>278</ele>
        <time>2011-03-10T09:22:47</time>
      </trkpt>
      <trkpt lat="44.43373" lon="1.49255">
        <ele>271</ele>
        <time>2011-03-10T09:22:48</time>
      </trkpt>
      <trkpt lat="44.43371" lon="1.49252">
        <ele>271</ele>
        <time>2011-03-10T09:22:49</time>
      </trkpt>
      <trkpt lat="44.43368" lon="1.49243">
        <ele>271</ele>
        <time>2011-03-10T09:22:51</time>
      </trkpt>
      <trkpt lat="44.43366" lon="1.49234">
        <ele>271</ele>
        <time>2011-03-10T09:22:53</time>
      </trkpt>
      <trkpt lat="44.43364" lon="1.4923">
        <ele>271</ele>
        <time>2011-03-10T09:22:54</time>
      </trkpt>
      <trkpt lat="44.43363" lon="1.49225">
        <ele>271</ele>
        <time>2011-03-10T09:22:55</time>
      </trkpt>
      <trkpt lat="44.43361" lon="1.4922">
        <ele>271</ele>
        <time>2011-03-10T09:22:56</time>
      </trkpt>
      <trkpt lat="44.43359" lon="1.49211">
        <ele>271</ele>
        <time>2011-03-10T09:22:58</time>
      </trkpt>
      <trkpt lat="44.43357" lon="1.49207">
        <ele>277</ele>
        <time>2011-03-10T09:22:59</time>
      </trkpt>
      <trkpt lat="44.43356" lon="1.49202">
        <ele>277</ele>
        <time>2011-03-10T09:23:00</time>
      </trkpt>
      <trkpt lat="44.43355" lon="1.49197">
        <ele>277</ele>
        <time>2011-03-10T09:23:01</time>
      </trkpt>
      <trkpt lat="44.43354" lon="1.49187">
        <ele>277</ele>
        <time>2011-03-10T09:23:03</time>
      </trkpt>
      <trkpt lat="44.43353" lon="1.49178">
        <ele>277</ele>
        <time>2011-03-10T09:23:05</time>
      </trkpt>
      <trkpt lat="44.43352" lon="1.49168">
        <ele>277</ele>
        <time>2011-03-10T09:23:07</time>
      </trkpt>
      <trkpt lat="44.43351" lon="1.49157">
        <ele>277</ele>
        <time>2011-03-10T09:23:09</time>
      </trkpt>
      <trkpt lat="44.4335" lon="1.49147">
        <ele>277</ele>
        <time>2011-03-10T09:23:11</time>
      </trkpt>
      <trkpt lat="44.4335" lon="1.49142">
        <ele>277</ele>
        <time>2011-03-10T09:23:12</time>
      </trkpt>
      <trkpt lat="44.4335" lon="1.49131">
        <ele>277</ele>
        <time>2011-03-10T09:23:14</time>
      </trkpt>
      <trkpt lat="44.4335" lon="1.49125">
        <ele>277</ele>
        <time>2011-03-10T09:23:15</time>
      </trkpt>
      <trkpt lat="44.4335" lon="1.49119">
        <ele>277</ele>
        <time>2011-03-10T09:23:16</time>
      </trkpt>
      <trkpt lat="44.4335" lon="1.49114">
        <ele>277</ele>
        <time>2011-03-10T09:23:17</time>
      </trkpt>
      <trkpt lat="44.4335" lon="1.49101">
        <ele>277</ele>
        <time>2011-03-10T09:23:19</time>
      </trkpt>
      <trkpt lat="44.4335" lon="1.49095">
        <ele>277</ele>
        <time>2011-03-10T09:23:20</time>
      </trkpt>
      <trkpt lat="44.43349" lon="1.49089">
        <ele>277</ele>
        <time>2011-03-10T09:23:21</time>
      </trkpt>
      <trkpt lat="44.43348" lon="1.49083">
        <ele>277</ele>
        <time>2011-03-10T09:23:22</time>
      </trkpt>
      <trkpt lat="44.43347" lon="1.49071">
        <ele>277</ele>
        <time>2011-03-10T09:23:24</time>
      </trkpt>
      <trkpt lat="44.43346" lon="1.49065">
        <ele>277</ele>
        <time>2011-03-10T09:23:25</time>
      </trkpt>
      <trkpt lat="44.43344" lon="1.49051">
        <ele>277</ele>
        <time>2011-03-10T09:23:27</time>
      </trkpt>
      <trkpt lat="44.43342" lon="1.49039">
        <ele>276</ele>
        <time>2011-03-10T09:23:29</time>
      </trkpt>
      <trkpt lat="44.43341" lon="1.49033">
        <ele>276</ele>
        <time>2011-03-10T09:23:30</time>
      </trkpt>
      <trkpt lat="44.43339" lon="1.49021">
        <ele>276</ele>
        <time>2011-03-10T09:23:32</time>
      </trkpt>
      <trkpt lat="44.43337" lon="1.49009">
        <ele>276</ele>
        <time>2011-03-10T09:23:34</time>
      </trkpt>
      <trkpt lat="44.43335" lon="1.49004">
        <ele>276</ele>
        <time>2011-03-10T09:23:35</time>
      </trkpt>
      <trkpt lat="44.43334" lon="1.48997">
        <ele>276</ele>
        <time>2011-03-10T09:23:36</time>
      </trkpt>
      <trkpt lat="44.4333" lon="1.48986">
        <ele>276</ele>
        <time>2011-03-10T09:23:38</time>
      </trkpt>
      <trkpt lat="44.43328" lon="1.4898">
        <ele>276</ele>
        <time>2011-03-10T09:23:39</time>
      </trkpt>
      <trkpt lat="44.43324" lon="1.48968">
        <ele>276</ele>
        <time>2011-03-10T09:23:41</time>
      </trkpt>
      <trkpt lat="44.43322" lon="1.48962">
        <ele>276</ele>
        <time>2011-03-10T09:23:42</time>
      </trkpt>
      <trkpt lat="44.4332" lon="1.48955">
        <ele>279</ele>
        <time>2011-03-10T09:23:43</time>
      </trkpt>
      <trkpt lat="44.43316" lon="1.48942">
        <ele>279</ele>
        <time>2011-03-10T09:23:45</time>
      </trkpt>
      <trkpt lat="44.43314" lon="1.48936">
        <ele>279</ele>
        <time>2011-03-10T09:23:46</time>
      </trkpt>
      <trkpt lat="44.43312" lon="1.48929">
        <ele>279</ele>
        <time>2011-03-10T09:23:47</time>
      </trkpt>
      <trkpt lat="44.43306" lon="1.48916">
        <ele>279</ele>
        <time>2011-03-10T09:23:49</time>
      </trkpt>
      <trkpt lat="44.43304" lon="1.4891">
        <ele>279</ele>
        <time>2011-03-10T09:23:50</time>
      </trkpt>
      <trkpt lat="44.43298" lon="1.48897">
        <ele>279</ele>
        <time>2011-03-10T09:23:52</time>
      </trkpt>
      <trkpt lat="44.43292" lon="1.48885">
        <ele>279</ele>
        <time>2011-03-10T09:23:54</time>
      </trkpt>
      <trkpt lat="44.4329" lon="1.48878">
        <ele>263</ele>
        <time>2011-03-10T09:23:55</time>
      </trkpt>
      <trkpt lat="44.43287" lon="1.48872">
        <ele>269</ele>
        <time>2011-03-10T09:23:56</time>
      </trkpt>
      <trkpt lat="44.43281" lon="1.48859">
        <ele>269</ele>
        <time>2011-03-10T09:23:58</time>
      </trkpt>
      <trkpt lat="44.43275" lon="1.48846">
        <ele>269</ele>
        <time>2011-03-10T09:24:00</time>
      </trkpt>
      <trkpt lat="44.43273" lon="1.48839">
        <ele>269</ele>
        <time>2011-03-10T09:24:01</time>
      </trkpt>
      <trkpt lat="44.43267" lon="1.48825">
        <ele>269</ele>
        <time>2011-03-10T09:24:03</time>
      </trkpt>
      <trkpt lat="44.43262" lon="1.48811">
        <ele>269</ele>
        <time>2011-03-10T09:24:05</time>
      </trkpt>
      <trkpt lat="44.43256" lon="1.48797">
        <ele>269</ele>
        <time>2011-03-10T09:24:07</time>
      </trkpt>
      <trkpt lat="44.43254" lon="1.4879">
        <ele>272</ele>
        <time>2011-03-10T09:24:08</time>
      </trkpt>
      <trkpt lat="44.43248" lon="1.48776">
        <ele>272</ele>
        <time>2011-03-10T09:24:10</time>
      </trkpt>
      <trkpt lat="44.43243" lon="1.48761">
        <ele>272</ele>
        <time>2011-03-10T09:24:12</time>
      </trkpt>
      <trkpt lat="44.4324" lon="1.48754">
        <ele>272</ele>
        <time>2011-03-10T09:24:13</time>
      </trkpt>
      <trkpt lat="44.43234" lon="1.48739">
        <ele>272</ele>
        <time>2011-03-10T09:24:15</time>
      </trkpt>
      <trkpt lat="44.43227" lon="1.48725">
        <ele>272</ele>
        <time>2011-03-10T09:24:17</time>
      </trkpt>
      <trkpt lat="44.43219" lon="1.48711">
        <ele>272</ele>
        <time>2011-03-10T09:24:19</time>
      </trkpt>
      <trkpt lat="44.43214" lon="1.48704">
        <ele>271</ele>
        <time>2011-03-10T09:24:20</time>
      </trkpt>
      <trkpt lat="44.43202" lon="1.48694">
        <ele>265</ele>
        <time>2011-03-10T09:24:22</time>
      </trkpt>
      <trkpt lat="44.43189" lon="1.48686">
        <ele>265</ele>
        <time>2011-03-10T09:24:24</time>
      </trkpt>
      <trkpt lat="44.43176" lon="1.48678">
        <ele>265</ele>
        <time>2011-03-10T09:24:26</time>
      </trkpt>
      <trkpt lat="44.43162" lon="1.48671">
        <ele>265</ele>
        <time>2011-03-10T09:24:28</time>
      </trkpt>
      <trkpt lat="44.43155" lon="1.48668">
        <ele>265</ele>
        <time>2011-03-10T09:24:29</time>
      </trkpt>
      <trkpt lat="44.43142" lon="1.48663">
        <ele>265</ele>
        <time>2011-03-10T09:24:31</time>
      </trkpt>
      <trkpt lat="44.43129" lon="1.4866">
        <ele>265</ele>
        <time>2011-03-10T09:24:33</time>
      </trkpt>
      <trkpt lat="44.43118" lon="1.48657">
        <ele>267</ele>
        <time>2011-03-10T09:24:35</time>
      </trkpt>
      <trkpt lat="44.43106" lon="1.48655">
        <ele>267</ele>
        <time>2011-03-10T09:24:37</time>
      </trkpt>
      <trkpt lat="44.43094" lon="1.48652">
        <ele>267</ele>
        <time>2011-03-10T09:24:39</time>
      </trkpt>
      <trkpt lat="44.43084" lon="1.48648">
        <ele>267</ele>
        <time>2011-03-10T09:24:41</time>
      </trkpt>
      <trkpt lat="44.43075" lon="1.48641">
        <ele>267</ele>
        <time>2011-03-10T09:24:43</time>
      </trkpt>
      <trkpt lat="44.43066" lon="1.48632">
        <ele>267</ele>
        <time>2011-03-10T09:24:45</time>
      </trkpt>
      <trkpt lat="44.43057" lon="1.48624">
        <ele>266</ele>
        <time>2011-03-10T09:24:47</time>
      </trkpt>
      <trkpt lat="44.43053" lon="1.4862">
        <ele>266</ele>
        <time>2011-03-10T09:24:48</time>
      </trkpt>
      <trkpt lat="44.43045" lon="1.48612">
        <ele>266</ele>
        <time>2011-03-10T09:24:50</time>
      </trkpt>
      <trkpt lat="44.43037" lon="1.48604">
        <ele>268</ele>
        <time>2011-03-10T09:24:52</time>
      </trkpt>
      <trkpt lat="44.43029" lon="1.48596">
        <ele>268</ele>
        <time>2011-03-10T09:24:54</time>
      </trkpt>
      <trkpt lat="44.43025" lon="1.48593">
        <ele>268</ele>
        <time>2011-03-10T09:24:55</time>
      </trkpt>
      <trkpt lat="44.43017" lon="1.48585">
        <ele>268</ele>
        <time>2011-03-10T09:24:57</time>
      </trkpt>
      <trkpt lat="44.43014" lon="1.48582">
        <ele>268</ele>
        <time>2011-03-10T09:24:58</time>
      </trkpt>
      <trkpt lat="44.43006" lon="1.48575">
        <ele>268</ele>
        <time>2011-03-10T09:25:00</time>
      </trkpt>
      <trkpt lat="44.42999" lon="1.48568">
        <ele>268</ele>
        <time>2011-03-10T09:25:02</time>
      </trkpt>
      <trkpt lat="44.42992" lon="1.48561">
        <ele>268</ele>
        <time>2011-03-10T09:25:04</time>
      </trkpt>
      <trkpt lat="44.42989" lon="1.48557">
        <ele>268</ele>
        <time>2011-03-10T09:25:05</time>
      </trkpt>
      <trkpt lat="44.42986" lon="1.48554">
        <ele>268</ele>
        <time>2011-03-10T09:25:06</time>
      </trkpt>
      <trkpt lat="44.42982" lon="1.4855">
        <ele>268</ele>
        <time>2011-03-10T09:25:07</time>
      </trkpt>
      <trkpt lat="44.42975" lon="1.48544">
        <ele>268</ele>
        <time>2011-03-10T09:25:09</time>
      </trkpt>
      <trkpt lat="44.42968" lon="1.48538">
        <ele>265</ele>
        <time>2011-03-10T09:25:11</time>
      </trkpt>
      <trkpt lat="44.42965" lon="1.48535">
        <ele>265</ele>
        <time>2011-03-10T09:25:12</time>
      </trkpt>
      <trkpt lat="44.42958" lon="1.48528">
        <ele>271</ele>
        <time>2011-03-10T09:25:14</time>
      </trkpt>
      <trkpt lat="44.42954" lon="1.48525">
        <ele>271</ele>
        <time>2011-03-10T09:25:15</time>
      </trkpt>
      <trkpt lat="44.42951" lon="1.48521">
        <ele>271</ele>
        <time>2011-03-10T09:25:16</time>
      </trkpt>
      <trkpt lat="44.42948" lon="1.48518">
        <ele>271</ele>
        <time>2011-03-10T09:25:17</time>
      </trkpt>
      <trkpt lat="44.42941" lon="1.48511">
        <ele>271</ele>
        <time>2011-03-10T09:25:19</time>
      </trkpt>
      <trkpt lat="44.42934" lon="1.48504">
        <ele>271</ele>
        <time>2011-03-10T09:25:21</time>
      </trkpt>
      <trkpt lat="44.42931" lon="1.485">
        <ele>271</ele>
        <time>2011-03-10T09:25:22</time>
      </trkpt>
      <trkpt lat="44.42924" lon="1.48493">
        <ele>271</ele>
        <time>2011-03-10T09:25:24</time>
      </trkpt>
      <trkpt lat="44.42918" lon="1.48486">
        <ele>271</ele>
        <time>2011-03-10T09:25:26</time>
      </trkpt>
      <trkpt lat="44.42911" lon="1.4848">
        <ele>271</ele>
        <time>2011-03-10T09:25:28</time>
      </trkpt>
      <trkpt lat="44.42908" lon="1.48477">
        <ele>271</ele>
        <time>2011-03-10T09:25:29</time>
      </trkpt>
      <trkpt lat="44.42905" lon="1.48474">
        <ele>271</ele>
        <time>2011-03-10T09:25:30</time>
      </trkpt>
      <trkpt lat="44.42902" lon="1.4847">
        <ele>271</ele>
        <time>2011-03-10T09:25:31</time>
      </trkpt>
      <trkpt lat="44.42899" lon="1.48464">
        <ele>271</ele>
        <time>2011-03-10T09:25:33</time>
      </trkpt>
      <trkpt lat="44.42896" lon="1.4846">
        <ele>271</ele>
        <time>2011-03-10T09:25:34</time>
      </trkpt>
      <trkpt lat="44.42891" lon="1.48454">
        <ele>272</ele>
        <time>2011-03-10T09:25:36</time>
      </trkpt>
      <trkpt lat="44.42889" lon="1.48452">
        <ele>272</ele>
        <time>2011-03-10T09:25:37</time>
      </trkpt>
      <trkpt lat="44.42885" lon="1.48448">
        <ele>272</ele>
        <time>2011-03-10T09:25:39</time>
      </trkpt>
      <trkpt lat="44.42881" lon="1.48442">
        <ele>272</ele>
        <time>2011-03-10T09:25:41</time>
      </trkpt>
      <trkpt lat="44.4288" lon="1.48439">
        <ele>272</ele>
        <time>2011-03-10T09:25:42</time>
      </trkpt>
      <trkpt lat="44.42875" lon="1.48434">
        <ele>272</ele>
        <time>2011-03-10T09:25:44</time>
      </trkpt>
      <trkpt lat="44.42873" lon="1.4843">
        <ele>271</ele>
        <time>2011-03-10T09:25:45</time>
      </trkpt>
      <trkpt lat="44.42871" lon="1.48427">
        <ele>271</ele>
        <time>2011-03-10T09:25:46</time>
      </trkpt>
      <trkpt lat="44.42866" lon="1.48421">
        <ele>271</ele>
        <time>2011-03-10T09:25:48</time>
      </trkpt>
      <trkpt lat="44.42864" lon="1.48418">
        <ele>271</ele>
        <time>2011-03-10T09:25:49</time>
      </trkpt>
      <trkpt lat="44.42859" lon="1.48412">
        <ele>271</ele>
        <time>2011-03-10T09:25:51</time>
      </trkpt>
      <trkpt lat="44.42857" lon="1.48409">
        <ele>271</ele>
        <time>2011-03-10T09:25:52</time>
      </trkpt>
      <trkpt lat="44.42854" lon="1.48406">
        <ele>271</ele>
        <time>2011-03-10T09:25:53</time>
      </trkpt>
      <trkpt lat="44.42851" lon="1.48404">
        <ele>271</ele>
        <time>2011-03-10T09:25:54</time>
      </trkpt>
      <trkpt lat="44.42846" lon="1.48398">
        <ele>271</ele>
        <time>2011-03-10T09:25:56</time>
      </trkpt>
      <trkpt lat="44.42842" lon="1.48391">
        <ele>271</ele>
        <time>2011-03-10T09:25:58</time>
      </trkpt>
      <trkpt lat="44.42838" lon="1.48385">
        <ele>271</ele>
        <time>2011-03-10T09:26:00</time>
      </trkpt>
      <trkpt lat="44.42834" lon="1.48378">
        <ele>271</ele>
        <time>2011-03-10T09:26:02</time>
      </trkpt>
      <trkpt lat="44.42831" lon="1.48375">
        <ele>271</ele>
        <time>2011-03-10T09:26:03</time>
      </trkpt>
      <trkpt lat="44.42829" lon="1.48372">
        <ele>279</ele>
        <time>2011-03-10T09:26:04</time>
      </trkpt>
      <trkpt lat="44.42825" lon="1.48366">
        <ele>279</ele>
        <time>2011-03-10T09:26:06</time>
      </trkpt>
      <trkpt lat="44.4282" lon="1.48361">
        <ele>279</ele>
        <time>2011-03-10T09:26:08</time>
      </trkpt>
      <trkpt lat="44.42817" lon="1.48358">
        <ele>279</ele>
        <time>2011-03-10T09:26:09</time>
      </trkpt>
      <trkpt lat="44.42812" lon="1.48353">
        <ele>279</ele>
        <time>2011-03-10T09:26:11</time>
      </trkpt>
      <trkpt lat="44.42807" lon="1.48348">
        <ele>279</ele>
        <time>2011-03-10T09:26:13</time>
      </trkpt>
      <trkpt lat="44.42804" lon="1.48345">
        <ele>279</ele>
        <time>2011-03-10T09:26:14</time>
      </trkpt>
      <trkpt lat="44.42798" lon="1.4834">
        <ele>279</ele>
        <time>2011-03-10T09:26:16</time>
      </trkpt>
      <trkpt lat="44.42795" lon="1.48338">
        <ele>279</ele>
        <time>2011-03-10T09:26:17</time>
      </trkpt>
      <trkpt lat="44.42789" lon="1.48334">
        <ele>279</ele>
        <time>2011-03-10T09:26:19</time>
      </trkpt>
      <trkpt lat="44.42786" lon="1.48332">
        <ele>279</ele>
        <time>2011-03-10T09:26:20</time>
      </trkpt>
      <trkpt lat="44.42783" lon="1.4833">
        <ele>279</ele>
        <time>2011-03-10T09:26:21</time>
      </trkpt>
      <trkpt lat="44.42777" lon="1.48326">
        <ele>279</ele>
        <time>2011-03-10T09:26:23</time>
      </trkpt>
      <trkpt lat="44.42772" lon="1.48323">
        <ele>279</ele>
        <time>2011-03-10T09:26:25</time>
      </trkpt>
      <trkpt lat="44.42767" lon="1.4832">
        <ele>279</ele>
        <time>2011-03-10T09:26:27</time>
      </trkpt>
      <trkpt lat="44.42764" lon="1.48318">
        <ele>279</ele>
        <time>2011-03-10T09:26:28</time>
      </trkpt>
      <trkpt lat="44.42759" lon="1.48316">
        <ele>279</ele>
        <time>2011-03-10T09:26:30</time>
      </trkpt>
      <trkpt lat="44.42754" lon="1.48313">
        <ele>279</ele>
        <time>2011-03-10T09:26:32</time>
      </trkpt>
      <trkpt lat="44.42751" lon="1.48312">
        <ele>279</ele>
        <time>2011-03-10T09:26:33</time>
      </trkpt>
      <trkpt lat="44.42748" lon="1.48311">
        <ele>279</ele>
        <time>2011-03-10T09:26:34</time>
      </trkpt>
      <trkpt lat="44.42743" lon="1.48309">
        <ele>279</ele>
        <time>2011-03-10T09:26:36</time>
      </trkpt>
      <trkpt lat="44.42737" lon="1.48307">
        <ele>279</ele>
        <time>2011-03-10T09:26:38</time>
      </trkpt>
      <trkpt lat="44.4273" lon="1.48305">
        <ele>279</ele>
        <time>2011-03-10T09:26:40</time>
      </trkpt>
      <trkpt lat="44.42723" lon="1.48305">
        <ele>279</ele>
        <time>2011-03-10T09:26:42</time>
      </trkpt>
      <trkpt lat="44.42717" lon="1.48305">
        <ele>279</ele>
        <time>2011-03-10T09:26:44</time>
      </trkpt>
      <trkpt lat="44.4271" lon="1.48307">
        <ele>279</ele>
        <time>2011-03-10T09:26:46</time>
      </trkpt>
      <trkpt lat="44.42707" lon="1.48308">
        <ele>285</ele>
        <time>2011-03-10T09:26:47</time>
      </trkpt>
      <trkpt lat="44.42701" lon="1.4831">
        <ele>285</ele>
        <time>2011-03-10T09:26:49</time>
      </trkpt>
      <trkpt lat="44.42698" lon="1.48311">
        <ele>285</ele>
        <time>2011-03-10T09:26:50</time>
      </trkpt>
      <trkpt lat="44.42692" lon="1.48313">
        <ele>285</ele>
        <time>2011-03-10T09:26:52</time>
      </trkpt>
      <trkpt lat="44.4269" lon="1.48315">
        <ele>285</ele>
        <time>2011-03-10T09:26:53</time>
      </trkpt>
      <trkpt lat="44.42684" lon="1.48318">
        <ele>285</ele>
        <time>2011-03-10T09:26:56</time>
      </trkpt>
      <trkpt lat="44.42678" lon="1.48321">
        <ele>285</ele>
        <time>2011-03-10T09:26:57</time>
      </trkpt>
      <trkpt lat="44.42676" lon="1.48322">
        <ele>285</ele>
        <time>2011-03-10T09:26:59</time>
      </trkpt>
      <trkpt lat="44.4267" lon="1.48325">
        <ele>285</ele>
        <time>2011-03-10T09:27:00</time>
      </trkpt>
      <trkpt lat="44.42667" lon="1.48326">
        <ele>285</ele>
        <time>2011-03-10T09:27:01</time>
      </trkpt>
      <trkpt lat="44.42662" lon="1.48328">
        <ele>285</ele>
        <time>2011-03-10T09:27:03</time>
      </trkpt>
      <trkpt lat="44.42659" lon="1.48329">
        <ele>285</ele>
        <time>2011-03-10T09:27:05</time>
      </trkpt>
      <trkpt lat="44.42654" lon="1.4833">
        <ele>285</ele>
        <time>2011-03-10T09:27:06</time>
      </trkpt>
      <trkpt lat="44.42651" lon="1.4833">
        <ele>285</ele>
        <time>2011-03-10T09:27:07</time>
      </trkpt>
      <trkpt lat="44.42648" lon="1.4833">
        <ele>285</ele>
        <time>2011-03-10T09:27:09</time>
      </trkpt>
      <trkpt lat="44.42642" lon="1.48328">
        <ele>285</ele>
        <time>2011-03-10T09:27:10</time>
      </trkpt>
      <trkpt lat="44.42637" lon="1.48326">
        <ele>285</ele>
        <time>2011-03-10T09:27:12</time>
      </trkpt>
      <trkpt lat="44.42634" lon="1.48324">
        <ele>285</ele>
        <time>2011-03-10T09:27:14</time>
      </trkpt>
      <trkpt lat="44.42629" lon="1.48319">
        <ele>285</ele>
        <time>2011-03-10T09:27:15</time>
      </trkpt>
      <trkpt lat="44.42626" lon="1.48316">
        <ele>285</ele>
        <time>2011-03-10T09:27:16</time>
      </trkpt>
      <trkpt lat="44.42623" lon="1.48314">
        <ele>290</ele>
        <time>2011-03-10T09:27:17</time>
      </trkpt>
      <trkpt lat="44.42618" lon="1.48308">
        <ele>290</ele>
        <time>2011-03-10T09:27:19</time>
      </trkpt>
      <trkpt lat="44.42613" lon="1.48303">
        <ele>290</ele>
        <time>2011-03-10T09:27:21</time>
      </trkpt>
      <trkpt lat="44.42608" lon="1.48296">
        <ele>290</ele>
        <time>2011-03-10T09:27:23</time>
      </trkpt>
      <trkpt lat="44.42602" lon="1.4829">
        <ele>290</ele>
        <time>2011-03-10T09:27:25</time>
      </trkpt>
      <trkpt lat="44.42599" lon="1.48286">
        <ele>290</ele>
        <time>2011-03-10T09:27:26</time>
      </trkpt>
      <trkpt lat="44.42592" lon="1.48279">
        <ele>290</ele>
        <time>2011-03-10T09:27:28</time>
      </trkpt>
      <trkpt lat="44.42585" lon="1.48272">
        <ele>290</ele>
        <time>2011-03-10T09:27:30</time>
      </trkpt>
      <trkpt lat="44.42581" lon="1.48269">
        <ele>290</ele>
        <time>2011-03-10T09:27:32</time>
      </trkpt>
      <trkpt lat="44.42573" lon="1.48262">
        <ele>290</ele>
        <time>2011-03-10T09:27:34</time>
      </trkpt>
      <trkpt lat="44.42565" lon="1.48256">
        <ele>290</ele>
        <time>2011-03-10T09:27:36</time>
      </trkpt>
      <trkpt lat="44.42557" lon="1.4825">
        <ele>290</ele>
        <time>2011-03-10T09:27:37</time>
      </trkpt>
      <trkpt lat="44.42549" lon="1.48245">
        <ele>290</ele>
        <time>2011-03-10T09:27:39</time>
      </trkpt>
      <trkpt lat="44.42545" lon="1.48242">
        <ele>290</ele>
        <time>2011-03-10T09:27:40</time>
      </trkpt>
      <trkpt lat="44.42537" lon="1.48236">
        <ele>292</ele>
        <time>2011-03-10T09:27:42</time>
      </trkpt>
      <trkpt lat="44.42532" lon="1.48232">
        <ele>292</ele>
        <time>2011-03-10T09:27:43</time>
      </trkpt>
      <trkpt lat="44.42528" lon="1.48228">
        <ele>292</ele>
        <time>2011-03-10T09:27:44</time>
      </trkpt>
      <trkpt lat="44.42523" lon="1.48224">
        <ele>292</ele>
        <time>2011-03-10T09:27:45</time>
      </trkpt>
      <trkpt lat="44.42516" lon="1.48213">
        <ele>292</ele>
        <time>2011-03-10T09:27:47</time>
      </trkpt>
      <trkpt lat="44.42512" lon="1.48208">
        <ele>289</ele>
        <time>2011-03-10T09:27:48</time>
      </trkpt>
      <trkpt lat="44.42506" lon="1.48195">
        <ele>289</ele>
        <time>2011-03-10T09:27:50</time>
      </trkpt>
      <trkpt lat="44.42503" lon="1.48189">
        <ele>289</ele>
        <time>2011-03-10T09:27:52</time>
      </trkpt>
      <trkpt lat="44.425" lon="1.48175">
        <ele>289</ele>
        <time>2011-03-10T09:27:53</time>
      </trkpt>
      <trkpt lat="44.42498" lon="1.48168">
        <ele>289</ele>
        <time>2011-03-10T09:27:54</time>
      </trkpt>
      <trkpt lat="44.42497" lon="1.48161">
        <ele>289</ele>
        <time>2011-03-10T09:27:55</time>
      </trkpt>
      <trkpt lat="44.42498" lon="1.48146">
        <ele>289</ele>
        <time>2011-03-10T09:27:57</time>
      </trkpt>
      <trkpt lat="44.42501" lon="1.4813">
        <ele>289</ele>
        <time>2011-03-10T09:27:59</time>
      </trkpt>
      <trkpt lat="44.42502" lon="1.48122">
        <ele>286</ele>
        <time>2011-03-10T09:28:01</time>
      </trkpt>
      <trkpt lat="44.42506" lon="1.48107">
        <ele>286</ele>
        <time>2011-03-10T09:28:02</time>
      </trkpt>
      <trkpt lat="44.42509" lon="1.48091">
        <ele>286</ele>
        <time>2011-03-10T09:28:04</time>
      </trkpt>
      <trkpt lat="44.42513" lon="1.48076">
        <ele>286</ele>
        <time>2011-03-10T09:28:06</time>
      </trkpt>
      <trkpt lat="44.42514" lon="1.48069">
        <ele>286</ele>
        <time>2011-03-10T09:28:07</time>
      </trkpt>
      <trkpt lat="44.42516" lon="1.48061">
        <ele>286</ele>
        <time>2011-03-10T09:28:08</time>
      </trkpt>
      <trkpt lat="44.42519" lon="1.48046">
        <ele>286</ele>
        <time>2011-03-10T09:28:10</time>
      </trkpt>
      <trkpt lat="44.42521" lon="1.48037">
        <ele>281</ele>
        <time>2011-03-10T09:28:11</time>
      </trkpt>
      <trkpt lat="44.42523" lon="1.48028">
        <ele>281</ele>
        <time>2011-03-10T09:28:12</time>
      </trkpt>
      <trkpt lat="44.42525" lon="1.48019">
        <ele>281</ele>
        <time>2011-03-10T09:28:13</time>
      </trkpt>
      <trkpt lat="44.42528" lon="1.48001">
        <ele>281</ele>
        <time>2011-03-10T09:28:15</time>
      </trkpt>
      <trkpt lat="44.42532" lon="1.47981">
        <ele>281</ele>
        <time>2011-03-10T09:28:17</time>
      </trkpt>
      <trkpt lat="44.42534" lon="1.47971">
        <ele>281</ele>
        <time>2011-03-10T09:28:18</time>
      </trkpt>
      <trkpt lat="44.42538" lon="1.47951">
        <ele>274</ele>
        <time>2011-03-10T09:28:20</time>
      </trkpt>
      <trkpt lat="44.42541" lon="1.47941">
        <ele>274</ele>
        <time>2011-03-10T09:28:21</time>
      </trkpt>
      <trkpt lat="44.42543" lon="1.47931">
        <ele>274</ele>
        <time>2011-03-10T09:28:22</time>
      </trkpt>
      <trkpt lat="44.42547" lon="1.47913">
        <ele>274</ele>
        <time>2011-03-10T09:28:24</time>
      </trkpt>
      <trkpt lat="44.4255" lon="1.47904">
        <ele>274</ele>
        <time>2011-03-10T09:28:25</time>
      </trkpt>
      <trkpt lat="44.42555" lon="1.47888">
        <ele>274</ele>
        <time>2011-03-10T09:28:27</time>
      </trkpt>
      <trkpt lat="44.42558" lon="1.4788">
        <ele>274</ele>
        <time>2011-03-10T09:28:28</time>
      </trkpt>
      <trkpt lat="44.42561" lon="1.47872">
        <ele>277</ele>
        <time>2011-03-10T09:28:29</time>
      </trkpt>
      <trkpt lat="44.42569" lon="1.47857">
        <ele>277</ele>
        <time>2011-03-10T09:28:31</time>
      </trkpt>
      <trkpt lat="44.42577" lon="1.47842">
        <ele>277</ele>
        <time>2011-03-10T09:28:33</time>
      </trkpt>
      <trkpt lat="44.42584" lon="1.47829">
        <ele>277</ele>
        <time>2011-03-10T09:28:35</time>
      </trkpt>
      <trkpt lat="44.4259" lon="1.47815">
        <ele>277</ele>
        <time>2011-03-10T09:28:37</time>
      </trkpt>
      <trkpt lat="44.42593" lon="1.47807">
        <ele>277</ele>
        <time>2011-03-10T09:28:38</time>
      </trkpt>
      <trkpt lat="44.42597" lon="1.47792">
        <ele>277</ele>
        <time>2011-03-10T09:28:40</time>
      </trkpt>
      <trkpt lat="44.42599" lon="1.47784">
        <ele>275</ele>
        <time>2011-03-10T09:28:41</time>
      </trkpt>
      <trkpt lat="44.42603" lon="1.47768">
        <ele>275</ele>
        <time>2011-03-10T09:28:43</time>
      </trkpt>
      <trkpt lat="44.42607" lon="1.47751">
        <ele>275</ele>
        <time>2011-03-10T09:28:45</time>
      </trkpt>
      <trkpt lat="44.42609" lon="1.47742">
        <ele>275</ele>
        <time>2011-03-10T09:28:46</time>
      </trkpt>
      <trkpt lat="44.42611" lon="1.47733">
        <ele>275</ele>
        <time>2011-03-10T09:28:47</time>
      </trkpt>
      <trkpt lat="44.42615" lon="1.47717">
        <ele>275</ele>
        <time>2011-03-10T09:28:49</time>
      </trkpt>
      <trkpt lat="44.42619" lon="1.477">
        <ele>269</ele>
        <time>2011-03-10T09:28:51</time>
      </trkpt>
      <trkpt lat="44.42624" lon="1.47684">
        <ele>269</ele>
        <time>2011-03-10T09:28:53</time>
      </trkpt>
      <trkpt lat="44.42627" lon="1.47675">
        <ele>275</ele>
        <time>2011-03-10T09:28:54</time>
      </trkpt>
      <trkpt lat="44.42633" lon="1.47659">
        <ele>275</ele>
        <time>2011-03-10T09:28:56</time>
      </trkpt>
      <trkpt lat="44.42639" lon="1.47644">
        <ele>275</ele>
        <time>2011-03-10T09:28:58</time>
      </trkpt>
      <trkpt lat="44.42642" lon="1.47636">
        <ele>275</ele>
        <time>2011-03-10T09:28:59</time>
      </trkpt>
      <trkpt lat="44.42646" lon="1.47629">
        <ele>275</ele>
        <time>2011-03-10T09:29:00</time>
      </trkpt>
      <trkpt lat="44.42652" lon="1.47616">
        <ele>277</ele>
        <time>2011-03-10T09:29:02</time>
      </trkpt>
      <trkpt lat="44.42656" lon="1.4761">
        <ele>277</ele>
        <time>2011-03-10T09:29:03</time>
      </trkpt>
      <trkpt lat="44.42665" lon="1.47602">
        <ele>277</ele>
        <time>2011-03-10T09:29:05</time>
      </trkpt>
      <trkpt lat="44.4267" lon="1.47598">
        <ele>277</ele>
        <time>2011-03-10T09:29:06</time>
      </trkpt>
      <trkpt lat="44.42679" lon="1.4759">
        <ele>277</ele>
        <time>2011-03-10T09:29:08</time>
      </trkpt>
      <trkpt lat="44.42684" lon="1.47587">
        <ele>277</ele>
        <time>2011-03-10T09:29:09</time>
      </trkpt>
      <trkpt lat="44.42693" lon="1.4758">
        <ele>277</ele>
        <time>2011-03-10T09:29:11</time>
      </trkpt>
      <trkpt lat="44.42698" lon="1.47577">
        <ele>277</ele>
        <time>2011-03-10T09:29:12</time>
      </trkpt>
      <trkpt lat="44.42707" lon="1.47571">
        <ele>277</ele>
        <time>2011-03-10T09:29:14</time>
      </trkpt>
      <trkpt lat="44.42712" lon="1.47568">
        <ele>277</ele>
        <time>2011-03-10T09:29:15</time>
      </trkpt>
      <trkpt lat="44.42717" lon="1.47566">
        <ele>277</ele>
        <time>2011-03-10T09:29:16</time>
      </trkpt>
      <trkpt lat="44.42727" lon="1.47562">
        <ele>277</ele>
        <time>2011-03-10T09:29:18</time>
      </trkpt>
      <trkpt lat="44.42738" lon="1.47558">
        <ele>277</ele>
        <time>2011-03-10T09:29:20</time>
      </trkpt>
      <trkpt lat="44.42743" lon="1.47557">
        <ele>277</ele>
        <time>2011-03-10T09:29:21</time>
      </trkpt>
      <trkpt lat="44.42753" lon="1.47554">
        <ele>277</ele>
        <time>2011-03-10T09:29:23</time>
      </trkpt>
      <trkpt lat="44.42758" lon="1.47553">
        <ele>277</ele>
        <time>2011-03-10T09:29:24</time>
      </trkpt>
      <trkpt lat="44.42768" lon="1.47551">
        <ele>277</ele>
        <time>2011-03-10T09:29:26</time>
      </trkpt>
      <trkpt lat="44.42774" lon="1.47551">
        <ele>277</ele>
        <time>2011-03-10T09:29:27</time>
      </trkpt>
      <trkpt lat="44.42784" lon="1.47549">
        <ele>277</ele>
        <time>2011-03-10T09:29:29</time>
      </trkpt>
      <trkpt lat="44.42789" lon="1.47548">
        <ele>277</ele>
        <time>2011-03-10T09:29:30</time>
      </trkpt>
      <trkpt lat="44.428" lon="1.47547">
        <ele>276</ele>
        <time>2011-03-10T09:29:32</time>
      </trkpt>
      <trkpt lat="44.42805" lon="1.47547">
        <ele>276</ele>
        <time>2011-03-10T09:29:33</time>
      </trkpt>
      <trkpt lat="44.42815" lon="1.47545">
        <ele>276</ele>
        <time>2011-03-10T09:29:35</time>
      </trkpt>
      <trkpt lat="44.4282" lon="1.47544">
        <ele>276</ele>
        <time>2011-03-10T09:29:36</time>
      </trkpt>
      <trkpt lat="44.42831" lon="1.47541">
        <ele>285</ele>
        <time>2011-03-10T09:29:38</time>
      </trkpt>
      <trkpt lat="44.42842" lon="1.4754">
        <ele>285</ele>
        <time>2011-03-10T09:29:40</time>
      </trkpt>
      <trkpt lat="44.42853" lon="1.47538">
        <ele>285</ele>
        <time>2011-03-10T09:29:42</time>
      </trkpt>
      <trkpt lat="44.42865" lon="1.47538">
        <ele>285</ele>
        <time>2011-03-10T09:29:44</time>
      </trkpt>
      <trkpt lat="44.4287" lon="1.47538">
        <ele>285</ele>
        <time>2011-03-10T09:29:45</time>
      </trkpt>
      <trkpt lat="44.42876" lon="1.47539">
        <ele>281</ele>
        <time>2011-03-10T09:29:46</time>
      </trkpt>
      <trkpt lat="44.42887" lon="1.47541">
        <ele>281</ele>
        <time>2011-03-10T09:29:48</time>
      </trkpt>
      <trkpt lat="44.42893" lon="1.47543">
        <ele>277</ele>
        <time>2011-03-10T09:29:49</time>
      </trkpt>
      <trkpt lat="44.42899" lon="1.47545">
        <ele>277</ele>
        <time>2011-03-10T09:29:50</time>
      </trkpt>
      <trkpt lat="44.42905" lon="1.47548">
        <ele>277</ele>
        <time>2011-03-10T09:29:51</time>
      </trkpt>
      <trkpt lat="44.42916" lon="1.47555">
        <ele>277</ele>
        <time>2011-03-10T09:29:53</time>
      </trkpt>
      <trkpt lat="44.42921" lon="1.47558">
        <ele>277</ele>
        <time>2011-03-10T09:29:54</time>
      </trkpt>
      <trkpt lat="44.42932" lon="1.47566">
        <ele>277</ele>
        <time>2011-03-10T09:29:56</time>
      </trkpt>
      <trkpt lat="44.42937" lon="1.4757">
        <ele>277</ele>
        <time>2011-03-10T09:29:57</time>
      </trkpt>
      <trkpt lat="44.42947" lon="1.47578">
        <ele>277</ele>
        <time>2011-03-10T09:29:59</time>
      </trkpt>
      <trkpt lat="44.42957" lon="1.47587">
        <ele>277</ele>
        <time>2011-03-10T09:30:01</time>
      </trkpt>
      <trkpt lat="44.42962" lon="1.47591">
        <ele>277</ele>
        <time>2011-03-10T09:30:02</time>
      </trkpt>
      <trkpt lat="44.42973" lon="1.47598">
        <ele>277</ele>
        <time>2011-03-10T09:30:04</time>
      </trkpt>
      <trkpt lat="44.42983" lon="1.47602">
        <ele>277</ele>
        <time>2011-03-10T09:30:06</time>
      </trkpt>
      <trkpt lat="44.42993" lon="1.47605">
        <ele>277</ele>
        <time>2011-03-10T09:30:08</time>
      </trkpt>
      <trkpt lat="44.43004" lon="1.47607">
        <ele>277</ele>
        <time>2011-03-10T09:30:10</time>
      </trkpt>
      <trkpt lat="44.43014" lon="1.4761">
        <ele>277</ele>
        <time>2011-03-10T09:30:12</time>
      </trkpt>
      <trkpt lat="44.43019" lon="1.47612">
        <ele>277</ele>
        <time>2011-03-10T09:30:13</time>
      </trkpt>
      <trkpt lat="44.43028" lon="1.47617">
        <ele>277</ele>
        <time>2011-03-10T09:30:15</time>
      </trkpt>
      <trkpt lat="44.43037" lon="1.47622">
        <ele>277</ele>
        <time>2011-03-10T09:30:17</time>
      </trkpt>
      <trkpt lat="44.43045" lon="1.47627">
        <ele>278</ele>
        <time>2011-03-10T09:30:19</time>
      </trkpt>
      <trkpt lat="44.43054" lon="1.4763">
        <ele>278</ele>
        <time>2011-03-10T09:30:21</time>
      </trkpt>
      <trkpt lat="44.43059" lon="1.47631">
        <ele>278</ele>
        <time>2011-03-10T09:30:22</time>
      </trkpt>
      <trkpt lat="44.43067" lon="1.47634">
        <ele>278</ele>
        <time>2011-03-10T09:30:24</time>
      </trkpt>
      <trkpt lat="44.43075" lon="1.47637">
        <ele>278</ele>
        <time>2011-03-10T09:30:26</time>
      </trkpt>
      <trkpt lat="44.43084" lon="1.47641">
        <ele>278</ele>
        <time>2011-03-10T09:30:28</time>
      </trkpt>
      <trkpt lat="44.43092" lon="1.47645">
        <ele>278</ele>
        <time>2011-03-10T09:30:30</time>
      </trkpt>
      <trkpt lat="44.431" lon="1.4765">
        <ele>278</ele>
        <time>2011-03-10T09:30:32</time>
      </trkpt>
      <trkpt lat="44.43107" lon="1.47652">
        <ele>278</ele>
        <time>2011-03-10T09:30:34</time>
      </trkpt>
      <trkpt lat="44.43114" lon="1.47653">
        <ele>278</ele>
        <time>2011-03-10T09:30:36</time>
      </trkpt>
      <trkpt lat="44.43121" lon="1.47654">
        <ele>278</ele>
        <time>2011-03-10T09:30:38</time>
      </trkpt>
      <trkpt lat="44.43126" lon="1.47654">
        <ele>272</ele>
        <time>2011-03-10T09:30:39</time>
      </trkpt>
      <trkpt lat="44.4313" lon="1.47654">
        <ele>272</ele>
        <time>2011-03-10T09:30:40</time>
      </trkpt>
      <trkpt lat="44.43139" lon="1.47649">
        <ele>272</ele>
        <time>2011-03-10T09:30:42</time>
      </trkpt>
      <trkpt lat="44.43148" lon="1.47643">
        <ele>272</ele>
        <time>2011-03-10T09:30:44</time>
      </trkpt>
      <trkpt lat="44.43152" lon="1.4764">
        <ele>272</ele>
        <time>2011-03-10T09:30:45</time>
      </trkpt>
      <trkpt lat="44.43159" lon="1.47631">
        <ele>272</ele>
        <time>2011-03-10T09:30:47</time>
      </trkpt>
      <trkpt lat="44.43163" lon="1.47627">
        <ele>272</ele>
        <time>2011-03-10T09:30:48</time>
      </trkpt>
      <trkpt lat="44.4317" lon="1.47622">
        <ele>273</ele>
        <time>2011-03-10T09:30:50</time>
      </trkpt>
      <trkpt lat="44.43177" lon="1.47618">
        <ele>273</ele>
        <time>2011-03-10T09:30:52</time>
      </trkpt>
      <trkpt lat="44.43179" lon="1.47617">
        <ele>273</ele>
        <time>2011-03-10T09:30:53</time>
      </trkpt>
      <trkpt lat="44.43184" lon="1.47615">
        <ele>273</ele>
        <time>2011-03-10T09:30:55</time>
      </trkpt>
      <trkpt lat="44.43186" lon="1.47614">
        <ele>273</ele>
        <time>2011-03-10T09:30:56</time>
      </trkpt>
      <trkpt lat="44.43188" lon="1.47612">
        <ele>273</ele>
        <time>2011-03-10T09:30:57</time>
      </trkpt>
      <trkpt lat="44.43191" lon="1.47608">
        <ele>273</ele>
        <time>2011-03-10T09:30:59</time>
      </trkpt>
      <trkpt lat="44.43193" lon="1.47605">
        <ele>273</ele>
        <time>2011-03-10T09:31:00</time>
      </trkpt>
      <trkpt lat="44.43197" lon="1.476">
        <ele>273</ele>
        <time>2011-03-10T09:31:02</time>
      </trkpt>
      <trkpt lat="44.43199" lon="1.47598">
        <ele>273</ele>
        <time>2011-03-10T09:31:03</time>
      </trkpt>
      <trkpt lat="44.43202" lon="1.47593">
        <ele>273</ele>
        <time>2011-03-10T09:31:05</time>
      </trkpt>
      <trkpt lat="44.43203" lon="1.4759">
        <ele>273</ele>
        <time>2011-03-10T09:31:11</time>
      </trkpt>
      <trkpt lat="44.43207" lon="1.47592">
        <ele>273</ele>
        <time>2011-03-10T09:31:15</time>
      </trkpt>
      <trkpt lat="44.43211" lon="1.47589">
        <ele>255</ele>
        <time>2011-03-10T09:31:17</time>
      </trkpt>
      <trkpt lat="44.43212" lon="1.47584">
        <ele>255</ele>
        <time>2011-03-10T09:31:19</time>
      </trkpt>
      <trkpt lat="44.43211" lon="1.47578">
        <ele>255</ele>
        <time>2011-03-10T09:31:21</time>
      </trkpt>
      <trkpt lat="44.4321" lon="1.47571">
        <ele>255</ele>
        <time>2011-03-10T09:31:23</time>
      </trkpt>
      <trkpt lat="44.43209" lon="1.47563">
        <ele>255</ele>
        <time>2011-03-10T09:31:25</time>
      </trkpt>
      <trkpt lat="44.43209" lon="1.47559">
        <ele>255</ele>
        <time>2011-03-10T09:31:26</time>
      </trkpt>
      <trkpt lat="44.43209" lon="1.47551">
        <ele>255</ele>
        <time>2011-03-10T09:31:29</time>
      </trkpt>
      <trkpt lat="44.4321" lon="1.47548">
        <ele>255</ele>
        <time>2011-03-10T09:31:30</time>
      </trkpt>
      <trkpt lat="44.4321" lon="1.47543">
        <ele>255</ele>
        <time>2011-03-10T09:31:32</time>
      </trkpt>
      <trkpt lat="44.43211" lon="1.4754">
        <ele>260</ele>
        <time>2011-03-10T09:31:34</time>
      </trkpt>
      <trkpt lat="44.43212" lon="1.47537">
        <ele>260</ele>
        <time>2011-03-10T09:31:36</time>
      </trkpt>
      <trkpt lat="44.43214" lon="1.47533">
        <ele>260</ele>
        <time>2011-03-10T09:31:38</time>
      </trkpt>
      <trkpt lat="44.43218" lon="1.47529">
        <ele>260</ele>
        <time>2011-03-10T09:31:40</time>
      </trkpt>
      <trkpt lat="44.43221" lon="1.47525">
        <ele>260</ele>
        <time>2011-03-10T09:31:41</time>
      </trkpt>
      <trkpt lat="44.43224" lon="1.47521">
        <ele>260</ele>
        <time>2011-03-10T09:31:42</time>
      </trkpt>
      <trkpt lat="44.43227" lon="1.47518">
        <ele>260</ele>
        <time>2011-03-10T09:31:43</time>
      </trkpt>
      <trkpt lat="44.43231" lon="1.47513">
        <ele>260</ele>
        <time>2011-03-10T09:31:44</time>
      </trkpt>
      <trkpt lat="44.4324" lon="1.47503">
        <ele>260</ele>
        <time>2011-03-10T09:31:46</time>
      </trkpt>
      <trkpt lat="44.43244" lon="1.47498">
        <ele>260</ele>
        <time>2011-03-10T09:31:47</time>
      </trkpt>
      <trkpt lat="44.43254" lon="1.4749">
        <ele>260</ele>
        <time>2011-03-10T09:31:49</time>
      </trkpt>
      <trkpt lat="44.4326" lon="1.47486">
        <ele>260</ele>
        <time>2011-03-10T09:31:50</time>
      </trkpt>
      <trkpt lat="44.43271" lon="1.47481">
        <ele>260</ele>
        <time>2011-03-10T09:31:52</time>
      </trkpt>
      <trkpt lat="44.43283" lon="1.47478">
        <ele>260</ele>
        <time>2011-03-10T09:31:54</time>
      </trkpt>
      <trkpt lat="44.43296" lon="1.47476">
        <ele>241</ele>
        <time>2011-03-10T09:31:56</time>
      </trkpt>
      <trkpt lat="44.43309" lon="1.47478">
        <ele>241</ele>
        <time>2011-03-10T09:31:58</time>
      </trkpt>
      <trkpt lat="44.43316" lon="1.47479">
        <ele>241</ele>
        <time>2011-03-10T09:31:59</time>
      </trkpt>
      <trkpt lat="44.43322" lon="1.4748">
        <ele>241</ele>
        <time>2011-03-10T09:32:00</time>
      </trkpt>
      <trkpt lat="44.4333" lon="1.47484">
        <ele>241</ele>
        <time>2011-03-10T09:32:02</time>
      </trkpt>
      <trkpt lat="44.43334" lon="1.47487">
        <ele>241</ele>
        <time>2011-03-10T09:32:03</time>
      </trkpt>
      <trkpt lat="44.43338" lon="1.47493">
        <ele>241</ele>
        <time>2011-03-10T09:32:05</time>
      </trkpt>
      <trkpt lat="44.43344" lon="1.47494">
        <ele>241</ele>
        <time>2011-03-10T09:32:07</time>
      </trkpt>
      <trkpt lat="44.4335" lon="1.47496">
        <ele>241</ele>
        <time>2011-03-10T09:32:09</time>
      </trkpt>
      <trkpt lat="44.43352" lon="1.47497">
        <ele>241</ele>
        <time>2011-03-10T09:32:10</time>
      </trkpt>
      <trkpt lat="44.43354" lon="1.47499">
        <ele>241</ele>
        <time>2011-03-10T09:32:11</time>
      </trkpt>
      <trkpt lat="44.43358" lon="1.47502">
        <ele>241</ele>
        <time>2011-03-10T09:32:13</time>
      </trkpt>
      <trkpt lat="44.43361" lon="1.47504">
        <ele>241</ele>
        <time>2011-03-10T09:32:14</time>
      </trkpt>
      <trkpt lat="44.43366" lon="1.47506">
        <ele>241</ele>
        <time>2011-03-10T09:32:16</time>
      </trkpt>
      <trkpt lat="44.43369" lon="1.47507">
        <ele>241</ele>
        <time>2011-03-10T09:32:17</time>
      </trkpt>
      <trkpt lat="44.43374" lon="1.47506">
        <ele>241</ele>
        <time>2011-03-10T09:32:19</time>
      </trkpt>
      <trkpt lat="44.43378" lon="1.47504">
        <ele>240</ele>
        <time>2011-03-10T09:32:21</time>
      </trkpt>
      <trkpt lat="44.4338" lon="1.47503">
        <ele>240</ele>
        <time>2011-03-10T09:32:22</time>
      </trkpt>
      <trkpt lat="44.43383" lon="1.47501">
        <ele>240</ele>
        <time>2011-03-10T09:32:24</time>
      </trkpt>
      <trkpt lat="44.43387" lon="1.47501">
        <ele>240</ele>
        <time>2011-03-10T09:32:26</time>
      </trkpt>
      <trkpt lat="44.4339" lon="1.475">
        <ele>240</ele>
        <time>2011-03-10T09:32:27</time>
      </trkpt>
      <trkpt lat="44.43394" lon="1.47501">
        <ele>240</ele>
        <time>2011-03-10T09:32:29</time>
      </trkpt>
      <trkpt lat="44.43397" lon="1.47502">
        <ele>240</ele>
        <time>2011-03-10T09:32:30</time>
      </trkpt>
      <trkpt lat="44.43403" lon="1.47505">
        <ele>240</ele>
        <time>2011-03-10T09:32:32</time>
      </trkpt>
      <trkpt lat="44.43407" lon="1.47507">
        <ele>240</ele>
        <time>2011-03-10T09:32:34</time>
      </trkpt>
      <trkpt lat="44.43413" lon="1.4751">
        <ele>240</ele>
        <time>2011-03-10T09:32:36</time>
      </trkpt>
      <trkpt lat="44.43416" lon="1.47511">
        <ele>240</ele>
        <time>2011-03-10T09:32:37</time>
      </trkpt>
      <trkpt lat="44.43421" lon="1.47514">
        <ele>240</ele>
        <time>2011-03-10T09:32:39</time>
      </trkpt>
      <trkpt lat="44.43427" lon="1.47518">
        <ele>240</ele>
        <time>2011-03-10T09:32:41</time>
      </trkpt>
      <trkpt lat="44.43432" lon="1.47521">
        <ele>240</ele>
        <time>2011-03-10T09:32:43</time>
      </trkpt>
      <trkpt lat="44.43436" lon="1.47526">
        <ele>240</ele>
        <time>2011-03-10T09:32:45</time>
      </trkpt>
      <trkpt lat="44.43441" lon="1.47532">
        <ele>240</ele>
        <time>2011-03-10T09:32:48</time>
      </trkpt>
      <trkpt lat="44.43447" lon="1.4754">
        <ele>240</ele>
        <time>2011-03-10T09:32:50</time>
      </trkpt>
      <trkpt lat="44.43452" lon="1.47552">
        <ele>232</ele>
        <time>2011-03-10T09:32:52</time>
      </trkpt>
      <trkpt lat="44.4346" lon="1.47568">
        <ele>241</ele>
        <time>2011-03-10T09:32:54</time>
      </trkpt>
      <trkpt lat="44.4347" lon="1.47584">
        <ele>241</ele>
        <time>2011-03-10T09:32:56</time>
      </trkpt>
      <trkpt lat="44.43479" lon="1.47602">
        <ele>241</ele>
        <time>2011-03-10T09:32:58</time>
      </trkpt>
      <trkpt lat="44.43489" lon="1.4762">
        <ele>241</ele>
        <time>2011-03-10T09:33:00</time>
      </trkpt>
      <trkpt lat="44.435" lon="1.47637">
        <ele>228</ele>
        <time>2011-03-10T09:33:02</time>
      </trkpt>
      <trkpt lat="44.43505" lon="1.47645">
        <ele>228</ele>
        <time>2011-03-10T09:33:03</time>
      </trkpt>
      <trkpt lat="44.43514" lon="1.47657">
        <ele>228</ele>
        <time>2011-03-10T09:33:05</time>
      </trkpt>
      <trkpt lat="44.43518" lon="1.47663">
        <ele>228</ele>
        <time>2011-03-10T09:33:06</time>
      </trkpt>
      <trkpt lat="44.43525" lon="1.47674">
        <ele>228</ele>
        <time>2011-03-10T09:33:08</time>
      </trkpt>
      <trkpt lat="44.43528" lon="1.47681">
        <ele>228</ele>
        <time>2011-03-10T09:33:09</time>
      </trkpt>
      <trkpt lat="44.43534" lon="1.47697">
        <ele>228</ele>
        <time>2011-03-10T09:33:11</time>
      </trkpt>
      <trkpt lat="44.43537" lon="1.47705">
        <ele>228</ele>
        <time>2011-03-10T09:33:12</time>
      </trkpt>
      <trkpt lat="44.43539" lon="1.47717">
        <ele>223</ele>
        <time>2011-03-10T09:33:14</time>
      </trkpt>
      <trkpt lat="44.43541" lon="1.47732">
        <ele>223</ele>
        <time>2011-03-10T09:33:16</time>
      </trkpt>
      <trkpt lat="44.43547" lon="1.47747">
        <ele>229</ele>
        <time>2011-03-10T09:33:18</time>
      </trkpt>
      <trkpt lat="44.43551" lon="1.47753">
        <ele>229</ele>
        <time>2011-03-10T09:33:19</time>
      </trkpt>
      <trkpt lat="44.43558" lon="1.47765">
        <ele>229</ele>
        <time>2011-03-10T09:33:21</time>
      </trkpt>
      <trkpt lat="44.43563" lon="1.4778">
        <ele>229</ele>
        <time>2011-03-10T09:33:23</time>
      </trkpt>
      <trkpt lat="44.4357" lon="1.47794">
        <ele>212</ele>
        <time>2011-03-10T09:33:25</time>
      </trkpt>
      <trkpt lat="44.43574" lon="1.47801">
        <ele>212</ele>
        <time>2011-03-10T09:33:26</time>
      </trkpt>
      <trkpt lat="44.43578" lon="1.47808">
        <ele>212</ele>
        <time>2011-03-10T09:33:27</time>
      </trkpt>
      <trkpt lat="44.43587" lon="1.47823">
        <ele>212</ele>
        <time>2011-03-10T09:33:29</time>
      </trkpt>
      <trkpt lat="44.43591" lon="1.4783">
        <ele>212</ele>
        <time>2011-03-10T09:33:31</time>
      </trkpt>
      <trkpt lat="44.43597" lon="1.47842">
        <ele>212</ele>
        <time>2011-03-10T09:33:32</time>
      </trkpt>
      <trkpt lat="44.43599" lon="1.47847">
        <ele>212</ele>
        <time>2011-03-10T09:33:34</time>
      </trkpt>
      <trkpt lat="44.43606" lon="1.47855">
        <ele>212</ele>
        <time>2011-03-10T09:33:36</time>
      </trkpt>
      <trkpt lat="44.43614" lon="1.47864">
        <ele>212</ele>
        <time>2011-03-10T09:33:37</time>
      </trkpt>
      <trkpt lat="44.43618" lon="1.47871">
        <ele>212</ele>
        <time>2011-03-10T09:33:38</time>
      </trkpt>
      <trkpt lat="44.43627" lon="1.47885">
        <ele>211</ele>
        <time>2011-03-10T09:33:40</time>
      </trkpt>
      <trkpt lat="44.43637" lon="1.47897">
        <ele>211</ele>
        <time>2011-03-10T09:33:42</time>
      </trkpt>
      <trkpt lat="44.4364" lon="1.47903">
        <ele>211</ele>
        <time>2011-03-10T09:33:43</time>
      </trkpt>
      <trkpt lat="44.43643" lon="1.47911">
        <ele>211</ele>
        <time>2011-03-10T09:33:44</time>
      </trkpt>
      <trkpt lat="44.43648" lon="1.47924">
        <ele>211</ele>
        <time>2011-03-10T09:33:47</time>
      </trkpt>
      <trkpt lat="44.43657" lon="1.47937">
        <ele>211</ele>
        <time>2011-03-10T09:33:48</time>
      </trkpt>
      <trkpt lat="44.43661" lon="1.47942">
        <ele>211</ele>
        <time>2011-03-10T09:33:50</time>
      </trkpt>
      <trkpt lat="44.43661" lon="1.4795">
        <ele>211</ele>
        <time>2011-03-10T09:33:51</time>
      </trkpt>
      <trkpt lat="44.43662" lon="1.47964">
        <ele>200</ele>
        <time>2011-03-10T09:33:53</time>
      </trkpt>
      <trkpt lat="44.43669" lon="1.47977">
        <ele>200</ele>
        <time>2011-03-10T09:33:55</time>
      </trkpt>
      <trkpt lat="44.43679" lon="1.4799">
        <ele>200</ele>
        <time>2011-03-10T09:33:57</time>
      </trkpt>
      <trkpt lat="44.43687" lon="1.48006">
        <ele>200</ele>
        <time>2011-03-10T09:33:59</time>
      </trkpt>
      <trkpt lat="44.43696" lon="1.48022">
        <ele>200</ele>
        <time>2011-03-10T09:34:01</time>
      </trkpt>
      <trkpt lat="44.43701" lon="1.48028">
        <ele>200</ele>
        <time>2011-03-10T09:34:02</time>
      </trkpt>
      <trkpt lat="44.43706" lon="1.48034">
        <ele>200</ele>
        <time>2011-03-10T09:34:03</time>
      </trkpt>
      <trkpt lat="44.43711" lon="1.48041">
        <ele>205</ele>
        <time>2011-03-10T09:34:04</time>
      </trkpt>
      <trkpt lat="44.43715" lon="1.4805">
        <ele>191</ele>
        <time>2011-03-10T09:34:06</time>
      </trkpt>
      <trkpt lat="44.43723" lon="1.48065">
        <ele>191</ele>
        <time>2011-03-10T09:34:08</time>
      </trkpt>
      <trkpt lat="44.4373" lon="1.48074">
        <ele>191</ele>
        <time>2011-03-10T09:34:09</time>
      </trkpt>
      <trkpt lat="44.43735" lon="1.48075">
        <ele>191</ele>
        <time>2011-03-10T09:34:11</time>
      </trkpt>
      <trkpt lat="44.43744" lon="1.48075">
        <ele>191</ele>
        <time>2011-03-10T09:34:13</time>
      </trkpt>
      <trkpt lat="44.4375" lon="1.48074">
        <ele>191</ele>
        <time>2011-03-10T09:34:14</time>
      </trkpt>
      <trkpt lat="44.43757" lon="1.48074">
        <ele>191</ele>
        <time>2011-03-10T09:34:17</time>
      </trkpt>
      <trkpt lat="44.4376" lon="1.48075">
        <ele>191</ele>
        <time>2011-03-10T09:34:20</time>
      </trkpt>
      <trkpt lat="44.43764" lon="1.48076">
        <ele>191</ele>
        <time>2011-03-10T09:34:21</time>
      </trkpt>
      <trkpt lat="44.43768" lon="1.48077">
        <ele>191</ele>
        <time>2011-03-10T09:34:23</time>
      </trkpt>
      <trkpt lat="44.43773" lon="1.48077">
        <ele>191</ele>
        <time>2011-03-10T09:34:25</time>
      </trkpt>
      <trkpt lat="44.43778" lon="1.48077">
        <ele>191</ele>
        <time>2011-03-10T09:34:27</time>
      </trkpt>
      <trkpt lat="44.43785" lon="1.48077">
        <ele>191</ele>
        <time>2011-03-10T09:34:29</time>
      </trkpt>
      <trkpt lat="44.43792" lon="1.48077">
        <ele>186</ele>
        <time>2011-03-10T09:34:31</time>
      </trkpt>
      <trkpt lat="44.438" lon="1.48076">
        <ele>186</ele>
        <time>2011-03-10T09:34:33</time>
      </trkpt>
      <trkpt lat="44.43804" lon="1.48076">
        <ele>186</ele>
        <time>2011-03-10T09:34:34</time>
      </trkpt>
      <trkpt lat="44.43808" lon="1.48075">
        <ele>186</ele>
        <time>2011-03-10T09:34:35</time>
      </trkpt>
      <trkpt lat="44.43816" lon="1.48073">
        <ele>186</ele>
        <time>2011-03-10T09:34:37</time>
      </trkpt>
      <trkpt lat="44.4382" lon="1.48073">
        <ele>186</ele>
        <time>2011-03-10T09:34:38</time>
      </trkpt>
      <trkpt lat="44.43829" lon="1.48072">
        <ele>186</ele>
        <time>2011-03-10T09:34:40</time>
      </trkpt>
      <trkpt lat="44.43837" lon="1.48072">
        <ele>186</ele>
        <time>2011-03-10T09:34:42</time>
      </trkpt>
      <trkpt lat="44.43841" lon="1.48072">
        <ele>186</ele>
        <time>2011-03-10T09:34:43</time>
      </trkpt>
      <trkpt lat="44.43849" lon="1.48072">
        <ele>186</ele>
        <time>2011-03-10T09:34:45</time>
      </trkpt>
      <trkpt lat="44.43852" lon="1.48071">
        <ele>186</ele>
        <time>2011-03-10T09:34:46</time>
      </trkpt>
      <trkpt lat="44.43859" lon="1.48069">
        <ele>186</ele>
        <time>2011-03-10T09:34:48</time>
      </trkpt>
      <trkpt lat="44.43867" lon="1.48068">
        <ele>186</ele>
        <time>2011-03-10T09:34:50</time>
      </trkpt>
      <trkpt lat="44.43875" lon="1.48068">
        <ele>185</ele>
        <time>2011-03-10T09:34:52</time>
      </trkpt>
      <trkpt lat="44.4388" lon="1.48067">
        <ele>185</ele>
        <time>2011-03-10T09:34:53</time>
      </trkpt>
      <trkpt lat="44.43888" lon="1.48067">
        <ele>185</ele>
        <time>2011-03-10T09:34:55</time>
      </trkpt>
      <trkpt lat="44.43892" lon="1.48067">
        <ele>185</ele>
        <time>2011-03-10T09:34:56</time>
      </trkpt>
      <trkpt lat="44.43896" lon="1.48066">
        <ele>185</ele>
        <time>2011-03-10T09:34:57</time>
      </trkpt>
      <trkpt lat="44.43907" lon="1.48065">
        <ele>185</ele>
        <time>2011-03-10T09:34:59</time>
      </trkpt>
      <trkpt lat="44.43912" lon="1.48064">
        <ele>185</ele>
        <time>2011-03-10T09:35:00</time>
      </trkpt>
      <trkpt lat="44.43922" lon="1.48063">
        <ele>185</ele>
        <time>2011-03-10T09:35:02</time>
      </trkpt>
      <trkpt lat="44.43927" lon="1.48063">
        <ele>185</ele>
        <time>2011-03-10T09:35:03</time>
      </trkpt>
      <trkpt lat="44.43938" lon="1.48062">
        <ele>185</ele>
        <time>2011-03-10T09:35:05</time>
      </trkpt>
      <trkpt lat="44.43943" lon="1.48061">
        <ele>185</ele>
        <time>2011-03-10T09:35:06</time>
      </trkpt>
      <trkpt lat="44.43953" lon="1.48055">
        <ele>185</ele>
        <time>2011-03-10T09:35:08</time>
      </trkpt>
      <trkpt lat="44.43964" lon="1.48049">
        <ele>188</ele>
        <time>2011-03-10T09:35:10</time>
      </trkpt>
      <trkpt lat="44.43968" lon="1.48046">
        <ele>188</ele>
        <time>2011-03-10T09:35:11</time>
      </trkpt>
      <trkpt lat="44.43973" lon="1.48042">
        <ele>188</ele>
        <time>2011-03-10T09:35:12</time>
      </trkpt>
      <trkpt lat="44.43982" lon="1.48034">
        <ele>186</ele>
        <time>2011-03-10T09:35:14</time>
      </trkpt>
      <trkpt lat="44.43986" lon="1.4803">
        <ele>186</ele>
        <time>2011-03-10T09:35:15</time>
      </trkpt>
      <trkpt lat="44.43995" lon="1.48023">
        <ele>186</ele>
        <time>2011-03-10T09:35:17</time>
      </trkpt>
      <trkpt lat="44.44005" lon="1.48017">
        <ele>186</ele>
        <time>2011-03-10T09:35:19</time>
      </trkpt>
      <trkpt lat="44.44008" lon="1.48015">
        <ele>186</ele>
        <time>2011-03-10T09:35:20</time>
      </trkpt>
      <trkpt lat="44.44012" lon="1.48013">
        <ele>186</ele>
        <time>2011-03-10T09:35:22</time>
      </trkpt>
      <trkpt lat="44.44016" lon="1.4801">
        <ele>186</ele>
        <time>2011-03-10T09:35:24</time>
      </trkpt>
      <trkpt lat="44.44019" lon="1.48009">
        <ele>186</ele>
        <time>2011-03-10T09:35:25</time>
      </trkpt>
      <trkpt lat="44.44024" lon="1.48007">
        <ele>186</ele>
        <time>2011-03-10T09:35:27</time>
      </trkpt>
      <trkpt lat="44.44027" lon="1.48006">
        <ele>186</ele>
        <time>2011-03-10T09:35:28</time>
      </trkpt>
      <trkpt lat="44.44032" lon="1.48005">
        <ele>186</ele>
        <time>2011-03-10T09:35:30</time>
      </trkpt>
      <trkpt lat="44.44035" lon="1.48004">
        <ele>186</ele>
        <time>2011-03-10T09:35:31</time>
      </trkpt>
      <trkpt lat="44.4404" lon="1.48002">
        <ele>186</ele>
        <time>2011-03-10T09:35:33</time>
      </trkpt>
      <trkpt lat="44.44043" lon="1.48001">
        <ele>180</ele>
        <time>2011-03-10T09:35:34</time>
      </trkpt>
      <trkpt lat="44.44049" lon="1.47998">
        <ele>180</ele>
        <time>2011-03-10T09:35:37</time>
      </trkpt>
      <trkpt lat="44.44053" lon="1.47996">
        <ele>180</ele>
        <time>2011-03-10T09:35:39</time>
      </trkpt>
      <trkpt lat="44.44056" lon="1.47995">
        <ele>180</ele>
        <time>2011-03-10T09:35:40</time>
      </trkpt>
      <trkpt lat="44.4406" lon="1.47994">
        <ele>180</ele>
        <time>2011-03-10T09:35:42</time>
      </trkpt>
      <trkpt lat="44.44062" lon="1.47993">
        <ele>180</ele>
        <time>2011-03-10T09:35:43</time>
      </trkpt>
      <trkpt lat="44.44067" lon="1.47991">
        <ele>180</ele>
        <time>2011-03-10T09:35:45</time>
      </trkpt>
      <trkpt lat="44.4407" lon="1.4799">
        <ele>180</ele>
        <time>2011-03-10T09:35:46</time>
      </trkpt>
      <trkpt lat="44.44073" lon="1.47989">
        <ele>180</ele>
        <time>2011-03-10T09:35:48</time>
      </trkpt>
      <trkpt lat="44.44077" lon="1.47985">
        <ele>180</ele>
        <time>2011-03-10T09:35:52</time>
      </trkpt>
      <trkpt lat="44.44077" lon="1.47982">
        <ele>180</ele>
        <time>2011-03-10T09:35:54</time>
      </trkpt>
      <trkpt lat="44.44076" lon="1.47979">
        <ele>180</ele>
        <time>2011-03-10T09:35:56</time>
      </trkpt>
      <trkpt lat="44.44077" lon="1.47973">
        <ele>180</ele>
        <time>2011-03-10T09:36:01</time>
      </trkpt>
      <trkpt lat="44.44084" lon="1.47969">
        <ele>180</ele>
        <time>2011-03-10T09:36:04</time>
      </trkpt>
      <trkpt lat="44.44092" lon="1.4797">
        <ele>180</ele>
        <time>2011-03-10T09:36:06</time>
      </trkpt>
      <trkpt lat="44.44101" lon="1.47968">
        <ele>180</ele>
        <time>2011-03-10T09:36:08</time>
      </trkpt>
      <trkpt lat="44.44107" lon="1.47964">
        <ele>180</ele>
        <time>2011-03-10T09:36:10</time>
      </trkpt>
      <trkpt lat="44.44111" lon="1.4796">
        <ele>180</ele>
        <time>2011-03-10T09:36:12</time>
      </trkpt>
      <trkpt lat="44.44114" lon="1.47959">
        <ele>180</ele>
        <time>2011-03-10T09:36:13</time>
      </trkpt>
      <trkpt lat="44.44117" lon="1.47959">
        <ele>180</ele>
        <time>2011-03-10T09:36:14</time>
      </trkpt>
      <trkpt lat="44.44124" lon="1.47958">
        <ele>189</ele>
        <time>2011-03-10T09:36:16</time>
      </trkpt>
      <trkpt lat="44.44128" lon="1.47958">
        <ele>180</ele>
        <time>2011-03-10T09:36:17</time>
      </trkpt>
      <trkpt lat="44.44132" lon="1.47958">
        <ele>180</ele>
        <time>2011-03-10T09:36:18</time>
      </trkpt>
      <trkpt lat="44.44137" lon="1.47958">
        <ele>180</ele>
        <time>2011-03-10T09:36:19</time>
      </trkpt>
      <trkpt lat="44.44146" lon="1.47958">
        <ele>180</ele>
        <time>2011-03-10T09:36:21</time>
      </trkpt>
      <trkpt lat="44.44155" lon="1.47958">
        <ele>180</ele>
        <time>2011-03-10T09:36:23</time>
      </trkpt>
      <trkpt lat="44.44164" lon="1.47958">
        <ele>180</ele>
        <time>2011-03-10T09:36:25</time>
      </trkpt>
      <trkpt lat="44.44169" lon="1.47958">
        <ele>180</ele>
        <time>2011-03-10T09:36:26</time>
      </trkpt>
      <trkpt lat="44.44174" lon="1.47958">
        <ele>180</ele>
        <time>2011-03-10T09:36:27</time>
      </trkpt>
      <trkpt lat="44.44179" lon="1.47958">
        <ele>180</ele>
        <time>2011-03-10T09:36:28</time>
      </trkpt>
      <trkpt lat="44.44188" lon="1.47959">
        <ele>178</ele>
        <time>2011-03-10T09:36:30</time>
      </trkpt>
      <trkpt lat="44.44192" lon="1.47959">
        <ele>178</ele>
        <time>2011-03-10T09:36:31</time>
      </trkpt>
      <trkpt lat="44.44199" lon="1.4796">
        <ele>178</ele>
        <time>2011-03-10T09:36:33</time>
      </trkpt>
      <trkpt lat="44.44202" lon="1.47961">
        <ele>178</ele>
        <time>2011-03-10T09:36:34</time>
      </trkpt>
      <trkpt lat="44.44208" lon="1.4796">
        <ele>178</ele>
        <time>2011-03-10T09:36:36</time>
      </trkpt>
      <trkpt lat="44.44211" lon="1.47959">
        <ele>173</ele>
        <time>2011-03-10T09:36:37</time>
      </trkpt>
      <trkpt lat="44.44217" lon="1.47956">
        <ele>178</ele>
        <time>2011-03-10T09:36:39</time>
      </trkpt>
      <trkpt lat="44.4422" lon="1.47953">
        <ele>178</ele>
        <time>2011-03-10T09:36:41</time>
      </trkpt>
      <trkpt lat="44.44223" lon="1.47952">
        <ele>178</ele>
        <time>2011-03-10T09:36:43</time>
      </trkpt>
      <trkpt lat="44.44226" lon="1.4795">
        <ele>178</ele>
        <time>2011-03-10T09:36:45</time>
      </trkpt>
      <trkpt lat="44.44228" lon="1.47948">
        <ele>178</ele>
        <time>2011-03-10T09:36:46</time>
      </trkpt>
      <trkpt lat="44.44229" lon="1.47946">
        <ele>178</ele>
        <time>2011-03-10T09:36:47</time>
      </trkpt>
      <trkpt lat="44.44235" lon="1.47941">
        <ele>178</ele>
        <time>2011-03-10T09:36:50</time>
      </trkpt>
      <trkpt lat="44.4424" lon="1.47939">
        <ele>178</ele>
        <time>2011-03-10T09:37:01</time>
      </trkpt>
      <trkpt lat="44.4424" lon="1.47939">
        <ele>178</ele>
        <time>2011-03-10T09:37:09</time>
      </trkpt>
      <trkpt lat="44.44245" lon="1.47939">
        <ele>178</ele>
        <time>2011-03-10T09:37:35</time>
      </trkpt>
      <trkpt lat="44.44243" lon="1.47939">
        <ele>178</ele>
        <time>2011-03-10T09:37:47</time>
      </trkpt>
      <trkpt lat="44.44239" lon="1.47938">
        <ele>178</ele>
        <time>2011-03-10T09:37:50</time>
      </trkpt>
      <trkpt lat="44.44239" lon="1.47938">
        <ele>178</ele>
        <time>2011-03-10T09:37:51</time>
      </trkpt>
      <trkpt lat="44.44237" lon="1.47935">
        <ele>178</ele>
        <time>2011-03-10T09:37:53</time>
      </trkpt>
      <trkpt lat="44.44234" lon="1.47932">
        <ele>178</ele>
        <time>2011-03-10T09:37:55</time>
      </trkpt>
      <trkpt lat="44.44231" lon="1.47929">
        <ele>178</ele>
        <time>2011-03-10T09:37:57</time>
      </trkpt>
      <trkpt lat="44.44229" lon="1.47928">
        <ele>178</ele>
        <time>2011-03-10T09:37:58</time>
      </trkpt>
      <trkpt lat="44.44226" lon="1.47925">
        <ele>178</ele>
        <time>2011-03-10T09:38:00</time>
      </trkpt>
      <trkpt lat="44.44223" lon="1.47922">
        <ele>178</ele>
        <time>2011-03-10T09:38:02</time>
      </trkpt>
      <trkpt lat="44.44221" lon="1.47919">
        <ele>178</ele>
        <time>2011-03-10T09:38:04</time>
      </trkpt>
      <trkpt lat="44.44218" lon="1.47914">
        <ele>178</ele>
        <time>2011-03-10T09:38:06</time>
      </trkpt>
      <trkpt lat="44.44215" lon="1.4791">
        <ele>178</ele>
        <time>2011-03-10T09:38:08</time>
      </trkpt>
      <trkpt lat="44.44211" lon="1.47902">
        <ele>178</ele>
        <time>2011-03-10T09:38:11</time>
      </trkpt>
      <trkpt lat="44.44208" lon="1.47898">
        <ele>180</ele>
        <time>2011-03-10T09:38:13</time>
      </trkpt>
      <trkpt lat="44.44206" lon="1.47892">
        <ele>180</ele>
        <time>2011-03-10T09:38:16</time>
      </trkpt>
      <trkpt lat="44.44203" lon="1.47885">
        <ele>180</ele>
        <time>2011-03-10T09:38:19</time>
      </trkpt>
      <trkpt lat="44.44201" lon="1.47879">
        <ele>180</ele>
        <time>2011-03-10T09:38:21</time>
      </trkpt>
      <trkpt lat="44.44199" lon="1.47874">
        <ele>184</ele>
        <time>2011-03-10T09:38:23</time>
      </trkpt>
      <trkpt lat="44.44198" lon="1.4787">
        <ele>184</ele>
        <time>2011-03-10T09:38:25</time>
      </trkpt>
      <trkpt lat="44.44198" lon="1.47866">
        <ele>184</ele>
        <time>2011-03-10T09:38:27</time>
      </trkpt>
      <trkpt lat="44.44197" lon="1.47862">
        <ele>184</ele>
        <time>2011-03-10T09:38:29</time>
      </trkpt>
      <trkpt lat="44.44196" lon="1.47858">
        <ele>184</ele>
        <time>2011-03-10T09:38:30</time>
      </trkpt>
      <trkpt lat="44.44196" lon="1.47855">
        <ele>184</ele>
        <time>2011-03-10T09:38:31</time>
      </trkpt>
      <trkpt lat="44.44195" lon="1.47852">
        <ele>184</ele>
        <time>2011-03-10T09:38:32</time>
      </trkpt>
      <trkpt lat="44.44194" lon="1.47845">
        <ele>184</ele>
        <time>2011-03-10T09:38:34</time>
      </trkpt>
      <trkpt lat="44.44193" lon="1.47841">
        <ele>184</ele>
        <time>2011-03-10T09:38:35</time>
      </trkpt>
      <trkpt lat="44.44192" lon="1.47834">
        <ele>184</ele>
        <time>2011-03-10T09:38:37</time>
      </trkpt>
      <trkpt lat="44.44192" lon="1.4783">
        <ele>184</ele>
        <time>2011-03-10T09:38:38</time>
      </trkpt>
      <trkpt lat="44.44191" lon="1.47827">
        <ele>184</ele>
        <time>2011-03-10T09:38:39</time>
      </trkpt>
      <trkpt lat="44.44191" lon="1.4782">
        <ele>184</ele>
        <time>2011-03-10T09:38:41</time>
      </trkpt>
      <trkpt lat="44.44192" lon="1.47813">
        <ele>184</ele>
        <time>2011-03-10T09:38:43</time>
      </trkpt>
      <trkpt lat="44.44193" lon="1.47806">
        <ele>184</ele>
        <time>2011-03-10T09:38:45</time>
      </trkpt>
      <trkpt lat="44.44193" lon="1.47798">
        <ele>184</ele>
        <time>2011-03-10T09:38:47</time>
      </trkpt>
      <trkpt lat="44.44194" lon="1.47795">
        <ele>184</ele>
        <time>2011-03-10T09:38:48</time>
      </trkpt>
      <trkpt lat="44.44194" lon="1.47789">
        <ele>184</ele>
        <time>2011-03-10T09:38:50</time>
      </trkpt>
      <trkpt lat="44.44194" lon="1.47784">
        <ele>184</ele>
        <time>2011-03-10T09:38:53</time>
      </trkpt>
      <trkpt lat="44.44195" lon="1.47778">
        <ele>184</ele>
        <time>2011-03-10T09:38:54</time>
      </trkpt>
      <trkpt lat="44.44195" lon="1.47775">
        <ele>184</ele>
        <time>2011-03-10T09:38:55</time>
      </trkpt>
      <trkpt lat="44.44195" lon="1.47771">
        <ele>184</ele>
        <time>2011-03-10T09:38:56</time>
      </trkpt>
      <trkpt lat="44.44196" lon="1.47764">
        <ele>184</ele>
        <time>2011-03-10T09:38:58</time>
      </trkpt>
      <trkpt lat="44.44196" lon="1.47761">
        <ele>184</ele>
        <time>2011-03-10T09:38:59</time>
      </trkpt>
      <trkpt lat="44.44196" lon="1.47757">
        <ele>184</ele>
        <time>2011-03-10T09:39:00</time>
      </trkpt>
      <trkpt lat="44.44196" lon="1.4775">
        <ele>184</ele>
        <time>2011-03-10T09:39:02</time>
      </trkpt>
      <trkpt lat="44.44195" lon="1.47741">
        <ele>184</ele>
        <time>2011-03-10T09:39:05</time>
      </trkpt>
      <trkpt lat="44.44196" lon="1.47735">
        <ele>184</ele>
        <time>2011-03-10T09:39:07</time>
      </trkpt>
      <trkpt lat="44.44196" lon="1.47728">
        <ele>184</ele>
        <time>2011-03-10T09:39:09</time>
      </trkpt>
      <trkpt lat="44.44195" lon="1.47725">
        <ele>184</ele>
        <time>2011-03-10T09:39:10</time>
      </trkpt>
      <trkpt lat="44.44195" lon="1.47719">
        <ele>184</ele>
        <time>2011-03-10T09:39:12</time>
      </trkpt>
      <trkpt lat="44.44194" lon="1.47713">
        <ele>184</ele>
        <time>2011-03-10T09:39:14</time>
      </trkpt>
      <trkpt lat="44.44194" lon="1.47707">
        <ele>187</ele>
        <time>2011-03-10T09:39:16</time>
      </trkpt>
      <trkpt lat="44.44192" lon="1.47701">
        <ele>187</ele>
        <time>2011-03-10T09:39:18</time>
      </trkpt>
      <trkpt lat="44.44191" lon="1.47696">
        <ele>187</ele>
        <time>2011-03-10T09:39:20</time>
      </trkpt>
      <trkpt lat="44.44189" lon="1.47691">
        <ele>187</ele>
        <time>2011-03-10T09:39:22</time>
      </trkpt>
      <trkpt lat="44.44188" lon="1.47683">
        <ele>187</ele>
        <time>2011-03-10T09:39:25</time>
      </trkpt>
      <trkpt lat="44.44186" lon="1.4768">
        <ele>187</ele>
        <time>2011-03-10T09:39:27</time>
      </trkpt>
      <trkpt lat="44.44186" lon="1.47674">
        <ele>187</ele>
        <time>2011-03-10T09:39:29</time>
      </trkpt>
      <trkpt lat="44.44184" lon="1.47668">
        <ele>187</ele>
        <time>2011-03-10T09:39:31</time>
      </trkpt>
      <trkpt lat="44.44181" lon="1.47663">
        <ele>187</ele>
        <time>2011-03-10T09:39:33</time>
      </trkpt>
      <trkpt lat="44.4418" lon="1.4766">
        <ele>187</ele>
        <time>2011-03-10T09:39:34</time>
      </trkpt>
      <trkpt lat="44.44177" lon="1.47654">
        <ele>187</ele>
        <time>2011-03-10T09:39:36</time>
      </trkpt>
      <trkpt lat="44.44174" lon="1.4765">
        <ele>187</ele>
        <time>2011-03-10T09:39:38</time>
      </trkpt>
      <trkpt lat="44.44171" lon="1.47646">
        <ele>187</ele>
        <time>2011-03-10T09:39:40</time>
      </trkpt>
      <trkpt lat="44.44168" lon="1.47642">
        <ele>187</ele>
        <time>2011-03-10T09:39:42</time>
      </trkpt>
      <trkpt lat="44.44164" lon="1.47639">
        <ele>187</ele>
        <time>2011-03-10T09:39:44</time>
      </trkpt>
      <trkpt lat="44.44161" lon="1.47636">
        <ele>187</ele>
        <time>2011-03-10T09:39:46</time>
      </trkpt>
      <trkpt lat="44.44158" lon="1.47633">
        <ele>187</ele>
        <time>2011-03-10T09:39:48</time>
      </trkpt>
      <trkpt lat="44.44155" lon="1.47629">
        <ele>187</ele>
        <time>2011-03-10T09:39:50</time>
      </trkpt>
      <trkpt lat="44.44153" lon="1.47625">
        <ele>187</ele>
        <time>2011-03-10T09:39:52</time>
      </trkpt>
      <trkpt lat="44.44151" lon="1.47621">
        <ele>196</ele>
        <time>2011-03-10T09:39:54</time>
      </trkpt>
      <trkpt lat="44.4415" lon="1.47618">
        <ele>196</ele>
        <time>2011-03-10T09:39:56</time>
      </trkpt>
      <trkpt lat="44.44147" lon="1.47614">
        <ele>196</ele>
        <time>2011-03-10T09:39:58</time>
      </trkpt>
      <trkpt lat="44.44144" lon="1.47609">
        <ele>196</ele>
        <time>2011-03-10T09:40:00</time>
      </trkpt>
      <trkpt lat="44.44139" lon="1.47604">
        <ele>196</ele>
        <time>2011-03-10T09:40:03</time>
      </trkpt>
      <trkpt lat="44.44135" lon="1.47602">
        <ele>196</ele>
        <time>2011-03-10T09:40:05</time>
      </trkpt>
      <trkpt lat="44.44132" lon="1.47599">
        <ele>196</ele>
        <time>2011-03-10T09:40:07</time>
      </trkpt>
      <trkpt lat="44.44131" lon="1.47595">
        <ele>196</ele>
        <time>2011-03-10T09:40:09</time>
      </trkpt>
      <trkpt lat="44.44129" lon="1.47592">
        <ele>196</ele>
        <time>2011-03-10T09:40:11</time>
      </trkpt>
      <trkpt lat="44.44126" lon="1.47592">
        <ele>196</ele>
        <time>2011-03-10T09:40:13</time>
      </trkpt>
      <trkpt lat="44.44124" lon="1.47588">
        <ele>195</ele>
        <time>2011-03-10T09:40:15</time>
      </trkpt>
      <trkpt lat="44.44123" lon="1.47584">
        <ele>195</ele>
        <time>2011-03-10T09:40:17</time>
      </trkpt>
      <trkpt lat="44.44121" lon="1.47581">
        <ele>195</ele>
        <time>2011-03-10T09:40:19</time>
      </trkpt>
      <trkpt lat="44.44119" lon="1.47578">
        <ele>195</ele>
        <time>2011-03-10T09:40:21</time>
      </trkpt>
      <trkpt lat="44.44116" lon="1.47576">
        <ele>195</ele>
        <time>2011-03-10T09:40:23</time>
      </trkpt>
      <trkpt lat="44.44114" lon="1.47573">
        <ele>195</ele>
        <time>2011-03-10T09:40:25</time>
      </trkpt>
      <trkpt lat="44.44113" lon="1.4757">
        <ele>195</ele>
        <time>2011-03-10T09:40:27</time>
      </trkpt>
      <trkpt lat="44.4411" lon="1.47567">
        <ele>195</ele>
        <time>2011-03-10T09:40:29</time>
      </trkpt>
      <trkpt lat="44.44106" lon="1.47565">
        <ele>195</ele>
        <time>2011-03-10T09:40:31</time>
      </trkpt>
      <trkpt lat="44.44103" lon="1.47562">
        <ele>195</ele>
        <time>2011-03-10T09:40:33</time>
      </trkpt>
      <trkpt lat="44.44099" lon="1.4756">
        <ele>195</ele>
        <time>2011-03-10T09:40:35</time>
      </trkpt>
      <trkpt lat="44.44096" lon="1.47558">
        <ele>195</ele>
        <time>2011-03-10T09:40:37</time>
      </trkpt>
      <trkpt lat="44.44092" lon="1.47555">
        <ele>195</ele>
        <time>2011-03-10T09:40:40</time>
      </trkpt>
      <trkpt lat="44.44089" lon="1.47552">
        <ele>195</ele>
        <time>2011-03-10T09:40:41</time>
      </trkpt>
      <trkpt lat="44.44086" lon="1.47549">
        <ele>195</ele>
        <time>2011-03-10T09:40:43</time>
      </trkpt>
      <trkpt lat="44.44083" lon="1.47545">
        <ele>195</ele>
        <time>2011-03-10T09:40:46</time>
      </trkpt>
      <trkpt lat="44.4408" lon="1.47541">
        <ele>203</ele>
        <time>2011-03-10T09:40:47</time>
      </trkpt>
      <trkpt lat="44.44078" lon="1.47537">
        <ele>203</ele>
        <time>2011-03-10T09:40:49</time>
      </trkpt>
      <trkpt lat="44.44074" lon="1.47534">
        <ele>203</ele>
        <time>2011-03-10T09:40:51</time>
      </trkpt>
      <trkpt lat="44.44071" lon="1.4753">
        <ele>203</ele>
        <time>2011-03-10T09:40:53</time>
      </trkpt>
      <trkpt lat="44.44068" lon="1.47527">
        <ele>203</ele>
        <time>2011-03-10T09:40:55</time>
      </trkpt>
      <trkpt lat="44.44066" lon="1.47523">
        <ele>203</ele>
        <time>2011-03-10T09:40:57</time>
      </trkpt>
      <trkpt lat="44.44064" lon="1.47518">
        <ele>203</ele>
        <time>2011-03-10T09:40:59</time>
      </trkpt>
      <trkpt lat="44.44063" lon="1.47514">
        <ele>203</ele>
        <time>2011-03-10T09:41:01</time>
      </trkpt>
      <trkpt lat="44.4406" lon="1.4751">
        <ele>203</ele>
        <time>2011-03-10T09:41:03</time>
      </trkpt>
      <trkpt lat="44.44057" lon="1.47507">
        <ele>203</ele>
        <time>2011-03-10T09:41:05</time>
      </trkpt>
      <trkpt lat="44.44054" lon="1.47503">
        <ele>203</ele>
        <time>2011-03-10T09:41:07</time>
      </trkpt>
      <trkpt lat="44.44051" lon="1.47499">
        <ele>203</ele>
        <time>2011-03-10T09:41:09</time>
      </trkpt>
      <trkpt lat="44.44048" lon="1.47495">
        <ele>203</ele>
        <time>2011-03-10T09:41:11</time>
      </trkpt>
      <trkpt lat="44.44046" lon="1.4749">
        <ele>203</ele>
        <time>2011-03-10T09:41:13</time>
      </trkpt>
      <trkpt lat="44.44045" lon="1.47485">
        <ele>203</ele>
        <time>2011-03-10T09:41:15</time>
      </trkpt>
      <trkpt lat="44.44044" lon="1.4748">
        <ele>203</ele>
        <time>2011-03-10T09:41:17</time>
      </trkpt>
      <trkpt lat="44.44041" lon="1.47478">
        <ele>203</ele>
        <time>2011-03-10T09:41:19</time>
      </trkpt>
      <trkpt lat="44.44034" lon="1.47475">
        <ele>203</ele>
        <time>2011-03-10T09:41:21</time>
      </trkpt>
      <trkpt lat="44.4403" lon="1.47469">
        <ele>203</ele>
        <time>2011-03-10T09:41:23</time>
      </trkpt>
      <trkpt lat="44.44028" lon="1.47465">
        <ele>203</ele>
        <time>2011-03-10T09:41:24</time>
      </trkpt>
      <trkpt lat="44.44026" lon="1.47462">
        <ele>203</ele>
        <time>2011-03-10T09:41:25</time>
      </trkpt>
      <trkpt lat="44.44025" lon="1.47458">
        <ele>199</ele>
        <time>2011-03-10T09:41:26</time>
      </trkpt>
      <trkpt lat="44.44023" lon="1.47452">
        <ele>199</ele>
        <time>2011-03-10T09:41:28</time>
      </trkpt>
      <trkpt lat="44.4402" lon="1.47447">
        <ele>199</ele>
        <time>2011-03-10T09:41:30</time>
      </trkpt>
      <trkpt lat="44.44019" lon="1.47442">
        <ele>199</ele>
        <time>2011-03-10T09:41:32</time>
      </trkpt>
      <trkpt lat="44.44019" lon="1.47436">
        <ele>199</ele>
        <time>2011-03-10T09:41:35</time>
      </trkpt>
      <trkpt lat="44.44019" lon="1.47432">
        <ele>199</ele>
        <time>2011-03-10T09:41:36</time>
      </trkpt>
      <trkpt lat="44.44019" lon="1.47428">
        <ele>199</ele>
        <time>2011-03-10T09:41:38</time>
      </trkpt>
      <trkpt lat="44.44018" lon="1.47423">
        <ele>199</ele>
        <time>2011-03-10T09:41:40</time>
      </trkpt>
      <trkpt lat="44.44019" lon="1.47418">
        <ele>199</ele>
        <time>2011-03-10T09:41:43</time>
      </trkpt>
      <trkpt lat="44.44021" lon="1.47414">
        <ele>199</ele>
        <time>2011-03-10T09:41:44</time>
      </trkpt>
      <trkpt lat="44.44022" lon="1.4741">
        <ele>199</ele>
        <time>2011-03-10T09:41:46</time>
      </trkpt>
      <trkpt lat="44.44023" lon="1.47406">
        <ele>199</ele>
        <time>2011-03-10T09:41:49</time>
      </trkpt>
      <trkpt lat="44.44023" lon="1.47401">
        <ele>199</ele>
        <time>2011-03-10T09:41:51</time>
      </trkpt>
      <trkpt lat="44.44024" lon="1.47397">
        <ele>199</ele>
        <time>2011-03-10T09:41:53</time>
      </trkpt>
      <trkpt lat="44.44024" lon="1.47393">
        <ele>199</ele>
        <time>2011-03-10T09:41:54</time>
      </trkpt>
      <trkpt lat="44.44025" lon="1.47388">
        <ele>199</ele>
        <time>2011-03-10T09:41:56</time>
      </trkpt>
      <trkpt lat="44.44027" lon="1.47385">
        <ele>199</ele>
        <time>2011-03-10T09:41:58</time>
      </trkpt>
      <trkpt lat="44.44028" lon="1.47381">
        <ele>199</ele>
        <time>2011-03-10T09:42:00</time>
      </trkpt>
      <trkpt lat="44.44029" lon="1.47378">
        <ele>199</ele>
        <time>2011-03-10T09:42:02</time>
      </trkpt>
      <trkpt lat="44.4403" lon="1.47373">
        <ele>205</ele>
        <time>2011-03-10T09:42:04</time>
      </trkpt>
      <trkpt lat="44.44028" lon="1.47368">
        <ele>205</ele>
        <time>2011-03-10T09:42:06</time>
      </trkpt>
      <trkpt lat="44.44024" lon="1.47365">
        <ele>205</ele>
        <time>2011-03-10T09:42:08</time>
      </trkpt>
      <trkpt lat="44.44021" lon="1.47358">
        <ele>205</ele>
        <time>2011-03-10T09:42:10</time>
      </trkpt>
      <trkpt lat="44.44019" lon="1.47355">
        <ele>205</ele>
        <time>2011-03-10T09:42:11</time>
      </trkpt>
      <trkpt lat="44.44018" lon="1.47352">
        <ele>205</ele>
        <time>2011-03-10T09:42:12</time>
      </trkpt>
      <trkpt lat="44.44016" lon="1.47348">
        <ele>205</ele>
        <time>2011-03-10T09:42:14</time>
      </trkpt>
      <trkpt lat="44.44014" lon="1.47346">
        <ele>205</ele>
        <time>2011-03-10T09:42:16</time>
      </trkpt>
      <trkpt lat="44.4401" lon="1.47345">
        <ele>205</ele>
        <time>2011-03-10T09:42:18</time>
      </trkpt>
      <trkpt lat="44.44007" lon="1.47344">
        <ele>205</ele>
        <time>2011-03-10T09:42:20</time>
      </trkpt>
      <trkpt lat="44.44003" lon="1.47342">
        <ele>205</ele>
        <time>2011-03-10T09:42:22</time>
      </trkpt>
      <trkpt lat="44.43999" lon="1.47343">
        <ele>205</ele>
        <time>2011-03-10T09:42:24</time>
      </trkpt>
      <trkpt lat="44.43996" lon="1.47343">
        <ele>205</ele>
        <time>2011-03-10T09:42:25</time>
      </trkpt>
      <trkpt lat="44.4399" lon="1.47345">
        <ele>205</ele>
        <time>2011-03-10T09:42:27</time>
      </trkpt>
      <trkpt lat="44.43987" lon="1.47347">
        <ele>205</ele>
        <time>2011-03-10T09:42:28</time>
      </trkpt>
      <trkpt lat="44.43985" lon="1.4735">
        <ele>205</ele>
        <time>2011-03-10T09:42:29</time>
      </trkpt>
      <trkpt lat="44.43983" lon="1.47353">
        <ele>205</ele>
        <time>2011-03-10T09:42:30</time>
      </trkpt>
      <trkpt lat="44.43981" lon="1.47355">
        <ele>205</ele>
        <time>2011-03-10T09:42:32</time>
      </trkpt>
      <trkpt lat="44.43979" lon="1.47361">
        <ele>205</ele>
        <time>2011-03-10T09:42:34</time>
      </trkpt>
      <trkpt lat="44.43977" lon="1.47364">
        <ele>205</ele>
        <time>2011-03-10T09:42:35</time>
      </trkpt>
      <trkpt lat="44.43974" lon="1.47372">
        <ele>205</ele>
        <time>2011-03-10T09:42:38</time>
      </trkpt>
      <trkpt lat="44.43971" lon="1.47378">
        <ele>199</ele>
        <time>2011-03-10T09:42:40</time>
      </trkpt>
      <trkpt lat="44.43967" lon="1.47382">
        <ele>199</ele>
        <time>2011-03-10T09:42:42</time>
      </trkpt>
      <trkpt lat="44.43962" lon="1.47385">
        <ele>199</ele>
        <time>2011-03-10T09:42:45</time>
      </trkpt>
      <trkpt lat="44.43958" lon="1.47389">
        <ele>204</ele>
        <time>2011-03-10T09:42:47</time>
      </trkpt>
      <trkpt lat="44.43956" lon="1.47391">
        <ele>204</ele>
        <time>2011-03-10T09:42:48</time>
      </trkpt>
      <trkpt lat="44.43951" lon="1.47395">
        <ele>204</ele>
        <time>2011-03-10T09:42:50</time>
      </trkpt>
      <trkpt lat="44.43945" lon="1.47398">
        <ele>204</ele>
        <time>2011-03-10T09:42:53</time>
      </trkpt>
      <trkpt lat="44.43942" lon="1.47399">
        <ele>204</ele>
        <time>2011-03-10T09:42:55</time>
      </trkpt>
      <trkpt lat="44.43939" lon="1.47399">
        <ele>204</ele>
        <time>2011-03-10T09:42:57</time>
      </trkpt>
      <trkpt lat="44.43936" lon="1.47398">
        <ele>204</ele>
        <time>2011-03-10T09:42:59</time>
      </trkpt>
      <trkpt lat="44.43933" lon="1.47397">
        <ele>204</ele>
        <time>2011-03-10T09:43:01</time>
      </trkpt>
      <trkpt lat="44.4393" lon="1.47396">
        <ele>204</ele>
        <time>2011-03-10T09:43:03</time>
      </trkpt>
      <trkpt lat="44.43927" lon="1.47396">
        <ele>204</ele>
        <time>2011-03-10T09:43:05</time>
      </trkpt>
      <trkpt lat="44.43925" lon="1.47397">
        <ele>204</ele>
        <time>2011-03-10T09:43:07</time>
      </trkpt>
      <trkpt lat="44.43922" lon="1.47397">
        <ele>204</ele>
        <time>2011-03-10T09:43:09</time>
      </trkpt>
      <trkpt lat="44.4392" lon="1.47398">
        <ele>204</ele>
        <time>2011-03-10T09:43:11</time>
      </trkpt>
      <trkpt lat="44.43917" lon="1.47398">
        <ele>204</ele>
        <time>2011-03-10T09:43:13</time>
      </trkpt>
      <trkpt lat="44.43914" lon="1.47397">
        <ele>204</ele>
        <time>2011-03-10T09:43:15</time>
      </trkpt>
      <trkpt lat="44.43911" lon="1.47396">
        <ele>204</ele>
        <time>2011-03-10T09:43:17</time>
      </trkpt>
      <trkpt lat="44.43908" lon="1.47395">
        <ele>204</ele>
        <time>2011-03-10T09:43:19</time>
      </trkpt>
      <trkpt lat="44.43905" lon="1.47396">
        <ele>204</ele>
        <time>2011-03-10T09:43:21</time>
      </trkpt>
      <trkpt lat="44.43903" lon="1.47397">
        <ele>204</ele>
        <time>2011-03-10T09:43:23</time>
      </trkpt>
      <trkpt lat="44.43899" lon="1.47396">
        <ele>204</ele>
        <time>2011-03-10T09:43:26</time>
      </trkpt>
      <trkpt lat="44.43896" lon="1.47395">
        <ele>204</ele>
        <time>2011-03-10T09:43:28</time>
      </trkpt>
      <trkpt lat="44.43893" lon="1.47394">
        <ele>204</ele>
        <time>2011-03-10T09:43:30</time>
      </trkpt>
      <trkpt lat="44.4389" lon="1.47394">
        <ele>204</ele>
        <time>2011-03-10T09:43:32</time>
      </trkpt>
      <trkpt lat="44.43888" lon="1.47394">
        <ele>204</ele>
        <time>2011-03-10T09:43:34</time>
      </trkpt>
      <trkpt lat="44.43885" lon="1.47394">
        <ele>204</ele>
        <time>2011-03-10T09:43:36</time>
      </trkpt>
      <trkpt lat="44.43882" lon="1.47394">
        <ele>204</ele>
        <time>2011-03-10T09:43:39</time>
      </trkpt>
      <trkpt lat="44.43879" lon="1.47393">
        <ele>204</ele>
        <time>2011-03-10T09:43:41</time>
      </trkpt>
      <trkpt lat="44.43877" lon="1.4739">
        <ele>204</ele>
        <time>2011-03-10T09:43:43</time>
      </trkpt>
      <trkpt lat="44.43875" lon="1.47386">
        <ele>204</ele>
        <time>2011-03-10T09:43:45</time>
      </trkpt>
      <trkpt lat="44.43873" lon="1.47384">
        <ele>215</ele>
        <time>2011-03-10T09:43:47</time>
      </trkpt>
      <trkpt lat="44.4387" lon="1.47383">
        <ele>215</ele>
        <time>2011-03-10T09:43:50</time>
      </trkpt>
      <trkpt lat="44.43868" lon="1.47383">
        <ele>215</ele>
        <time>2011-03-10T09:43:53</time>
      </trkpt>
      <trkpt lat="44.43865" lon="1.47384">
        <ele>215</ele>
        <time>2011-03-10T09:43:54</time>
      </trkpt>
      <trkpt lat="44.43862" lon="1.47385">
        <ele>215</ele>
        <time>2011-03-10T09:43:56</time>
      </trkpt>
      <trkpt lat="44.4386" lon="1.47385">
        <ele>215</ele>
        <time>2011-03-10T09:43:58</time>
      </trkpt>
      <trkpt lat="44.43857" lon="1.47386">
        <ele>215</ele>
        <time>2011-03-10T09:44:00</time>
      </trkpt>
      <trkpt lat="44.43854" lon="1.47386">
        <ele>215</ele>
        <time>2011-03-10T09:44:02</time>
      </trkpt>
      <trkpt lat="44.43851" lon="1.47387">
        <ele>215</ele>
        <time>2011-03-10T09:44:04</time>
      </trkpt>
      <trkpt lat="44.43848" lon="1.47388">
        <ele>215</ele>
        <time>2011-03-10T09:44:06</time>
      </trkpt>
      <trkpt lat="44.43845" lon="1.4739">
        <ele>215</ele>
        <time>2011-03-10T09:44:08</time>
      </trkpt>
      <trkpt lat="44.43843" lon="1.47391">
        <ele>215</ele>
        <time>2011-03-10T09:44:10</time>
      </trkpt>
      <trkpt lat="44.43841" lon="1.47393">
        <ele>215</ele>
        <time>2011-03-10T09:44:12</time>
      </trkpt>
      <trkpt lat="44.43839" lon="1.47396">
        <ele>215</ele>
        <time>2011-03-10T09:44:15</time>
      </trkpt>
      <trkpt lat="44.43837" lon="1.47397">
        <ele>215</ele>
        <time>2011-03-10T09:44:16</time>
      </trkpt>
      <trkpt lat="44.43834" lon="1.47399">
        <ele>215</ele>
        <time>2011-03-10T09:44:19</time>
      </trkpt>
      <trkpt lat="44.43832" lon="1.47401">
        <ele>215</ele>
        <time>2011-03-10T09:44:20</time>
      </trkpt>
      <trkpt lat="44.43829" lon="1.47401">
        <ele>215</ele>
        <time>2011-03-10T09:44:23</time>
      </trkpt>
      <trkpt lat="44.43826" lon="1.47403">
        <ele>215</ele>
        <time>2011-03-10T09:44:24</time>
      </trkpt>
      <trkpt lat="44.43823" lon="1.47404">
        <ele>215</ele>
        <time>2011-03-10T09:44:28</time>
      </trkpt>
      <trkpt lat="44.43821" lon="1.47404">
        <ele>215</ele>
        <time>2011-03-10T09:44:29</time>
      </trkpt>
      <trkpt lat="44.43818" lon="1.47403">
        <ele>215</ele>
        <time>2011-03-10T09:44:31</time>
      </trkpt>
      <trkpt lat="44.43815" lon="1.47402">
        <ele>215</ele>
        <time>2011-03-10T09:44:34</time>
      </trkpt>
      <trkpt lat="44.43813" lon="1.47401">
        <ele>215</ele>
        <time>2011-03-10T09:44:36</time>
      </trkpt>
      <trkpt lat="44.4381" lon="1.47401">
        <ele>215</ele>
        <time>2011-03-10T09:44:38</time>
      </trkpt>
      <trkpt lat="44.43807" lon="1.47402">
        <ele>215</ele>
        <time>2011-03-10T09:44:41</time>
      </trkpt>
      <trkpt lat="44.43805" lon="1.47404">
        <ele>215</ele>
        <time>2011-03-10T09:44:43</time>
      </trkpt>
      <trkpt lat="44.43802" lon="1.47405">
        <ele>215</ele>
        <time>2011-03-10T09:44:45</time>
      </trkpt>
      <trkpt lat="44.43799" lon="1.47407">
        <ele>215</ele>
        <time>2011-03-10T09:44:47</time>
      </trkpt>
      <trkpt lat="44.43797" lon="1.47409">
        <ele>215</ele>
        <time>2011-03-10T09:44:49</time>
      </trkpt>
      <trkpt lat="44.43796" lon="1.47412">
        <ele>215</ele>
        <time>2011-03-10T09:44:51</time>
      </trkpt>
      <trkpt lat="44.43794" lon="1.47415">
        <ele>215</ele>
        <time>2011-03-10T09:44:53</time>
      </trkpt>
      <trkpt lat="44.43792" lon="1.47417">
        <ele>215</ele>
        <time>2011-03-10T09:44:55</time>
      </trkpt>
      <trkpt lat="44.43791" lon="1.4742">
        <ele>225</ele>
        <time>2011-03-10T09:44:57</time>
      </trkpt>
      <trkpt lat="44.43789" lon="1.47423">
        <ele>225</ele>
        <time>2011-03-10T09:44:59</time>
      </trkpt>
      <trkpt lat="44.43788" lon="1.47427">
        <ele>225</ele>
        <time>2011-03-10T09:45:01</time>
      </trkpt>
      <trkpt lat="44.43786" lon="1.4743">
        <ele>225</ele>
        <time>2011-03-10T09:45:03</time>
      </trkpt>
      <trkpt lat="44.43784" lon="1.47433">
        <ele>225</ele>
        <time>2011-03-10T09:45:05</time>
      </trkpt>
      <trkpt lat="44.43781" lon="1.47434">
        <ele>225</ele>
        <time>2011-03-10T09:45:07</time>
      </trkpt>
      <trkpt lat="44.43779" lon="1.47435">
        <ele>225</ele>
        <time>2011-03-10T09:45:09</time>
      </trkpt>
      <trkpt lat="44.43776" lon="1.47436">
        <ele>225</ele>
        <time>2011-03-10T09:45:11</time>
      </trkpt>
      <trkpt lat="44.43773" lon="1.47437">
        <ele>225</ele>
        <time>2011-03-10T09:45:13</time>
      </trkpt>
      <trkpt lat="44.43771" lon="1.47437">
        <ele>225</ele>
        <time>2011-03-10T09:45:15</time>
      </trkpt>
      <trkpt lat="44.43768" lon="1.4744">
        <ele>225</ele>
        <time>2011-03-10T09:45:18</time>
      </trkpt>
      <trkpt lat="44.43767" lon="1.47442">
        <ele>225</ele>
        <time>2011-03-10T09:45:20</time>
      </trkpt>
      <trkpt lat="44.43765" lon="1.47444">
        <ele>225</ele>
        <time>2011-03-10T09:45:22</time>
      </trkpt>
      <trkpt lat="44.43762" lon="1.47445">
        <ele>225</ele>
        <time>2011-03-10T09:45:25</time>
      </trkpt>
      <trkpt lat="44.43759" lon="1.47444">
        <ele>225</ele>
        <time>2011-03-10T09:45:27</time>
      </trkpt>
      <trkpt lat="44.43757" lon="1.47443">
        <ele>225</ele>
        <time>2011-03-10T09:45:29</time>
      </trkpt>
      <trkpt lat="44.43755" lon="1.47444">
        <ele>225</ele>
        <time>2011-03-10T09:45:31</time>
      </trkpt>
      <trkpt lat="44.43752" lon="1.47444">
        <ele>225</ele>
        <time>2011-03-10T09:45:33</time>
      </trkpt>
      <trkpt lat="44.4375" lon="1.47442">
        <ele>225</ele>
        <time>2011-03-10T09:45:36</time>
      </trkpt>
      <trkpt lat="44.43745" lon="1.47439">
        <ele>225</ele>
        <time>2011-03-10T09:45:42</time>
      </trkpt>
      <trkpt lat="44.43739" lon="1.47437">
        <ele>225</ele>
        <time>2011-03-10T09:45:50</time>
      </trkpt>
      <trkpt lat="44.43736" lon="1.47438">
        <ele>225</ele>
        <time>2011-03-10T09:45:54</time>
      </trkpt>
      <trkpt lat="44.43734" lon="1.47438">
        <ele>225</ele>
        <time>2011-03-10T09:45:57</time>
      </trkpt>
      <trkpt lat="44.43729" lon="1.47437">
        <ele>225</ele>
        <time>2011-03-10T09:46:09</time>
      </trkpt>
      <trkpt lat="44.43729" lon="1.47437">
        <ele>225</ele>
        <time>2011-03-10T09:46:16</time>
      </trkpt>
      <trkpt lat="44.43725" lon="1.47435">
        <ele>225</ele>
        <time>2011-03-10T09:46:26</time>
      </trkpt>
      <trkpt lat="44.43722" lon="1.47436">
        <ele>225</ele>
        <time>2011-03-10T09:46:29</time>
      </trkpt>
      <trkpt lat="44.43722" lon="1.47436">
        <ele>225</ele>
        <time>2011-03-10T09:46:30</time>
      </trkpt>
      <trkpt lat="44.43721" lon="1.47438">
        <ele>225</ele>
        <time>2011-03-10T09:46:31</time>
      </trkpt>
      <trkpt lat="44.43719" lon="1.47441">
        <ele>225</ele>
        <time>2011-03-10T09:46:33</time>
      </trkpt>
      <trkpt lat="44.43718" lon="1.47444">
        <ele>225</ele>
        <time>2011-03-10T09:46:35</time>
      </trkpt>
      <trkpt lat="44.43715" lon="1.47447">
        <ele>225</ele>
        <time>2011-03-10T09:46:37</time>
      </trkpt>
      <trkpt lat="44.43713" lon="1.47449">
        <ele>225</ele>
        <time>2011-03-10T09:46:39</time>
      </trkpt>
      <trkpt lat="44.4371" lon="1.47451">
        <ele>225</ele>
        <time>2011-03-10T09:46:41</time>
      </trkpt>
      <trkpt lat="44.43707" lon="1.47453">
        <ele>246</ele>
        <time>2011-03-10T09:46:43</time>
      </trkpt>
      <trkpt lat="44.43705" lon="1.47454">
        <ele>246</ele>
        <time>2011-03-10T09:46:45</time>
      </trkpt>
      <trkpt lat="44.43702" lon="1.47457">
        <ele>246</ele>
        <time>2011-03-10T09:46:47</time>
      </trkpt>
      <trkpt lat="44.43701" lon="1.4746">
        <ele>242</ele>
        <time>2011-03-10T09:46:49</time>
      </trkpt>
      <trkpt lat="44.43699" lon="1.47464">
        <ele>242</ele>
        <time>2011-03-10T09:46:51</time>
      </trkpt>
      <trkpt lat="44.43699" lon="1.47468">
        <ele>242</ele>
        <time>2011-03-10T09:46:53</time>
      </trkpt>
      <trkpt lat="44.43698" lon="1.47472">
        <ele>242</ele>
        <time>2011-03-10T09:46:55</time>
      </trkpt>
      <trkpt lat="44.43696" lon="1.47474">
        <ele>242</ele>
        <time>2011-03-10T09:46:57</time>
      </trkpt>
      <trkpt lat="44.43693" lon="1.47476">
        <ele>242</ele>
        <time>2011-03-10T09:47:00</time>
      </trkpt>
      <trkpt lat="44.4369" lon="1.47477">
        <ele>242</ele>
        <time>2011-03-10T09:47:03</time>
      </trkpt>
      <trkpt lat="44.43688" lon="1.47478">
        <ele>242</ele>
        <time>2011-03-10T09:47:05</time>
      </trkpt>
      <trkpt lat="44.43685" lon="1.47481">
        <ele>242</ele>
        <time>2011-03-10T09:47:08</time>
      </trkpt>
      <trkpt lat="44.43684" lon="1.47484">
        <ele>242</ele>
        <time>2011-03-10T09:47:10</time>
      </trkpt>
      <trkpt lat="44.43683" lon="1.47488">
        <ele>242</ele>
        <time>2011-03-10T09:47:13</time>
      </trkpt>
      <trkpt lat="44.43684" lon="1.47492">
        <ele>242</ele>
        <time>2011-03-10T09:47:16</time>
      </trkpt>
      <trkpt lat="44.43685" lon="1.47496">
        <ele>242</ele>
        <time>2011-03-10T09:47:19</time>
      </trkpt>
      <trkpt lat="44.43686" lon="1.475">
        <ele>242</ele>
        <time>2011-03-10T09:47:22</time>
      </trkpt>
      <trkpt lat="44.43687" lon="1.47503">
        <ele>242</ele>
        <time>2011-03-10T09:47:25</time>
      </trkpt>
      <trkpt lat="44.43688" lon="1.47506">
        <ele>242</ele>
        <time>2011-03-10T09:47:27</time>
      </trkpt>
      <trkpt lat="44.43689" lon="1.47509">
        <ele>242</ele>
        <time>2011-03-10T09:47:29</time>
      </trkpt>
      <trkpt lat="44.43691" lon="1.47512">
        <ele>242</ele>
        <time>2011-03-10T09:47:33</time>
      </trkpt>
      <trkpt lat="44.43692" lon="1.47515">
        <ele>242</ele>
        <time>2011-03-10T09:47:36</time>
      </trkpt>
      <trkpt lat="44.43697" lon="1.47519">
        <ele>242</ele>
        <time>2011-03-10T09:47:47</time>
      </trkpt>
      <trkpt lat="44.43697" lon="1.47519">
        <ele>242</ele>
        <time>2011-03-10T09:47:54</time>
      </trkpt>
      <trkpt lat="44.437" lon="1.47524">
        <ele>242</ele>
        <time>2011-03-10T09:47:54</time>
      </trkpt>
      <trkpt lat="44.437" lon="1.47524">
        <ele>242</ele>
        <time>2011-03-10T09:47:55</time>
      </trkpt>
      <trkpt lat="44.437" lon="1.47524">
        <ele>242</ele>
        <time>2011-03-10T09:48:10</time>
      </trkpt>
      <trkpt lat="44.43701" lon="1.4753">
        <ele>242</ele>
        <time>2011-03-10T09:48:15</time>
      </trkpt>
      <trkpt lat="44.43697" lon="1.47535">
        <ele>242</ele>
        <time>2011-03-10T09:48:33</time>
      </trkpt>
      <trkpt lat="44.43695" lon="1.47537">
        <ele>242</ele>
        <time>2011-03-10T09:48:44</time>
      </trkpt>
      <trkpt lat="44.43694" lon="1.47541">
        <ele>242</ele>
        <time>2011-03-10T09:48:47</time>
      </trkpt>
      <trkpt lat="44.43694" lon="1.47541">
        <ele>242</ele>
        <time>2011-03-10T09:48:48</time>
      </trkpt>
      <trkpt lat="44.43693" lon="1.47543">
        <ele>255</ele>
        <time>2011-03-10T09:48:51</time>
      </trkpt>
      <trkpt lat="44.43691" lon="1.47547">
        <ele>255</ele>
        <time>2011-03-10T09:48:55</time>
      </trkpt>
      <trkpt lat="44.4369" lon="1.4755">
        <ele>255</ele>
        <time>2011-03-10T09:48:58</time>
      </trkpt>
      <trkpt lat="44.4369" lon="1.47554">
        <ele>255</ele>
        <time>2011-03-10T09:49:02</time>
      </trkpt>
      <trkpt lat="44.43689" lon="1.47557">
        <ele>255</ele>
        <time>2011-03-10T09:49:06</time>
      </trkpt>
      <trkpt lat="44.43692" lon="1.47563">
        <ele>255</ele>
        <time>2011-03-10T09:49:18</time>
      </trkpt>
      <trkpt lat="44.43692" lon="1.47563">
        <ele>255</ele>
        <time>2011-03-10T09:49:22</time>
      </trkpt>
      <trkpt lat="44.43687" lon="1.47566">
        <ele>255</ele>
        <time>2011-03-10T09:49:24</time>
      </trkpt>
      <trkpt lat="44.43687" lon="1.47566">
        <ele>255</ele>
        <time>2011-03-10T09:49:25</time>
      </trkpt>
      <trkpt lat="44.43682" lon="1.47568">
        <ele>255</ele>
        <time>2011-03-10T09:49:31</time>
      </trkpt>
      <trkpt lat="44.43678" lon="1.47571">
        <ele>255</ele>
        <time>2011-03-10T09:49:39</time>
      </trkpt>
      <trkpt lat="44.43675" lon="1.47568">
        <ele>255</ele>
        <time>2011-03-10T09:49:45</time>
      </trkpt>
      <trkpt lat="44.4367" lon="1.47567">
        <ele>255</ele>
        <time>2011-03-10T09:49:51</time>
      </trkpt>
      <trkpt lat="44.4367" lon="1.47567">
        <ele>255</ele>
        <time>2011-03-10T09:50:07</time>
      </trkpt>
      <trkpt lat="44.43673" lon="1.47562">
        <ele>255</ele>
        <time>2011-03-10T09:50:12</time>
      </trkpt>
      <trkpt lat="44.4367" lon="1.4756">
        <ele>255</ele>
        <time>2011-03-10T09:50:24</time>
      </trkpt>
      <trkpt lat="44.43666" lon="1.47559">
        <ele>255</ele>
        <time>2011-03-10T09:50:26</time>
      </trkpt>
      <trkpt lat="44.43666" lon="1.47559">
        <ele>255</ele>
        <time>2011-03-10T09:50:27</time>
      </trkpt>
      <trkpt lat="44.43662" lon="1.47559">
        <ele>255</ele>
        <time>2011-03-10T09:50:28</time>
      </trkpt>
      <trkpt lat="44.43659" lon="1.47557">
        <ele>255</ele>
        <time>2011-03-10T09:50:30</time>
      </trkpt>
      <trkpt lat="44.43656" lon="1.47555">
        <ele>255</ele>
        <time>2011-03-10T09:50:32</time>
      </trkpt>
      <trkpt lat="44.43653" lon="1.47554">
        <ele>255</ele>
        <time>2011-03-10T09:50:34</time>
      </trkpt>
      <trkpt lat="44.4365" lon="1.47555">
        <ele>255</ele>
        <time>2011-03-10T09:50:36</time>
      </trkpt>
      <trkpt lat="44.43648" lon="1.47557">
        <ele>255</ele>
        <time>2011-03-10T09:50:38</time>
      </trkpt>
      <trkpt lat="44.43645" lon="1.47558">
        <ele>255</ele>
        <time>2011-03-10T09:50:40</time>
      </trkpt>
      <trkpt lat="44.43643" lon="1.47559">
        <ele>255</ele>
        <time>2011-03-10T09:50:42</time>
      </trkpt>
      <trkpt lat="44.4364" lon="1.47561">
        <ele>255</ele>
        <time>2011-03-10T09:50:46</time>
      </trkpt>
      <trkpt lat="44.43638" lon="1.47563">
        <ele>255</ele>
        <time>2011-03-10T09:50:47</time>
      </trkpt>
      <trkpt lat="44.43635" lon="1.47564">
        <ele>255</ele>
        <time>2011-03-10T09:50:49</time>
      </trkpt>
      <trkpt lat="44.43633" lon="1.47566">
        <ele>255</ele>
        <time>2011-03-10T09:50:51</time>
      </trkpt>
      <trkpt lat="44.43631" lon="1.47567">
        <ele>255</ele>
        <time>2011-03-10T09:50:53</time>
      </trkpt>
      <trkpt lat="44.43629" lon="1.47567">
        <ele>255</ele>
        <time>2011-03-10T09:50:55</time>
      </trkpt>
      <trkpt lat="44.43626" lon="1.47568">
        <ele>255</ele>
        <time>2011-03-10T09:50:58</time>
      </trkpt>
      <trkpt lat="44.43623" lon="1.4757">
        <ele>256</ele>
        <time>2011-03-10T09:51:00</time>
      </trkpt>
      <trkpt lat="44.43621" lon="1.47572">
        <ele>256</ele>
        <time>2011-03-10T09:51:02</time>
      </trkpt>
      <trkpt lat="44.43619" lon="1.47573">
        <ele>256</ele>
        <time>2011-03-10T09:51:04</time>
      </trkpt>
      <trkpt lat="44.43616" lon="1.47573">
        <ele>256</ele>
        <time>2011-03-10T09:51:07</time>
      </trkpt>
      <trkpt lat="44.43614" lon="1.47572">
        <ele>256</ele>
        <time>2011-03-10T09:51:09</time>
      </trkpt>
      <trkpt lat="44.43611" lon="1.4757">
        <ele>256</ele>
        <time>2011-03-10T09:51:11</time>
      </trkpt>
      <trkpt lat="44.43609" lon="1.47568">
        <ele>256</ele>
        <time>2011-03-10T09:51:12</time>
      </trkpt>
      <trkpt lat="44.43605" lon="1.47565">
        <ele>256</ele>
        <time>2011-03-10T09:51:14</time>
      </trkpt>
      <trkpt lat="44.43603" lon="1.47563">
        <ele>256</ele>
        <time>2011-03-10T09:51:16</time>
      </trkpt>
      <trkpt lat="44.43601" lon="1.47564">
        <ele>256</ele>
        <time>2011-03-10T09:51:18</time>
      </trkpt>
      <trkpt lat="44.43599" lon="1.47566">
        <ele>256</ele>
        <time>2011-03-10T09:51:20</time>
      </trkpt>
      <trkpt lat="44.43596" lon="1.47567">
        <ele>256</ele>
        <time>2011-03-10T09:51:23</time>
      </trkpt>
      <trkpt lat="44.43594" lon="1.47565">
        <ele>256</ele>
        <time>2011-03-10T09:51:26</time>
      </trkpt>
      <trkpt lat="44.43592" lon="1.47561">
        <ele>256</ele>
        <time>2011-03-10T09:51:29</time>
      </trkpt>
      <trkpt lat="44.4359" lon="1.47558">
        <ele>256</ele>
        <time>2011-03-10T09:51:30</time>
      </trkpt>
      <trkpt lat="44.43589" lon="1.47555">
        <ele>256</ele>
        <time>2011-03-10T09:51:32</time>
      </trkpt>
      <trkpt lat="44.43588" lon="1.47552">
        <ele>256</ele>
        <time>2011-03-10T09:51:34</time>
      </trkpt>
      <trkpt lat="44.43588" lon="1.47547">
        <ele>256</ele>
        <time>2011-03-10T09:51:36</time>
      </trkpt>
      <trkpt lat="44.43587" lon="1.47543">
        <ele>256</ele>
        <time>2011-03-10T09:51:38</time>
      </trkpt>
      <trkpt lat="44.43586" lon="1.4754">
        <ele>262</ele>
        <time>2011-03-10T09:51:40</time>
      </trkpt>
      <trkpt lat="44.43586" lon="1.47536">
        <ele>262</ele>
        <time>2011-03-10T09:51:42</time>
      </trkpt>
      <trkpt lat="44.43585" lon="1.47533">
        <ele>262</ele>
        <time>2011-03-10T09:51:44</time>
      </trkpt>
      <trkpt lat="44.43584" lon="1.47529">
        <ele>262</ele>
        <time>2011-03-10T09:51:46</time>
      </trkpt>
      <trkpt lat="44.43584" lon="1.47524">
        <ele>262</ele>
        <time>2011-03-10T09:51:48</time>
      </trkpt>
      <trkpt lat="44.43583" lon="1.4752">
        <ele>262</ele>
        <time>2011-03-10T09:51:50</time>
      </trkpt>
      <trkpt lat="44.43582" lon="1.47516">
        <ele>262</ele>
        <time>2011-03-10T09:51:52</time>
      </trkpt>
      <trkpt lat="44.43582" lon="1.47512">
        <ele>262</ele>
        <time>2011-03-10T09:51:54</time>
      </trkpt>
      <trkpt lat="44.43581" lon="1.47508">
        <ele>262</ele>
        <time>2011-03-10T09:51:56</time>
      </trkpt>
      <trkpt lat="44.4358" lon="1.47505">
        <ele>262</ele>
        <time>2011-03-10T09:51:58</time>
      </trkpt>
      <trkpt lat="44.4358" lon="1.47502">
        <ele>262</ele>
        <time>2011-03-10T09:52:00</time>
      </trkpt>
      <trkpt lat="44.43579" lon="1.47498">
        <ele>262</ele>
        <time>2011-03-10T09:52:02</time>
      </trkpt>
      <trkpt lat="44.43579" lon="1.47494">
        <ele>262</ele>
        <time>2011-03-10T09:52:04</time>
      </trkpt>
      <trkpt lat="44.43578" lon="1.47491">
        <ele>262</ele>
        <time>2011-03-10T09:52:06</time>
      </trkpt>
      <trkpt lat="44.43578" lon="1.47487">
        <ele>262</ele>
        <time>2011-03-10T09:52:09</time>
      </trkpt>
      <trkpt lat="44.43578" lon="1.47483">
        <ele>262</ele>
        <time>2011-03-10T09:52:11</time>
      </trkpt>
      <trkpt lat="44.43578" lon="1.4748">
        <ele>262</ele>
        <time>2011-03-10T09:52:13</time>
      </trkpt>
      <trkpt lat="44.43577" lon="1.47475">
        <ele>262</ele>
        <time>2011-03-10T09:52:15</time>
      </trkpt>
      <trkpt lat="44.43577" lon="1.47472">
        <ele>262</ele>
        <time>2011-03-10T09:52:18</time>
      </trkpt>
      <trkpt lat="44.43576" lon="1.47469">
        <ele>262</ele>
        <time>2011-03-10T09:52:21</time>
      </trkpt>
      <trkpt lat="44.43575" lon="1.47466">
        <ele>262</ele>
        <time>2011-03-10T09:52:22</time>
      </trkpt>
      <trkpt lat="44.43574" lon="1.47465">
        <ele>262</ele>
        <time>2011-03-10T09:52:23</time>
      </trkpt>
      <trkpt lat="44.43572" lon="1.47461">
        <ele>262</ele>
        <time>2011-03-10T09:52:25</time>
      </trkpt>
      <trkpt lat="44.4357" lon="1.47458">
        <ele>266</ele>
        <time>2011-03-10T09:52:27</time>
      </trkpt>
      <trkpt lat="44.4357" lon="1.47456">
        <ele>266</ele>
        <time>2011-03-10T09:52:28</time>
      </trkpt>
      <trkpt lat="44.4357" lon="1.47452">
        <ele>266</ele>
        <time>2011-03-10T09:52:30</time>
      </trkpt>
      <trkpt lat="44.4357" lon="1.47447">
        <ele>266</ele>
        <time>2011-03-10T09:52:32</time>
      </trkpt>
      <trkpt lat="44.4357" lon="1.47443">
        <ele>266</ele>
        <time>2011-03-10T09:52:34</time>
      </trkpt>
      <trkpt lat="44.43569" lon="1.4744">
        <ele>266</ele>
        <time>2011-03-10T09:52:36</time>
      </trkpt>
      <trkpt lat="44.43569" lon="1.47436">
        <ele>266</ele>
        <time>2011-03-10T09:52:38</time>
      </trkpt>
      <trkpt lat="44.43568" lon="1.47433">
        <ele>266</ele>
        <time>2011-03-10T09:52:40</time>
      </trkpt>
      <trkpt lat="44.43568" lon="1.47429">
        <ele>266</ele>
        <time>2011-03-10T09:52:42</time>
      </trkpt>
      <trkpt lat="44.43569" lon="1.47426">
        <ele>266</ele>
        <time>2011-03-10T09:52:44</time>
      </trkpt>
      <trkpt lat="44.43569" lon="1.47422">
        <ele>266</ele>
        <time>2011-03-10T09:52:46</time>
      </trkpt>
      <trkpt lat="44.43569" lon="1.47418">
        <ele>266</ele>
        <time>2011-03-10T09:52:48</time>
      </trkpt>
      <trkpt lat="44.43569" lon="1.47414">
        <ele>266</ele>
        <time>2011-03-10T09:52:50</time>
      </trkpt>
      <trkpt lat="44.43568" lon="1.47411">
        <ele>266</ele>
        <time>2011-03-10T09:52:52</time>
      </trkpt>
      <trkpt lat="44.43567" lon="1.47406">
        <ele>266</ele>
        <time>2011-03-10T09:52:55</time>
      </trkpt>
      <trkpt lat="44.43566" lon="1.47403">
        <ele>266</ele>
        <time>2011-03-10T09:52:57</time>
      </trkpt>
      <trkpt lat="44.43566" lon="1.474">
        <ele>266</ele>
        <time>2011-03-10T09:52:59</time>
      </trkpt>
      <trkpt lat="44.43565" lon="1.47397">
        <ele>266</ele>
        <time>2011-03-10T09:53:01</time>
      </trkpt>
      <trkpt lat="44.43563" lon="1.47395">
        <ele>266</ele>
        <time>2011-03-10T09:53:03</time>
      </trkpt>
      <trkpt lat="44.43561" lon="1.47394">
        <ele>266</ele>
        <time>2011-03-10T09:53:05</time>
      </trkpt>
      <trkpt lat="44.43558" lon="1.47394">
        <ele>266</ele>
        <time>2011-03-10T09:53:07</time>
      </trkpt>
      <trkpt lat="44.43557" lon="1.47396">
        <ele>266</ele>
        <time>2011-03-10T09:53:09</time>
      </trkpt>
      <trkpt lat="44.43554" lon="1.47398">
        <ele>266</ele>
        <time>2011-03-10T09:53:12</time>
      </trkpt>
      <trkpt lat="44.43551" lon="1.47399">
        <ele>266</ele>
        <time>2011-03-10T09:53:14</time>
      </trkpt>
      <trkpt lat="44.43548" lon="1.474">
        <ele>266</ele>
        <time>2011-03-10T09:53:16</time>
      </trkpt>
      <trkpt lat="44.43546" lon="1.47397">
        <ele>266</ele>
        <time>2011-03-10T09:53:18</time>
      </trkpt>
      <trkpt lat="44.43543" lon="1.47395">
        <ele>266</ele>
        <time>2011-03-10T09:53:20</time>
      </trkpt>
      <trkpt lat="44.4354" lon="1.47393">
        <ele>269</ele>
        <time>2011-03-10T09:53:22</time>
      </trkpt>
      <trkpt lat="44.43538" lon="1.47391">
        <ele>269</ele>
        <time>2011-03-10T09:53:25</time>
      </trkpt>
      <trkpt lat="44.43536" lon="1.47389">
        <ele>269</ele>
        <time>2011-03-10T09:53:26</time>
      </trkpt>
      <trkpt lat="44.43533" lon="1.47387">
        <ele>269</ele>
        <time>2011-03-10T09:53:29</time>
      </trkpt>
      <trkpt lat="44.43531" lon="1.47384">
        <ele>269</ele>
        <time>2011-03-10T09:53:30</time>
      </trkpt>
      <trkpt lat="44.43529" lon="1.47381">
        <ele>269</ele>
        <time>2011-03-10T09:53:32</time>
      </trkpt>
      <trkpt lat="44.43529" lon="1.47378">
        <ele>269</ele>
        <time>2011-03-10T09:53:35</time>
      </trkpt>
      <trkpt lat="44.43529" lon="1.47374">
        <ele>279</ele>
        <time>2011-03-10T09:53:38</time>
      </trkpt>
      <trkpt lat="44.43529" lon="1.47369">
        <ele>279</ele>
        <time>2011-03-10T09:53:41</time>
      </trkpt>
      <trkpt lat="44.43527" lon="1.47366">
        <ele>279</ele>
        <time>2011-03-10T09:53:43</time>
      </trkpt>
      <trkpt lat="44.43525" lon="1.47363">
        <ele>279</ele>
        <time>2011-03-10T09:53:45</time>
      </trkpt>
      <trkpt lat="44.43522" lon="1.47362">
        <ele>279</ele>
        <time>2011-03-10T09:53:47</time>
      </trkpt>
      <trkpt lat="44.43519" lon="1.47361">
        <ele>279</ele>
        <time>2011-03-10T09:53:49</time>
      </trkpt>
      <trkpt lat="44.43517" lon="1.4736">
        <ele>279</ele>
        <time>2011-03-10T09:53:51</time>
      </trkpt>
      <trkpt lat="44.43515" lon="1.47358">
        <ele>279</ele>
        <time>2011-03-10T09:53:53</time>
      </trkpt>
      <trkpt lat="44.43513" lon="1.47356">
        <ele>279</ele>
        <time>2011-03-10T09:53:55</time>
      </trkpt>
      <trkpt lat="44.43511" lon="1.47353">
        <ele>279</ele>
        <time>2011-03-10T09:53:56</time>
      </trkpt>
      <trkpt lat="44.43511" lon="1.47349">
        <ele>279</ele>
        <time>2011-03-10T09:53:59</time>
      </trkpt>
      <trkpt lat="44.43514" lon="1.47347">
        <ele>279</ele>
        <time>2011-03-10T09:54:02</time>
      </trkpt>
      <trkpt lat="44.43516" lon="1.47346">
        <ele>279</ele>
        <time>2011-03-10T09:54:04</time>
      </trkpt>
      <trkpt lat="44.43518" lon="1.47344">
        <ele>279</ele>
        <time>2011-03-10T09:54:06</time>
      </trkpt>
      <trkpt lat="44.43518" lon="1.47339">
        <ele>279</ele>
        <time>2011-03-10T09:54:08</time>
      </trkpt>
      <trkpt lat="44.43518" lon="1.47333">
        <ele>279</ele>
        <time>2011-03-10T09:54:10</time>
      </trkpt>
      <trkpt lat="44.43518" lon="1.47325">
        <ele>279</ele>
        <time>2011-03-10T09:54:13</time>
      </trkpt>
      <trkpt lat="44.43519" lon="1.4732">
        <ele>279</ele>
        <time>2011-03-10T09:54:15</time>
      </trkpt>
      <trkpt lat="44.4352" lon="1.47315">
        <ele>279</ele>
        <time>2011-03-10T09:54:17</time>
      </trkpt>
      <trkpt lat="44.43522" lon="1.47311">
        <ele>279</ele>
        <time>2011-03-10T09:54:18</time>
      </trkpt>
      <trkpt lat="44.43524" lon="1.47306">
        <ele>279</ele>
        <time>2011-03-10T09:54:20</time>
      </trkpt>
      <trkpt lat="44.43526" lon="1.47299">
        <ele>279</ele>
        <time>2011-03-10T09:54:23</time>
      </trkpt>
      <trkpt lat="44.43527" lon="1.47297">
        <ele>279</ele>
        <time>2011-03-10T09:54:24</time>
      </trkpt>
      <trkpt lat="44.43528" lon="1.47292">
        <ele>279</ele>
        <time>2011-03-10T09:54:26</time>
      </trkpt>
      <trkpt lat="44.4353" lon="1.47286">
        <ele>283</ele>
        <time>2011-03-10T09:54:28</time>
      </trkpt>
      <trkpt lat="44.43531" lon="1.47283">
        <ele>283</ele>
        <time>2011-03-10T09:54:29</time>
      </trkpt>
      <trkpt lat="44.43532" lon="1.47275">
        <ele>283</ele>
        <time>2011-03-10T09:54:32</time>
      </trkpt>
      <trkpt lat="44.43533" lon="1.4727">
        <ele>283</ele>
        <time>2011-03-10T09:54:34</time>
      </trkpt>
      <trkpt lat="44.43534" lon="1.47266">
        <ele>283</ele>
        <time>2011-03-10T09:54:36</time>
      </trkpt>
      <trkpt lat="44.43535" lon="1.47262">
        <ele>283</ele>
        <time>2011-03-10T09:54:37</time>
      </trkpt>
      <trkpt lat="44.43536" lon="1.47255">
        <ele>283</ele>
        <time>2011-03-10T09:54:39</time>
      </trkpt>
      <trkpt lat="44.43537" lon="1.47252">
        <ele>283</ele>
        <time>2011-03-10T09:54:40</time>
      </trkpt>
      <trkpt lat="44.43535" lon="1.47245">
        <ele>283</ele>
        <time>2011-03-10T09:54:43</time>
      </trkpt>
      <trkpt lat="44.43534" lon="1.4725">
        <ele>283</ele>
        <time>2011-03-10T09:54:45</time>
      </trkpt>
      <trkpt lat="44.43534" lon="1.47254">
        <ele>283</ele>
        <time>2011-03-10T09:54:47</time>
      </trkpt>
      <trkpt lat="44.43536" lon="1.4726">
        <ele>283</ele>
        <time>2011-03-10T09:54:48</time>
      </trkpt>
      <trkpt lat="44.43539" lon="1.47261">
        <ele>283</ele>
        <time>2011-03-10T09:54:49</time>
      </trkpt>
      <trkpt lat="44.43541" lon="1.4726">
        <ele>283</ele>
        <time>2011-03-10T09:54:50</time>
      </trkpt>
      <trkpt lat="44.43543" lon="1.47257">
        <ele>280</ele>
        <time>2011-03-10T09:54:52</time>
      </trkpt>
      <trkpt lat="44.43545" lon="1.47254">
        <ele>280</ele>
        <time>2011-03-10T09:54:53</time>
      </trkpt>
      <trkpt lat="44.43549" lon="1.4725">
        <ele>280</ele>
        <time>2011-03-10T09:54:55</time>
      </trkpt>
      <trkpt lat="44.43554" lon="1.47246">
        <ele>280</ele>
        <time>2011-03-10T09:54:56</time>
      </trkpt>
      <trkpt lat="44.43557" lon="1.47244">
        <ele>280</ele>
        <time>2011-03-10T09:54:58</time>
      </trkpt>
      <trkpt lat="44.43562" lon="1.47237">
        <ele>280</ele>
        <time>2011-03-10T09:54:59</time>
      </trkpt>
      <trkpt lat="44.43565" lon="1.47234">
        <ele>280</ele>
        <time>2011-03-10T09:55:00</time>
      </trkpt>
      <trkpt lat="44.43567" lon="1.4723">
        <ele>280</ele>
        <time>2011-03-10T09:55:02</time>
      </trkpt>
      <trkpt lat="44.43569" lon="1.47222">
        <ele>280</ele>
        <time>2011-03-10T09:55:04</time>
      </trkpt>
      <trkpt lat="44.4357" lon="1.47218">
        <ele>280</ele>
        <time>2011-03-10T09:55:05</time>
      </trkpt>
      <trkpt lat="44.43572" lon="1.4721">
        <ele>280</ele>
        <time>2011-03-10T09:55:07</time>
      </trkpt>
      <trkpt lat="44.43575" lon="1.47203">
        <ele>282</ele>
        <time>2011-03-10T09:55:09</time>
      </trkpt>
      <trkpt lat="44.43576" lon="1.472">
        <ele>282</ele>
        <time>2011-03-10T09:55:10</time>
      </trkpt>
      <trkpt lat="44.43581" lon="1.47196">
        <ele>282</ele>
        <time>2011-03-10T09:55:12</time>
      </trkpt>
      <trkpt lat="44.43586" lon="1.47193">
        <ele>282</ele>
        <time>2011-03-10T09:55:14</time>
      </trkpt>
      <trkpt lat="44.43589" lon="1.47186">
        <ele>282</ele>
        <time>2011-03-10T09:55:16</time>
      </trkpt>
      <trkpt lat="44.43591" lon="1.47178">
        <ele>282</ele>
        <time>2011-03-10T09:55:17</time>
      </trkpt>
      <trkpt lat="44.43591" lon="1.47175">
        <ele>282</ele>
        <time>2011-03-10T09:55:19</time>
      </trkpt>
      <trkpt lat="44.43594" lon="1.47167">
        <ele>282</ele>
        <time>2011-03-10T09:55:20</time>
      </trkpt>
      <trkpt lat="44.43596" lon="1.47164">
        <ele>282</ele>
        <time>2011-03-10T09:55:22</time>
      </trkpt>
      <trkpt lat="44.43598" lon="1.47161">
        <ele>282</ele>
        <time>2011-03-10T09:55:23</time>
      </trkpt>
      <trkpt lat="44.43604" lon="1.47155">
        <ele>282</ele>
        <time>2011-03-10T09:55:25</time>
      </trkpt>
      <trkpt lat="44.43612" lon="1.47151">
        <ele>282</ele>
        <time>2011-03-10T09:55:27</time>
      </trkpt>
      <trkpt lat="44.43621" lon="1.47147">
        <ele>282</ele>
        <time>2011-03-10T09:55:29</time>
      </trkpt>
      <trkpt lat="44.43629" lon="1.47143">
        <ele>274</ele>
        <time>2011-03-10T09:55:31</time>
      </trkpt>
      <trkpt lat="44.43633" lon="1.47141">
        <ele>274</ele>
        <time>2011-03-10T09:55:32</time>
      </trkpt>
      <trkpt lat="44.43639" lon="1.47133">
        <ele>274</ele>
        <time>2011-03-10T09:55:33</time>
      </trkpt>
      <trkpt lat="44.43641" lon="1.47129">
        <ele>274</ele>
        <time>2011-03-10T09:55:35</time>
      </trkpt>
      <trkpt lat="44.43646" lon="1.47119">
        <ele>279</ele>
        <time>2011-03-10T09:55:36</time>
      </trkpt>
      <trkpt lat="44.43648" lon="1.47114">
        <ele>279</ele>
        <time>2011-03-10T09:55:38</time>
      </trkpt>
      <trkpt lat="44.43652" lon="1.47105">
        <ele>279</ele>
        <time>2011-03-10T09:55:40</time>
      </trkpt>
      <trkpt lat="44.43655" lon="1.47097">
        <ele>279</ele>
        <time>2011-03-10T09:55:41</time>
      </trkpt>
      <trkpt lat="44.43658" lon="1.4709">
        <ele>279</ele>
        <time>2011-03-10T09:55:43</time>
      </trkpt>
      <trkpt lat="44.43661" lon="1.47081">
        <ele>279</ele>
        <time>2011-03-10T09:55:45</time>
      </trkpt>
      <trkpt lat="44.43662" lon="1.47077">
        <ele>279</ele>
        <time>2011-03-10T09:55:46</time>
      </trkpt>
      <trkpt lat="44.43664" lon="1.47073">
        <ele>279</ele>
        <time>2011-03-10T09:55:47</time>
      </trkpt>
      <trkpt lat="44.43667" lon="1.47064">
        <ele>279</ele>
        <time>2011-03-10T09:55:49</time>
      </trkpt>
      <trkpt lat="44.43671" lon="1.47055">
        <ele>279</ele>
        <time>2011-03-10T09:55:51</time>
      </trkpt>
      <trkpt lat="44.43673" lon="1.4705">
        <ele>279</ele>
        <time>2011-03-10T09:55:52</time>
      </trkpt>
      <trkpt lat="44.43676" lon="1.47045">
        <ele>279</ele>
        <time>2011-03-10T09:55:53</time>
      </trkpt>
      <trkpt lat="44.43682" lon="1.47037">
        <ele>282</ele>
        <time>2011-03-10T09:55:55</time>
      </trkpt>
      <trkpt lat="44.43687" lon="1.47034">
        <ele>282</ele>
        <time>2011-03-10T09:55:56</time>
      </trkpt>
      <trkpt lat="44.43697" lon="1.47026">
        <ele>282</ele>
        <time>2011-03-10T09:55:58</time>
      </trkpt>
      <trkpt lat="44.43706" lon="1.47014">
        <ele>282</ele>
        <time>2011-03-10T09:56:00</time>
      </trkpt>
      <trkpt lat="44.43709" lon="1.47007">
        <ele>270</ele>
        <time>2011-03-10T09:56:01</time>
      </trkpt>
      <trkpt lat="44.43712" lon="1.47002">
        <ele>270</ele>
        <time>2011-03-10T09:56:02</time>
      </trkpt>
      <trkpt lat="44.43714" lon="1.46992">
        <ele>270</ele>
        <time>2011-03-10T09:56:04</time>
      </trkpt>
      <trkpt lat="44.43716" lon="1.46988">
        <ele>270</ele>
        <time>2011-03-10T09:56:05</time>
      </trkpt>
      <trkpt lat="44.43722" lon="1.46982">
        <ele>270</ele>
        <time>2011-03-10T09:56:07</time>
      </trkpt>
      <trkpt lat="44.4373" lon="1.46976">
        <ele>270</ele>
        <time>2011-03-10T09:56:09</time>
      </trkpt>
      <trkpt lat="44.43734" lon="1.46973">
        <ele>270</ele>
        <time>2011-03-10T09:56:10</time>
      </trkpt>
      <trkpt lat="44.43738" lon="1.4697">
        <ele>270</ele>
        <time>2011-03-10T09:56:12</time>
      </trkpt>
      <trkpt lat="44.43745" lon="1.46971">
        <ele>270</ele>
        <time>2011-03-10T09:56:14</time>
      </trkpt>
      <trkpt lat="44.43753" lon="1.46969">
        <ele>270</ele>
        <time>2011-03-10T09:56:15</time>
      </trkpt>
      <trkpt lat="44.43757" lon="1.46967">
        <ele>270</ele>
        <time>2011-03-10T09:56:16</time>
      </trkpt>
      <trkpt lat="44.43766" lon="1.46961">
        <ele>270</ele>
        <time>2011-03-10T09:56:19</time>
      </trkpt>
      <trkpt lat="44.43775" lon="1.46954">
        <ele>275</ele>
        <time>2011-03-10T09:56:20</time>
      </trkpt>
      <trkpt lat="44.43784" lon="1.46948">
        <ele>275</ele>
        <time>2011-03-10T09:56:22</time>
      </trkpt>
      <trkpt lat="44.43789" lon="1.46946">
        <ele>275</ele>
        <time>2011-03-10T09:56:24</time>
      </trkpt>
      <trkpt lat="44.438" lon="1.4694">
        <ele>269</ele>
        <time>2011-03-10T09:56:25</time>
      </trkpt>
      <trkpt lat="44.43812" lon="1.46934">
        <ele>269</ele>
        <time>2011-03-10T09:56:27</time>
      </trkpt>
      <trkpt lat="44.43818" lon="1.46931">
        <ele>269</ele>
        <time>2011-03-10T09:56:28</time>
      </trkpt>
      <trkpt lat="44.4383" lon="1.46931">
        <ele>269</ele>
        <time>2011-03-10T09:56:30</time>
      </trkpt>
      <trkpt lat="44.43835" lon="1.46931">
        <ele>269</ele>
        <time>2011-03-10T09:56:31</time>
      </trkpt>
      <trkpt lat="44.43839" lon="1.46931">
        <ele>269</ele>
        <time>2011-03-10T09:56:32</time>
      </trkpt>
      <trkpt lat="44.43847" lon="1.46935">
        <ele>269</ele>
        <time>2011-03-10T09:56:34</time>
      </trkpt>
      <trkpt lat="44.43856" lon="1.46942">
        <ele>269</ele>
        <time>2011-03-10T09:56:36</time>
      </trkpt>
      <trkpt lat="44.4386" lon="1.46946">
        <ele>269</ele>
        <time>2011-03-10T09:56:37</time>
      </trkpt>
      <trkpt lat="44.43869" lon="1.46954">
        <ele>269</ele>
        <time>2011-03-10T09:56:39</time>
      </trkpt>
      <trkpt lat="44.43873" lon="1.46958">
        <ele>269</ele>
        <time>2011-03-10T09:56:40</time>
      </trkpt>
      <trkpt lat="44.43882" lon="1.46963">
        <ele>266</ele>
        <time>2011-03-10T09:56:42</time>
      </trkpt>
      <trkpt lat="44.43891" lon="1.46965">
        <ele>266</ele>
        <time>2011-03-10T09:56:44</time>
      </trkpt>
      <trkpt lat="44.439" lon="1.46964">
        <ele>266</ele>
        <time>2011-03-10T09:56:46</time>
      </trkpt>
      <trkpt lat="44.43903" lon="1.46962">
        <ele>266</ele>
        <time>2011-03-10T09:56:47</time>
      </trkpt>
      <trkpt lat="44.43909" lon="1.46959">
        <ele>266</ele>
        <time>2011-03-10T09:56:49</time>
      </trkpt>
      <trkpt lat="44.43912" lon="1.46958">
        <ele>271</ele>
        <time>2011-03-10T09:56:50</time>
      </trkpt>
      <trkpt lat="44.43915" lon="1.46957">
        <ele>271</ele>
        <time>2011-03-10T09:56:51</time>
      </trkpt>
      <trkpt lat="44.43918" lon="1.46955">
        <ele>271</ele>
        <time>2011-03-10T09:56:52</time>
      </trkpt>
      <trkpt lat="44.43924" lon="1.46952">
        <ele>271</ele>
        <time>2011-03-10T09:56:54</time>
      </trkpt>
      <trkpt lat="44.43931" lon="1.46949">
        <ele>271</ele>
        <time>2011-03-10T09:56:56</time>
      </trkpt>
      <trkpt lat="44.43934" lon="1.46948">
        <ele>271</ele>
        <time>2011-03-10T09:56:57</time>
      </trkpt>
      <trkpt lat="44.43941" lon="1.46949">
        <ele>271</ele>
        <time>2011-03-10T09:56:59</time>
      </trkpt>
      <trkpt lat="44.43949" lon="1.4695">
        <ele>271</ele>
        <time>2011-03-10T09:57:01</time>
      </trkpt>
      <trkpt lat="44.43957" lon="1.46948">
        <ele>271</ele>
        <time>2011-03-10T09:57:03</time>
      </trkpt>
      <trkpt lat="44.43962" lon="1.46946">
        <ele>268</ele>
        <time>2011-03-10T09:57:04</time>
      </trkpt>
      <trkpt lat="44.43969" lon="1.46939">
        <ele>268</ele>
        <time>2011-03-10T09:57:06</time>
      </trkpt>
      <trkpt lat="44.43975" lon="1.4693">
        <ele>268</ele>
        <time>2011-03-10T09:57:08</time>
      </trkpt>
      <trkpt lat="44.43981" lon="1.46922">
        <ele>268</ele>
        <time>2011-03-10T09:57:10</time>
      </trkpt>
      <trkpt lat="44.43984" lon="1.46918">
        <ele>268</ele>
        <time>2011-03-10T09:57:11</time>
      </trkpt>
      <trkpt lat="44.4399" lon="1.46911">
        <ele>268</ele>
        <time>2011-03-10T09:57:13</time>
      </trkpt>
      <trkpt lat="44.43997" lon="1.46904">
        <ele>268</ele>
        <time>2011-03-10T09:57:15</time>
      </trkpt>
      <trkpt lat="44.44003" lon="1.46898">
        <ele>268</ele>
        <time>2011-03-10T09:57:17</time>
      </trkpt>
      <trkpt lat="44.44007" lon="1.46894">
        <ele>268</ele>
        <time>2011-03-10T09:57:19</time>
      </trkpt>
      <trkpt lat="44.44011" lon="1.46894">
        <ele>268</ele>
        <time>2011-03-10T09:57:21</time>
      </trkpt>
      <trkpt lat="44.44013" lon="1.46897">
        <ele>268</ele>
        <time>2011-03-10T09:57:22</time>
      </trkpt>
      <trkpt lat="44.44015" lon="1.469">
        <ele>268</ele>
        <time>2011-03-10T09:57:23</time>
      </trkpt>
      <trkpt lat="44.44018" lon="1.469">
        <ele>268</ele>
        <time>2011-03-10T09:57:24</time>
      </trkpt>
      <trkpt lat="44.44025" lon="1.46902">
        <ele>268</ele>
        <time>2011-03-10T09:57:26</time>
      </trkpt>
      <trkpt lat="44.44029" lon="1.46903">
        <ele>268</ele>
        <time>2011-03-10T09:57:27</time>
      </trkpt>
      <trkpt lat="44.44034" lon="1.46905">
        <ele>268</ele>
        <time>2011-03-10T09:57:28</time>
      </trkpt>
      <trkpt lat="44.44046" lon="1.4691">
        <ele>266</ele>
        <time>2011-03-10T09:57:30</time>
      </trkpt>
      <trkpt lat="44.44057" lon="1.46918">
        <ele>266</ele>
        <time>2011-03-10T09:57:32</time>
      </trkpt>
      <trkpt lat="44.44065" lon="1.46925">
        <ele>266</ele>
        <time>2011-03-10T09:57:34</time>
      </trkpt>
      <trkpt lat="44.44072" lon="1.46928">
        <ele>266</ele>
        <time>2011-03-10T09:57:36</time>
      </trkpt>
      <trkpt lat="44.44079" lon="1.46927">
        <ele>266</ele>
        <time>2011-03-10T09:57:38</time>
      </trkpt>
      <trkpt lat="44.44085" lon="1.46935">
        <ele>266</ele>
        <time>2011-03-10T09:57:40</time>
      </trkpt>
      <trkpt lat="44.44094" lon="1.46942">
        <ele>266</ele>
        <time>2011-03-10T09:57:43</time>
      </trkpt>
      <trkpt lat="44.44098" lon="1.46943">
        <ele>266</ele>
        <time>2011-03-10T09:57:44</time>
      </trkpt>
      <trkpt lat="44.44104" lon="1.46948">
        <ele>266</ele>
        <time>2011-03-10T09:57:46</time>
      </trkpt>
      <trkpt lat="44.44107" lon="1.46948">
        <ele>266</ele>
        <time>2011-03-10T09:57:47</time>
      </trkpt>
      <trkpt lat="44.44112" lon="1.46953">
        <ele>266</ele>
        <time>2011-03-10T09:57:49</time>
      </trkpt>
      <trkpt lat="44.44115" lon="1.46957">
        <ele>266</ele>
        <time>2011-03-10T09:57:50</time>
      </trkpt>
      <trkpt lat="44.4412" lon="1.46964">
        <ele>253</ele>
        <time>2011-03-10T09:57:52</time>
      </trkpt>
      <trkpt lat="44.44125" lon="1.46971">
        <ele>265</ele>
        <time>2011-03-10T09:57:54</time>
      </trkpt>
      <trkpt lat="44.44131" lon="1.46977">
        <ele>265</ele>
        <time>2011-03-10T09:57:56</time>
      </trkpt>
      <trkpt lat="44.44135" lon="1.46984">
        <ele>265</ele>
        <time>2011-03-10T09:57:58</time>
      </trkpt>
      <trkpt lat="44.44137" lon="1.46988">
        <ele>265</ele>
        <time>2011-03-10T09:58:00</time>
      </trkpt>
      <trkpt lat="44.44137" lon="1.46995">
        <ele>265</ele>
        <time>2011-03-10T09:58:01</time>
      </trkpt>
      <trkpt lat="44.44137" lon="1.47003">
        <ele>265</ele>
        <time>2011-03-10T09:58:03</time>
      </trkpt>
      <trkpt lat="44.44137" lon="1.47007">
        <ele>265</ele>
        <time>2011-03-10T09:58:04</time>
      </trkpt>
      <trkpt lat="44.44139" lon="1.47016">
        <ele>265</ele>
        <time>2011-03-10T09:58:06</time>
      </trkpt>
      <trkpt lat="44.44141" lon="1.47021">
        <ele>265</ele>
        <time>2011-03-10T09:58:07</time>
      </trkpt>
      <trkpt lat="44.44142" lon="1.47024">
        <ele>265</ele>
        <time>2011-03-10T09:58:09</time>
      </trkpt>
      <trkpt lat="44.44145" lon="1.47031">
        <ele>265</ele>
        <time>2011-03-10T09:58:10</time>
      </trkpt>
      <trkpt lat="44.44147" lon="1.47034">
        <ele>265</ele>
        <time>2011-03-10T09:58:11</time>
      </trkpt>
      <trkpt lat="44.44151" lon="1.4704">
        <ele>265</ele>
        <time>2011-03-10T09:58:13</time>
      </trkpt>
      <trkpt lat="44.44153" lon="1.47043">
        <ele>263</ele>
        <time>2011-03-10T09:58:14</time>
      </trkpt>
      <trkpt lat="44.44157" lon="1.47048">
        <ele>263</ele>
        <time>2011-03-10T09:58:16</time>
      </trkpt>
      <trkpt lat="44.4416" lon="1.47051">
        <ele>263</ele>
        <time>2011-03-10T09:58:17</time>
      </trkpt>
      <trkpt lat="44.44164" lon="1.47055">
        <ele>263</ele>
        <time>2011-03-10T09:58:19</time>
      </trkpt>
      <trkpt lat="44.44166" lon="1.47058">
        <ele>263</ele>
        <time>2011-03-10T09:58:20</time>
      </trkpt>
      <trkpt lat="44.44169" lon="1.47063">
        <ele>263</ele>
        <time>2011-03-10T09:58:22</time>
      </trkpt>
      <trkpt lat="44.44171" lon="1.47066">
        <ele>263</ele>
        <time>2011-03-10T09:58:23</time>
      </trkpt>
      <trkpt lat="44.44174" lon="1.47072">
        <ele>263</ele>
        <time>2011-03-10T09:58:25</time>
      </trkpt>
      <trkpt lat="44.44175" lon="1.47076">
        <ele>263</ele>
        <time>2011-03-10T09:58:26</time>
      </trkpt>
      <trkpt lat="44.44178" lon="1.47084">
        <ele>263</ele>
        <time>2011-03-10T09:58:29</time>
      </trkpt>
      <trkpt lat="44.44179" lon="1.47087">
        <ele>263</ele>
        <time>2011-03-10T09:58:30</time>
      </trkpt>
      <trkpt lat="44.44182" lon="1.47096">
        <ele>263</ele>
        <time>2011-03-10T09:58:33</time>
      </trkpt>
      <trkpt lat="44.44184" lon="1.47102">
        <ele>263</ele>
        <time>2011-03-10T09:58:35</time>
      </trkpt>
      <trkpt lat="44.44185" lon="1.47107">
        <ele>263</ele>
        <time>2011-03-10T09:58:37</time>
      </trkpt>
      <trkpt lat="44.44184" lon="1.47112">
        <ele>263</ele>
        <time>2011-03-10T09:58:39</time>
      </trkpt>
      <trkpt lat="44.44184" lon="1.47116">
        <ele>263</ele>
        <time>2011-03-10T09:58:41</time>
      </trkpt>
      <trkpt lat="44.44184" lon="1.47121">
        <ele>263</ele>
        <time>2011-03-10T09:58:43</time>
      </trkpt>
      <trkpt lat="44.44184" lon="1.47124">
        <ele>263</ele>
        <time>2011-03-10T09:58:44</time>
      </trkpt>
      <trkpt lat="44.44184" lon="1.47128">
        <ele>261</ele>
        <time>2011-03-10T09:58:45</time>
      </trkpt>
      <trkpt lat="44.44184" lon="1.47132">
        <ele>261</ele>
        <time>2011-03-10T09:58:47</time>
      </trkpt>
      <trkpt lat="44.44183" lon="1.47135">
        <ele>261</ele>
        <time>2011-03-10T09:58:48</time>
      </trkpt>
      <trkpt lat="44.44183" lon="1.4714">
        <ele>261</ele>
        <time>2011-03-10T09:58:50</time>
      </trkpt>
      <trkpt lat="44.44183" lon="1.47143">
        <ele>261</ele>
        <time>2011-03-10T09:58:51</time>
      </trkpt>
      <trkpt lat="44.44183" lon="1.47147">
        <ele>261</ele>
        <time>2011-03-10T09:58:52</time>
      </trkpt>
      <trkpt lat="44.44183" lon="1.47155">
        <ele>261</ele>
        <time>2011-03-10T09:58:54</time>
      </trkpt>
      <trkpt lat="44.44183" lon="1.4716">
        <ele>261</ele>
        <time>2011-03-10T09:58:55</time>
      </trkpt>
      <trkpt lat="44.44182" lon="1.4717">
        <ele>261</ele>
        <time>2011-03-10T09:58:57</time>
      </trkpt>
      <trkpt lat="44.44182" lon="1.47175">
        <ele>261</ele>
        <time>2011-03-10T09:58:58</time>
      </trkpt>
      <trkpt lat="44.44183" lon="1.47185">
        <ele>261</ele>
        <time>2011-03-10T09:59:00</time>
      </trkpt>
      <trkpt lat="44.44184" lon="1.4719">
        <ele>261</ele>
        <time>2011-03-10T09:59:01</time>
      </trkpt>
      <trkpt lat="44.4419" lon="1.47198">
        <ele>261</ele>
        <time>2011-03-10T09:59:04</time>
      </trkpt>
      <trkpt lat="44.44197" lon="1.47204">
        <ele>261</ele>
        <time>2011-03-10T09:59:05</time>
      </trkpt>
      <trkpt lat="44.442" lon="1.47207">
        <ele>261</ele>
        <time>2011-03-10T09:59:06</time>
      </trkpt>
      <trkpt lat="44.44203" lon="1.47209">
        <ele>256</ele>
        <time>2011-03-10T09:59:07</time>
      </trkpt>
      <trkpt lat="44.4421" lon="1.47214">
        <ele>261</ele>
        <time>2011-03-10T09:59:09</time>
      </trkpt>
      <trkpt lat="44.44214" lon="1.47215">
        <ele>261</ele>
        <time>2011-03-10T09:59:10</time>
      </trkpt>
      <trkpt lat="44.44218" lon="1.47216">
        <ele>261</ele>
        <time>2011-03-10T09:59:12</time>
      </trkpt>
      <trkpt lat="44.44226" lon="1.47217">
        <ele>261</ele>
        <time>2011-03-10T09:59:13</time>
      </trkpt>
      <trkpt lat="44.4423" lon="1.47218">
        <ele>261</ele>
        <time>2011-03-10T09:59:14</time>
      </trkpt>
      <trkpt lat="44.44238" lon="1.47221">
        <ele>261</ele>
        <time>2011-03-10T09:59:16</time>
      </trkpt>
      <trkpt lat="44.44242" lon="1.47223">
        <ele>261</ele>
        <time>2011-03-10T09:59:17</time>
      </trkpt>
      <trkpt lat="44.44249" lon="1.47218">
        <ele>261</ele>
        <time>2011-03-10T09:59:19</time>
      </trkpt>
      <trkpt lat="44.44252" lon="1.47214">
        <ele>261</ele>
        <time>2011-03-10T09:59:21</time>
      </trkpt>
      <trkpt lat="44.44253" lon="1.47211">
        <ele>261</ele>
        <time>2011-03-10T09:59:22</time>
      </trkpt>
      <trkpt lat="44.44255" lon="1.47206">
        <ele>271</ele>
        <time>2011-03-10T09:59:24</time>
      </trkpt>
      <trkpt lat="44.44256" lon="1.47202">
        <ele>271</ele>
        <time>2011-03-10T09:59:26</time>
      </trkpt>
      <trkpt lat="44.44258" lon="1.47197">
        <ele>271</ele>
        <time>2011-03-10T09:59:28</time>
      </trkpt>
      <trkpt lat="44.44259" lon="1.47192">
        <ele>271</ele>
        <time>2011-03-10T09:59:30</time>
      </trkpt>
      <trkpt lat="44.44261" lon="1.47188">
        <ele>271</ele>
        <time>2011-03-10T09:59:32</time>
      </trkpt>
      <trkpt lat="44.44264" lon="1.47185">
        <ele>271</ele>
        <time>2011-03-10T09:59:34</time>
      </trkpt>
      <trkpt lat="44.44267" lon="1.47181">
        <ele>271</ele>
        <time>2011-03-10T09:59:36</time>
      </trkpt>
      <trkpt lat="44.44271" lon="1.47179">
        <ele>271</ele>
        <time>2011-03-10T09:59:38</time>
      </trkpt>
      <trkpt lat="44.44274" lon="1.47177">
        <ele>271</ele>
        <time>2011-03-10T09:59:40</time>
      </trkpt>
      <trkpt lat="44.44278" lon="1.47176">
        <ele>271</ele>
        <time>2011-03-10T09:59:42</time>
      </trkpt>
      <trkpt lat="44.44281" lon="1.47177">
        <ele>271</ele>
        <time>2011-03-10T09:59:44</time>
      </trkpt>
      <trkpt lat="44.44285" lon="1.47176">
        <ele>271</ele>
        <time>2011-03-10T09:59:46</time>
      </trkpt>
      <trkpt lat="44.44289" lon="1.47175">
        <ele>271</ele>
        <time>2011-03-10T09:59:48</time>
      </trkpt>
      <trkpt lat="44.44292" lon="1.47174">
        <ele>272</ele>
        <time>2011-03-10T09:59:50</time>
      </trkpt>
      <trkpt lat="44.44296" lon="1.47172">
        <ele>272</ele>
        <time>2011-03-10T09:59:52</time>
      </trkpt>
      <trkpt lat="44.44299" lon="1.47174">
        <ele>272</ele>
        <time>2011-03-10T09:59:54</time>
      </trkpt>
      <trkpt lat="44.44302" lon="1.47178">
        <ele>272</ele>
        <time>2011-03-10T09:59:56</time>
      </trkpt>
      <trkpt lat="44.44303" lon="1.4718">
        <ele>272</ele>
        <time>2011-03-10T09:59:57</time>
      </trkpt>
      <trkpt lat="44.44306" lon="1.47182">
        <ele>272</ele>
        <time>2011-03-10T09:59:58</time>
      </trkpt>
      <trkpt lat="44.4431" lon="1.47185">
        <ele>272</ele>
        <time>2011-03-10T10:00:00</time>
      </trkpt>
      <trkpt lat="44.44313" lon="1.47189">
        <ele>272</ele>
        <time>2011-03-10T10:00:02</time>
      </trkpt>
      <trkpt lat="44.44316" lon="1.47193">
        <ele>272</ele>
        <time>2011-03-10T10:00:04</time>
      </trkpt>
      <trkpt lat="44.4432" lon="1.47193">
        <ele>272</ele>
        <time>2011-03-10T10:00:06</time>
      </trkpt>
      <trkpt lat="44.44324" lon="1.47191">
        <ele>272</ele>
        <time>2011-03-10T10:00:08</time>
      </trkpt>
      <trkpt lat="44.44328" lon="1.47193">
        <ele>272</ele>
        <time>2011-03-10T10:00:10</time>
      </trkpt>
      <trkpt lat="44.44332" lon="1.47197">
        <ele>272</ele>
        <time>2011-03-10T10:00:12</time>
      </trkpt>
      <trkpt lat="44.44334" lon="1.47199">
        <ele>272</ele>
        <time>2011-03-10T10:00:13</time>
      </trkpt>
      <trkpt lat="44.44338" lon="1.47203">
        <ele>272</ele>
        <time>2011-03-10T10:00:15</time>
      </trkpt>
      <trkpt lat="44.4434" lon="1.47205">
        <ele>272</ele>
        <time>2011-03-10T10:00:16</time>
      </trkpt>
      <trkpt lat="44.44342" lon="1.47207">
        <ele>272</ele>
        <time>2011-03-10T10:00:18</time>
      </trkpt>
      <trkpt lat="44.44348" lon="1.47213">
        <ele>264</ele>
        <time>2011-03-10T10:00:20</time>
      </trkpt>
      <trkpt lat="44.44351" lon="1.47217">
        <ele>264</ele>
        <time>2011-03-10T10:00:22</time>
      </trkpt>
      <trkpt lat="44.44354" lon="1.47221">
        <ele>264</ele>
        <time>2011-03-10T10:00:24</time>
      </trkpt>
      <trkpt lat="44.44358" lon="1.47224">
        <ele>264</ele>
        <time>2011-03-10T10:00:26</time>
      </trkpt>
      <trkpt lat="44.44362" lon="1.47227">
        <ele>264</ele>
        <time>2011-03-10T10:00:28</time>
      </trkpt>
      <trkpt lat="44.44365" lon="1.47228">
        <ele>264</ele>
        <time>2011-03-10T10:00:29</time>
      </trkpt>
      <trkpt lat="44.44369" lon="1.4723">
        <ele>264</ele>
        <time>2011-03-10T10:00:31</time>
      </trkpt>
      <trkpt lat="44.44373" lon="1.47232">
        <ele>264</ele>
        <time>2011-03-10T10:00:33</time>
      </trkpt>
      <trkpt lat="44.44375" lon="1.47238">
        <ele>273</ele>
        <time>2011-03-10T10:00:35</time>
      </trkpt>
      <trkpt lat="44.44376" lon="1.47241">
        <ele>273</ele>
        <time>2011-03-10T10:00:37</time>
      </trkpt>
      <trkpt lat="44.44379" lon="1.47247">
        <ele>273</ele>
        <time>2011-03-10T10:00:38</time>
      </trkpt>
      <trkpt lat="44.44381" lon="1.47249">
        <ele>273</ele>
        <time>2011-03-10T10:00:40</time>
      </trkpt>
      <trkpt lat="44.44387" lon="1.4725">
        <ele>273</ele>
        <time>2011-03-10T10:00:42</time>
      </trkpt>
      <trkpt lat="44.44392" lon="1.47251">
        <ele>273</ele>
        <time>2011-03-10T10:00:44</time>
      </trkpt>
      <trkpt lat="44.44395" lon="1.47251">
        <ele>273</ele>
        <time>2011-03-10T10:00:45</time>
      </trkpt>
      <trkpt lat="44.44399" lon="1.47255">
        <ele>273</ele>
        <time>2011-03-10T10:00:47</time>
      </trkpt>
      <trkpt lat="44.44401" lon="1.47257">
        <ele>273</ele>
        <time>2011-03-10T10:00:48</time>
      </trkpt>
      <trkpt lat="44.44406" lon="1.47261">
        <ele>273</ele>
        <time>2011-03-10T10:00:50</time>
      </trkpt>
      <trkpt lat="44.44408" lon="1.47264">
        <ele>273</ele>
        <time>2011-03-10T10:00:51</time>
      </trkpt>
      <trkpt lat="44.44412" lon="1.4727">
        <ele>273</ele>
        <time>2011-03-10T10:00:53</time>
      </trkpt>
      <trkpt lat="44.44413" lon="1.47272">
        <ele>273</ele>
        <time>2011-03-10T10:00:54</time>
      </trkpt>
      <trkpt lat="44.44418" lon="1.47276">
        <ele>273</ele>
        <time>2011-03-10T10:00:56</time>
      </trkpt>
      <trkpt lat="44.4442" lon="1.47276">
        <ele>273</ele>
        <time>2011-03-10T10:00:57</time>
      </trkpt>
      <trkpt lat="44.44423" lon="1.47275">
        <ele>273</ele>
        <time>2011-03-10T10:00:59</time>
      </trkpt>
      <trkpt lat="44.44428" lon="1.47273">
        <ele>273</ele>
        <time>2011-03-10T10:01:00</time>
      </trkpt>
      <trkpt lat="44.4443" lon="1.47272">
        <ele>273</ele>
        <time>2011-03-10T10:01:02</time>
      </trkpt>
      <trkpt lat="44.44433" lon="1.47267">
        <ele>273</ele>
        <time>2011-03-10T10:01:03</time>
      </trkpt>
      <trkpt lat="44.44435" lon="1.47263">
        <ele>273</ele>
        <time>2011-03-10T10:01:04</time>
      </trkpt>
      <trkpt lat="44.44438" lon="1.47257">
        <ele>273</ele>
        <time>2011-03-10T10:01:06</time>
      </trkpt>
      <trkpt lat="44.44439" lon="1.47253">
        <ele>273</ele>
        <time>2011-03-10T10:01:07</time>
      </trkpt>
      <trkpt lat="44.4444" lon="1.47246">
        <ele>273</ele>
        <time>2011-03-10T10:01:09</time>
      </trkpt>
      <trkpt lat="44.44441" lon="1.47239">
        <ele>273</ele>
        <time>2011-03-10T10:01:11</time>
      </trkpt>
      <trkpt lat="44.44442" lon="1.47235">
        <ele>273</ele>
        <time>2011-03-10T10:01:12</time>
      </trkpt>
      <trkpt lat="44.44443" lon="1.47232">
        <ele>273</ele>
        <time>2011-03-10T10:01:13</time>
      </trkpt>
      <trkpt lat="44.44447" lon="1.47224">
        <ele>273</ele>
        <time>2011-03-10T10:01:16</time>
      </trkpt>
      <trkpt lat="44.44449" lon="1.47222">
        <ele>273</ele>
        <time>2011-03-10T10:01:17</time>
      </trkpt>
      <trkpt lat="44.44453" lon="1.47218">
        <ele>273</ele>
        <time>2011-03-10T10:01:19</time>
      </trkpt>
      <trkpt lat="44.44456" lon="1.47213">
        <ele>273</ele>
        <time>2011-03-10T10:01:21</time>
      </trkpt>
      <trkpt lat="44.44457" lon="1.47209">
        <ele>273</ele>
        <time>2011-03-10T10:01:23</time>
      </trkpt>
      <trkpt lat="44.44457" lon="1.47206">
        <ele>273</ele>
        <time>2011-03-10T10:01:26</time>
      </trkpt>
      <trkpt lat="44.44453" lon="1.47203">
        <ele>273</ele>
        <time>2011-03-10T10:01:28</time>
      </trkpt>
      <trkpt lat="44.4445" lon="1.47201">
        <ele>273</ele>
        <time>2011-03-10T10:01:31</time>
      </trkpt>
      <trkpt lat="44.44446" lon="1.47199">
        <ele>273</ele>
        <time>2011-03-10T10:01:32</time>
      </trkpt>
      <trkpt lat="44.44442" lon="1.47196">
        <ele>273</ele>
        <time>2011-03-10T10:01:35</time>
      </trkpt>
      <trkpt lat="44.44438" lon="1.47194">
        <ele>273</ele>
        <time>2011-03-10T10:01:36</time>
      </trkpt>
      <trkpt lat="44.44434" lon="1.47191">
        <ele>273</ele>
        <time>2011-03-10T10:01:38</time>
      </trkpt>
      <trkpt lat="44.44429" lon="1.47188">
        <ele>273</ele>
        <time>2011-03-10T10:01:40</time>
      </trkpt>
      <trkpt lat="44.44427" lon="1.47186">
        <ele>273</ele>
        <time>2011-03-10T10:01:41</time>
      </trkpt>
      <trkpt lat="44.44425" lon="1.47184">
        <ele>273</ele>
        <time>2011-03-10T10:01:43</time>
      </trkpt>
      <trkpt lat="44.4442" lon="1.47179">
        <ele>273</ele>
        <time>2011-03-10T10:01:44</time>
      </trkpt>
      <trkpt lat="44.44418" lon="1.47177">
        <ele>273</ele>
        <time>2011-03-10T10:01:46</time>
      </trkpt>
      <trkpt lat="44.44413" lon="1.47171">
        <ele>273</ele>
        <time>2011-03-10T10:01:47</time>
      </trkpt>
      <trkpt lat="44.44411" lon="1.47169">
        <ele>273</ele>
        <time>2011-03-10T10:01:48</time>
      </trkpt>
      <trkpt lat="44.44406" lon="1.47163">
        <ele>273</ele>
        <time>2011-03-10T10:01:50</time>
      </trkpt>
      <trkpt lat="44.44403" lon="1.47161">
        <ele>273</ele>
        <time>2011-03-10T10:01:51</time>
      </trkpt>
      <trkpt lat="44.44398" lon="1.47155">
        <ele>273</ele>
        <time>2011-03-10T10:01:53</time>
      </trkpt>
      <trkpt lat="44.44396" lon="1.47152">
        <ele>273</ele>
        <time>2011-03-10T10:01:54</time>
      </trkpt>
      <trkpt lat="44.4439" lon="1.47145">
        <ele>273</ele>
        <time>2011-03-10T10:01:56</time>
      </trkpt>
      <trkpt lat="44.44387" lon="1.47142">
        <ele>273</ele>
        <time>2011-03-10T10:01:57</time>
      </trkpt>
      <trkpt lat="44.44381" lon="1.47134">
        <ele>273</ele>
        <time>2011-03-10T10:01:59</time>
      </trkpt>
      <trkpt lat="44.44378" lon="1.47131">
        <ele>273</ele>
        <time>2011-03-10T10:02:00</time>
      </trkpt>
      <trkpt lat="44.44375" lon="1.47127">
        <ele>273</ele>
        <time>2011-03-10T10:02:02</time>
      </trkpt>
      <trkpt lat="44.44369" lon="1.47119">
        <ele>275</ele>
        <time>2011-03-10T10:02:03</time>
      </trkpt>
      <trkpt lat="44.44365" lon="1.47115">
        <ele>275</ele>
        <time>2011-03-10T10:02:05</time>
      </trkpt>
      <trkpt lat="44.44358" lon="1.47107">
        <ele>275</ele>
        <time>2011-03-10T10:02:06</time>
      </trkpt>
      <trkpt lat="44.44355" lon="1.47103">
        <ele>275</ele>
        <time>2011-03-10T10:02:08</time>
      </trkpt>
      <trkpt lat="44.44348" lon="1.47095">
        <ele>275</ele>
        <time>2011-03-10T10:02:09</time>
      </trkpt>
      <trkpt lat="44.44344" lon="1.47091">
        <ele>275</ele>
        <time>2011-03-10T10:02:10</time>
      </trkpt>
      <trkpt lat="44.44335" lon="1.47084">
        <ele>275</ele>
        <time>2011-03-10T10:02:12</time>
      </trkpt>
      <trkpt lat="44.44331" lon="1.4708">
        <ele>275</ele>
        <time>2011-03-10T10:02:13</time>
      </trkpt>
      <trkpt lat="44.44321" lon="1.47072">
        <ele>275</ele>
        <time>2011-03-10T10:02:15</time>
      </trkpt>
      <trkpt lat="44.44316" lon="1.47068">
        <ele>275</ele>
        <time>2011-03-10T10:02:16</time>
      </trkpt>
      <trkpt lat="44.44305" lon="1.47061">
        <ele>275</ele>
        <time>2011-03-10T10:02:18</time>
      </trkpt>
      <trkpt lat="44.443" lon="1.47057">
        <ele>275</ele>
        <time>2011-03-10T10:02:19</time>
      </trkpt>
      <trkpt lat="44.44288" lon="1.4705">
        <ele>273</ele>
        <time>2011-03-10T10:02:21</time>
      </trkpt>
      <trkpt lat="44.44283" lon="1.47047">
        <ele>273</ele>
        <time>2011-03-10T10:02:22</time>
      </trkpt>
      <trkpt lat="44.44278" lon="1.47043">
        <ele>273</ele>
        <time>2011-03-10T10:02:24</time>
      </trkpt>
      <trkpt lat="44.44267" lon="1.47037">
        <ele>270</ele>
        <time>2011-03-10T10:02:25</time>
      </trkpt>
      <trkpt lat="44.44262" lon="1.47034">
        <ele>270</ele>
        <time>2011-03-10T10:02:27</time>
      </trkpt>
      <trkpt lat="44.44251" lon="1.47027">
        <ele>270</ele>
        <time>2011-03-10T10:02:28</time>
      </trkpt>
      <trkpt lat="44.44245" lon="1.47023">
        <ele>270</ele>
        <time>2011-03-10T10:02:30</time>
      </trkpt>
      <trkpt lat="44.44235" lon="1.47014">
        <ele>270</ele>
        <time>2011-03-10T10:02:31</time>
      </trkpt>
      <trkpt lat="44.44229" lon="1.4701">
        <ele>270</ele>
        <time>2011-03-10T10:02:32</time>
      </trkpt>
      <trkpt lat="44.44218" lon="1.47">
        <ele>270</ele>
        <time>2011-03-10T10:02:34</time>
      </trkpt>
      <trkpt lat="44.44212" lon="1.46995">
        <ele>270</ele>
        <time>2011-03-10T10:02:35</time>
      </trkpt>
      <trkpt lat="44.44199" lon="1.46985">
        <ele>265</ele>
        <time>2011-03-10T10:02:37</time>
      </trkpt>
      <trkpt lat="44.44193" lon="1.4698">
        <ele>265</ele>
        <time>2011-03-10T10:02:38</time>
      </trkpt>
      <trkpt lat="44.44182" lon="1.4697">
        <ele>265</ele>
        <time>2011-03-10T10:02:40</time>
      </trkpt>
      <trkpt lat="44.44176" lon="1.46965">
        <ele>265</ele>
        <time>2011-03-10T10:02:41</time>
      </trkpt>
      <trkpt lat="44.44165" lon="1.46956">
        <ele>267</ele>
        <time>2011-03-10T10:02:43</time>
      </trkpt>
      <trkpt lat="44.4416" lon="1.4695">
        <ele>267</ele>
        <time>2011-03-10T10:02:44</time>
      </trkpt>
      <trkpt lat="44.44156" lon="1.46945">
        <ele>267</ele>
        <time>2011-03-10T10:02:46</time>
      </trkpt>
      <trkpt lat="44.44146" lon="1.46933">
        <ele>267</ele>
        <time>2011-03-10T10:02:47</time>
      </trkpt>
      <trkpt lat="44.44142" lon="1.46927">
        <ele>267</ele>
        <time>2011-03-10T10:02:49</time>
      </trkpt>
      <trkpt lat="44.44133" lon="1.46913">
        <ele>267</ele>
        <time>2011-03-10T10:02:50</time>
      </trkpt>
      <trkpt lat="44.44129" lon="1.46906">
        <ele>267</ele>
        <time>2011-03-10T10:02:52</time>
      </trkpt>
      <trkpt lat="44.44122" lon="1.46893">
        <ele>266</ele>
        <time>2011-03-10T10:02:53</time>
      </trkpt>
      <trkpt lat="44.44119" lon="1.46888">
        <ele>266</ele>
        <time>2011-03-10T10:02:54</time>
      </trkpt>
      <trkpt lat="44.44118" lon="1.46876">
        <ele>266</ele>
        <time>2011-03-10T10:02:56</time>
      </trkpt>
      <trkpt lat="44.44121" lon="1.46871">
        <ele>271</ele>
        <time>2011-03-10T10:02:57</time>
      </trkpt>
      <trkpt lat="44.44126" lon="1.4686">
        <ele>267</ele>
        <time>2011-03-10T10:02:59</time>
      </trkpt>
      <trkpt lat="44.44129" lon="1.46855">
        <ele>267</ele>
        <time>2011-03-10T10:03:00</time>
      </trkpt>
      <trkpt lat="44.44135" lon="1.46846">
        <ele>267</ele>
        <time>2011-03-10T10:03:02</time>
      </trkpt>
      <trkpt lat="44.44138" lon="1.46841">
        <ele>267</ele>
        <time>2011-03-10T10:03:03</time>
      </trkpt>
      <trkpt lat="44.44145" lon="1.46832">
        <ele>267</ele>
        <time>2011-03-10T10:03:05</time>
      </trkpt>
      <trkpt lat="44.44149" lon="1.46828">
        <ele>267</ele>
        <time>2011-03-10T10:03:06</time>
      </trkpt>
      <trkpt lat="44.44153" lon="1.46824">
        <ele>267</ele>
        <time>2011-03-10T10:03:08</time>
      </trkpt>
      <trkpt lat="44.44157" lon="1.46811">
        <ele>267</ele>
        <time>2011-03-10T10:03:09</time>
      </trkpt>
      <trkpt lat="44.44157" lon="1.46803">
        <ele>267</ele>
        <time>2011-03-10T10:03:10</time>
      </trkpt>
      <trkpt lat="44.44158" lon="1.46784">
        <ele>267</ele>
        <time>2011-03-10T10:03:12</time>
      </trkpt>
      <trkpt lat="44.44159" lon="1.46766">
        <ele>267</ele>
        <time>2011-03-10T10:03:14</time>
      </trkpt>
      <trkpt lat="44.4416" lon="1.46747">
        <ele>267</ele>
        <time>2011-03-10T10:03:16</time>
      </trkpt>
      <trkpt lat="44.44158" lon="1.4673">
        <ele>267</ele>
        <time>2011-03-10T10:03:18</time>
      </trkpt>
      <trkpt lat="44.44158" lon="1.46723">
        <ele>267</ele>
        <time>2011-03-10T10:03:19</time>
      </trkpt>
      <trkpt lat="44.44163" lon="1.4671">
        <ele>267</ele>
        <time>2011-03-10T10:03:21</time>
      </trkpt>
      <trkpt lat="44.44167" lon="1.46704">
        <ele>268</ele>
        <time>2011-03-10T10:03:22</time>
      </trkpt>
      <trkpt lat="44.44172" lon="1.46698">
        <ele>268</ele>
        <time>2011-03-10T10:03:23</time>
      </trkpt>
      <trkpt lat="44.44181" lon="1.46689">
        <ele>268</ele>
        <time>2011-03-10T10:03:25</time>
      </trkpt>
      <trkpt lat="44.44186" lon="1.46675">
        <ele>268</ele>
        <time>2011-03-10T10:03:27</time>
      </trkpt>
      <trkpt lat="44.4419" lon="1.4666">
        <ele>268</ele>
        <time>2011-03-10T10:03:29</time>
      </trkpt>
      <trkpt lat="44.44194" lon="1.46646">
        <ele>268</ele>
        <time>2011-03-10T10:03:31</time>
      </trkpt>
      <trkpt lat="44.44195" lon="1.4664">
        <ele>268</ele>
        <time>2011-03-10T10:03:33</time>
      </trkpt>
      <trkpt lat="44.44198" lon="1.4663">
        <ele>268</ele>
        <time>2011-03-10T10:03:34</time>
      </trkpt>
      <trkpt lat="44.44199" lon="1.46625">
        <ele>268</ele>
        <time>2011-03-10T10:03:36</time>
      </trkpt>
      <trkpt lat="44.442" lon="1.46617">
        <ele>267</ele>
        <time>2011-03-10T10:03:37</time>
      </trkpt>
      <trkpt lat="44.44201" lon="1.46614">
        <ele>267</ele>
        <time>2011-03-10T10:03:38</time>
      </trkpt>
      <trkpt lat="44.44201" lon="1.46606">
        <ele>267</ele>
        <time>2011-03-10T10:03:40</time>
      </trkpt>
      <trkpt lat="44.44201" lon="1.46603">
        <ele>267</ele>
        <time>2011-03-10T10:03:41</time>
      </trkpt>
      <trkpt lat="44.44201" lon="1.46595">
        <ele>267</ele>
        <time>2011-03-10T10:03:43</time>
      </trkpt>
      <trkpt lat="44.44202" lon="1.46591">
        <ele>267</ele>
        <time>2011-03-10T10:03:44</time>
      </trkpt>
      <trkpt lat="44.44204" lon="1.46585">
        <ele>267</ele>
        <time>2011-03-10T10:03:46</time>
      </trkpt>
      <trkpt lat="44.44206" lon="1.46581">
        <ele>267</ele>
        <time>2011-03-10T10:03:47</time>
      </trkpt>
      <trkpt lat="44.44208" lon="1.46577">
        <ele>267</ele>
        <time>2011-03-10T10:03:49</time>
      </trkpt>
      <trkpt lat="44.44212" lon="1.4657">
        <ele>260</ele>
        <time>2011-03-10T10:03:50</time>
      </trkpt>
      <trkpt lat="44.44214" lon="1.46566">
        <ele>260</ele>
        <time>2011-03-10T10:03:52</time>
      </trkpt>
      <trkpt lat="44.44218" lon="1.46559">
        <ele>260</ele>
        <time>2011-03-10T10:03:53</time>
      </trkpt>
      <trkpt lat="44.4422" lon="1.46555">
        <ele>260</ele>
        <time>2011-03-10T10:03:55</time>
      </trkpt>
      <trkpt lat="44.44224" lon="1.46548">
        <ele>260</ele>
        <time>2011-03-10T10:03:56</time>
      </trkpt>
      <trkpt lat="44.44226" lon="1.46545">
        <ele>260</ele>
        <time>2011-03-10T10:03:58</time>
      </trkpt>
      <trkpt lat="44.44229" lon="1.46537">
        <ele>268</ele>
        <time>2011-03-10T10:03:59</time>
      </trkpt>
      <trkpt lat="44.4423" lon="1.46534">
        <ele>268</ele>
        <time>2011-03-10T10:04:00</time>
      </trkpt>
      <trkpt lat="44.44232" lon="1.46528">
        <ele>268</ele>
        <time>2011-03-10T10:04:02</time>
      </trkpt>
      <trkpt lat="44.44233" lon="1.46525">
        <ele>268</ele>
        <time>2011-03-10T10:04:03</time>
      </trkpt>
      <trkpt lat="44.44236" lon="1.46518">
        <ele>268</ele>
        <time>2011-03-10T10:04:05</time>
      </trkpt>
      <trkpt lat="44.44237" lon="1.46515">
        <ele>268</ele>
        <time>2011-03-10T10:04:06</time>
      </trkpt>
      <trkpt lat="44.4424" lon="1.46507">
        <ele>268</ele>
        <time>2011-03-10T10:04:09</time>
      </trkpt>
      <trkpt lat="44.44243" lon="1.46502">
        <ele>268</ele>
        <time>2011-03-10T10:04:11</time>
      </trkpt>
      <trkpt lat="44.44245" lon="1.46499">
        <ele>268</ele>
        <time>2011-03-10T10:04:12</time>
      </trkpt>
      <trkpt lat="44.44247" lon="1.46496">
        <ele>268</ele>
        <time>2011-03-10T10:04:14</time>
      </trkpt>
      <trkpt lat="44.44251" lon="1.46491">
        <ele>268</ele>
        <time>2011-03-10T10:04:15</time>
      </trkpt>
      <trkpt lat="44.44253" lon="1.46487">
        <ele>268</ele>
        <time>2011-03-10T10:04:17</time>
      </trkpt>
      <trkpt lat="44.44255" lon="1.4648">
        <ele>268</ele>
        <time>2011-03-10T10:04:18</time>
      </trkpt>
      <trkpt lat="44.44257" lon="1.46475">
        <ele>268</ele>
        <time>2011-03-10T10:04:20</time>
      </trkpt>
      <trkpt lat="44.4426" lon="1.46467">
        <ele>268</ele>
        <time>2011-03-10T10:04:21</time>
      </trkpt>
      <trkpt lat="44.44261" lon="1.46464">
        <ele>268</ele>
        <time>2011-03-10T10:04:22</time>
      </trkpt>
      <trkpt lat="44.44264" lon="1.46456">
        <ele>270</ele>
        <time>2011-03-10T10:04:24</time>
      </trkpt>
      <trkpt lat="44.44265" lon="1.46451">
        <ele>270</ele>
        <time>2011-03-10T10:04:25</time>
      </trkpt>
      <trkpt lat="44.44267" lon="1.46443">
        <ele>270</ele>
        <time>2011-03-10T10:04:27</time>
      </trkpt>
      <trkpt lat="44.44268" lon="1.4644">
        <ele>270</ele>
        <time>2011-03-10T10:04:28</time>
      </trkpt>
      <trkpt lat="44.4427" lon="1.46434">
        <ele>270</ele>
        <time>2011-03-10T10:04:30</time>
      </trkpt>
      <trkpt lat="44.44271" lon="1.4643">
        <ele>270</ele>
        <time>2011-03-10T10:04:33</time>
      </trkpt>
      <trkpt lat="44.44272" lon="1.46426">
        <ele>270</ele>
        <time>2011-03-10T10:04:34</time>
      </trkpt>
      <trkpt lat="44.44273" lon="1.46422">
        <ele>270</ele>
        <time>2011-03-10T10:04:36</time>
      </trkpt>
      <trkpt lat="44.44273" lon="1.46417">
        <ele>270</ele>
        <time>2011-03-10T10:04:39</time>
      </trkpt>
      <trkpt lat="44.44273" lon="1.46412">
        <ele>270</ele>
        <time>2011-03-10T10:04:40</time>
      </trkpt>
      <trkpt lat="44.44273" lon="1.46407">
        <ele>270</ele>
        <time>2011-03-10T10:04:42</time>
      </trkpt>
      <trkpt lat="44.44273" lon="1.46402">
        <ele>270</ele>
        <time>2011-03-10T10:04:44</time>
      </trkpt>
      <trkpt lat="44.44273" lon="1.46396">
        <ele>270</ele>
        <time>2011-03-10T10:04:46</time>
      </trkpt>
      <trkpt lat="44.44266" lon="1.46395">
        <ele>270</ele>
        <time>2011-03-10T10:04:50</time>
      </trkpt>
      <trkpt lat="44.44264" lon="1.46403">
        <ele>270</ele>
        <time>2011-03-10T10:04:52</time>
      </trkpt>
      <trkpt lat="44.44262" lon="1.46407">
        <ele>270</ele>
        <time>2011-03-10T10:04:53</time>
      </trkpt>
      <trkpt lat="44.44261" lon="1.46411">
        <ele>270</ele>
        <time>2011-03-10T10:04:55</time>
      </trkpt>
      <trkpt lat="44.44259" lon="1.4642">
        <ele>270</ele>
        <time>2011-03-10T10:04:56</time>
      </trkpt>
      <trkpt lat="44.44258" lon="1.46424">
        <ele>270</ele>
        <time>2011-03-10T10:04:58</time>
      </trkpt>
      <trkpt lat="44.44255" lon="1.46433">
        <ele>270</ele>
        <time>2011-03-10T10:04:59</time>
      </trkpt>
      <trkpt lat="44.44254" lon="1.46438">
        <ele>270</ele>
        <time>2011-03-10T10:05:01</time>
      </trkpt>
      <trkpt lat="44.4425" lon="1.46448">
        <ele>270</ele>
        <time>2011-03-10T10:05:02</time>
      </trkpt>
      <trkpt lat="44.44247" lon="1.46452">
        <ele>270</ele>
        <time>2011-03-10T10:05:03</time>
      </trkpt>
      <trkpt lat="44.44242" lon="1.46461">
        <ele>268</ele>
        <time>2011-03-10T10:05:05</time>
      </trkpt>
      <trkpt lat="44.4424" lon="1.46465">
        <ele>268</ele>
        <time>2011-03-10T10:05:06</time>
      </trkpt>
      <trkpt lat="44.44234" lon="1.46476">
        <ele>268</ele>
        <time>2011-03-10T10:05:08</time>
      </trkpt>
      <trkpt lat="44.44232" lon="1.46481">
        <ele>268</ele>
        <time>2011-03-10T10:05:09</time>
      </trkpt>
      <trkpt lat="44.44227" lon="1.4649">
        <ele>268</ele>
        <time>2011-03-10T10:05:13</time>
      </trkpt>
      <trkpt lat="44.44225" lon="1.46488">
        <ele>268</ele>
        <time>2011-03-10T10:05:15</time>
      </trkpt>
      <trkpt lat="44.44222" lon="1.46486">
        <ele>268</ele>
        <time>2011-03-10T10:05:17</time>
      </trkpt>
      <trkpt lat="44.44217" lon="1.46481">
        <ele>268</ele>
        <time>2011-03-10T10:05:18</time>
      </trkpt>
      <trkpt lat="44.44216" lon="1.46476">
        <ele>268</ele>
        <time>2011-03-10T10:05:20</time>
      </trkpt>
      <trkpt lat="44.44217" lon="1.46473">
        <ele>268</ele>
        <time>2011-03-10T10:05:21</time>
      </trkpt>
      <trkpt lat="44.44219" lon="1.46467">
        <ele>268</ele>
        <time>2011-03-10T10:05:23</time>
      </trkpt>
      <trkpt lat="44.4422" lon="1.46461">
        <ele>268</ele>
        <time>2011-03-10T10:05:25</time>
      </trkpt>
      <trkpt lat="44.44221" lon="1.46458">
        <ele>270</ele>
        <time>2011-03-10T10:05:26</time>
      </trkpt>
      <trkpt lat="44.44221" lon="1.46454">
        <ele>270</ele>
        <time>2011-03-10T10:05:27</time>
      </trkpt>
      <trkpt lat="44.44222" lon="1.46451">
        <ele>270</ele>
        <time>2011-03-10T10:05:28</time>
      </trkpt>
      <trkpt lat="44.44223" lon="1.46447">
        <ele>270</ele>
        <time>2011-03-10T10:05:29</time>
      </trkpt>
      <trkpt lat="44.44225" lon="1.4644">
        <ele>270</ele>
        <time>2011-03-10T10:05:31</time>
      </trkpt>
      <trkpt lat="44.44226" lon="1.46433">
        <ele>270</ele>
        <time>2011-03-10T10:05:33</time>
      </trkpt>
      <trkpt lat="44.44226" lon="1.4643">
        <ele>270</ele>
        <time>2011-03-10T10:05:34</time>
      </trkpt>
      <trkpt lat="44.44227" lon="1.46427">
        <ele>270</ele>
        <time>2011-03-10T10:05:36</time>
      </trkpt>
      <trkpt lat="44.44227" lon="1.4642">
        <ele>270</ele>
        <time>2011-03-10T10:05:37</time>
      </trkpt>
      <trkpt lat="44.44226" lon="1.46416">
        <ele>270</ele>
        <time>2011-03-10T10:05:39</time>
      </trkpt>
      <trkpt lat="44.44225" lon="1.46407">
        <ele>270</ele>
        <time>2011-03-10T10:05:40</time>
      </trkpt>
      <trkpt lat="44.44225" lon="1.46402">
        <ele>270</ele>
        <time>2011-03-10T10:05:42</time>
      </trkpt>
      <trkpt lat="44.44227" lon="1.4639">
        <ele>270</ele>
        <time>2011-03-10T10:05:43</time>
      </trkpt>
      <trkpt lat="44.44228" lon="1.46385">
        <ele>270</ele>
        <time>2011-03-10T10:05:45</time>
      </trkpt>
      <trkpt lat="44.44229" lon="1.46375">
        <ele>268</ele>
        <time>2011-03-10T10:05:46</time>
      </trkpt>
      <trkpt lat="44.44229" lon="1.4637">
        <ele>268</ele>
        <time>2011-03-10T10:05:48</time>
      </trkpt>
      <trkpt lat="44.44229" lon="1.46359">
        <ele>268</ele>
        <time>2011-03-10T10:05:49</time>
      </trkpt>
      <trkpt lat="44.4423" lon="1.46354">
        <ele>268</ele>
        <time>2011-03-10T10:05:50</time>
      </trkpt>
      <trkpt lat="44.4423" lon="1.46342">
        <ele>268</ele>
        <time>2011-03-10T10:05:52</time>
      </trkpt>
      <trkpt lat="44.4423" lon="1.46336">
        <ele>268</ele>
        <time>2011-03-10T10:05:53</time>
      </trkpt>
      <trkpt lat="44.4423" lon="1.46324">
        <ele>268</ele>
        <time>2011-03-10T10:05:55</time>
      </trkpt>
      <trkpt lat="44.44231" lon="1.46317">
        <ele>268</ele>
        <time>2011-03-10T10:05:56</time>
      </trkpt>
      <trkpt lat="44.44231" lon="1.46311">
        <ele>268</ele>
        <time>2011-03-10T10:05:58</time>
      </trkpt>
      <trkpt lat="44.44232" lon="1.46298">
        <ele>268</ele>
        <time>2011-03-10T10:05:59</time>
      </trkpt>
      <trkpt lat="44.44231" lon="1.4629">
        <ele>261</ele>
        <time>2011-03-10T10:06:01</time>
      </trkpt>
      <trkpt lat="44.44228" lon="1.46273">
        <ele>261</ele>
        <time>2011-03-10T10:06:02</time>
      </trkpt>
      <trkpt lat="44.44226" lon="1.46265">
        <ele>261</ele>
        <time>2011-03-10T10:06:04</time>
      </trkpt>
      <trkpt lat="44.44223" lon="1.46248">
        <ele>261</ele>
        <time>2011-03-10T10:06:05</time>
      </trkpt>
      <trkpt lat="44.44221" lon="1.4624">
        <ele>261</ele>
        <time>2011-03-10T10:06:07</time>
      </trkpt>
      <trkpt lat="44.44217" lon="1.46224">
        <ele>261</ele>
        <time>2011-03-10T10:06:08</time>
      </trkpt>
      <trkpt lat="44.44215" lon="1.46217">
        <ele>261</ele>
        <time>2011-03-10T10:06:10</time>
      </trkpt>
      <trkpt lat="44.4421" lon="1.46201">
        <ele>257</ele>
        <time>2011-03-10T10:06:11</time>
      </trkpt>
      <trkpt lat="44.44208" lon="1.46192">
        <ele>241</ele>
        <time>2011-03-10T10:06:12</time>
      </trkpt>
      <trkpt lat="44.44205" lon="1.46175">
        <ele>241</ele>
        <time>2011-03-10T10:06:14</time>
      </trkpt>
      <trkpt lat="44.44204" lon="1.46166">
        <ele>241</ele>
        <time>2011-03-10T10:06:15</time>
      </trkpt>
      <trkpt lat="44.44201" lon="1.46148">
        <ele>241</ele>
        <time>2011-03-10T10:06:17</time>
      </trkpt>
      <trkpt lat="44.442" lon="1.46138">
        <ele>241</ele>
        <time>2011-03-10T10:06:18</time>
      </trkpt>
      <trkpt lat="44.44198" lon="1.46129">
        <ele>241</ele>
        <time>2011-03-10T10:06:20</time>
      </trkpt>
      <trkpt lat="44.44193" lon="1.4611">
        <ele>247</ele>
        <time>2011-03-10T10:06:21</time>
      </trkpt>
      <trkpt lat="44.44191" lon="1.46102">
        <ele>247</ele>
        <time>2011-03-10T10:06:23</time>
      </trkpt>
      <trkpt lat="44.44186" lon="1.46085">
        <ele>247</ele>
        <time>2011-03-10T10:06:24</time>
      </trkpt>
      <trkpt lat="44.44183" lon="1.46077">
        <ele>247</ele>
        <time>2011-03-10T10:06:26</time>
      </trkpt>
      <trkpt lat="44.44178" lon="1.46064">
        <ele>247</ele>
        <time>2011-03-10T10:06:27</time>
      </trkpt>
      <trkpt lat="44.44174" lon="1.46059">
        <ele>247</ele>
        <time>2011-03-10T10:06:29</time>
      </trkpt>
      <trkpt lat="44.44166" lon="1.46048">
        <ele>247</ele>
        <time>2011-03-10T10:06:30</time>
      </trkpt>
      <trkpt lat="44.44163" lon="1.46042">
        <ele>256</ele>
        <time>2011-03-10T10:06:31</time>
      </trkpt>
      <trkpt lat="44.44159" lon="1.46029">
        <ele>256</ele>
        <time>2011-03-10T10:06:33</time>
      </trkpt>
      <trkpt lat="44.44157" lon="1.46024">
        <ele>256</ele>
        <time>2011-03-10T10:06:34</time>
      </trkpt>
      <trkpt lat="44.44152" lon="1.46015">
        <ele>256</ele>
        <time>2011-03-10T10:06:36</time>
      </trkpt>
      <trkpt lat="44.44149" lon="1.46011">
        <ele>256</ele>
        <time>2011-03-10T10:06:37</time>
      </trkpt>
      <trkpt lat="44.44145" lon="1.45999">
        <ele>256</ele>
        <time>2011-03-10T10:06:39</time>
      </trkpt>
      <trkpt lat="44.44142" lon="1.45994">
        <ele>256</ele>
        <time>2011-03-10T10:06:40</time>
      </trkpt>
      <trkpt lat="44.4414" lon="1.45988">
        <ele>256</ele>
        <time>2011-03-10T10:06:42</time>
      </trkpt>
      <trkpt lat="44.44135" lon="1.45974">
        <ele>256</ele>
        <time>2011-03-10T10:06:43</time>
      </trkpt>
      <trkpt lat="44.44133" lon="1.45967">
        <ele>256</ele>
        <time>2011-03-10T10:06:45</time>
      </trkpt>
      <trkpt lat="44.44131" lon="1.45953">
        <ele>257</ele>
        <time>2011-03-10T10:06:46</time>
      </trkpt>
      <trkpt lat="44.44131" lon="1.45946">
        <ele>257</ele>
        <time>2011-03-10T10:06:48</time>
      </trkpt>
      <trkpt lat="44.44131" lon="1.45935">
        <ele>257</ele>
        <time>2011-03-10T10:06:49</time>
      </trkpt>
      <trkpt lat="44.44133" lon="1.4593">
        <ele>257</ele>
        <time>2011-03-10T10:06:51</time>
      </trkpt>
      <trkpt lat="44.44136" lon="1.45919">
        <ele>257</ele>
        <time>2011-03-10T10:06:52</time>
      </trkpt>
      <trkpt lat="44.44137" lon="1.45913">
        <ele>257</ele>
        <time>2011-03-10T10:06:54</time>
      </trkpt>
      <trkpt lat="44.44141" lon="1.459">
        <ele>257</ele>
        <time>2011-03-10T10:06:55</time>
      </trkpt>
      <trkpt lat="44.44143" lon="1.45894">
        <ele>257</ele>
        <time>2011-03-10T10:06:56</time>
      </trkpt>
      <trkpt lat="44.44148" lon="1.45881">
        <ele>257</ele>
        <time>2011-03-10T10:06:58</time>
      </trkpt>
      <trkpt lat="44.44151" lon="1.45875">
        <ele>253</ele>
        <time>2011-03-10T10:06:59</time>
      </trkpt>
      <trkpt lat="44.44157" lon="1.45863">
        <ele>253</ele>
        <time>2011-03-10T10:07:01</time>
      </trkpt>
      <trkpt lat="44.44159" lon="1.45859">
        <ele>253</ele>
        <time>2011-03-10T10:07:02</time>
      </trkpt>
      <trkpt lat="44.44162" lon="1.45854">
        <ele>253</ele>
        <time>2011-03-10T10:07:04</time>
      </trkpt>
      <trkpt lat="44.44168" lon="1.45847">
        <ele>253</ele>
        <time>2011-03-10T10:07:05</time>
      </trkpt>
      <trkpt lat="44.4417" lon="1.45843">
        <ele>253</ele>
        <time>2011-03-10T10:07:07</time>
      </trkpt>
      <trkpt lat="44.44175" lon="1.45837">
        <ele>253</ele>
        <time>2011-03-10T10:07:09</time>
      </trkpt>
      <trkpt lat="44.44179" lon="1.45832">
        <ele>253</ele>
        <time>2011-03-10T10:07:10</time>
      </trkpt>
      <trkpt lat="44.44181" lon="1.45829">
        <ele>253</ele>
        <time>2011-03-10T10:07:11</time>
      </trkpt>
      <trkpt lat="44.44183" lon="1.45826">
        <ele>253</ele>
        <time>2011-03-10T10:07:13</time>
      </trkpt>
      <trkpt lat="44.44185" lon="1.4582">
        <ele>253</ele>
        <time>2011-03-10T10:07:14</time>
      </trkpt>
      <trkpt lat="44.44186" lon="1.45816">
        <ele>253</ele>
        <time>2011-03-10T10:07:15</time>
      </trkpt>
      <trkpt lat="44.44188" lon="1.45806">
        <ele>253</ele>
        <time>2011-03-10T10:07:17</time>
      </trkpt>
      <trkpt lat="44.44189" lon="1.45801">
        <ele>253</ele>
        <time>2011-03-10T10:07:18</time>
      </trkpt>
      <trkpt lat="44.44193" lon="1.45793">
        <ele>253</ele>
        <time>2011-03-10T10:07:20</time>
      </trkpt>
      <trkpt lat="44.44194" lon="1.45789">
        <ele>242</ele>
        <time>2011-03-10T10:07:21</time>
      </trkpt>
      <trkpt lat="44.44196" lon="1.45785">
        <ele>242</ele>
        <time>2011-03-10T10:07:23</time>
      </trkpt>
      <trkpt lat="44.44198" lon="1.45775">
        <ele>242</ele>
        <time>2011-03-10T10:07:24</time>
      </trkpt>
      <trkpt lat="44.44198" lon="1.4577">
        <ele>242</ele>
        <time>2011-03-10T10:07:26</time>
      </trkpt>
      <trkpt lat="44.44198" lon="1.4576">
        <ele>242</ele>
        <time>2011-03-10T10:07:27</time>
      </trkpt>
      <trkpt lat="44.44198" lon="1.45754">
        <ele>242</ele>
        <time>2011-03-10T10:07:29</time>
      </trkpt>
      <trkpt lat="44.44199" lon="1.45743">
        <ele>242</ele>
        <time>2011-03-10T10:07:30</time>
      </trkpt>
      <trkpt lat="44.44199" lon="1.45737">
        <ele>242</ele>
        <time>2011-03-10T10:07:32</time>
      </trkpt>
      <trkpt lat="44.442" lon="1.45727">
        <ele>242</ele>
        <time>2011-03-10T10:07:33</time>
      </trkpt>
      <trkpt lat="44.44201" lon="1.45722">
        <ele>242</ele>
        <time>2011-03-10T10:07:35</time>
      </trkpt>
      <trkpt lat="44.44203" lon="1.45713">
        <ele>242</ele>
        <time>2011-03-10T10:07:36</time>
      </trkpt>
      <trkpt lat="44.44204" lon="1.45708">
        <ele>241</ele>
        <time>2011-03-10T10:07:38</time>
      </trkpt>
      <trkpt lat="44.44205" lon="1.45698">
        <ele>241</ele>
        <time>2011-03-10T10:07:39</time>
      </trkpt>
      <trkpt lat="44.44206" lon="1.45692">
        <ele>241</ele>
        <time>2011-03-10T10:07:40</time>
      </trkpt>
      <trkpt lat="44.44207" lon="1.45682">
        <ele>241</ele>
        <time>2011-03-10T10:07:42</time>
      </trkpt>
      <trkpt lat="44.44208" lon="1.45677">
        <ele>241</ele>
        <time>2011-03-10T10:07:43</time>
      </trkpt>
      <trkpt lat="44.44209" lon="1.45673">
        <ele>259</ele>
        <time>2011-03-10T10:07:45</time>
      </trkpt>
      <trkpt lat="44.44212" lon="1.45663">
        <ele>259</ele>
        <time>2011-03-10T10:07:46</time>
      </trkpt>
      <trkpt lat="44.44213" lon="1.45658">
        <ele>259</ele>
        <time>2011-03-10T10:07:48</time>
      </trkpt>
      <trkpt lat="44.44216" lon="1.4565">
        <ele>259</ele>
        <time>2011-03-10T10:07:49</time>
      </trkpt>
      <trkpt lat="44.44217" lon="1.45646">
        <ele>259</ele>
        <time>2011-03-10T10:07:51</time>
      </trkpt>
      <trkpt lat="44.4422" lon="1.45638">
        <ele>259</ele>
        <time>2011-03-10T10:07:52</time>
      </trkpt>
      <trkpt lat="44.44222" lon="1.45634">
        <ele>259</ele>
        <time>2011-03-10T10:07:54</time>
      </trkpt>
      <trkpt lat="44.44224" lon="1.45627">
        <ele>259</ele>
        <time>2011-03-10T10:07:55</time>
      </trkpt>
      <trkpt lat="44.44226" lon="1.45624">
        <ele>262</ele>
        <time>2011-03-10T10:07:57</time>
      </trkpt>
      <trkpt lat="44.44229" lon="1.45617">
        <ele>262</ele>
        <time>2011-03-10T10:07:58</time>
      </trkpt>
      <trkpt lat="44.4423" lon="1.45614">
        <ele>262</ele>
        <time>2011-03-10T10:07:59</time>
      </trkpt>
      <trkpt lat="44.44233" lon="1.45607">
        <ele>262</ele>
        <time>2011-03-10T10:08:01</time>
      </trkpt>
      <trkpt lat="44.44235" lon="1.45604">
        <ele>262</ele>
        <time>2011-03-10T10:08:02</time>
      </trkpt>
      <trkpt lat="44.44237" lon="1.45597">
        <ele>262</ele>
        <time>2011-03-10T10:08:04</time>
      </trkpt>
      <trkpt lat="44.44239" lon="1.45593">
        <ele>262</ele>
        <time>2011-03-10T10:08:05</time>
      </trkpt>
      <trkpt lat="44.4424" lon="1.45589">
        <ele>262</ele>
        <time>2011-03-10T10:08:07</time>
      </trkpt>
      <trkpt lat="44.44243" lon="1.45582">
        <ele>262</ele>
        <time>2011-03-10T10:08:08</time>
      </trkpt>
      <trkpt lat="44.44244" lon="1.45578">
        <ele>262</ele>
        <time>2011-03-10T10:08:10</time>
      </trkpt>
      <trkpt lat="44.44247" lon="1.45571">
        <ele>262</ele>
        <time>2011-03-10T10:08:11</time>
      </trkpt>
      <trkpt lat="44.44248" lon="1.45568">
        <ele>262</ele>
        <time>2011-03-10T10:08:13</time>
      </trkpt>
      <trkpt lat="44.4425" lon="1.4556">
        <ele>262</ele>
        <time>2011-03-10T10:08:14</time>
      </trkpt>
      <trkpt lat="44.4425" lon="1.45556">
        <ele>262</ele>
        <time>2011-03-10T10:08:16</time>
      </trkpt>
      <trkpt lat="44.44251" lon="1.45549">
        <ele>262</ele>
        <time>2011-03-10T10:08:17</time>
      </trkpt>
      <trkpt lat="44.44251" lon="1.45545">
        <ele>262</ele>
        <time>2011-03-10T10:08:19</time>
      </trkpt>
      <trkpt lat="44.4425" lon="1.45537">
        <ele>264</ele>
        <time>2011-03-10T10:08:20</time>
      </trkpt>
      <trkpt lat="44.44249" lon="1.45533">
        <ele>264</ele>
        <time>2011-03-10T10:08:21</time>
      </trkpt>
      <trkpt lat="44.44248" lon="1.45525">
        <ele>264</ele>
        <time>2011-03-10T10:08:23</time>
      </trkpt>
      <trkpt lat="44.44247" lon="1.45521">
        <ele>264</ele>
        <time>2011-03-10T10:08:24</time>
      </trkpt>
      <trkpt lat="44.44246" lon="1.45513">
        <ele>264</ele>
        <time>2011-03-10T10:08:26</time>
      </trkpt>
      <trkpt lat="44.44245" lon="1.45509">
        <ele>264</ele>
        <time>2011-03-10T10:08:27</time>
      </trkpt>
      <trkpt lat="44.44244" lon="1.45504">
        <ele>264</ele>
        <time>2011-03-10T10:08:29</time>
      </trkpt>
      <trkpt lat="44.44242" lon="1.45496">
        <ele>264</ele>
        <time>2011-03-10T10:08:30</time>
      </trkpt>
      <trkpt lat="44.44241" lon="1.45491">
        <ele>264</ele>
        <time>2011-03-10T10:08:32</time>
      </trkpt>
      <trkpt lat="44.44239" lon="1.45482">
        <ele>264</ele>
        <time>2011-03-10T10:08:33</time>
      </trkpt>
      <trkpt lat="44.44238" lon="1.45479">
        <ele>264</ele>
        <time>2011-03-10T10:08:35</time>
      </trkpt>
      <trkpt lat="44.44237" lon="1.4547">
        <ele>264</ele>
        <time>2011-03-10T10:08:36</time>
      </trkpt>
      <trkpt lat="44.44236" lon="1.45466">
        <ele>264</ele>
        <time>2011-03-10T10:08:38</time>
      </trkpt>
      <trkpt lat="44.44235" lon="1.45458">
        <ele>264</ele>
        <time>2011-03-10T10:08:39</time>
      </trkpt>
      <trkpt lat="44.44234" lon="1.45454">
        <ele>266</ele>
        <time>2011-03-10T10:08:41</time>
      </trkpt>
      <trkpt lat="44.44233" lon="1.45447">
        <ele>266</ele>
        <time>2011-03-10T10:08:42</time>
      </trkpt>
      <trkpt lat="44.44232" lon="1.45443">
        <ele>266</ele>
        <time>2011-03-10T10:08:43</time>
      </trkpt>
      <trkpt lat="44.44234" lon="1.45437">
        <ele>266</ele>
        <time>2011-03-10T10:08:45</time>
      </trkpt>
      <trkpt lat="44.44236" lon="1.45433">
        <ele>266</ele>
        <time>2011-03-10T10:08:46</time>
      </trkpt>
      <trkpt lat="44.44237" lon="1.45425">
        <ele>266</ele>
        <time>2011-03-10T10:08:48</time>
      </trkpt>
      <trkpt lat="44.44237" lon="1.45421">
        <ele>266</ele>
        <time>2011-03-10T10:08:49</time>
      </trkpt>
      <trkpt lat="44.44237" lon="1.45416">
        <ele>266</ele>
        <time>2011-03-10T10:08:51</time>
      </trkpt>
      <trkpt lat="44.44237" lon="1.45408">
        <ele>266</ele>
        <time>2011-03-10T10:08:52</time>
      </trkpt>
      <trkpt lat="44.44237" lon="1.45404">
        <ele>266</ele>
        <time>2011-03-10T10:08:54</time>
      </trkpt>
      <trkpt lat="44.44237" lon="1.45395">
        <ele>266</ele>
        <time>2011-03-10T10:08:55</time>
      </trkpt>
      <trkpt lat="44.44238" lon="1.4539">
        <ele>266</ele>
        <time>2011-03-10T10:08:57</time>
      </trkpt>
      <trkpt lat="44.44239" lon="1.4538">
        <ele>266</ele>
        <time>2011-03-10T10:08:58</time>
      </trkpt>
      <trkpt lat="44.44239" lon="1.45375">
        <ele>262</ele>
        <time>2011-03-10T10:09:00</time>
      </trkpt>
      <trkpt lat="44.44241" lon="1.45363">
        <ele>262</ele>
        <time>2011-03-10T10:09:01</time>
      </trkpt>
      <trkpt lat="44.44244" lon="1.45357">
        <ele>262</ele>
        <time>2011-03-10T10:09:03</time>
      </trkpt>
      <trkpt lat="44.44248" lon="1.45344">
        <ele>262</ele>
        <time>2011-03-10T10:09:04</time>
      </trkpt>
      <trkpt lat="44.4425" lon="1.45337">
        <ele>262</ele>
        <time>2011-03-10T10:09:05</time>
      </trkpt>
      <trkpt lat="44.44254" lon="1.45323">
        <ele>262</ele>
        <time>2011-03-10T10:09:07</time>
      </trkpt>
      <trkpt lat="44.44259" lon="1.45312">
        <ele>262</ele>
        <time>2011-03-10T10:09:10</time>
      </trkpt>
      <trkpt lat="44.44263" lon="1.45303">
        <ele>262</ele>
        <time>2011-03-10T10:09:11</time>
      </trkpt>
      <trkpt lat="44.44265" lon="1.45299">
        <ele>262</ele>
        <time>2011-03-10T10:09:13</time>
      </trkpt>
      <trkpt lat="44.44269" lon="1.45289">
        <ele>257</ele>
        <time>2011-03-10T10:09:14</time>
      </trkpt>
      <trkpt lat="44.44271" lon="1.45285">
        <ele>257</ele>
        <time>2011-03-10T10:09:16</time>
      </trkpt>
      <trkpt lat="44.44278" lon="1.45282">
        <ele>257</ele>
        <time>2011-03-10T10:09:17</time>
      </trkpt>
      <trkpt lat="44.44281" lon="1.45285">
        <ele>257</ele>
        <time>2011-03-10T10:09:19</time>
      </trkpt>
      <trkpt lat="44.44285" lon="1.45293">
        <ele>262</ele>
        <time>2011-03-10T10:09:20</time>
      </trkpt>
      <trkpt lat="44.44283" lon="1.45298">
        <ele>262</ele>
        <time>2011-03-10T10:09:21</time>
      </trkpt>
      <trkpt lat="44.44284" lon="1.45303">
        <ele>262</ele>
        <time>2011-03-10T10:09:23</time>
      </trkpt>
      <trkpt lat="44.44283" lon="1.45308">
        <ele>262</ele>
        <time>2011-03-10T10:09:24</time>
      </trkpt>
      <trkpt lat="44.44282" lon="1.45317">
        <ele>262</ele>
        <time>2011-03-10T10:09:26</time>
      </trkpt>
      <trkpt lat="44.44281" lon="1.45326">
        <ele>262</ele>
        <time>2011-03-10T10:09:27</time>
      </trkpt>
      <trkpt lat="44.44281" lon="1.4533">
        <ele>262</ele>
        <time>2011-03-10T10:09:29</time>
      </trkpt>
      <trkpt lat="44.4428" lon="1.45334">
        <ele>262</ele>
        <time>2011-03-10T10:09:30</time>
      </trkpt>
      <trkpt lat="44.4428" lon="1.45342">
        <ele>262</ele>
        <time>2011-03-10T10:09:31</time>
      </trkpt>
      <trkpt lat="44.4428" lon="1.45346">
        <ele>262</ele>
        <time>2011-03-10T10:09:32</time>
      </trkpt>
      <trkpt lat="44.4428" lon="1.4535">
        <ele>262</ele>
        <time>2011-03-10T10:09:33</time>
      </trkpt>
      <trkpt lat="44.4428" lon="1.45359">
        <ele>262</ele>
        <time>2011-03-10T10:09:35</time>
      </trkpt>
      <trkpt lat="44.44281" lon="1.45368">
        <ele>262</ele>
        <time>2011-03-10T10:09:38</time>
      </trkpt>
      <trkpt lat="44.44281" lon="1.45376">
        <ele>266</ele>
        <time>2011-03-10T10:09:39</time>
      </trkpt>
      <trkpt lat="44.44282" lon="1.45385">
        <ele>266</ele>
        <time>2011-03-10T10:09:41</time>
      </trkpt>
      <trkpt lat="44.44282" lon="1.45393">
        <ele>266</ele>
        <time>2011-03-10T10:09:43</time>
      </trkpt>
      <trkpt lat="44.44281" lon="1.45403">
        <ele>266</ele>
        <time>2011-03-10T10:09:45</time>
      </trkpt>
      <trkpt lat="44.44282" lon="1.45413">
        <ele>266</ele>
        <time>2011-03-10T10:09:47</time>
      </trkpt>
      <trkpt lat="44.44282" lon="1.45418">
        <ele>266</ele>
        <time>2011-03-10T10:09:48</time>
      </trkpt>
      <trkpt lat="44.44282" lon="1.45428">
        <ele>266</ele>
        <time>2011-03-10T10:09:50</time>
      </trkpt>
      <trkpt lat="44.44282" lon="1.45437">
        <ele>266</ele>
        <time>2011-03-10T10:09:52</time>
      </trkpt>
      <trkpt lat="44.44282" lon="1.45442">
        <ele>266</ele>
        <time>2011-03-10T10:09:53</time>
      </trkpt>
      <trkpt lat="44.44282" lon="1.45451">
        <ele>266</ele>
        <time>2011-03-10T10:09:55</time>
      </trkpt>
      <trkpt lat="44.44282" lon="1.45455">
        <ele>266</ele>
        <time>2011-03-10T10:09:56</time>
      </trkpt>
      <trkpt lat="44.44281" lon="1.45464">
        <ele>264</ele>
        <time>2011-03-10T10:09:58</time>
      </trkpt>
      <trkpt lat="44.4428" lon="1.45468">
        <ele>264</ele>
        <time>2011-03-10T10:09:59</time>
      </trkpt>
      <trkpt lat="44.4428" lon="1.45476">
        <ele>264</ele>
        <time>2011-03-10T10:10:01</time>
      </trkpt>
      <trkpt lat="44.4428" lon="1.4548">
        <ele>264</ele>
        <time>2011-03-10T10:10:02</time>
      </trkpt>
      <trkpt lat="44.4428" lon="1.45485">
        <ele>264</ele>
        <time>2011-03-10T10:10:03</time>
      </trkpt>
      <trkpt lat="44.44279" lon="1.45493">
        <ele>264</ele>
        <time>2011-03-10T10:10:05</time>
      </trkpt>
      <trkpt lat="44.44278" lon="1.45502">
        <ele>264</ele>
        <time>2011-03-10T10:10:07</time>
      </trkpt>
      <trkpt lat="44.44277" lon="1.45507">
        <ele>264</ele>
        <time>2011-03-10T10:10:08</time>
      </trkpt>
      <trkpt lat="44.44274" lon="1.45516">
        <ele>264</ele>
        <time>2011-03-10T10:10:10</time>
      </trkpt>
      <trkpt lat="44.44273" lon="1.4552">
        <ele>264</ele>
        <time>2011-03-10T10:10:11</time>
      </trkpt>
      <trkpt lat="44.4427" lon="1.45529">
        <ele>264</ele>
        <time>2011-03-10T10:10:13</time>
      </trkpt>
      <trkpt lat="44.4427" lon="1.45534">
        <ele>264</ele>
        <time>2011-03-10T10:10:14</time>
      </trkpt>
      <trkpt lat="44.4427" lon="1.45538">
        <ele>264</ele>
        <time>2011-03-10T10:10:15</time>
      </trkpt>
      <trkpt lat="44.4427" lon="1.45548">
        <ele>262</ele>
        <time>2011-03-10T10:10:17</time>
      </trkpt>
      <trkpt lat="44.44271" lon="1.45552">
        <ele>262</ele>
        <time>2011-03-10T10:10:18</time>
      </trkpt>
      <trkpt lat="44.44272" lon="1.45557">
        <ele>262</ele>
        <time>2011-03-10T10:10:19</time>
      </trkpt>
      <trkpt lat="44.44275" lon="1.45569">
        <ele>262</ele>
        <time>2011-03-10T10:10:21</time>
      </trkpt>
      <trkpt lat="44.44276" lon="1.45576">
        <ele>262</ele>
        <time>2011-03-10T10:10:22</time>
      </trkpt>
      <trkpt lat="44.44279" lon="1.4559">
        <ele>262</ele>
        <time>2011-03-10T10:10:24</time>
      </trkpt>
      <trkpt lat="44.4428" lon="1.45597">
        <ele>262</ele>
        <time>2011-03-10T10:10:25</time>
      </trkpt>
      <trkpt lat="44.4428" lon="1.45613">
        <ele>262</ele>
        <time>2011-03-10T10:10:27</time>
      </trkpt>
      <trkpt lat="44.4428" lon="1.45621">
        <ele>262</ele>
        <time>2011-03-10T10:10:28</time>
      </trkpt>
      <trkpt lat="44.4428" lon="1.45629">
        <ele>259</ele>
        <time>2011-03-10T10:10:30</time>
      </trkpt>
      <trkpt lat="44.44277" lon="1.45645">
        <ele>259</ele>
        <time>2011-03-10T10:10:31</time>
      </trkpt>
      <trkpt lat="44.44275" lon="1.45652">
        <ele>259</ele>
        <time>2011-03-10T10:10:32</time>
      </trkpt>
      <trkpt lat="44.44273" lon="1.4566">
        <ele>259</ele>
        <time>2011-03-10T10:10:33</time>
      </trkpt>
      <trkpt lat="44.4427" lon="1.45674">
        <ele>259</ele>
        <time>2011-03-10T10:10:35</time>
      </trkpt>
      <trkpt lat="44.44268" lon="1.45689">
        <ele>259</ele>
        <time>2011-03-10T10:10:37</time>
      </trkpt>
      <trkpt lat="44.44265" lon="1.45703">
        <ele>259</ele>
        <time>2011-03-10T10:10:39</time>
      </trkpt>
      <trkpt lat="44.44262" lon="1.45716">
        <ele>256</ele>
        <time>2011-03-10T10:10:42</time>
      </trkpt>
      <trkpt lat="44.44258" lon="1.45729">
        <ele>256</ele>
        <time>2011-03-10T10:10:43</time>
      </trkpt>
      <trkpt lat="44.44254" lon="1.45742">
        <ele>256</ele>
        <time>2011-03-10T10:10:45</time>
      </trkpt>
      <trkpt lat="44.44252" lon="1.45749">
        <ele>256</ele>
        <time>2011-03-10T10:10:46</time>
      </trkpt>
      <trkpt lat="44.44251" lon="1.45756">
        <ele>256</ele>
        <time>2011-03-10T10:10:47</time>
      </trkpt>
      <trkpt lat="44.44248" lon="1.45768">
        <ele>256</ele>
        <time>2011-03-10T10:10:49</time>
      </trkpt>
      <trkpt lat="44.44247" lon="1.45774">
        <ele>256</ele>
        <time>2011-03-10T10:10:50</time>
      </trkpt>
      <trkpt lat="44.44246" lon="1.45786">
        <ele>256</ele>
        <time>2011-03-10T10:10:52</time>
      </trkpt>
      <trkpt lat="44.44245" lon="1.45796">
        <ele>255</ele>
        <time>2011-03-10T10:10:54</time>
      </trkpt>
      <trkpt lat="44.44245" lon="1.45802">
        <ele>255</ele>
        <time>2011-03-10T10:10:55</time>
      </trkpt>
      <trkpt lat="44.44245" lon="1.45807">
        <ele>255</ele>
        <time>2011-03-10T10:10:56</time>
      </trkpt>
      <trkpt lat="44.44244" lon="1.45819">
        <ele>255</ele>
        <time>2011-03-10T10:10:58</time>
      </trkpt>
      <trkpt lat="44.44244" lon="1.45826">
        <ele>255</ele>
        <time>2011-03-10T10:11:00</time>
      </trkpt>
      <trkpt lat="44.44244" lon="1.45838">
        <ele>255</ele>
        <time>2011-03-10T10:11:02</time>
      </trkpt>
      <trkpt lat="44.44244" lon="1.45851">
        <ele>255</ele>
        <time>2011-03-10T10:11:03</time>
      </trkpt>
      <trkpt lat="44.44244" lon="1.45858">
        <ele>255</ele>
        <time>2011-03-10T10:11:04</time>
      </trkpt>
      <trkpt lat="44.44243" lon="1.45872">
        <ele>255</ele>
        <time>2011-03-10T10:11:06</time>
      </trkpt>
      <trkpt lat="44.44242" lon="1.45879">
        <ele>255</ele>
        <time>2011-03-10T10:11:08</time>
      </trkpt>
      <trkpt lat="44.44241" lon="1.45893">
        <ele>255</ele>
        <time>2011-03-10T10:11:09</time>
      </trkpt>
      <trkpt lat="44.44239" lon="1.45909">
        <ele>255</ele>
        <time>2011-03-10T10:11:12</time>
      </trkpt>
      <trkpt lat="44.44239" lon="1.45929">
        <ele>255</ele>
        <time>2011-03-10T10:11:13</time>
      </trkpt>
      <trkpt lat="44.44239" lon="1.45939">
        <ele>255</ele>
        <time>2011-03-10T10:11:15</time>
      </trkpt>
      <trkpt lat="44.44239" lon="1.45957">
        <ele>255</ele>
        <time>2011-03-10T10:11:16</time>
      </trkpt>
      <trkpt lat="44.44239" lon="1.45973">
        <ele>253</ele>
        <time>2011-03-10T10:11:18</time>
      </trkpt>
      <trkpt lat="44.44237" lon="1.45981">
        <ele>253</ele>
        <time>2011-03-10T10:11:20</time>
      </trkpt>
      <trkpt lat="44.44235" lon="1.45996">
        <ele>253</ele>
        <time>2011-03-10T10:11:21</time>
      </trkpt>
      <trkpt lat="44.44234" lon="1.46004">
        <ele>253</ele>
        <time>2011-03-10T10:11:22</time>
      </trkpt>
      <trkpt lat="44.44232" lon="1.46021">
        <ele>253</ele>
        <time>2011-03-10T10:11:24</time>
      </trkpt>
      <trkpt lat="44.44232" lon="1.46029">
        <ele>253</ele>
        <time>2011-03-10T10:11:26</time>
      </trkpt>
      <trkpt lat="44.4423" lon="1.46045">
        <ele>254</ele>
        <time>2011-03-10T10:11:27</time>
      </trkpt>
      <trkpt lat="44.44229" lon="1.46053">
        <ele>254</ele>
        <time>2011-03-10T10:11:28</time>
      </trkpt>
      <trkpt lat="44.44229" lon="1.4606">
        <ele>254</ele>
        <time>2011-03-10T10:11:30</time>
      </trkpt>
      <trkpt lat="44.44229" lon="1.46073">
        <ele>254</ele>
        <time>2011-03-10T10:11:31</time>
      </trkpt>
      <trkpt lat="44.44228" lon="1.46078">
        <ele>254</ele>
        <time>2011-03-10T10:11:32</time>
      </trkpt>
      <trkpt lat="44.44228" lon="1.46083">
        <ele>254</ele>
        <time>2011-03-10T10:11:34</time>
      </trkpt>
      <trkpt lat="44.44227" lon="1.46092">
        <ele>254</ele>
        <time>2011-03-10T10:11:35</time>
      </trkpt>
      <trkpt lat="44.44226" lon="1.46101">
        <ele>254</ele>
        <time>2011-03-10T10:11:37</time>
      </trkpt>
      <trkpt lat="44.44225" lon="1.46106">
        <ele>254</ele>
        <time>2011-03-10T10:11:39</time>
      </trkpt>
      <trkpt lat="44.44225" lon="1.46114">
        <ele>254</ele>
        <time>2011-03-10T10:11:41</time>
      </trkpt>
      <trkpt lat="44.44225" lon="1.46122">
        <ele>254</ele>
        <time>2011-03-10T10:11:42</time>
      </trkpt>
      <trkpt lat="44.44225" lon="1.46126">
        <ele>257</ele>
        <time>2011-03-10T10:11:44</time>
      </trkpt>
      <trkpt lat="44.44227" lon="1.46135">
        <ele>257</ele>
        <time>2011-03-10T10:11:46</time>
      </trkpt>
      <trkpt lat="44.4423" lon="1.46143">
        <ele>257</ele>
        <time>2011-03-10T10:11:48</time>
      </trkpt>
      <trkpt lat="44.44232" lon="1.4615">
        <ele>257</ele>
        <time>2011-03-10T10:11:50</time>
      </trkpt>
      <trkpt lat="44.44233" lon="1.46153">
        <ele>257</ele>
        <time>2011-03-10T10:11:51</time>
      </trkpt>
      <trkpt lat="44.44237" lon="1.46159">
        <ele>257</ele>
        <time>2011-03-10T10:11:53</time>
      </trkpt>
      <trkpt lat="44.44241" lon="1.46166">
        <ele>257</ele>
        <time>2011-03-10T10:11:55</time>
      </trkpt>
      <trkpt lat="44.44243" lon="1.4617">
        <ele>257</ele>
        <time>2011-03-10T10:11:56</time>
      </trkpt>
      <trkpt lat="44.44247" lon="1.46178">
        <ele>257</ele>
        <time>2011-03-10T10:11:58</time>
      </trkpt>
      <trkpt lat="44.44249" lon="1.46181">
        <ele>257</ele>
        <time>2011-03-10T10:11:59</time>
      </trkpt>
      <trkpt lat="44.44251" lon="1.46185">
        <ele>257</ele>
        <time>2011-03-10T10:12:00</time>
      </trkpt>
      <trkpt lat="44.44256" lon="1.46192">
        <ele>257</ele>
        <time>2011-03-10T10:12:02</time>
      </trkpt>
      <trkpt lat="44.4426" lon="1.46199">
        <ele>257</ele>
        <time>2011-03-10T10:12:03</time>
      </trkpt>
      <trkpt lat="44.44264" lon="1.46206">
        <ele>257</ele>
        <time>2011-03-10T10:12:05</time>
      </trkpt>
      <trkpt lat="44.44267" lon="1.46209">
        <ele>261</ele>
        <time>2011-03-10T10:12:07</time>
      </trkpt>
      <trkpt lat="44.4427" lon="1.46215">
        <ele>261</ele>
        <time>2011-03-10T10:12:09</time>
      </trkpt>
      <trkpt lat="44.44274" lon="1.46221">
        <ele>261</ele>
        <time>2011-03-10T10:12:11</time>
      </trkpt>
      <trkpt lat="44.44277" lon="1.46226">
        <ele>261</ele>
        <time>2011-03-10T10:12:13</time>
      </trkpt>
      <trkpt lat="44.44279" lon="1.46228">
        <ele>261</ele>
        <time>2011-03-10T10:12:14</time>
      </trkpt>
      <trkpt lat="44.44283" lon="1.46233">
        <ele>261</ele>
        <time>2011-03-10T10:12:16</time>
      </trkpt>
      <trkpt lat="44.44287" lon="1.46238">
        <ele>261</ele>
        <time>2011-03-10T10:12:17</time>
      </trkpt>
      <trkpt lat="44.44289" lon="1.46241">
        <ele>261</ele>
        <time>2011-03-10T10:12:18</time>
      </trkpt>
      <trkpt lat="44.44292" lon="1.46243">
        <ele>263</ele>
        <time>2011-03-10T10:12:20</time>
      </trkpt>
      <trkpt lat="44.44297" lon="1.46247">
        <ele>263</ele>
        <time>2011-03-10T10:12:21</time>
      </trkpt>
      <trkpt lat="44.44303" lon="1.46249">
        <ele>263</ele>
        <time>2011-03-10T10:12:23</time>
      </trkpt>
      <trkpt lat="44.44308" lon="1.46249">
        <ele>263</ele>
        <time>2011-03-10T10:12:26</time>
      </trkpt>
      <trkpt lat="44.44314" lon="1.46249">
        <ele>263</ele>
        <time>2011-03-10T10:12:28</time>
      </trkpt>
      <trkpt lat="44.4432" lon="1.46249">
        <ele>263</ele>
        <time>2011-03-10T10:12:30</time>
      </trkpt>
      <trkpt lat="44.44326" lon="1.4625">
        <ele>263</ele>
        <time>2011-03-10T10:12:32</time>
      </trkpt>
      <trkpt lat="44.44329" lon="1.4625">
        <ele>263</ele>
        <time>2011-03-10T10:12:33</time>
      </trkpt>
      <trkpt lat="44.44335" lon="1.46251">
        <ele>263</ele>
        <time>2011-03-10T10:12:34</time>
      </trkpt>
      <trkpt lat="44.44338" lon="1.46252">
        <ele>263</ele>
        <time>2011-03-10T10:12:36</time>
      </trkpt>
      <trkpt lat="44.44343" lon="1.46253">
        <ele>263</ele>
        <time>2011-03-10T10:12:37</time>
      </trkpt>
      <trkpt lat="44.44345" lon="1.46255">
        <ele>263</ele>
        <time>2011-03-10T10:12:38</time>
      </trkpt>
      <trkpt lat="44.4435" lon="1.46258">
        <ele>263</ele>
        <time>2011-03-10T10:12:40</time>
      </trkpt>
      <trkpt lat="44.44352" lon="1.4626">
        <ele>263</ele>
        <time>2011-03-10T10:12:41</time>
      </trkpt>
      <trkpt lat="44.44354" lon="1.46264">
        <ele>263</ele>
        <time>2011-03-10T10:12:43</time>
      </trkpt>
      <trkpt lat="44.44356" lon="1.46271">
        <ele>263</ele>
        <time>2011-03-10T10:12:44</time>
      </trkpt>
      <trkpt lat="44.44357" lon="1.46275">
        <ele>263</ele>
        <time>2011-03-10T10:12:46</time>
      </trkpt>
      <trkpt lat="44.44359" lon="1.46282">
        <ele>263</ele>
        <time>2011-03-10T10:12:48</time>
      </trkpt>
      <trkpt lat="44.44361" lon="1.46288">
        <ele>263</ele>
        <time>2011-03-10T10:12:50</time>
      </trkpt>
      <trkpt lat="44.44365" lon="1.46294">
        <ele>269</ele>
        <time>2011-03-10T10:12:51</time>
      </trkpt>
      <trkpt lat="44.44367" lon="1.46296">
        <ele>269</ele>
        <time>2011-03-10T10:12:53</time>
      </trkpt>
      <trkpt lat="44.44369" lon="1.46299">
        <ele>269</ele>
        <time>2011-03-10T10:12:54</time>
      </trkpt>
      <trkpt lat="44.44374" lon="1.46303">
        <ele>269</ele>
        <time>2011-03-10T10:12:56</time>
      </trkpt>
      <trkpt lat="44.44377" lon="1.46305">
        <ele>264</ele>
        <time>2011-03-10T10:12:57</time>
      </trkpt>
      <trkpt lat="44.44381" lon="1.46311">
        <ele>264</ele>
        <time>2011-03-10T10:12:59</time>
      </trkpt>
      <trkpt lat="44.44387" lon="1.46318">
        <ele>264</ele>
        <time>2011-03-10T10:13:01</time>
      </trkpt>
      <trkpt lat="44.4439" lon="1.46322">
        <ele>264</ele>
        <time>2011-03-10T10:13:02</time>
      </trkpt>
      <trkpt lat="44.44396" lon="1.4633">
        <ele>264</ele>
        <time>2011-03-10T10:13:04</time>
      </trkpt>
      <trkpt lat="44.44404" lon="1.46338">
        <ele>264</ele>
        <time>2011-03-10T10:13:06</time>
      </trkpt>
      <trkpt lat="44.44414" lon="1.46346">
        <ele>264</ele>
        <time>2011-03-10T10:13:08</time>
      </trkpt>
      <trkpt lat="44.44418" lon="1.4635">
        <ele>264</ele>
        <time>2011-03-10T10:13:09</time>
      </trkpt>
      <trkpt lat="44.44427" lon="1.46359">
        <ele>264</ele>
        <time>2011-03-10T10:13:11</time>
      </trkpt>
      <trkpt lat="44.44431" lon="1.46363">
        <ele>264</ele>
        <time>2011-03-10T10:13:12</time>
      </trkpt>
      <trkpt lat="44.44441" lon="1.46369">
        <ele>264</ele>
        <time>2011-03-10T10:13:14</time>
      </trkpt>
      <trkpt lat="44.44451" lon="1.46372">
        <ele>264</ele>
        <time>2011-03-10T10:13:16</time>
      </trkpt>
      <trkpt lat="44.44461" lon="1.46372">
        <ele>262</ele>
        <time>2011-03-10T10:13:17</time>
      </trkpt>
      <trkpt lat="44.44466" lon="1.46372">
        <ele>262</ele>
        <time>2011-03-10T10:13:19</time>
      </trkpt>
      <trkpt lat="44.44471" lon="1.46373">
        <ele>262</ele>
        <time>2011-03-10T10:13:20</time>
      </trkpt>
      <trkpt lat="44.44475" lon="1.46373">
        <ele>262</ele>
        <time>2011-03-10T10:13:21</time>
      </trkpt>
      <trkpt lat="44.44483" lon="1.46374">
        <ele>262</ele>
        <time>2011-03-10T10:13:23</time>
      </trkpt>
      <trkpt lat="44.44487" lon="1.46374">
        <ele>262</ele>
        <time>2011-03-10T10:13:24</time>
      </trkpt>
      <trkpt lat="44.44493" lon="1.46376">
        <ele>269</ele>
        <time>2011-03-10T10:13:26</time>
      </trkpt>
      <trkpt lat="44.44497" lon="1.46376">
        <ele>269</ele>
        <time>2011-03-10T10:13:27</time>
      </trkpt>
      <trkpt lat="44.445" lon="1.46377">
        <ele>269</ele>
        <time>2011-03-10T10:13:28</time>
      </trkpt>
      <trkpt lat="44.44504" lon="1.46377">
        <ele>269</ele>
        <time>2011-03-10T10:13:29</time>
      </trkpt>
      <trkpt lat="44.4451" lon="1.46377">
        <ele>269</ele>
        <time>2011-03-10T10:13:31</time>
      </trkpt>
      <trkpt lat="44.44517" lon="1.46376">
        <ele>269</ele>
        <time>2011-03-10T10:13:33</time>
      </trkpt>
      <trkpt lat="44.44523" lon="1.46374">
        <ele>262</ele>
        <time>2011-03-10T10:13:34</time>
      </trkpt>
      <trkpt lat="44.44526" lon="1.46374">
        <ele>262</ele>
        <time>2011-03-10T10:13:36</time>
      </trkpt>
      <trkpt lat="44.44533" lon="1.46372">
        <ele>262</ele>
        <time>2011-03-10T10:13:38</time>
      </trkpt>
      <trkpt lat="44.44537" lon="1.4637">
        <ele>262</ele>
        <time>2011-03-10T10:13:39</time>
      </trkpt>
      <trkpt lat="44.44546" lon="1.46366">
        <ele>269</ele>
        <time>2011-03-10T10:13:41</time>
      </trkpt>
      <trkpt lat="44.44553" lon="1.46364">
        <ele>269</ele>
        <time>2011-03-10T10:13:43</time>
      </trkpt>
      <trkpt lat="44.44559" lon="1.46361">
        <ele>269</ele>
        <time>2011-03-10T10:13:45</time>
      </trkpt>
      <trkpt lat="44.44566" lon="1.46358">
        <ele>269</ele>
        <time>2011-03-10T10:13:47</time>
      </trkpt>
      <trkpt lat="44.44569" lon="1.46356">
        <ele>269</ele>
        <time>2011-03-10T10:13:48</time>
      </trkpt>
      <trkpt lat="44.44575" lon="1.46355">
        <ele>269</ele>
        <time>2011-03-10T10:13:50</time>
      </trkpt>
      <trkpt lat="44.44581" lon="1.46356">
        <ele>269</ele>
        <time>2011-03-10T10:13:52</time>
      </trkpt>
      <trkpt lat="44.44587" lon="1.46357">
        <ele>269</ele>
        <time>2011-03-10T10:13:53</time>
      </trkpt>
      <trkpt lat="44.44593" lon="1.46359">
        <ele>269</ele>
        <time>2011-03-10T10:13:56</time>
      </trkpt>
      <trkpt lat="44.44596" lon="1.46359">
        <ele>269</ele>
        <time>2011-03-10T10:13:57</time>
      </trkpt>
      <trkpt lat="44.44599" lon="1.4636">
        <ele>269</ele>
        <time>2011-03-10T10:13:58</time>
      </trkpt>
      <trkpt lat="44.44606" lon="1.4636">
        <ele>269</ele>
        <time>2011-03-10T10:14:00</time>
      </trkpt>
      <trkpt lat="44.44609" lon="1.46359">
        <ele>269</ele>
        <time>2011-03-10T10:14:01</time>
      </trkpt>
      <trkpt lat="44.44615" lon="1.46355">
        <ele>269</ele>
        <time>2011-03-10T10:14:03</time>
      </trkpt>
      <trkpt lat="44.44622" lon="1.46351">
        <ele>269</ele>
        <time>2011-03-10T10:14:05</time>
      </trkpt>
      <trkpt lat="44.44626" lon="1.46349">
        <ele>268</ele>
        <time>2011-03-10T10:14:06</time>
      </trkpt>
      <trkpt lat="44.44634" lon="1.46344">
        <ele>268</ele>
        <time>2011-03-10T10:14:08</time>
      </trkpt>
      <trkpt lat="44.44644" lon="1.46338">
        <ele>268</ele>
        <time>2011-03-10T10:14:10</time>
      </trkpt>
      <trkpt lat="44.44649" lon="1.46335">
        <ele>268</ele>
        <time>2011-03-10T10:14:11</time>
      </trkpt>
      <trkpt lat="44.44654" lon="1.46332">
        <ele>268</ele>
        <time>2011-03-10T10:14:12</time>
      </trkpt>
      <trkpt lat="44.4466" lon="1.4633">
        <ele>268</ele>
        <time>2011-03-10T10:14:13</time>
      </trkpt>
      <trkpt lat="44.44672" lon="1.46326">
        <ele>268</ele>
        <time>2011-03-10T10:14:15</time>
      </trkpt>
      <trkpt lat="44.44686" lon="1.46322">
        <ele>268</ele>
        <time>2011-03-10T10:14:17</time>
      </trkpt>
      <trkpt lat="44.44701" lon="1.46316">
        <ele>268</ele>
        <time>2011-03-10T10:14:19</time>
      </trkpt>
      <trkpt lat="44.44708" lon="1.46311">
        <ele>268</ele>
        <time>2011-03-10T10:14:20</time>
      </trkpt>
      <trkpt lat="44.44723" lon="1.46303">
        <ele>265</ele>
        <time>2011-03-10T10:14:22</time>
      </trkpt>
      <trkpt lat="44.44731" lon="1.463">
        <ele>265</ele>
        <time>2011-03-10T10:14:23</time>
      </trkpt>
      <trkpt lat="44.44744" lon="1.46294">
        <ele>265</ele>
        <time>2011-03-10T10:14:25</time>
      </trkpt>
      <trkpt lat="44.4475" lon="1.46292">
        <ele>265</ele>
        <time>2011-03-10T10:14:26</time>
      </trkpt>
      <trkpt lat="44.44761" lon="1.46287">
        <ele>257</ele>
        <time>2011-03-10T10:14:28</time>
      </trkpt>
      <trkpt lat="44.44766" lon="1.46284">
        <ele>257</ele>
        <time>2011-03-10T10:14:29</time>
      </trkpt>
      <trkpt lat="44.44775" lon="1.46279">
        <ele>257</ele>
        <time>2011-03-10T10:14:30</time>
      </trkpt>
      <trkpt lat="44.44779" lon="1.46277">
        <ele>257</ele>
        <time>2011-03-10T10:14:31</time>
      </trkpt>
      <trkpt lat="44.44787" lon="1.46273">
        <ele>257</ele>
        <time>2011-03-10T10:14:34</time>
      </trkpt>
      <trkpt lat="44.44793" lon="1.46269">
        <ele>269</ele>
        <time>2011-03-10T10:14:36</time>
      </trkpt>
      <trkpt lat="44.448" lon="1.46266">
        <ele>269</ele>
        <time>2011-03-10T10:14:38</time>
      </trkpt>
      <trkpt lat="44.44806" lon="1.46263">
        <ele>269</ele>
        <time>2011-03-10T10:14:40</time>
      </trkpt>
      <trkpt lat="44.44811" lon="1.4626">
        <ele>269</ele>
        <time>2011-03-10T10:14:42</time>
      </trkpt>
      <trkpt lat="44.44814" lon="1.46258">
        <ele>269</ele>
        <time>2011-03-10T10:14:43</time>
      </trkpt>
      <trkpt lat="44.44819" lon="1.46254">
        <ele>269</ele>
        <time>2011-03-10T10:14:44</time>
      </trkpt>
      <trkpt lat="44.44822" lon="1.46252">
        <ele>269</ele>
        <time>2011-03-10T10:14:46</time>
      </trkpt>
      <trkpt lat="44.44827" lon="1.46248">
        <ele>269</ele>
        <time>2011-03-10T10:14:48</time>
      </trkpt>
      <trkpt lat="44.44833" lon="1.46242">
        <ele>269</ele>
        <time>2011-03-10T10:14:51</time>
      </trkpt>
      <trkpt lat="44.44836" lon="1.46237">
        <ele>269</ele>
        <time>2011-03-10T10:14:53</time>
      </trkpt>
      <trkpt lat="44.44838" lon="1.4623">
        <ele>269</ele>
        <time>2011-03-10T10:14:55</time>
      </trkpt>
      <trkpt lat="44.4484" lon="1.46227">
        <ele>269</ele>
        <time>2011-03-10T10:14:56</time>
      </trkpt>
      <trkpt lat="44.44844" lon="1.46221">
        <ele>269</ele>
        <time>2011-03-10T10:14:58</time>
      </trkpt>
      <trkpt lat="44.44847" lon="1.46215">
        <ele>269</ele>
        <time>2011-03-10T10:15:00</time>
      </trkpt>
      <trkpt lat="44.44851" lon="1.46209">
        <ele>269</ele>
        <time>2011-03-10T10:15:02</time>
      </trkpt>
      <trkpt lat="44.44856" lon="1.46203">
        <ele>264</ele>
        <time>2011-03-10T10:15:04</time>
      </trkpt>
      <trkpt lat="44.4486" lon="1.46197">
        <ele>264</ele>
        <time>2011-03-10T10:15:06</time>
      </trkpt>
      <trkpt lat="44.44863" lon="1.4619">
        <ele>264</ele>
        <time>2011-03-10T10:15:08</time>
      </trkpt>
      <trkpt lat="44.44865" lon="1.46184">
        <ele>264</ele>
        <time>2011-03-10T10:15:10</time>
      </trkpt>
      <trkpt lat="44.44868" lon="1.46177">
        <ele>264</ele>
        <time>2011-03-10T10:15:11</time>
      </trkpt>
      <trkpt lat="44.4487" lon="1.46174">
        <ele>264</ele>
        <time>2011-03-10T10:15:13</time>
      </trkpt>
      <trkpt lat="44.44872" lon="1.46171">
        <ele>264</ele>
        <time>2011-03-10T10:15:14</time>
      </trkpt>
      <trkpt lat="44.44873" lon="1.46168">
        <ele>264</ele>
        <time>2011-03-10T10:15:15</time>
      </trkpt>
      <trkpt lat="44.44875" lon="1.46165">
        <ele>274</ele>
        <time>2011-03-10T10:15:16</time>
      </trkpt>
      <trkpt lat="44.44877" lon="1.46163">
        <ele>274</ele>
        <time>2011-03-10T10:15:17</time>
      </trkpt>
      <trkpt lat="44.44881" lon="1.46159">
        <ele>274</ele>
        <time>2011-03-10T10:15:19</time>
      </trkpt>
      <trkpt lat="44.44883" lon="1.46157">
        <ele>274</ele>
        <time>2011-03-10T10:15:20</time>
      </trkpt>
      <trkpt lat="44.44886" lon="1.46152">
        <ele>274</ele>
        <time>2011-03-10T10:15:22</time>
      </trkpt>
      <trkpt lat="44.44888" lon="1.46149">
        <ele>274</ele>
        <time>2011-03-10T10:15:23</time>
      </trkpt>
      <trkpt lat="44.44889" lon="1.46147">
        <ele>274</ele>
        <time>2011-03-10T10:15:24</time>
      </trkpt>
      <trkpt lat="44.44892" lon="1.46141">
        <ele>274</ele>
        <time>2011-03-10T10:15:26</time>
      </trkpt>
      <trkpt lat="44.44894" lon="1.46138">
        <ele>274</ele>
        <time>2011-03-10T10:15:27</time>
      </trkpt>
      <trkpt lat="44.44895" lon="1.46133">
        <ele>274</ele>
        <time>2011-03-10T10:15:29</time>
      </trkpt>
      <trkpt lat="44.44898" lon="1.46128">
        <ele>274</ele>
        <time>2011-03-10T10:15:31</time>
      </trkpt>
      <trkpt lat="44.44901" lon="1.46122">
        <ele>272</ele>
        <time>2011-03-10T10:15:33</time>
      </trkpt>
      <trkpt lat="44.44902" lon="1.4612">
        <ele>272</ele>
        <time>2011-03-10T10:15:34</time>
      </trkpt>
      <trkpt lat="44.44904" lon="1.46117">
        <ele>272</ele>
        <time>2011-03-10T10:15:35</time>
      </trkpt>
      <trkpt lat="44.44908" lon="1.46109">
        <ele>272</ele>
        <time>2011-03-10T10:15:37</time>
      </trkpt>
      <trkpt lat="44.44909" lon="1.46107">
        <ele>272</ele>
        <time>2011-03-10T10:15:39</time>
      </trkpt>
      <trkpt lat="44.44911" lon="1.46104">
        <ele>272</ele>
        <time>2011-03-10T10:15:40</time>
      </trkpt>
      <trkpt lat="44.44915" lon="1.46097">
        <ele>272</ele>
        <time>2011-03-10T10:15:41</time>
      </trkpt>
      <trkpt lat="44.44917" lon="1.46094">
        <ele>272</ele>
        <time>2011-03-10T10:15:43</time>
      </trkpt>
      <trkpt lat="44.44922" lon="1.46086">
        <ele>272</ele>
        <time>2011-03-10T10:15:44</time>
      </trkpt>
      <trkpt lat="44.44926" lon="1.46082">
        <ele>272</ele>
        <time>2011-03-10T10:15:46</time>
      </trkpt>
      <trkpt lat="44.44934" lon="1.46075">
        <ele>272</ele>
        <time>2011-03-10T10:15:47</time>
      </trkpt>
      <trkpt lat="44.4494" lon="1.46073">
        <ele>272</ele>
        <time>2011-03-10T10:15:49</time>
      </trkpt>
      <trkpt lat="44.44952" lon="1.4607">
        <ele>272</ele>
        <time>2011-03-10T10:15:50</time>
      </trkpt>
      <trkpt lat="44.44958" lon="1.46069">
        <ele>272</ele>
        <time>2011-03-10T10:15:52</time>
      </trkpt>
      <trkpt lat="44.4497" lon="1.46067">
        <ele>270</ele>
        <time>2011-03-10T10:15:53</time>
      </trkpt>
      <trkpt lat="44.44977" lon="1.46066">
        <ele>270</ele>
        <time>2011-03-10T10:15:55</time>
      </trkpt>
      <trkpt lat="44.44984" lon="1.46064">
        <ele>270</ele>
        <time>2011-03-10T10:15:56</time>
      </trkpt>
      <trkpt lat="44.44997" lon="1.46063">
        <ele>270</ele>
        <time>2011-03-10T10:15:58</time>
      </trkpt>
      <trkpt lat="44.45003" lon="1.46059">
        <ele>270</ele>
        <time>2011-03-10T10:15:59</time>
      </trkpt>
      <trkpt lat="44.45012" lon="1.46049">
        <ele>270</ele>
        <time>2011-03-10T10:16:01</time>
      </trkpt>
      <trkpt lat="44.45017" lon="1.46044">
        <ele>270</ele>
        <time>2011-03-10T10:16:02</time>
      </trkpt>
      <trkpt lat="44.45028" lon="1.46035">
        <ele>258</ele>
        <time>2011-03-10T10:16:03</time>
      </trkpt>
      <trkpt lat="44.45033" lon="1.4603">
        <ele>258</ele>
        <time>2011-03-10T10:16:05</time>
      </trkpt>
      <trkpt lat="44.45042" lon="1.46024">
        <ele>272</ele>
        <time>2011-03-10T10:16:06</time>
      </trkpt>
      <trkpt lat="44.45046" lon="1.46021">
        <ele>272</ele>
        <time>2011-03-10T10:16:08</time>
      </trkpt>
      <trkpt lat="44.45052" lon="1.46017">
        <ele>272</ele>
        <time>2011-03-10T10:16:09</time>
      </trkpt>
      <trkpt lat="44.45056" lon="1.46015">
        <ele>272</ele>
        <time>2011-03-10T10:16:11</time>
      </trkpt>
      <trkpt lat="44.4506" lon="1.46009">
        <ele>272</ele>
        <time>2011-03-10T10:16:12</time>
      </trkpt>
      <trkpt lat="44.45063" lon="1.46006">
        <ele>272</ele>
        <time>2011-03-10T10:16:14</time>
      </trkpt>
      <trkpt lat="44.45067" lon="1.46">
        <ele>272</ele>
        <time>2011-03-10T10:16:15</time>
      </trkpt>
      <trkpt lat="44.45068" lon="1.45997">
        <ele>272</ele>
        <time>2011-03-10T10:16:17</time>
      </trkpt>
      <trkpt lat="44.4507" lon="1.45994">
        <ele>272</ele>
        <time>2011-03-10T10:16:18</time>
      </trkpt>
      <trkpt lat="44.45072" lon="1.45989">
        <ele>272</ele>
        <time>2011-03-10T10:16:20</time>
      </trkpt>
      <trkpt lat="44.45073" lon="1.45986">
        <ele>272</ele>
        <time>2011-03-10T10:16:21</time>
      </trkpt>
      <trkpt lat="44.45075" lon="1.45978">
        <ele>272</ele>
        <time>2011-03-10T10:16:23</time>
      </trkpt>
      <trkpt lat="44.45077" lon="1.45974">
        <ele>272</ele>
        <time>2011-03-10T10:16:24</time>
      </trkpt>
      <trkpt lat="44.45079" lon="1.45964">
        <ele>272</ele>
        <time>2011-03-10T10:16:25</time>
      </trkpt>
      <trkpt lat="44.4508" lon="1.45958">
        <ele>266</ele>
        <time>2011-03-10T10:16:27</time>
      </trkpt>
      <trkpt lat="44.45082" lon="1.45947">
        <ele>266</ele>
        <time>2011-03-10T10:16:28</time>
      </trkpt>
      <trkpt lat="44.45083" lon="1.45942">
        <ele>266</ele>
        <time>2011-03-10T10:16:30</time>
      </trkpt>
      <trkpt lat="44.45086" lon="1.45932">
        <ele>266</ele>
        <time>2011-03-10T10:16:31</time>
      </trkpt>
      <trkpt lat="44.45087" lon="1.45927">
        <ele>266</ele>
        <time>2011-03-10T10:16:33</time>
      </trkpt>
      <trkpt lat="44.4509" lon="1.45917">
        <ele>266</ele>
        <time>2011-03-10T10:16:34</time>
      </trkpt>
      <trkpt lat="44.4509" lon="1.45912">
        <ele>266</ele>
        <time>2011-03-10T10:16:36</time>
      </trkpt>
      <trkpt lat="44.45091" lon="1.45902">
        <ele>266</ele>
        <time>2011-03-10T10:16:37</time>
      </trkpt>
      <trkpt lat="44.45091" lon="1.45896">
        <ele>266</ele>
        <time>2011-03-10T10:16:39</time>
      </trkpt>
      <trkpt lat="44.45091" lon="1.45891">
        <ele>266</ele>
        <time>2011-03-10T10:16:40</time>
      </trkpt>
      <trkpt lat="44.45091" lon="1.45879">
        <ele>266</ele>
        <time>2011-03-10T10:16:42</time>
      </trkpt>
      <trkpt lat="44.45091" lon="1.45872">
        <ele>263</ele>
        <time>2011-03-10T10:16:43</time>
      </trkpt>
      <trkpt lat="44.45092" lon="1.4586">
        <ele>263</ele>
        <time>2011-03-10T10:16:45</time>
      </trkpt>
      <trkpt lat="44.45092" lon="1.45854">
        <ele>263</ele>
        <time>2011-03-10T10:16:46</time>
      </trkpt>
      <trkpt lat="44.45091" lon="1.45842">
        <ele>263</ele>
        <time>2011-03-10T10:16:47</time>
      </trkpt>
      <trkpt lat="44.4509" lon="1.45835">
        <ele>263</ele>
        <time>2011-03-10T10:16:49</time>
      </trkpt>
      <trkpt lat="44.45089" lon="1.45821">
        <ele>263</ele>
        <time>2011-03-10T10:16:50</time>
      </trkpt>
      <trkpt lat="44.4509" lon="1.45813">
        <ele>263</ele>
        <time>2011-03-10T10:16:52</time>
      </trkpt>
      <trkpt lat="44.45094" lon="1.45803">
        <ele>263</ele>
        <time>2011-03-10T10:16:53</time>
      </trkpt>
      <trkpt lat="44.45095" lon="1.45799">
        <ele>263</ele>
        <time>2011-03-10T10:16:55</time>
      </trkpt>
      <trkpt lat="44.45096" lon="1.45792">
        <ele>263</ele>
        <time>2011-03-10T10:16:56</time>
      </trkpt>
      <trkpt lat="44.45096" lon="1.45788">
        <ele>263</ele>
        <time>2011-03-10T10:16:58</time>
      </trkpt>
      <trkpt lat="44.45095" lon="1.45778">
        <ele>263</ele>
        <time>2011-03-10T10:17:01</time>
      </trkpt>
      <trkpt lat="44.45095" lon="1.45775">
        <ele>263</ele>
        <time>2011-03-10T10:17:02</time>
      </trkpt>
      <trkpt lat="44.45095" lon="1.45767">
        <ele>263</ele>
        <time>2011-03-10T10:17:04</time>
      </trkpt>
      <trkpt lat="44.45096" lon="1.45763">
        <ele>263</ele>
        <time>2011-03-10T10:17:05</time>
      </trkpt>
      <trkpt lat="44.45096" lon="1.45755">
        <ele>263</ele>
        <time>2011-03-10T10:17:07</time>
      </trkpt>
      <trkpt lat="44.45097" lon="1.4575">
        <ele>263</ele>
        <time>2011-03-10T10:17:08</time>
      </trkpt>
      <trkpt lat="44.451" lon="1.45741">
        <ele>263</ele>
        <time>2011-03-10T10:17:09</time>
      </trkpt>
      <trkpt lat="44.451" lon="1.45736">
        <ele>263</ele>
        <time>2011-03-10T10:17:11</time>
      </trkpt>
      <trkpt lat="44.451" lon="1.45728">
        <ele>263</ele>
        <time>2011-03-10T10:17:12</time>
      </trkpt>
      <trkpt lat="44.451" lon="1.45724">
        <ele>263</ele>
        <time>2011-03-10T10:17:14</time>
      </trkpt>
      <trkpt lat="44.45101" lon="1.45717">
        <ele>263</ele>
        <time>2011-03-10T10:17:15</time>
      </trkpt>
      <trkpt lat="44.45101" lon="1.45714">
        <ele>263</ele>
        <time>2011-03-10T10:17:17</time>
      </trkpt>
      <trkpt lat="44.45102" lon="1.45706">
        <ele>264</ele>
        <time>2011-03-10T10:17:18</time>
      </trkpt>
      <trkpt lat="44.45102" lon="1.45702">
        <ele>264</ele>
        <time>2011-03-10T10:17:20</time>
      </trkpt>
      <trkpt lat="44.45103" lon="1.45695">
        <ele>264</ele>
        <time>2011-03-10T10:17:21</time>
      </trkpt>
      <trkpt lat="44.45103" lon="1.45691">
        <ele>264</ele>
        <time>2011-03-10T10:17:23</time>
      </trkpt>
      <trkpt lat="44.45103" lon="1.45688">
        <ele>264</ele>
        <time>2011-03-10T10:17:24</time>
      </trkpt>
      <trkpt lat="44.45102" lon="1.45682">
        <ele>264</ele>
        <time>2011-03-10T10:17:26</time>
      </trkpt>
      <trkpt lat="44.45102" lon="1.45676">
        <ele>264</ele>
        <time>2011-03-10T10:17:27</time>
      </trkpt>
      <trkpt lat="44.45102" lon="1.45671">
        <ele>264</ele>
        <time>2011-03-10T10:17:30</time>
      </trkpt>
      <trkpt lat="44.45109" lon="1.45669">
        <ele>264</ele>
        <time>2011-03-10T10:17:33</time>
      </trkpt>
      <trkpt lat="44.4511" lon="1.45675">
        <ele>264</ele>
        <time>2011-03-10T10:17:34</time>
      </trkpt>
      <trkpt lat="44.45111" lon="1.4568">
        <ele>264</ele>
        <time>2011-03-10T10:17:36</time>
      </trkpt>
      <trkpt lat="44.45113" lon="1.45691">
        <ele>264</ele>
        <time>2011-03-10T10:17:37</time>
      </trkpt>
      <trkpt lat="44.45114" lon="1.45696">
        <ele>264</ele>
        <time>2011-03-10T10:17:38</time>
      </trkpt>
      <trkpt lat="44.45115" lon="1.45701">
        <ele>264</ele>
        <time>2011-03-10T10:17:39</time>
      </trkpt>
      <trkpt lat="44.45117" lon="1.45706">
        <ele>264</ele>
        <time>2011-03-10T10:17:40</time>
      </trkpt>
      <trkpt lat="44.45118" lon="1.4571">
        <ele>263</ele>
        <time>2011-03-10T10:17:42</time>
      </trkpt>
      <trkpt lat="44.4512" lon="1.45719">
        <ele>263</ele>
        <time>2011-03-10T10:17:43</time>
      </trkpt>
      <trkpt lat="44.45121" lon="1.45723">
        <ele>263</ele>
        <time>2011-03-10T10:17:45</time>
      </trkpt>
      <trkpt lat="44.45121" lon="1.45732">
        <ele>263</ele>
        <time>2011-03-10T10:17:47</time>
      </trkpt>
      <trkpt lat="44.45121" lon="1.45741">
        <ele>263</ele>
        <time>2011-03-10T10:17:49</time>
      </trkpt>
      <trkpt lat="44.4512" lon="1.4575">
        <ele>263</ele>
        <time>2011-03-10T10:17:51</time>
      </trkpt>
      <trkpt lat="44.4512" lon="1.45754">
        <ele>263</ele>
        <time>2011-03-10T10:17:52</time>
      </trkpt>
      <trkpt lat="44.45121" lon="1.45763">
        <ele>263</ele>
        <time>2011-03-10T10:17:54</time>
      </trkpt>
      <trkpt lat="44.45123" lon="1.4577">
        <ele>263</ele>
        <time>2011-03-10T10:17:56</time>
      </trkpt>
      <trkpt lat="44.45124" lon="1.45776">
        <ele>263</ele>
        <time>2011-03-10T10:17:58</time>
      </trkpt>
      <trkpt lat="44.45124" lon="1.45782">
        <ele>263</ele>
        <time>2011-03-10T10:18:00</time>
      </trkpt>
      <trkpt lat="44.45124" lon="1.45785">
        <ele>263</ele>
        <time>2011-03-10T10:18:01</time>
      </trkpt>
      <trkpt lat="44.45124" lon="1.45793">
        <ele>263</ele>
        <time>2011-03-10T10:18:03</time>
      </trkpt>
      <trkpt lat="44.45121" lon="1.45801">
        <ele>263</ele>
        <time>2011-03-10T10:18:05</time>
      </trkpt>
      <trkpt lat="44.45118" lon="1.45809">
        <ele>263</ele>
        <time>2011-03-10T10:18:07</time>
      </trkpt>
      <trkpt lat="44.45116" lon="1.45813">
        <ele>263</ele>
        <time>2011-03-10T10:18:08</time>
      </trkpt>
      <trkpt lat="44.45115" lon="1.45823">
        <ele>263</ele>
        <time>2011-03-10T10:18:10</time>
      </trkpt>
      <trkpt lat="44.45115" lon="1.45827">
        <ele>263</ele>
        <time>2011-03-10T10:18:11</time>
      </trkpt>
      <trkpt lat="44.45115" lon="1.45836">
        <ele>263</ele>
        <time>2011-03-10T10:18:12</time>
      </trkpt>
      <trkpt lat="44.45115" lon="1.4584">
        <ele>263</ele>
        <time>2011-03-10T10:18:14</time>
      </trkpt>
      <trkpt lat="44.45117" lon="1.45843">
        <ele>263</ele>
        <time>2011-03-10T10:18:15</time>
      </trkpt>
      <trkpt lat="44.45119" lon="1.45851">
        <ele>263</ele>
        <time>2011-03-10T10:18:18</time>
      </trkpt>
      <trkpt lat="44.45121" lon="1.45854">
        <ele>263</ele>
        <time>2011-03-10T10:18:20</time>
      </trkpt>
      <trkpt lat="44.45124" lon="1.45855">
        <ele>263</ele>
        <time>2011-03-10T10:18:22</time>
      </trkpt>
      <trkpt lat="44.45127" lon="1.45856">
        <ele>272</ele>
        <time>2011-03-10T10:18:24</time>
      </trkpt>
      <trkpt lat="44.4513" lon="1.45858">
        <ele>272</ele>
        <time>2011-03-10T10:18:26</time>
      </trkpt>
      <trkpt lat="44.45132" lon="1.45853">
        <ele>272</ele>
        <time>2011-03-10T10:18:31</time>
      </trkpt>
      <trkpt lat="44.45126" lon="1.4585">
        <ele>272</ele>
        <time>2011-03-10T10:18:33</time>
      </trkpt>
      <trkpt lat="44.45121" lon="1.45842">
        <ele>263</ele>
        <time>2011-03-10T10:18:34</time>
      </trkpt>
      <trkpt lat="44.45119" lon="1.45837">
        <ele>263</ele>
        <time>2011-03-10T10:18:35</time>
      </trkpt>
      <trkpt lat="44.45118" lon="1.45831">
        <ele>263</ele>
        <time>2011-03-10T10:18:37</time>
      </trkpt>
      <trkpt lat="44.45115" lon="1.45818">
        <ele>263</ele>
        <time>2011-03-10T10:18:38</time>
      </trkpt>
      <trkpt lat="44.45114" lon="1.45812">
        <ele>263</ele>
        <time>2011-03-10T10:18:39</time>
      </trkpt>
      <trkpt lat="44.45113" lon="1.45806">
        <ele>263</ele>
        <time>2011-03-10T10:18:41</time>
      </trkpt>
      <trkpt lat="44.45111" lon="1.45792">
        <ele>263</ele>
        <time>2011-03-10T10:18:43</time>
      </trkpt>
      <trkpt lat="44.4511" lon="1.45786">
        <ele>263</ele>
        <time>2011-03-10T10:18:44</time>
      </trkpt>
      <trkpt lat="44.45109" lon="1.45773">
        <ele>263</ele>
        <time>2011-03-10T10:18:46</time>
      </trkpt>
      <trkpt lat="44.45109" lon="1.45761">
        <ele>263</ele>
        <time>2011-03-10T10:18:48</time>
      </trkpt>
      <trkpt lat="44.45109" lon="1.45754">
        <ele>263</ele>
        <time>2011-03-10T10:18:49</time>
      </trkpt>
      <trkpt lat="44.45108" lon="1.45741">
        <ele>263</ele>
        <time>2011-03-10T10:18:51</time>
      </trkpt>
      <trkpt lat="44.45108" lon="1.45734">
        <ele>263</ele>
        <time>2011-03-10T10:18:52</time>
      </trkpt>
      <trkpt lat="44.45108" lon="1.45721">
        <ele>263</ele>
        <time>2011-03-10T10:18:53</time>
      </trkpt>
      <trkpt lat="44.45107" lon="1.45715">
        <ele>263</ele>
        <time>2011-03-10T10:18:55</time>
      </trkpt>
      <trkpt lat="44.45106" lon="1.45701">
        <ele>264</ele>
        <time>2011-03-10T10:18:57</time>
      </trkpt>
      <trkpt lat="44.45105" lon="1.45687">
        <ele>264</ele>
        <time>2011-03-10T10:18:59</time>
      </trkpt>
      <trkpt lat="44.45104" lon="1.45679">
        <ele>264</ele>
        <time>2011-03-10T10:19:00</time>
      </trkpt>
      <trkpt lat="44.45102" lon="1.45664">
        <ele>264</ele>
        <time>2011-03-10T10:19:02</time>
      </trkpt>
      <trkpt lat="44.45101" lon="1.4565">
        <ele>264</ele>
        <time>2011-03-10T10:19:04</time>
      </trkpt>
      <trkpt lat="44.45101" lon="1.45642">
        <ele>264</ele>
        <time>2011-03-10T10:19:05</time>
      </trkpt>
      <trkpt lat="44.451" lon="1.45635">
        <ele>264</ele>
        <time>2011-03-10T10:19:06</time>
      </trkpt>
      <trkpt lat="44.45099" lon="1.45628">
        <ele>264</ele>
        <time>2011-03-10T10:19:07</time>
      </trkpt>
      <trkpt lat="44.45097" lon="1.45614">
        <ele>267</ele>
        <time>2011-03-10T10:19:09</time>
      </trkpt>
      <trkpt lat="44.45096" lon="1.45607">
        <ele>267</ele>
        <time>2011-03-10T10:19:10</time>
      </trkpt>
      <trkpt lat="44.45094" lon="1.45593">
        <ele>267</ele>
        <time>2011-03-10T10:19:12</time>
      </trkpt>
      <trkpt lat="44.45091" lon="1.4558">
        <ele>267</ele>
        <time>2011-03-10T10:19:14</time>
      </trkpt>
      <trkpt lat="44.4509" lon="1.45573">
        <ele>267</ele>
        <time>2011-03-10T10:19:15</time>
      </trkpt>
      <trkpt lat="44.4509" lon="1.45566">
        <ele>267</ele>
        <time>2011-03-10T10:19:16</time>
      </trkpt>
      <trkpt lat="44.45089" lon="1.45559">
        <ele>267</ele>
        <time>2011-03-10T10:19:17</time>
      </trkpt>
      <trkpt lat="44.45088" lon="1.45545">
        <ele>267</ele>
        <time>2011-03-10T10:19:19</time>
      </trkpt>
      <trkpt lat="44.45087" lon="1.45538">
        <ele>268</ele>
        <time>2011-03-10T10:19:20</time>
      </trkpt>
      <trkpt lat="44.45087" lon="1.45523">
        <ele>268</ele>
        <time>2011-03-10T10:19:22</time>
      </trkpt>
      <trkpt lat="44.45088" lon="1.45508">
        <ele>268</ele>
        <time>2011-03-10T10:19:24</time>
      </trkpt>
      <trkpt lat="44.45093" lon="1.45494">
        <ele>268</ele>
        <time>2011-03-10T10:19:26</time>
      </trkpt>
      <trkpt lat="44.45095" lon="1.45488">
        <ele>268</ele>
        <time>2011-03-10T10:19:27</time>
      </trkpt>
      <trkpt lat="44.45098" lon="1.45482">
        <ele>268</ele>
        <time>2011-03-10T10:19:28</time>
      </trkpt>
      <trkpt lat="44.45104" lon="1.45472">
        <ele>268</ele>
        <time>2011-03-10T10:19:30</time>
      </trkpt>
      <trkpt lat="44.45106" lon="1.45467">
        <ele>268</ele>
        <time>2011-03-10T10:19:31</time>
      </trkpt>
      <trkpt lat="44.4511" lon="1.45457">
        <ele>262</ele>
        <time>2011-03-10T10:19:33</time>
      </trkpt>
      <trkpt lat="44.45112" lon="1.45452">
        <ele>262</ele>
        <time>2011-03-10T10:19:34</time>
      </trkpt>
      <trkpt lat="44.45116" lon="1.45441">
        <ele>262</ele>
        <time>2011-03-10T10:19:36</time>
      </trkpt>
      <trkpt lat="44.45119" lon="1.45431">
        <ele>262</ele>
        <time>2011-03-10T10:19:38</time>
      </trkpt>
      <trkpt lat="44.45123" lon="1.45421">
        <ele>262</ele>
        <time>2011-03-10T10:19:40</time>
      </trkpt>
      <trkpt lat="44.45126" lon="1.45413">
        <ele>279</ele>
        <time>2011-03-10T10:19:42</time>
      </trkpt>
      <trkpt lat="44.4513" lon="1.45406">
        <ele>279</ele>
        <time>2011-03-10T10:19:44</time>
      </trkpt>
      <trkpt lat="44.45132" lon="1.45403">
        <ele>279</ele>
        <time>2011-03-10T10:19:45</time>
      </trkpt>
      <trkpt lat="44.45137" lon="1.45396">
        <ele>279</ele>
        <time>2011-03-10T10:19:47</time>
      </trkpt>
      <trkpt lat="44.45144" lon="1.45392">
        <ele>279</ele>
        <time>2011-03-10T10:19:49</time>
      </trkpt>
      <trkpt lat="44.45147" lon="1.4539">
        <ele>279</ele>
        <time>2011-03-10T10:19:50</time>
      </trkpt>
      <trkpt lat="44.45154" lon="1.45386">
        <ele>279</ele>
        <time>2011-03-10T10:19:52</time>
      </trkpt>
      <trkpt lat="44.45157" lon="1.45385">
        <ele>279</ele>
        <time>2011-03-10T10:19:53</time>
      </trkpt>
      <trkpt lat="44.45161" lon="1.45383">
        <ele>279</ele>
        <time>2011-03-10T10:19:54</time>
      </trkpt>
      <trkpt lat="44.45164" lon="1.45382">
        <ele>279</ele>
        <time>2011-03-10T10:19:55</time>
      </trkpt>
      <trkpt lat="44.45171" lon="1.4538">
        <ele>279</ele>
        <time>2011-03-10T10:19:57</time>
      </trkpt>
      <trkpt lat="44.45177" lon="1.45377">
        <ele>279</ele>
        <time>2011-03-10T10:19:59</time>
      </trkpt>
      <trkpt lat="44.45183" lon="1.45373">
        <ele>273</ele>
        <time>2011-03-10T10:20:01</time>
      </trkpt>
      <trkpt lat="44.45186" lon="1.45371">
        <ele>273</ele>
        <time>2011-03-10T10:20:02</time>
      </trkpt>
      <trkpt lat="44.45189" lon="1.4537">
        <ele>273</ele>
        <time>2011-03-10T10:20:03</time>
      </trkpt>
      <trkpt lat="44.45195" lon="1.45367">
        <ele>273</ele>
        <time>2011-03-10T10:20:05</time>
      </trkpt>
      <trkpt lat="44.45198" lon="1.45365">
        <ele>273</ele>
        <time>2011-03-10T10:20:06</time>
      </trkpt>
      <trkpt lat="44.45204" lon="1.45362">
        <ele>273</ele>
        <time>2011-03-10T10:20:08</time>
      </trkpt>
      <trkpt lat="44.45209" lon="1.4536">
        <ele>271</ele>
        <time>2011-03-10T10:20:10</time>
      </trkpt>
      <trkpt lat="44.45214" lon="1.45356">
        <ele>271</ele>
        <time>2011-03-10T10:20:12</time>
      </trkpt>
      <trkpt lat="44.4522" lon="1.45352">
        <ele>271</ele>
        <time>2011-03-10T10:20:14</time>
      </trkpt>
      <trkpt lat="44.45227" lon="1.45347">
        <ele>271</ele>
        <time>2011-03-10T10:20:16</time>
      </trkpt>
      <trkpt lat="44.45235" lon="1.45344">
        <ele>271</ele>
        <time>2011-03-10T10:20:18</time>
      </trkpt>
      <trkpt lat="44.45243" lon="1.45341">
        <ele>271</ele>
        <time>2011-03-10T10:20:20</time>
      </trkpt>
      <trkpt lat="44.45248" lon="1.4534">
        <ele>271</ele>
        <time>2011-03-10T10:20:21</time>
      </trkpt>
      <trkpt lat="44.45258" lon="1.45337">
        <ele>271</ele>
        <time>2011-03-10T10:20:23</time>
      </trkpt>
      <trkpt lat="44.45268" lon="1.45338">
        <ele>271</ele>
        <time>2011-03-10T10:20:25</time>
      </trkpt>
      <trkpt lat="44.45279" lon="1.4534">
        <ele>271</ele>
        <time>2011-03-10T10:20:27</time>
      </trkpt>
      <trkpt lat="44.45284" lon="1.45341">
        <ele>271</ele>
        <time>2011-03-10T10:20:28</time>
      </trkpt>
      <trkpt lat="44.45294" lon="1.45344">
        <ele>265</ele>
        <time>2011-03-10T10:20:30</time>
      </trkpt>
      <trkpt lat="44.45299" lon="1.45345">
        <ele>265</ele>
        <time>2011-03-10T10:20:31</time>
      </trkpt>
      <trkpt lat="44.45312" lon="1.45348">
        <ele>265</ele>
        <time>2011-03-10T10:20:32</time>
      </trkpt>
      <trkpt lat="44.45318" lon="1.4535">
        <ele>265</ele>
        <time>2011-03-10T10:20:33</time>
      </trkpt>
      <trkpt lat="44.45325" lon="1.45352">
        <ele>265</ele>
        <time>2011-03-10T10:20:35</time>
      </trkpt>
      <trkpt lat="44.45339" lon="1.45357">
        <ele>265</ele>
        <time>2011-03-10T10:20:37</time>
      </trkpt>
      <trkpt lat="44.45345" lon="1.45359">
        <ele>265</ele>
        <time>2011-03-10T10:20:38</time>
      </trkpt>
      <trkpt lat="44.45352" lon="1.45361">
        <ele>265</ele>
        <time>2011-03-10T10:20:39</time>
      </trkpt>
      <trkpt lat="44.45365" lon="1.45362">
        <ele>265</ele>
        <time>2011-03-10T10:20:41</time>
      </trkpt>
      <trkpt lat="44.45372" lon="1.45363">
        <ele>265</ele>
        <time>2011-03-10T10:20:42</time>
      </trkpt>
      <trkpt lat="44.45378" lon="1.45364">
        <ele>250</ele>
        <time>2011-03-10T10:20:43</time>
      </trkpt>
      <trkpt lat="44.4539" lon="1.45369">
        <ele>250</ele>
        <time>2011-03-10T10:20:45</time>
      </trkpt>
      <trkpt lat="44.45395" lon="1.45373">
        <ele>250</ele>
        <time>2011-03-10T10:20:46</time>
      </trkpt>
      <trkpt lat="44.45404" lon="1.4538">
        <ele>246</ele>
        <time>2011-03-10T10:20:48</time>
      </trkpt>
      <trkpt lat="44.45409" lon="1.45383">
        <ele>246</ele>
        <time>2011-03-10T10:20:49</time>
      </trkpt>
      <trkpt lat="44.4542" lon="1.45385">
        <ele>246</ele>
        <time>2011-03-10T10:20:51</time>
      </trkpt>
      <trkpt lat="44.45431" lon="1.45387">
        <ele>246</ele>
        <time>2011-03-10T10:20:53</time>
      </trkpt>
      <trkpt lat="44.45443" lon="1.45391">
        <ele>246</ele>
        <time>2011-03-10T10:20:55</time>
      </trkpt>
      <trkpt lat="44.45449" lon="1.45394">
        <ele>246</ele>
        <time>2011-03-10T10:20:56</time>
      </trkpt>
      <trkpt lat="44.45461" lon="1.454">
        <ele>229</ele>
        <time>2011-03-10T10:20:58</time>
      </trkpt>
      <trkpt lat="44.45473" lon="1.45409">
        <ele>229</ele>
        <time>2011-03-10T10:21:00</time>
      </trkpt>
      <trkpt lat="44.45479" lon="1.45413">
        <ele>229</ele>
        <time>2011-03-10T10:21:01</time>
      </trkpt>
      <trkpt lat="44.45485" lon="1.45417">
        <ele>229</ele>
        <time>2011-03-10T10:21:02</time>
      </trkpt>
      <trkpt lat="44.45499" lon="1.45425">
        <ele>229</ele>
        <time>2011-03-10T10:21:04</time>
      </trkpt>
      <trkpt lat="44.45514" lon="1.45431">
        <ele>229</ele>
        <time>2011-03-10T10:21:06</time>
      </trkpt>
      <trkpt lat="44.45521" lon="1.45434">
        <ele>229</ele>
        <time>2011-03-10T10:21:07</time>
      </trkpt>
      <trkpt lat="44.45535" lon="1.45441">
        <ele>229</ele>
        <time>2011-03-10T10:21:09</time>
      </trkpt>
      <trkpt lat="44.45541" lon="1.45445">
        <ele>229</ele>
        <time>2011-03-10T10:21:10</time>
      </trkpt>
      <trkpt lat="44.45552" lon="1.45454">
        <ele>213</ele>
        <time>2011-03-10T10:21:12</time>
      </trkpt>
      <trkpt lat="44.45558" lon="1.45458">
        <ele>213</ele>
        <time>2011-03-10T10:21:13</time>
      </trkpt>
      <trkpt lat="44.45564" lon="1.45461">
        <ele>209</ele>
        <time>2011-03-10T10:21:14</time>
      </trkpt>
      <trkpt lat="44.45576" lon="1.45466">
        <ele>209</ele>
        <time>2011-03-10T10:21:16</time>
      </trkpt>
      <trkpt lat="44.45587" lon="1.45473">
        <ele>209</ele>
        <time>2011-03-10T10:21:18</time>
      </trkpt>
      <trkpt lat="44.45592" lon="1.45478">
        <ele>209</ele>
        <time>2011-03-10T10:21:19</time>
      </trkpt>
      <trkpt lat="44.45597" lon="1.45483">
        <ele>209</ele>
        <time>2011-03-10T10:21:20</time>
      </trkpt>
      <trkpt lat="44.45602" lon="1.45488">
        <ele>209</ele>
        <time>2011-03-10T10:21:21</time>
      </trkpt>
      <trkpt lat="44.45606" lon="1.45493">
        <ele>209</ele>
        <time>2011-03-10T10:21:22</time>
      </trkpt>
      <trkpt lat="44.45615" lon="1.45501">
        <ele>209</ele>
        <time>2011-03-10T10:21:24</time>
      </trkpt>
      <trkpt lat="44.45625" lon="1.45505">
        <ele>209</ele>
        <time>2011-03-10T10:21:26</time>
      </trkpt>
      <trkpt lat="44.45634" lon="1.4551">
        <ele>206</ele>
        <time>2011-03-10T10:21:28</time>
      </trkpt>
      <trkpt lat="44.45636" lon="1.45516">
        <ele>206</ele>
        <time>2011-03-10T10:21:29</time>
      </trkpt>
      <trkpt lat="44.45638" lon="1.45521">
        <ele>206</ele>
        <time>2011-03-10T10:21:30</time>
      </trkpt>
      <trkpt lat="44.45641" lon="1.45523">
        <ele>206</ele>
        <time>2011-03-10T10:21:31</time>
      </trkpt>
      <trkpt lat="44.45646" lon="1.45527">
        <ele>206</ele>
        <time>2011-03-10T10:21:33</time>
      </trkpt>
      <trkpt lat="44.45653" lon="1.45528">
        <ele>206</ele>
        <time>2011-03-10T10:21:35</time>
      </trkpt>
      <trkpt lat="44.45657" lon="1.45528">
        <ele>206</ele>
        <time>2011-03-10T10:21:36</time>
      </trkpt>
      <trkpt lat="44.45666" lon="1.45526">
        <ele>206</ele>
        <time>2011-03-10T10:21:38</time>
      </trkpt>
      <trkpt lat="44.45672" lon="1.45526">
        <ele>206</ele>
        <time>2011-03-10T10:21:40</time>
      </trkpt>
      <trkpt lat="44.45674" lon="1.45526">
        <ele>206</ele>
        <time>2011-03-10T10:21:41</time>
      </trkpt>
      <trkpt lat="44.45679" lon="1.45526">
        <ele>206</ele>
        <time>2011-03-10T10:21:43</time>
      </trkpt>
      <trkpt lat="44.4568" lon="1.45525">
        <ele>206</ele>
        <time>2011-03-10T10:21:45</time>
      </trkpt>
      <trkpt lat="44.45686" lon="1.45519">
        <ele>206</ele>
        <time>2011-03-10T10:21:47</time>
      </trkpt>
      <trkpt lat="44.45693" lon="1.45517">
        <ele>206</ele>
        <time>2011-03-10T10:21:49</time>
      </trkpt>
      <trkpt lat="44.45696" lon="1.45519">
        <ele>206</ele>
        <time>2011-03-10T10:21:50</time>
      </trkpt>
      <trkpt lat="44.45704" lon="1.45526">
        <ele>206</ele>
        <time>2011-03-10T10:21:52</time>
      </trkpt>
      <trkpt lat="44.45709" lon="1.45536">
        <ele>194</ele>
        <time>2011-03-10T10:21:53</time>
      </trkpt>
      <trkpt lat="44.45713" lon="1.4554">
        <ele>194</ele>
        <time>2011-03-10T10:21:55</time>
      </trkpt>
      <trkpt lat="44.45723" lon="1.4555">
        <ele>199</ele>
        <time>2011-03-10T10:21:57</time>
      </trkpt>
      <trkpt lat="44.45732" lon="1.45558">
        <ele>199</ele>
        <time>2011-03-10T10:21:59</time>
      </trkpt>
      <trkpt lat="44.45737" lon="1.45561">
        <ele>199</ele>
        <time>2011-03-10T10:22:00</time>
      </trkpt>
      <trkpt lat="44.45746" lon="1.45569">
        <ele>199</ele>
        <time>2011-03-10T10:22:02</time>
      </trkpt>
      <trkpt lat="44.45757" lon="1.45576">
        <ele>199</ele>
        <time>2011-03-10T10:22:04</time>
      </trkpt>
      <trkpt lat="44.45768" lon="1.45582">
        <ele>199</ele>
        <time>2011-03-10T10:22:06</time>
      </trkpt>
      <trkpt lat="44.45778" lon="1.45589">
        <ele>199</ele>
        <time>2011-03-10T10:22:08</time>
      </trkpt>
      <trkpt lat="44.45786" lon="1.45595">
        <ele>199</ele>
        <time>2011-03-10T10:22:10</time>
      </trkpt>
      <trkpt lat="44.45793" lon="1.45599">
        <ele>187</ele>
        <time>2011-03-10T10:22:12</time>
      </trkpt>
      <trkpt lat="44.45795" lon="1.45602">
        <ele>187</ele>
        <time>2011-03-10T10:22:13</time>
      </trkpt>
      <trkpt lat="44.458" lon="1.45607">
        <ele>187</ele>
        <time>2011-03-10T10:22:14</time>
      </trkpt>
      <trkpt lat="44.45802" lon="1.4561">
        <ele>187</ele>
        <time>2011-03-10T10:22:16</time>
      </trkpt>
      <trkpt lat="44.45806" lon="1.45614">
        <ele>187</ele>
        <time>2011-03-10T10:22:17</time>
      </trkpt>
      <trkpt lat="44.45811" lon="1.45618">
        <ele>187</ele>
        <time>2011-03-10T10:22:22</time>
      </trkpt>
      <trkpt lat="44.45812" lon="1.45624">
        <ele>187</ele>
        <time>2011-03-10T10:22:27</time>
      </trkpt>
      <trkpt lat="44.45813" lon="1.45629">
        <ele>200</ele>
        <time>2011-03-10T10:22:29</time>
      </trkpt>
      <trkpt lat="44.45814" lon="1.45632">
        <ele>200</ele>
        <time>2011-03-10T10:22:32</time>
      </trkpt>
      <trkpt lat="44.45814" lon="1.45636">
        <ele>200</ele>
        <time>2011-03-10T10:22:34</time>
      </trkpt>
      <trkpt lat="44.45814" lon="1.45641">
        <ele>200</ele>
        <time>2011-03-10T10:22:35</time>
      </trkpt>
      <trkpt lat="44.45814" lon="1.45644">
        <ele>200</ele>
        <time>2011-03-10T10:22:37</time>
      </trkpt>
      <trkpt lat="44.45813" lon="1.45649">
        <ele>200</ele>
        <time>2011-03-10T10:22:40</time>
      </trkpt>
      <trkpt lat="44.45815" lon="1.45653">
        <ele>200</ele>
        <time>2011-03-10T10:22:43</time>
      </trkpt>
      <trkpt lat="44.45817" lon="1.45656">
        <ele>200</ele>
        <time>2011-03-10T10:22:45</time>
      </trkpt>
      <trkpt lat="44.45821" lon="1.45658">
        <ele>200</ele>
        <time>2011-03-10T10:22:46</time>
      </trkpt>
      <trkpt lat="44.45821" lon="1.45658">
        <ele>200</ele>
        <time>2011-03-10T10:23:06</time>
      </trkpt>
      <trkpt lat="44.45827" lon="1.45662">
        <ele>200</ele>
        <time>2011-03-10T10:23:13</time>
      </trkpt>
      <trkpt lat="44.4583" lon="1.45665">
        <ele>200</ele>
        <time>2011-03-10T10:23:16</time>
      </trkpt>
      <trkpt lat="44.4583" lon="1.45665">
        <ele>200</ele>
        <time>2011-03-10T10:23:16</time>
      </trkpt>
      <trkpt lat="44.45833" lon="1.4567">
        <ele>200</ele>
        <time>2011-03-10T10:23:19</time>
      </trkpt>
      <trkpt lat="44.45836" lon="1.45675">
        <ele>200</ele>
        <time>2011-03-10T10:23:20</time>
      </trkpt>
      <trkpt lat="44.45838" lon="1.4568">
        <ele>200</ele>
        <time>2011-03-10T10:23:22</time>
      </trkpt>
      <trkpt lat="44.4584" lon="1.45684">
        <ele>200</ele>
        <time>2011-03-10T10:23:25</time>
      </trkpt>
      <trkpt lat="44.45842" lon="1.4569">
        <ele>200</ele>
        <time>2011-03-10T10:23:26</time>
      </trkpt>
      <trkpt lat="44.45844" lon="1.45696">
        <ele>200</ele>
        <time>2011-03-10T10:23:29</time>
      </trkpt>
      <trkpt lat="44.45845" lon="1.45701">
        <ele>200</ele>
        <time>2011-03-10T10:23:31</time>
      </trkpt>
      <trkpt lat="44.45848" lon="1.45705">
        <ele>200</ele>
        <time>2011-03-10T10:23:32</time>
      </trkpt>
      <trkpt lat="44.45852" lon="1.4571">
        <ele>196</ele>
        <time>2011-03-10T10:23:35</time>
      </trkpt>
      <trkpt lat="44.45854" lon="1.45716">
        <ele>196</ele>
        <time>2011-03-10T10:23:37</time>
      </trkpt>
      <trkpt lat="44.45855" lon="1.45719">
        <ele>196</ele>
        <time>2011-03-10T10:23:38</time>
      </trkpt>
      <trkpt lat="44.45859" lon="1.45725">
        <ele>196</ele>
        <time>2011-03-10T10:23:40</time>
      </trkpt>
      <trkpt lat="44.45861" lon="1.45728">
        <ele>196</ele>
        <time>2011-03-10T10:23:41</time>
      </trkpt>
      <trkpt lat="44.45865" lon="1.45735">
        <ele>196</ele>
        <time>2011-03-10T10:23:42</time>
      </trkpt>
      <trkpt lat="44.45866" lon="1.45738">
        <ele>196</ele>
        <time>2011-03-10T10:23:44</time>
      </trkpt>
      <trkpt lat="44.45869" lon="1.45743">
        <ele>196</ele>
        <time>2011-03-10T10:23:45</time>
      </trkpt>
      <trkpt lat="44.45875" lon="1.45745">
        <ele>196</ele>
        <time>2011-03-10T10:23:48</time>
      </trkpt>
      <trkpt lat="44.4588" lon="1.4575">
        <ele>193</ele>
        <time>2011-03-10T10:23:50</time>
      </trkpt>
      <trkpt lat="44.45885" lon="1.45755">
        <ele>193</ele>
        <time>2011-03-10T10:23:51</time>
      </trkpt>
      <trkpt lat="44.45888" lon="1.45759">
        <ele>193</ele>
        <time>2011-03-10T10:23:53</time>
      </trkpt>
      <trkpt lat="44.45893" lon="1.4577">
        <ele>193</ele>
        <time>2011-03-10T10:23:55</time>
      </trkpt>
      <trkpt lat="44.45899" lon="1.45778">
        <ele>193</ele>
        <time>2011-03-10T10:23:57</time>
      </trkpt>
      <trkpt lat="44.45903" lon="1.45784">
        <ele>193</ele>
        <time>2011-03-10T10:23:59</time>
      </trkpt>
      <trkpt lat="44.45904" lon="1.45789">
        <ele>193</ele>
        <time>2011-03-10T10:24:01</time>
      </trkpt>
      <trkpt lat="44.45906" lon="1.45794">
        <ele>190</ele>
        <time>2011-03-10T10:24:03</time>
      </trkpt>
      <trkpt lat="44.4591" lon="1.45799">
        <ele>190</ele>
        <time>2011-03-10T10:24:04</time>
      </trkpt>
      <trkpt lat="44.45912" lon="1.45802">
        <ele>190</ele>
        <time>2011-03-10T10:24:05</time>
      </trkpt>
      <trkpt lat="44.45915" lon="1.45804">
        <ele>190</ele>
        <time>2011-03-10T10:24:07</time>
      </trkpt>
      <trkpt lat="44.4592" lon="1.45806">
        <ele>190</ele>
        <time>2011-03-10T10:24:09</time>
      </trkpt>
      <trkpt lat="44.45922" lon="1.45807">
        <ele>190</ele>
        <time>2011-03-10T10:24:10</time>
      </trkpt>
      <trkpt lat="44.45926" lon="1.45808">
        <ele>190</ele>
        <time>2011-03-10T10:24:12</time>
      </trkpt>
      <trkpt lat="44.45928" lon="1.45813">
        <ele>190</ele>
        <time>2011-03-10T10:24:14</time>
      </trkpt>
      <trkpt lat="44.45927" lon="1.45819">
        <ele>190</ele>
        <time>2011-03-10T10:24:16</time>
      </trkpt>
      <trkpt lat="44.45925" lon="1.45822">
        <ele>190</ele>
        <time>2011-03-10T10:24:17</time>
      </trkpt>
      <trkpt lat="44.45923" lon="1.45823">
        <ele>190</ele>
        <time>2011-03-10T10:24:19</time>
      </trkpt>
      <trkpt lat="44.45919" lon="1.45822">
        <ele>190</ele>
        <time>2011-03-10T10:24:23</time>
      </trkpt>
      <trkpt lat="44.45917" lon="1.45819">
        <ele>190</ele>
        <time>2011-03-10T10:24:24</time>
      </trkpt>
      <trkpt lat="44.45915" lon="1.45816">
        <ele>190</ele>
        <time>2011-03-10T10:24:27</time>
      </trkpt>
      <trkpt lat="44.45913" lon="1.45814">
        <ele>190</ele>
        <time>2011-03-10T10:24:29</time>
      </trkpt>
      <trkpt lat="44.45911" lon="1.45813">
        <ele>190</ele>
        <time>2011-03-10T10:24:31</time>
      </trkpt>
      <trkpt lat="44.45906" lon="1.45815">
        <ele>190</ele>
        <time>2011-03-10T10:24:32</time>
      </trkpt>
      <trkpt lat="44.45904" lon="1.45815">
        <ele>190</ele>
        <time>2011-03-10T10:24:34</time>
      </trkpt>
      <trkpt lat="44.45901" lon="1.45812">
        <ele>190</ele>
        <time>2011-03-10T10:24:36</time>
      </trkpt>
      <trkpt lat="44.45898" lon="1.45808">
        <ele>190</ele>
        <time>2011-03-10T10:24:38</time>
      </trkpt>
      <trkpt lat="44.45896" lon="1.45806">
        <ele>190</ele>
        <time>2011-03-10T10:24:40</time>
      </trkpt>
      <trkpt lat="44.45893" lon="1.45804">
        <ele>190</ele>
        <time>2011-03-10T10:24:42</time>
      </trkpt>
      <trkpt lat="44.4589" lon="1.45803">
        <ele>190</ele>
        <time>2011-03-10T10:24:44</time>
      </trkpt>
      <trkpt lat="44.45887" lon="1.45801">
        <ele>190</ele>
        <time>2011-03-10T10:24:45</time>
      </trkpt>
      <trkpt lat="44.45885" lon="1.45798">
        <ele>190</ele>
        <time>2011-03-10T10:24:48</time>
      </trkpt>
      <trkpt lat="44.45883" lon="1.45796">
        <ele>190</ele>
        <time>2011-03-10T10:24:49</time>
      </trkpt>
      <trkpt lat="44.4588" lon="1.45795">
        <ele>190</ele>
        <time>2011-03-10T10:24:52</time>
      </trkpt>
      <trkpt lat="44.45877" lon="1.45793">
        <ele>190</ele>
        <time>2011-03-10T10:24:54</time>
      </trkpt>
      <trkpt lat="44.45875" lon="1.4579">
        <ele>196</ele>
        <time>2011-03-10T10:24:56</time>
      </trkpt>
      <trkpt lat="44.45872" lon="1.45788">
        <ele>196</ele>
        <time>2011-03-10T10:24:58</time>
      </trkpt>
      <trkpt lat="44.45869" lon="1.45783">
        <ele>196</ele>
        <time>2011-03-10T10:25:01</time>
      </trkpt>
      <trkpt lat="44.45866" lon="1.4578">
        <ele>196</ele>
        <time>2011-03-10T10:25:03</time>
      </trkpt>
      <trkpt lat="44.45864" lon="1.45776">
        <ele>196</ele>
        <time>2011-03-10T10:25:05</time>
      </trkpt>
      <trkpt lat="44.45861" lon="1.45773">
        <ele>196</ele>
        <time>2011-03-10T10:25:07</time>
      </trkpt>
      <trkpt lat="44.45858" lon="1.45769">
        <ele>196</ele>
        <time>2011-03-10T10:25:09</time>
      </trkpt>
      <trkpt lat="44.45854" lon="1.45765">
        <ele>196</ele>
        <time>2011-03-10T10:25:11</time>
      </trkpt>
      <trkpt lat="44.45852" lon="1.45761">
        <ele>196</ele>
        <time>2011-03-10T10:25:13</time>
      </trkpt>
      <trkpt lat="44.4585" lon="1.45759">
        <ele>196</ele>
        <time>2011-03-10T10:25:14</time>
      </trkpt>
      <trkpt lat="44.45848" lon="1.45755">
        <ele>196</ele>
        <time>2011-03-10T10:25:16</time>
      </trkpt>
      <trkpt lat="44.45844" lon="1.45753">
        <ele>196</ele>
        <time>2011-03-10T10:25:18</time>
      </trkpt>
      <trkpt lat="44.45839" lon="1.45751">
        <ele>196</ele>
        <time>2011-03-10T10:25:20</time>
      </trkpt>
      <trkpt lat="44.45833" lon="1.45749">
        <ele>196</ele>
        <time>2011-03-10T10:25:22</time>
      </trkpt>
      <trkpt lat="44.4583" lon="1.45748">
        <ele>196</ele>
        <time>2011-03-10T10:25:24</time>
      </trkpt>
      <trkpt lat="44.45828" lon="1.45747">
        <ele>196</ele>
        <time>2011-03-10T10:25:25</time>
      </trkpt>
      <trkpt lat="44.45826" lon="1.45746">
        <ele>196</ele>
        <time>2011-03-10T10:25:26</time>
      </trkpt>
      <trkpt lat="44.45821" lon="1.45742">
        <ele>196</ele>
        <time>2011-03-10T10:25:28</time>
      </trkpt>
      <trkpt lat="44.45814" lon="1.45738">
        <ele>196</ele>
        <time>2011-03-10T10:25:30</time>
      </trkpt>
      <trkpt lat="44.45811" lon="1.45736">
        <ele>196</ele>
        <time>2011-03-10T10:25:31</time>
      </trkpt>
      <trkpt lat="44.45808" lon="1.45734">
        <ele>196</ele>
        <time>2011-03-10T10:25:32</time>
      </trkpt>
      <trkpt lat="44.45805" lon="1.45732">
        <ele>196</ele>
        <time>2011-03-10T10:25:33</time>
      </trkpt>
      <trkpt lat="44.45799" lon="1.45728">
        <ele>196</ele>
        <time>2011-03-10T10:25:35</time>
      </trkpt>
      <trkpt lat="44.45793" lon="1.45722">
        <ele>196</ele>
        <time>2011-03-10T10:25:37</time>
      </trkpt>
      <trkpt lat="44.4579" lon="1.45719">
        <ele>179</ele>
        <time>2011-03-10T10:25:38</time>
      </trkpt>
      <trkpt lat="44.45786" lon="1.45714">
        <ele>179</ele>
        <time>2011-03-10T10:25:40</time>
      </trkpt>
      <trkpt lat="44.45783" lon="1.45712">
        <ele>179</ele>
        <time>2011-03-10T10:25:42</time>
      </trkpt>
      <trkpt lat="44.45778" lon="1.45712">
        <ele>179</ele>
        <time>2011-03-10T10:25:44</time>
      </trkpt>
      <trkpt lat="44.45775" lon="1.45712">
        <ele>179</ele>
        <time>2011-03-10T10:25:45</time>
      </trkpt>
      <trkpt lat="44.45772" lon="1.45712">
        <ele>179</ele>
        <time>2011-03-10T10:25:46</time>
      </trkpt>
      <trkpt lat="44.45767" lon="1.45707">
        <ele>191</ele>
        <time>2011-03-10T10:25:48</time>
      </trkpt>
      <trkpt lat="44.45765" lon="1.45704">
        <ele>191</ele>
        <time>2011-03-10T10:25:49</time>
      </trkpt>
      <trkpt lat="44.45761" lon="1.45698">
        <ele>191</ele>
        <time>2011-03-10T10:25:51</time>
      </trkpt>
      <trkpt lat="44.45758" lon="1.45693">
        <ele>191</ele>
        <time>2011-03-10T10:25:53</time>
      </trkpt>
      <trkpt lat="44.45754" lon="1.45686">
        <ele>191</ele>
        <time>2011-03-10T10:25:55</time>
      </trkpt>
      <trkpt lat="44.45751" lon="1.45679">
        <ele>191</ele>
        <time>2011-03-10T10:25:57</time>
      </trkpt>
      <trkpt lat="44.45747" lon="1.45674">
        <ele>191</ele>
        <time>2011-03-10T10:25:59</time>
      </trkpt>
      <trkpt lat="44.45742" lon="1.4567">
        <ele>191</ele>
        <time>2011-03-10T10:26:01</time>
      </trkpt>
      <trkpt lat="44.45739" lon="1.45668">
        <ele>191</ele>
        <time>2011-03-10T10:26:02</time>
      </trkpt>
      <trkpt lat="44.45732" lon="1.45665">
        <ele>191</ele>
        <time>2011-03-10T10:26:05</time>
      </trkpt>
      <trkpt lat="44.45728" lon="1.45663">
        <ele>191</ele>
        <time>2011-03-10T10:26:07</time>
      </trkpt>
      <trkpt lat="44.45726" lon="1.45663">
        <ele>191</ele>
        <time>2011-03-10T10:26:08</time>
      </trkpt>
      <trkpt lat="44.45722" lon="1.45666">
        <ele>191</ele>
        <time>2011-03-10T10:26:10</time>
      </trkpt>
      <trkpt lat="44.45719" lon="1.45669">
        <ele>191</ele>
        <time>2011-03-10T10:26:11</time>
      </trkpt>
      <trkpt lat="44.45716" lon="1.45673">
        <ele>191</ele>
        <time>2011-03-10T10:26:12</time>
      </trkpt>
      <trkpt lat="44.4571" lon="1.45682">
        <ele>191</ele>
        <time>2011-03-10T10:26:14</time>
      </trkpt>
      <trkpt lat="44.45705" lon="1.45689">
        <ele>184</ele>
        <time>2011-03-10T10:26:16</time>
      </trkpt>
      <trkpt lat="44.45705" lon="1.45689">
        <ele>184</ele>
        <time>2011-03-10T10:26:35</time>
      </trkpt>
      <trkpt lat="44.45704" lon="1.45696">
        <ele>184</ele>
        <time>2011-03-10T10:26:37</time>
      </trkpt>
      <trkpt lat="44.45706" lon="1.45702">
        <ele>184</ele>
        <time>2011-03-10T10:26:39</time>
      </trkpt>
      <trkpt lat="44.45706" lon="1.45702">
        <ele>184</ele>
        <time>2011-03-10T10:26:39</time>
      </trkpt>
      <trkpt lat="44.45707" lon="1.45711">
        <ele>181</ele>
        <time>2011-03-10T10:26:41</time>
      </trkpt>
      <trkpt lat="44.45705" lon="1.4572">
        <ele>181</ele>
        <time>2011-03-10T10:26:43</time>
      </trkpt>
      <trkpt lat="44.45704" lon="1.45724">
        <ele>181</ele>
        <time>2011-03-10T10:26:44</time>
      </trkpt>
      <trkpt lat="44.45703" lon="1.45728">
        <ele>181</ele>
        <time>2011-03-10T10:26:45</time>
      </trkpt>
      <trkpt lat="44.45704" lon="1.45737">
        <ele>181</ele>
        <time>2011-03-10T10:26:47</time>
      </trkpt>
      <trkpt lat="44.45708" lon="1.45745">
        <ele>181</ele>
        <time>2011-03-10T10:26:49</time>
      </trkpt>
      <trkpt lat="44.45713" lon="1.45753">
        <ele>179</ele>
        <time>2011-03-10T10:26:51</time>
      </trkpt>
      <trkpt lat="44.45715" lon="1.45757">
        <ele>179</ele>
        <time>2011-03-10T10:26:52</time>
      </trkpt>
      <trkpt lat="44.45717" lon="1.45761">
        <ele>179</ele>
        <time>2011-03-10T10:26:53</time>
      </trkpt>
      <trkpt lat="44.4572" lon="1.45766">
        <ele>179</ele>
        <time>2011-03-10T10:26:54</time>
      </trkpt>
      <trkpt lat="44.45726" lon="1.45775">
        <ele>179</ele>
        <time>2011-03-10T10:26:56</time>
      </trkpt>
      <trkpt lat="44.45732" lon="1.45785">
        <ele>179</ele>
        <time>2011-03-10T10:26:58</time>
      </trkpt>
      <trkpt lat="44.45739" lon="1.45796">
        <ele>176</ele>
        <time>2011-03-10T10:27:00</time>
      </trkpt>
      <trkpt lat="44.45747" lon="1.45808">
        <ele>176</ele>
        <time>2011-03-10T10:27:02</time>
      </trkpt>
      <trkpt lat="44.45755" lon="1.45822">
        <ele>176</ele>
        <time>2011-03-10T10:27:04</time>
      </trkpt>
      <trkpt lat="44.45759" lon="1.4583">
        <ele>176</ele>
        <time>2011-03-10T10:27:05</time>
      </trkpt>
      <trkpt lat="44.45764" lon="1.45839">
        <ele>176</ele>
        <time>2011-03-10T10:27:06</time>
      </trkpt>
      <trkpt lat="44.45772" lon="1.45858">
        <ele>176</ele>
        <time>2011-03-10T10:27:08</time>
      </trkpt>
      <trkpt lat="44.4578" lon="1.45875">
        <ele>180</ele>
        <time>2011-03-10T10:27:10</time>
      </trkpt>
      <trkpt lat="44.45785" lon="1.45884">
        <ele>180</ele>
        <time>2011-03-10T10:27:11</time>
      </trkpt>
      <trkpt lat="44.45791" lon="1.45893">
        <ele>180</ele>
        <time>2011-03-10T10:27:12</time>
      </trkpt>
      <trkpt lat="44.45803" lon="1.45909">
        <ele>169</ele>
        <time>2011-03-10T10:27:14</time>
      </trkpt>
      <trkpt lat="44.45816" lon="1.45921">
        <ele>169</ele>
        <time>2011-03-10T10:27:16</time>
      </trkpt>
      <trkpt lat="44.45831" lon="1.45933">
        <ele>169</ele>
        <time>2011-03-10T10:27:18</time>
      </trkpt>
      <trkpt lat="44.45838" lon="1.45939">
        <ele>169</ele>
        <time>2011-03-10T10:27:19</time>
      </trkpt>
      <trkpt lat="44.45848" lon="1.45948">
        <ele>169</ele>
        <time>2011-03-10T10:27:21</time>
      </trkpt>
      <trkpt lat="44.45855" lon="1.45949">
        <ele>169</ele>
        <time>2011-03-10T10:27:23</time>
      </trkpt>
      <trkpt lat="44.4586" lon="1.45948">
        <ele>169</ele>
        <time>2011-03-10T10:27:24</time>
      </trkpt>
      <trkpt lat="44.45869" lon="1.45946">
        <ele>169</ele>
        <time>2011-03-10T10:27:26</time>
      </trkpt>
      <trkpt lat="44.45874" lon="1.45949">
        <ele>169</ele>
        <time>2011-03-10T10:27:27</time>
      </trkpt>
      <trkpt lat="44.45877" lon="1.45952">
        <ele>176</ele>
        <time>2011-03-10T10:27:28</time>
      </trkpt>
      <trkpt lat="44.45885" lon="1.45959">
        <ele>163</ele>
        <time>2011-03-10T10:27:29</time>
      </trkpt>
      <trkpt lat="44.45892" lon="1.45965">
        <ele>163</ele>
        <time>2011-03-10T10:27:31</time>
      </trkpt>
      <trkpt lat="44.45901" lon="1.45971">
        <ele>163</ele>
        <time>2011-03-10T10:27:33</time>
      </trkpt>
      <trkpt lat="44.45906" lon="1.45974">
        <ele>163</ele>
        <time>2011-03-10T10:27:35</time>
      </trkpt>
      <trkpt lat="44.45915" lon="1.4598">
        <ele>163</ele>
        <time>2011-03-10T10:27:37</time>
      </trkpt>
      <trkpt lat="44.45925" lon="1.45985">
        <ele>163</ele>
        <time>2011-03-10T10:27:39</time>
      </trkpt>
      <trkpt lat="44.4593" lon="1.45989">
        <ele>163</ele>
        <time>2011-03-10T10:27:40</time>
      </trkpt>
      <trkpt lat="44.45941" lon="1.45995">
        <ele>163</ele>
        <time>2011-03-10T10:27:42</time>
      </trkpt>
      <trkpt lat="44.45947" lon="1.45998">
        <ele>163</ele>
        <time>2011-03-10T10:27:43</time>
      </trkpt>
      <trkpt lat="44.45953" lon="1.46">
        <ele>163</ele>
        <time>2011-03-10T10:27:44</time>
      </trkpt>
      <trkpt lat="44.45964" lon="1.46006">
        <ele>161</ele>
        <time>2011-03-10T10:27:46</time>
      </trkpt>
      <trkpt lat="44.45969" lon="1.46008">
        <ele>161</ele>
        <time>2011-03-10T10:27:47</time>
      </trkpt>
      <trkpt lat="44.45981" lon="1.46015">
        <ele>161</ele>
        <time>2011-03-10T10:27:49</time>
      </trkpt>
      <trkpt lat="44.45986" lon="1.46018">
        <ele>161</ele>
        <time>2011-03-10T10:27:50</time>
      </trkpt>
      <trkpt lat="44.45997" lon="1.46024">
        <ele>161</ele>
        <time>2011-03-10T10:27:52</time>
      </trkpt>
      <trkpt lat="44.46003" lon="1.46027">
        <ele>161</ele>
        <time>2011-03-10T10:27:53</time>
      </trkpt>
      <trkpt lat="44.46013" lon="1.46032">
        <ele>161</ele>
        <time>2011-03-10T10:27:55</time>
      </trkpt>
      <trkpt lat="44.46019" lon="1.46034">
        <ele>161</ele>
        <time>2011-03-10T10:27:56</time>
      </trkpt>
      <trkpt lat="44.46029" lon="1.46034">
        <ele>161</ele>
        <time>2011-03-10T10:27:58</time>
      </trkpt>
      <trkpt lat="44.46034" lon="1.46033">
        <ele>161</ele>
        <time>2011-03-10T10:27:59</time>
      </trkpt>
      <trkpt lat="44.46043" lon="1.4603">
        <ele>156</ele>
        <time>2011-03-10T10:28:01</time>
      </trkpt>
      <trkpt lat="44.46046" lon="1.46027">
        <ele>156</ele>
        <time>2011-03-10T10:28:02</time>
      </trkpt>
      <trkpt lat="44.46049" lon="1.46024">
        <ele>156</ele>
        <time>2011-03-10T10:28:03</time>
      </trkpt>
      <trkpt lat="44.46056" lon="1.46017">
        <ele>156</ele>
        <time>2011-03-10T10:28:05</time>
      </trkpt>
      <trkpt lat="44.4606" lon="1.46014">
        <ele>156</ele>
        <time>2011-03-10T10:28:06</time>
      </trkpt>
      <trkpt lat="44.46066" lon="1.46007">
        <ele>156</ele>
        <time>2011-03-10T10:28:08</time>
      </trkpt>
      <trkpt lat="44.46069" lon="1.46003">
        <ele>156</ele>
        <time>2011-03-10T10:28:09</time>
      </trkpt>
      <trkpt lat="44.46076" lon="1.45996">
        <ele>156</ele>
        <time>2011-03-10T10:28:11</time>
      </trkpt>
      <trkpt lat="44.4608" lon="1.45992">
        <ele>156</ele>
        <time>2011-03-10T10:28:12</time>
      </trkpt>
      <trkpt lat="44.46086" lon="1.45984">
        <ele>156</ele>
        <time>2011-03-10T10:28:14</time>
      </trkpt>
      <trkpt lat="44.4609" lon="1.4598">
        <ele>156</ele>
        <time>2011-03-10T10:28:15</time>
      </trkpt>
      <trkpt lat="44.46096" lon="1.45972">
        <ele>156</ele>
        <time>2011-03-10T10:28:17</time>
      </trkpt>
      <trkpt lat="44.46099" lon="1.45968">
        <ele>156</ele>
        <time>2011-03-10T10:28:18</time>
      </trkpt>
      <trkpt lat="44.46106" lon="1.4596">
        <ele>156</ele>
        <time>2011-03-10T10:28:20</time>
      </trkpt>
      <trkpt lat="44.4611" lon="1.45956">
        <ele>165</ele>
        <time>2011-03-10T10:28:21</time>
      </trkpt>
      <trkpt lat="44.46117" lon="1.45947">
        <ele>165</ele>
        <time>2011-03-10T10:28:23</time>
      </trkpt>
      <trkpt lat="44.4612" lon="1.45943">
        <ele>165</ele>
        <time>2011-03-10T10:28:24</time>
      </trkpt>
      <trkpt lat="44.46124" lon="1.45938">
        <ele>165</ele>
        <time>2011-03-10T10:28:25</time>
      </trkpt>
      <trkpt lat="44.4613" lon="1.45929">
        <ele>156</ele>
        <time>2011-03-10T10:28:27</time>
      </trkpt>
      <trkpt lat="44.46133" lon="1.45925">
        <ele>156</ele>
        <time>2011-03-10T10:28:28</time>
      </trkpt>
      <trkpt lat="44.4614" lon="1.45915">
        <ele>156</ele>
        <time>2011-03-10T10:28:30</time>
      </trkpt>
      <trkpt lat="44.46144" lon="1.45911">
        <ele>156</ele>
        <time>2011-03-10T10:28:31</time>
      </trkpt>
      <trkpt lat="44.4615" lon="1.45901">
        <ele>156</ele>
        <time>2011-03-10T10:28:33</time>
      </trkpt>
      <trkpt lat="44.46154" lon="1.45897">
        <ele>156</ele>
        <time>2011-03-10T10:28:34</time>
      </trkpt>
      <trkpt lat="44.4616" lon="1.45887">
        <ele>156</ele>
        <time>2011-03-10T10:28:36</time>
      </trkpt>
      <trkpt lat="44.46163" lon="1.45882">
        <ele>156</ele>
        <time>2011-03-10T10:28:37</time>
      </trkpt>
      <trkpt lat="44.46169" lon="1.45871">
        <ele>158</ele>
        <time>2011-03-10T10:28:39</time>
      </trkpt>
      <trkpt lat="44.46172" lon="1.45866">
        <ele>158</ele>
        <time>2011-03-10T10:28:40</time>
      </trkpt>
      <trkpt lat="44.46179" lon="1.45855">
        <ele>158</ele>
        <time>2011-03-10T10:28:42</time>
      </trkpt>
      <trkpt lat="44.46183" lon="1.45851">
        <ele>158</ele>
        <time>2011-03-10T10:28:43</time>
      </trkpt>
      <trkpt lat="44.4619" lon="1.45842">
        <ele>158</ele>
        <time>2011-03-10T10:28:45</time>
      </trkpt>
      <trkpt lat="44.46194" lon="1.45839">
        <ele>158</ele>
        <time>2011-03-10T10:28:46</time>
      </trkpt>
      <trkpt lat="44.46198" lon="1.45835">
        <ele>158</ele>
        <time>2011-03-10T10:28:47</time>
      </trkpt>
      <trkpt lat="44.46206" lon="1.45827">
        <ele>158</ele>
        <time>2011-03-10T10:28:49</time>
      </trkpt>
      <trkpt lat="44.4621" lon="1.45824">
        <ele>158</ele>
        <time>2011-03-10T10:28:50</time>
      </trkpt>
      <trkpt lat="44.46218" lon="1.45817">
        <ele>158</ele>
        <time>2011-03-10T10:28:52</time>
      </trkpt>
      <trkpt lat="44.46221" lon="1.45814">
        <ele>158</ele>
        <time>2011-03-10T10:28:53</time>
      </trkpt>
      <trkpt lat="44.46228" lon="1.45808">
        <ele>158</ele>
        <time>2011-03-10T10:28:55</time>
      </trkpt>
      <trkpt lat="44.46232" lon="1.45804">
        <ele>158</ele>
        <time>2011-03-10T10:28:56</time>
      </trkpt>
      <trkpt lat="44.4624" lon="1.45797">
        <ele>158</ele>
        <time>2011-03-10T10:28:58</time>
      </trkpt>
      <trkpt lat="44.46244" lon="1.45793">
        <ele>158</ele>
        <time>2011-03-10T10:28:59</time>
      </trkpt>
      <trkpt lat="44.46252" lon="1.45784">
        <ele>156</ele>
        <time>2011-03-10T10:29:01</time>
      </trkpt>
      <trkpt lat="44.46256" lon="1.4578">
        <ele>156</ele>
        <time>2011-03-10T10:29:02</time>
      </trkpt>
      <trkpt lat="44.46261" lon="1.4577">
        <ele>156</ele>
        <time>2011-03-10T10:29:04</time>
      </trkpt>
      <trkpt lat="44.46263" lon="1.45767">
        <ele>156</ele>
        <time>2011-03-10T10:29:05</time>
      </trkpt>
      <trkpt lat="44.46263" lon="1.4576">
        <ele>156</ele>
        <time>2011-03-10T10:29:08</time>
      </trkpt>
      <trkpt lat="44.46262" lon="1.45757">
        <ele>156</ele>
        <time>2011-03-10T10:29:09</time>
      </trkpt>
      <trkpt lat="44.46259" lon="1.45753">
        <ele>156</ele>
        <time>2011-03-10T10:29:12</time>
      </trkpt>
      <trkpt lat="44.46256" lon="1.45748">
        <ele>156</ele>
        <time>2011-03-10T10:29:14</time>
      </trkpt>
      <trkpt lat="44.46253" lon="1.45745">
        <ele>156</ele>
        <time>2011-03-10T10:29:15</time>
      </trkpt>
      <trkpt lat="44.46249" lon="1.45739">
        <ele>156</ele>
        <time>2011-03-10T10:29:17</time>
      </trkpt>
      <trkpt lat="44.46247" lon="1.45736">
        <ele>156</ele>
        <time>2011-03-10T10:29:18</time>
      </trkpt>
      <trkpt lat="44.46244" lon="1.4573">
        <ele>156</ele>
        <time>2011-03-10T10:29:20</time>
      </trkpt>
      <trkpt lat="44.46243" lon="1.45727">
        <ele>156</ele>
        <time>2011-03-10T10:29:21</time>
      </trkpt>
      <trkpt lat="44.46241" lon="1.45719">
        <ele>156</ele>
        <time>2011-03-10T10:29:22</time>
      </trkpt>
      <trkpt lat="44.46239" lon="1.45715">
        <ele>156</ele>
        <time>2011-03-10T10:29:24</time>
      </trkpt>
      <trkpt lat="44.46234" lon="1.45707">
        <ele>153</ele>
        <time>2011-03-10T10:29:26</time>
      </trkpt>
      <trkpt lat="44.46231" lon="1.45703">
        <ele>153</ele>
        <time>2011-03-10T10:29:27</time>
      </trkpt>
      <trkpt lat="44.46226" lon="1.45697">
        <ele>153</ele>
        <time>2011-03-10T10:29:28</time>
      </trkpt>
      <trkpt lat="44.46223" lon="1.45693">
        <ele>153</ele>
        <time>2011-03-10T10:29:30</time>
      </trkpt>
      <trkpt lat="44.46221" lon="1.4569">
        <ele>153</ele>
        <time>2011-03-10T10:29:31</time>
      </trkpt>
      <trkpt lat="44.46216" lon="1.45684">
        <ele>153</ele>
        <time>2011-03-10T10:29:32</time>
      </trkpt>
      <trkpt lat="44.46213" lon="1.45681">
        <ele>153</ele>
        <time>2011-03-10T10:29:33</time>
      </trkpt>
      <trkpt lat="44.46207" lon="1.45675">
        <ele>156</ele>
        <time>2011-03-10T10:29:44</time>
      </trkpt>
      <trkpt lat="44.46205" lon="1.45672">
        <ele>156</ele>
        <time>2011-03-10T10:29:46</time>
      </trkpt>
      <trkpt lat="44.46203" lon="1.45669">
        <ele>156</ele>
        <time>2011-03-10T10:29:48</time>
      </trkpt>
      <trkpt lat="44.46198" lon="1.45662">
        <ele>156</ele>
        <time>2011-03-10T10:29:49</time>
      </trkpt>
      <trkpt lat="44.46195" lon="1.45658">
        <ele>156</ele>
        <time>2011-03-10T10:29:50</time>
      </trkpt>
      <trkpt lat="44.46192" lon="1.45654">
        <ele>156</ele>
        <time>2011-03-10T10:29:52</time>
      </trkpt>
      <trkpt lat="44.46189" lon="1.4565">
        <ele>156</ele>
        <time>2011-03-10T10:29:53</time>
      </trkpt>
      <trkpt lat="44.46181" lon="1.45642">
        <ele>156</ele>
        <time>2011-03-10T10:29:55</time>
      </trkpt>
      <trkpt lat="44.46174" lon="1.45633">
        <ele>156</ele>
        <time>2011-03-10T10:29:56</time>
      </trkpt>
      <trkpt lat="44.46166" lon="1.45625">
        <ele>154</ele>
        <time>2011-03-10T10:29:59</time>
      </trkpt>
      <trkpt lat="44.46158" lon="1.45616">
        <ele>154</ele>
        <time>2011-03-10T10:30:01</time>
      </trkpt>
      <trkpt lat="44.46151" lon="1.45606">
        <ele>154</ele>
        <time>2011-03-10T10:30:02</time>
      </trkpt>
      <trkpt lat="44.46144" lon="1.45596">
        <ele>154</ele>
        <time>2011-03-10T10:30:05</time>
      </trkpt>
      <trkpt lat="44.46136" lon="1.45586">
        <ele>154</ele>
        <time>2011-03-10T10:30:06</time>
      </trkpt>
      <trkpt lat="44.46132" lon="1.45581">
        <ele>154</ele>
        <time>2011-03-10T10:30:08</time>
      </trkpt>
      <trkpt lat="44.46125" lon="1.45571">
        <ele>154</ele>
        <time>2011-03-10T10:30:10</time>
      </trkpt>
      <trkpt lat="44.46121" lon="1.45566">
        <ele>154</ele>
        <time>2011-03-10T10:30:11</time>
      </trkpt>
      <trkpt lat="44.46116" lon="1.45561">
        <ele>154</ele>
        <time>2011-03-10T10:30:12</time>
      </trkpt>
      <trkpt lat="44.46108" lon="1.45551">
        <ele>154</ele>
        <time>2011-03-10T10:30:14</time>
      </trkpt>
      <trkpt lat="44.46104" lon="1.45546">
        <ele>154</ele>
        <time>2011-03-10T10:30:15</time>
      </trkpt>
      <trkpt lat="44.46095" lon="1.45535">
        <ele>152</ele>
        <time>2011-03-10T10:30:17</time>
      </trkpt>
      <trkpt lat="44.46091" lon="1.4553">
        <ele>152</ele>
        <time>2011-03-10T10:30:18</time>
      </trkpt>
      <trkpt lat="44.46083" lon="1.4552">
        <ele>152</ele>
        <time>2011-03-10T10:30:20</time>
      </trkpt>
      <trkpt lat="44.46079" lon="1.45515">
        <ele>152</ele>
        <time>2011-03-10T10:30:21</time>
      </trkpt>
      <trkpt lat="44.46072" lon="1.45506">
        <ele>152</ele>
        <time>2011-03-10T10:30:23</time>
      </trkpt>
      <trkpt lat="44.46068" lon="1.45502">
        <ele>152</ele>
        <time>2011-03-10T10:30:24</time>
      </trkpt>
      <trkpt lat="44.4606" lon="1.45493">
        <ele>152</ele>
        <time>2011-03-10T10:30:26</time>
      </trkpt>
      <trkpt lat="44.46057" lon="1.45488">
        <ele>152</ele>
        <time>2011-03-10T10:30:27</time>
      </trkpt>
      <trkpt lat="44.46049" lon="1.45478">
        <ele>152</ele>
        <time>2011-03-10T10:30:28</time>
      </trkpt>
      <trkpt lat="44.46045" lon="1.45473">
        <ele>152</ele>
        <time>2011-03-10T10:30:30</time>
      </trkpt>
      <trkpt lat="44.46037" lon="1.45463">
        <ele>152</ele>
        <time>2011-03-10T10:30:32</time>
      </trkpt>
      <trkpt lat="44.46033" lon="1.45458">
        <ele>152</ele>
        <time>2011-03-10T10:30:33</time>
      </trkpt>
      <trkpt lat="44.46029" lon="1.45452">
        <ele>152</ele>
        <time>2011-03-10T10:30:34</time>
      </trkpt>
      <trkpt lat="44.4602" lon="1.45442">
        <ele>152</ele>
        <time>2011-03-10T10:30:36</time>
      </trkpt>
      <trkpt lat="44.46016" lon="1.45436">
        <ele>152</ele>
        <time>2011-03-10T10:30:37</time>
      </trkpt>
      <trkpt lat="44.46007" lon="1.45425">
        <ele>152</ele>
        <time>2011-03-10T10:30:39</time>
      </trkpt>
      <trkpt lat="44.46003" lon="1.4542">
        <ele>152</ele>
        <time>2011-03-10T10:30:40</time>
      </trkpt>
      <trkpt lat="44.45994" lon="1.45408">
        <ele>152</ele>
        <time>2011-03-10T10:30:42</time>
      </trkpt>
      <trkpt lat="44.45989" lon="1.45402">
        <ele>152</ele>
        <time>2011-03-10T10:30:43</time>
      </trkpt>
      <trkpt lat="44.45979" lon="1.4539">
        <ele>152</ele>
        <time>2011-03-10T10:30:45</time>
      </trkpt>
      <trkpt lat="44.45974" lon="1.45384">
        <ele>152</ele>
        <time>2011-03-10T10:30:46</time>
      </trkpt>
      <trkpt lat="44.45964" lon="1.45371">
        <ele>149</ele>
        <time>2011-03-10T10:30:48</time>
      </trkpt>
      <trkpt lat="44.45959" lon="1.45365">
        <ele>149</ele>
        <time>2011-03-10T10:30:49</time>
      </trkpt>
      <trkpt lat="44.45949" lon="1.45353">
        <ele>150</ele>
        <time>2011-03-10T10:30:51</time>
      </trkpt>
      <trkpt lat="44.45944" lon="1.45347">
        <ele>150</ele>
        <time>2011-03-10T10:30:52</time>
      </trkpt>
      <trkpt lat="44.45933" lon="1.45335">
        <ele>150</ele>
        <time>2011-03-10T10:30:54</time>
      </trkpt>
      <trkpt lat="44.45928" lon="1.4533">
        <ele>150</ele>
        <time>2011-03-10T10:30:55</time>
      </trkpt>
      <trkpt lat="44.45923" lon="1.45325">
        <ele>150</ele>
        <time>2011-03-10T10:30:56</time>
      </trkpt>
      <trkpt lat="44.45914" lon="1.45316">
        <ele>150</ele>
        <time>2011-03-10T10:30:58</time>
      </trkpt>
      <trkpt lat="44.4591" lon="1.45311">
        <ele>150</ele>
        <time>2011-03-10T10:30:59</time>
      </trkpt>
      <trkpt lat="44.45901" lon="1.45302">
        <ele>150</ele>
        <time>2011-03-10T10:31:01</time>
      </trkpt>
      <trkpt lat="44.45898" lon="1.45298">
        <ele>150</ele>
        <time>2011-03-10T10:31:02</time>
      </trkpt>
      <trkpt lat="44.45892" lon="1.45293">
        <ele>150</ele>
        <time>2011-03-10T10:31:04</time>
      </trkpt>
      <trkpt lat="44.4589" lon="1.45291">
        <ele>148</ele>
        <time>2011-03-10T10:31:05</time>
      </trkpt>
      <trkpt lat="44.45889" lon="1.45285">
        <ele>148</ele>
        <time>2011-03-10T10:31:07</time>
      </trkpt>
      <trkpt lat="44.4589" lon="1.45279">
        <ele>148</ele>
        <time>2011-03-10T10:31:08</time>
      </trkpt>
      <trkpt lat="44.45892" lon="1.45278">
        <ele>148</ele>
        <time>2011-03-10T10:31:10</time>
      </trkpt>
      <trkpt lat="44.45894" lon="1.45276">
        <ele>148</ele>
        <time>2011-03-10T10:31:11</time>
      </trkpt>
      <trkpt lat="44.459" lon="1.45271">
        <ele>148</ele>
        <time>2011-03-10T10:31:13</time>
      </trkpt>
      <trkpt lat="44.45902" lon="1.45268">
        <ele>148</ele>
        <time>2011-03-10T10:31:14</time>
      </trkpt>
      <trkpt lat="44.45908" lon="1.45261">
        <ele>148</ele>
        <time>2011-03-10T10:31:16</time>
      </trkpt>
      <trkpt lat="44.45911" lon="1.45258">
        <ele>148</ele>
        <time>2011-03-10T10:31:17</time>
      </trkpt>
      <trkpt lat="44.45914" lon="1.45254">
        <ele>148</ele>
        <time>2011-03-10T10:31:18</time>
      </trkpt>
      <trkpt lat="44.45919" lon="1.45246">
        <ele>148</ele>
        <time>2011-03-10T10:31:20</time>
      </trkpt>
      <trkpt lat="44.45922" lon="1.45242">
        <ele>148</ele>
        <time>2011-03-10T10:31:21</time>
      </trkpt>
      <trkpt lat="44.45928" lon="1.45234">
        <ele>148</ele>
        <time>2011-03-10T10:31:23</time>
      </trkpt>
      <trkpt lat="44.45931" lon="1.4523">
        <ele>148</ele>
        <time>2011-03-10T10:31:24</time>
      </trkpt>
      <trkpt lat="44.45936" lon="1.4522">
        <ele>148</ele>
        <time>2011-03-10T10:31:26</time>
      </trkpt>
      <trkpt lat="44.45938" lon="1.45214">
        <ele>148</ele>
        <time>2011-03-10T10:31:27</time>
      </trkpt>
      <trkpt lat="44.45944" lon="1.45203">
        <ele>148</ele>
        <time>2011-03-10T10:31:29</time>
      </trkpt>
      <trkpt lat="44.45947" lon="1.45198">
        <ele>148</ele>
        <time>2011-03-10T10:31:30</time>
      </trkpt>
      <trkpt lat="44.45952" lon="1.45187">
        <ele>148</ele>
        <time>2011-03-10T10:31:32</time>
      </trkpt>
      <trkpt lat="44.45955" lon="1.45184">
        <ele>148</ele>
        <time>2011-03-10T10:31:33</time>
      </trkpt>
      <trkpt lat="44.45958" lon="1.45177">
        <ele>148</ele>
        <time>2011-03-10T10:31:35</time>
      </trkpt>
      <trkpt lat="44.45958" lon="1.45173">
        <ele>148</ele>
        <time>2011-03-10T10:31:36</time>
      </trkpt>
      <trkpt lat="44.45957" lon="1.4517">
        <ele>148</ele>
        <time>2011-03-10T10:31:37</time>
      </trkpt>
      <trkpt lat="44.45954" lon="1.45161">
        <ele>148</ele>
        <time>2011-03-10T10:31:40</time>
      </trkpt>
      <trkpt lat="44.45952" lon="1.45158">
        <ele>148</ele>
        <time>2011-03-10T10:31:42</time>
      </trkpt>
      <trkpt lat="44.45949" lon="1.45154">
        <ele>148</ele>
        <time>2011-03-10T10:31:44</time>
      </trkpt>
      <trkpt lat="44.45946" lon="1.4515">
        <ele>148</ele>
        <time>2011-03-10T10:31:46</time>
      </trkpt>
      <trkpt lat="44.45944" lon="1.45148">
        <ele>148</ele>
        <time>2011-03-10T10:31:48</time>
      </trkpt>
      <trkpt lat="44.45944" lon="1.45148">
        <ele>148</ele>
        <time>2011-03-10T10:31:59</time>
      </trkpt>
      <trkpt lat="44.45944" lon="1.45148">
        <ele>148</ele>
        <time>2011-03-10T10:32:07</time>
      </trkpt>
    </trkseg>
  </trk>
</gpx>